<?xml version="1.0" encoding="UTF-8" standalone="no" ?>
<gpx xmlns="http://www.topografix.com/GPX/1/1" xmlns:xsi="http://www.w3.org/2001/XMLSchema-instance" xsi:schemaLocation="http://www.topografix.com/GPX/1/1 http://www.topografix.com/GPX/1/1/gpx.xsd" version="1.1" creator="VisuGPX - https://www.visugpx.com">
  <metadata>
    <name>Corrençon - Grande Moucherolle</name>
    <desc><![CDATA[10 Août 2013
Par l\'Abri de l\'Ours, montée sur l\'arête Nord-Est en passant par l\'Arche naturelle. Après la Grande Moucherolle, passage sur Grande Soeur Agathe, puis le Col des Deux Soeurs]]></desc>
  </metadata>
  <trk>
    <name><![CDATA[Correncon - La Grande Moucherolle - Soeur Agathe - Col Des 2 Soeurs - Correncon ]]></name>
    <desc><![CDATA[]]></desc>
    <trkseg>
      <trkpt lat="45.03648" lon="5.53435">
        <ele>1180.2</ele>
        <time>2013-08-10T06:25:02.886Z</time>
      </trkpt>
      <trkpt lat="45.03647" lon="5.53434">
        <ele>1174.5</ele>
        <time>2013-08-10T06:25:06.952Z</time>
      </trkpt>
      <trkpt lat="45.03647" lon="5.53433">
        <ele>1171.8</ele>
        <time>2013-08-10T06:25:07.925Z</time>
      </trkpt>
      <trkpt lat="45.03647" lon="5.53432">
        <ele>1167.2</ele>
        <time>2013-08-10T06:25:08.781Z</time>
      </trkpt>
      <trkpt lat="45.03645" lon="5.53428">
        <ele>1163.6</ele>
        <time>2013-08-10T06:25:15.875Z</time>
      </trkpt>
      <trkpt lat="45.03645" lon="5.53428">
        <ele>1163.8</ele>
        <time>2013-08-10T06:25:16.854Z</time>
      </trkpt>
      <trkpt lat="45.03645" lon="5.53428">
        <ele>1164</ele>
        <time>2013-08-10T06:25:20.744Z</time>
      </trkpt>
      <trkpt lat="45.03644" lon="5.53427">
        <ele>1159.4</ele>
        <time>2013-08-10T06:25:22.743Z</time>
      </trkpt>
      <trkpt lat="45.03644" lon="5.53422">
        <ele>1151.6</ele>
        <time>2013-08-10T06:25:28.683Z</time>
      </trkpt>
      <trkpt lat="45.03644" lon="5.53422">
        <ele>1151.5</ele>
        <time>2013-08-10T06:25:29.865Z</time>
      </trkpt>
      <trkpt lat="45.03645" lon="5.53421">
        <ele>1150.2</ele>
        <time>2013-08-10T06:27:26.622Z</time>
      </trkpt>
      <trkpt lat="45.03646" lon="5.53422">
        <ele>1150.6</ele>
        <time>2013-08-10T06:27:27.657Z</time>
      </trkpt>
      <trkpt lat="45.03648" lon="5.53428">
        <ele>1151.3</ele>
        <time>2013-08-10T06:27:34.961Z</time>
      </trkpt>
      <trkpt lat="45.03648" lon="5.53428">
        <ele>1150.9</ele>
        <time>2013-08-10T06:27:35.608Z</time>
      </trkpt>
      <trkpt lat="45.03648" lon="5.53428">
        <ele>1150.8</ele>
        <time>2013-08-10T06:27:36.879Z</time>
      </trkpt>
      <trkpt lat="45.03647" lon="5.53427">
        <ele>1150.9</ele>
        <time>2013-08-10T06:27:37.851Z</time>
      </trkpt>
      <trkpt lat="45.03648" lon="5.53428">
        <ele>1150.8</ele>
        <time>2013-08-10T06:27:38.805Z</time>
      </trkpt>
      <trkpt lat="45.03649" lon="5.53428">
        <ele>1150.2</ele>
        <time>2013-08-10T06:27:39.743Z</time>
      </trkpt>
      <trkpt lat="45.03645" lon="5.53422">
        <ele>1144.8</ele>
        <time>2013-08-10T06:27:54.583Z</time>
      </trkpt>
      <trkpt lat="45.03645" lon="5.53422">
        <ele>1145.1</ele>
        <time>2013-08-10T06:27:55.875Z</time>
      </trkpt>
      <trkpt lat="45.03645" lon="5.53421">
        <ele>1143.8</ele>
        <time>2013-08-10T06:29:07.671Z</time>
      </trkpt>
      <trkpt lat="45.03644" lon="5.53421">
        <ele>1144</ele>
        <time>2013-08-10T06:29:08.907Z</time>
      </trkpt>
      <trkpt lat="45.03638" lon="5.53413">
        <ele>1143</ele>
        <time>2013-08-10T06:29:15.697Z</time>
      </trkpt>
      <trkpt lat="45.03637" lon="5.53411">
        <ele>1142.2</ele>
        <time>2013-08-10T06:29:16.708Z</time>
      </trkpt>
      <trkpt lat="45.03631" lon="5.53404">
        <ele>1142.1</ele>
        <time>2013-08-10T06:29:23.133Z</time>
      </trkpt>
      <trkpt lat="45.0363" lon="5.53404">
        <ele>1141.5</ele>
        <time>2013-08-10T06:29:23.799Z</time>
      </trkpt>
      <trkpt lat="45.03623" lon="5.53396">
        <ele>1142.2</ele>
        <time>2013-08-10T06:29:29.860Z</time>
      </trkpt>
      <trkpt lat="45.03622" lon="5.53395">
        <ele>1142.4</ele>
        <time>2013-08-10T06:29:30.841Z</time>
      </trkpt>
      <trkpt lat="45.03614" lon="5.5339">
        <ele>1142.7</ele>
        <time>2013-08-10T06:29:37.585Z</time>
      </trkpt>
      <trkpt lat="45.03612" lon="5.5339">
        <ele>1142.8</ele>
        <time>2013-08-10T06:29:38.583Z</time>
      </trkpt>
      <trkpt lat="45.03605" lon="5.53387">
        <ele>1140.8</ele>
        <time>2013-08-10T06:29:44.857Z</time>
      </trkpt>
      <trkpt lat="45.03603" lon="5.53387">
        <ele>1140.9</ele>
        <time>2013-08-10T06:29:45.843Z</time>
      </trkpt>
      <trkpt lat="45.03595" lon="5.53385">
        <ele>1140.5</ele>
        <time>2013-08-10T06:29:51.814Z</time>
      </trkpt>
      <trkpt lat="45.03594" lon="5.53384">
        <ele>1140.2</ele>
        <time>2013-08-10T06:29:52.844Z</time>
      </trkpt>
      <trkpt lat="45.03591" lon="5.53382">
        <ele>1144.9</ele>
        <time>2013-08-10T06:29:57.722Z</time>
      </trkpt>
      <trkpt lat="45.03591" lon="5.53382">
        <ele>1145</ele>
        <time>2013-08-10T06:29:58.818Z</time>
      </trkpt>
      <trkpt lat="45.03591" lon="5.53383">
        <ele>1145.3</ele>
        <time>2013-08-10T06:30:08.849Z</time>
      </trkpt>
      <trkpt lat="45.03591" lon="5.53383">
        <ele>1144.9</ele>
        <time>2013-08-10T06:30:09.846Z</time>
      </trkpt>
      <trkpt lat="45.03592" lon="5.53385">
        <ele>1143</ele>
        <time>2013-08-10T06:30:17.886Z</time>
      </trkpt>
      <trkpt lat="45.03592" lon="5.53385">
        <ele>1142.9</ele>
        <time>2013-08-10T06:30:18.907Z</time>
      </trkpt>
      <trkpt lat="45.03592" lon="5.53386">
        <ele>1143</ele>
        <time>2013-08-10T06:30:19.723Z</time>
      </trkpt>
      <trkpt lat="45.036" lon="5.53391">
        <ele>1143.7</ele>
        <time>2013-08-10T06:30:25.738Z</time>
      </trkpt>
      <trkpt lat="45.03601" lon="5.53393">
        <ele>1144.1</ele>
        <time>2013-08-10T06:30:26.891Z</time>
      </trkpt>
      <trkpt lat="45.03605" lon="5.53403">
        <ele>1143</ele>
        <time>2013-08-10T06:30:32.752Z</time>
      </trkpt>
      <trkpt lat="45.03605" lon="5.53404">
        <ele>1142.8</ele>
        <time>2013-08-10T06:30:33.684Z</time>
      </trkpt>
      <trkpt lat="45.03605" lon="5.53416">
        <ele>1145.4</ele>
        <time>2013-08-10T06:30:38.665Z</time>
      </trkpt>
      <trkpt lat="45.03605" lon="5.53417">
        <ele>1145.6</ele>
        <time>2013-08-10T06:30:39.678Z</time>
      </trkpt>
      <trkpt lat="45.03602" lon="5.53428">
        <ele>1147.4</ele>
        <time>2013-08-10T06:30:46.666Z</time>
      </trkpt>
      <trkpt lat="45.03601" lon="5.53431">
        <ele>1148.1</ele>
        <time>2013-08-10T06:30:48.791Z</time>
      </trkpt>
      <trkpt lat="45.03594" lon="5.53437">
        <ele>1147.6</ele>
        <time>2013-08-10T06:30:55.722Z</time>
      </trkpt>
      <trkpt lat="45.03593" lon="5.53437">
        <ele>1147.5</ele>
        <time>2013-08-10T06:30:56.708Z</time>
      </trkpt>
      <trkpt lat="45.03586" lon="5.53442">
        <ele>1146.3</ele>
        <time>2013-08-10T06:31:05.839Z</time>
      </trkpt>
      <trkpt lat="45.03584" lon="5.53444">
        <ele>1146.4</ele>
        <time>2013-08-10T06:31:06.823Z</time>
      </trkpt>
      <trkpt lat="45.03577" lon="5.5345">
        <ele>1146.5</ele>
        <time>2013-08-10T06:31:10.954Z</time>
      </trkpt>
      <trkpt lat="45.03576" lon="5.53451">
        <ele>1146.9</ele>
        <time>2013-08-10T06:31:13.746Z</time>
      </trkpt>
      <trkpt lat="45.03569" lon="5.53458">
        <ele>1149.4</ele>
        <time>2013-08-10T06:31:20.875Z</time>
      </trkpt>
      <trkpt lat="45.03568" lon="5.5346">
        <ele>1149.5</ele>
        <time>2013-08-10T06:31:21.763Z</time>
      </trkpt>
      <trkpt lat="45.03562" lon="5.53468">
        <ele>1151.9</ele>
        <time>2013-08-10T06:31:29.792Z</time>
      </trkpt>
      <trkpt lat="45.0356" lon="5.53469">
        <ele>1151.8</ele>
        <time>2013-08-10T06:31:30.799Z</time>
      </trkpt>
      <trkpt lat="45.03554" lon="5.53476">
        <ele>1152.2</ele>
        <time>2013-08-10T06:31:36.782Z</time>
      </trkpt>
      <trkpt lat="45.03553" lon="5.53477">
        <ele>1153</ele>
        <time>2013-08-10T06:31:37.798Z</time>
      </trkpt>
      <trkpt lat="45.03547" lon="5.53485">
        <ele>1153.9</ele>
        <time>2013-08-10T06:31:43.709Z</time>
      </trkpt>
      <trkpt lat="45.03546" lon="5.53486">
        <ele>1154.3</ele>
        <time>2013-08-10T06:31:44.707Z</time>
      </trkpt>
      <trkpt lat="45.03541" lon="5.53494">
        <ele>1156.4</ele>
        <time>2013-08-10T06:31:51.157Z</time>
      </trkpt>
      <trkpt lat="45.0354" lon="5.53496">
        <ele>1156.7</ele>
        <time>2013-08-10T06:31:52.102Z</time>
      </trkpt>
      <trkpt lat="45.03534" lon="5.53504">
        <ele>1157.9</ele>
        <time>2013-08-10T06:32:03.830Z</time>
      </trkpt>
      <trkpt lat="45.03534" lon="5.53504">
        <ele>1157.5</ele>
        <time>2013-08-10T06:32:04.652Z</time>
      </trkpt>
      <trkpt lat="45.03534" lon="5.53504">
        <ele>1157.5</ele>
        <time>2013-08-10T06:32:05.607Z</time>
      </trkpt>
      <trkpt lat="45.03528" lon="5.53513">
        <ele>1155.6</ele>
        <time>2013-08-10T06:32:11.644Z</time>
      </trkpt>
      <trkpt lat="45.03527" lon="5.53515">
        <ele>1155.1</ele>
        <time>2013-08-10T06:32:12.606Z</time>
      </trkpt>
      <trkpt lat="45.03521" lon="5.53524">
        <ele>1157.6</ele>
        <time>2013-08-10T06:32:18.027Z</time>
      </trkpt>
      <trkpt lat="45.03521" lon="5.53526">
        <ele>1160.4</ele>
        <time>2013-08-10T06:32:18.631Z</time>
      </trkpt>
      <trkpt lat="45.03519" lon="5.53537">
        <ele>1160.3</ele>
        <time>2013-08-10T06:32:22.735Z</time>
      </trkpt>
      <trkpt lat="45.03519" lon="5.5354">
        <ele>1161.6</ele>
        <time>2013-08-10T06:32:23.718Z</time>
      </trkpt>
      <trkpt lat="45.0352" lon="5.5355">
        <ele>1165.2</ele>
        <time>2013-08-10T06:32:27.905Z</time>
      </trkpt>
      <trkpt lat="45.0352" lon="5.53552">
        <ele>1164.7</ele>
        <time>2013-08-10T06:32:28.800Z</time>
      </trkpt>
      <trkpt lat="45.0352" lon="5.53565">
        <ele>1166.7</ele>
        <time>2013-08-10T06:32:34.802Z</time>
      </trkpt>
      <trkpt lat="45.03519" lon="5.53567">
        <ele>1167.7</ele>
        <time>2013-08-10T06:32:35.733Z</time>
      </trkpt>
      <trkpt lat="45.03517" lon="5.53579">
        <ele>1166.8</ele>
        <time>2013-08-10T06:32:41.652Z</time>
      </trkpt>
      <trkpt lat="45.03518" lon="5.5358">
        <ele>1166.6</ele>
        <time>2013-08-10T06:32:42.916Z</time>
      </trkpt>
      <trkpt lat="45.0352" lon="5.53591">
        <ele>1170</ele>
        <time>2013-08-10T06:32:49.698Z</time>
      </trkpt>
      <trkpt lat="45.03521" lon="5.53593">
        <ele>1170</ele>
        <time>2013-08-10T06:32:50.685Z</time>
      </trkpt>
      <trkpt lat="45.03527" lon="5.536">
        <ele>1170.5</ele>
        <time>2013-08-10T06:32:55.729Z</time>
      </trkpt>
      <trkpt lat="45.03528" lon="5.53602">
        <ele>1170.2</ele>
        <time>2013-08-10T06:32:56.640Z</time>
      </trkpt>
      <trkpt lat="45.03531" lon="5.53613">
        <ele>1172.9</ele>
        <time>2013-08-10T06:33:06.707Z</time>
      </trkpt>
      <trkpt lat="45.03531" lon="5.53614">
        <ele>1172.6</ele>
        <time>2013-08-10T06:33:07.846Z</time>
      </trkpt>
      <trkpt lat="45.03535" lon="5.53623">
        <ele>1174.7</ele>
        <time>2013-08-10T06:33:14.805Z</time>
      </trkpt>
      <trkpt lat="45.03536" lon="5.53625">
        <ele>1175</ele>
        <time>2013-08-10T06:33:15.758Z</time>
      </trkpt>
      <trkpt lat="45.03542" lon="5.53633">
        <ele>1177.4</ele>
        <time>2013-08-10T06:33:21.685Z</time>
      </trkpt>
      <trkpt lat="45.03543" lon="5.53634">
        <ele>1177.5</ele>
        <time>2013-08-10T06:33:22.860Z</time>
      </trkpt>
      <trkpt lat="45.03548" lon="5.53644">
        <ele>1178.6</ele>
        <time>2013-08-10T06:33:30.711Z</time>
      </trkpt>
      <trkpt lat="45.03549" lon="5.53646">
        <ele>1178.7</ele>
        <time>2013-08-10T06:33:31.779Z</time>
      </trkpt>
      <trkpt lat="45.03554" lon="5.53655">
        <ele>1180.5</ele>
        <time>2013-08-10T06:33:38.811Z</time>
      </trkpt>
      <trkpt lat="45.03554" lon="5.53657">
        <ele>1180.8</ele>
        <time>2013-08-10T06:33:39.791Z</time>
      </trkpt>
      <trkpt lat="45.03559" lon="5.53668">
        <ele>1182.5</ele>
        <time>2013-08-10T06:33:47.791Z</time>
      </trkpt>
      <trkpt lat="45.03559" lon="5.53669">
        <ele>1182.4</ele>
        <time>2013-08-10T06:33:47.895Z</time>
      </trkpt>
      <trkpt lat="45.03562" lon="5.53679">
        <ele>1185</ele>
        <time>2013-08-10T06:33:54.678Z</time>
      </trkpt>
      <trkpt lat="45.03563" lon="5.5368">
        <ele>1185.6</ele>
        <time>2013-08-10T06:33:55.663Z</time>
      </trkpt>
      <trkpt lat="45.03566" lon="5.53692">
        <ele>1187.7</ele>
        <time>2013-08-10T06:34:03.859Z</time>
      </trkpt>
      <trkpt lat="45.03566" lon="5.53693">
        <ele>1188.1</ele>
        <time>2013-08-10T06:34:04.842Z</time>
      </trkpt>
      <trkpt lat="45.03567" lon="5.53705">
        <ele>1194.1</ele>
        <time>2013-08-10T06:34:15.752Z</time>
      </trkpt>
      <trkpt lat="45.03567" lon="5.53706">
        <ele>1195.6</ele>
        <time>2013-08-10T06:34:16.714Z</time>
      </trkpt>
      <trkpt lat="45.03565" lon="5.53717">
        <ele>1198.1</ele>
        <time>2013-08-10T06:34:22.712Z</time>
      </trkpt>
      <trkpt lat="45.03564" lon="5.53719">
        <ele>1198.2</ele>
        <time>2013-08-10T06:34:23.689Z</time>
      </trkpt>
      <trkpt lat="45.03562" lon="5.5373">
        <ele>1198</ele>
        <time>2013-08-10T06:34:30.712Z</time>
      </trkpt>
      <trkpt lat="45.03561" lon="5.53731">
        <ele>1198.2</ele>
        <time>2013-08-10T06:34:31.783Z</time>
      </trkpt>
      <trkpt lat="45.03561" lon="5.53743">
        <ele>1200.4</ele>
        <time>2013-08-10T06:34:39.880Z</time>
      </trkpt>
      <trkpt lat="45.03562" lon="5.53745">
        <ele>1201.1</ele>
        <time>2013-08-10T06:34:40.712Z</time>
      </trkpt>
      <trkpt lat="45.03566" lon="5.53755">
        <ele>1205</ele>
        <time>2013-08-10T06:34:46.733Z</time>
      </trkpt>
      <trkpt lat="45.03567" lon="5.53755">
        <ele>1205.3</ele>
        <time>2013-08-10T06:34:47.737Z</time>
      </trkpt>
      <trkpt lat="45.03575" lon="5.53756">
        <ele>1204.1</ele>
        <time>2013-08-10T06:34:54.871Z</time>
      </trkpt>
      <trkpt lat="45.03576" lon="5.53756">
        <ele>1204.4</ele>
        <time>2013-08-10T06:34:55.851Z</time>
      </trkpt>
      <trkpt lat="45.03584" lon="5.5376">
        <ele>1202.2</ele>
        <time>2013-08-10T06:35:02.649Z</time>
      </trkpt>
      <trkpt lat="45.03585" lon="5.53761">
        <ele>1202.7</ele>
        <time>2013-08-10T06:35:03.623Z</time>
      </trkpt>
      <trkpt lat="45.03591" lon="5.53771">
        <ele>1200.6</ele>
        <time>2013-08-10T06:35:14.820Z</time>
      </trkpt>
      <trkpt lat="45.03591" lon="5.53772">
        <ele>1201</ele>
        <time>2013-08-10T06:35:15.768Z</time>
      </trkpt>
      <trkpt lat="45.03596" lon="5.53781">
        <ele>1202.2</ele>
        <time>2013-08-10T06:35:23.685Z</time>
      </trkpt>
      <trkpt lat="45.03597" lon="5.53783">
        <ele>1203.4</ele>
        <time>2013-08-10T06:35:24.696Z</time>
      </trkpt>
      <trkpt lat="45.03595" lon="5.53795">
        <ele>1208.5</ele>
        <time>2013-08-10T06:35:32.774Z</time>
      </trkpt>
      <trkpt lat="45.03594" lon="5.53796">
        <ele>1209</ele>
        <time>2013-08-10T06:35:33.846Z</time>
      </trkpt>
      <trkpt lat="45.03589" lon="5.53806">
        <ele>1210.7</ele>
        <time>2013-08-10T06:35:42.632Z</time>
      </trkpt>
      <trkpt lat="45.03588" lon="5.53807">
        <ele>1211.3</ele>
        <time>2013-08-10T06:35:43.861Z</time>
      </trkpt>
      <trkpt lat="45.03582" lon="5.53814">
        <ele>1213</ele>
        <time>2013-08-10T06:35:51.736Z</time>
      </trkpt>
      <trkpt lat="45.03581" lon="5.53814">
        <ele>1213.8</ele>
        <time>2013-08-10T06:35:52.711Z</time>
      </trkpt>
      <trkpt lat="45.03573" lon="5.53813">
        <ele>1213.6</ele>
        <time>2013-08-10T06:35:59.718Z</time>
      </trkpt>
      <trkpt lat="45.03571" lon="5.53813">
        <ele>1212.6</ele>
        <time>2013-08-10T06:36:00.707Z</time>
      </trkpt>
      <trkpt lat="45.03563" lon="5.53812">
        <ele>1212.6</ele>
        <time>2013-08-10T06:36:07.725Z</time>
      </trkpt>
      <trkpt lat="45.03562" lon="5.53812">
        <ele>1212.3</ele>
        <time>2013-08-10T06:36:08.676Z</time>
      </trkpt>
      <trkpt lat="45.03554" lon="5.53811">
        <ele>1212.2</ele>
        <time>2013-08-10T06:36:13.724Z</time>
      </trkpt>
      <trkpt lat="45.03553" lon="5.53811">
        <ele>1213.3</ele>
        <time>2013-08-10T06:36:14.689Z</time>
      </trkpt>
      <trkpt lat="45.03545" lon="5.53811">
        <ele>1215.9</ele>
        <time>2013-08-10T06:36:19.715Z</time>
      </trkpt>
      <trkpt lat="45.03543" lon="5.5381">
        <ele>1215.7</ele>
        <time>2013-08-10T06:36:20.729Z</time>
      </trkpt>
      <trkpt lat="45.03534" lon="5.53809">
        <ele>1217.2</ele>
        <time>2013-08-10T06:36:29.723Z</time>
      </trkpt>
      <trkpt lat="45.03534" lon="5.53809">
        <ele>1217.2</ele>
        <time>2013-08-10T06:36:30.720Z</time>
      </trkpt>
      <trkpt lat="45.03526" lon="5.53806">
        <ele>1218.5</ele>
        <time>2013-08-10T06:36:38.886Z</time>
      </trkpt>
      <trkpt lat="45.03525" lon="5.53806">
        <ele>1218.1</ele>
        <time>2013-08-10T06:36:39.732Z</time>
      </trkpt>
      <trkpt lat="45.03516" lon="5.53807">
        <ele>1219.5</ele>
        <time>2013-08-10T06:36:45.725Z</time>
      </trkpt>
      <trkpt lat="45.03515" lon="5.53808">
        <ele>1220.7</ele>
        <time>2013-08-10T06:36:46.748Z</time>
      </trkpt>
      <trkpt lat="45.03507" lon="5.5381">
        <ele>1223.8</ele>
        <time>2013-08-10T06:36:53.721Z</time>
      </trkpt>
      <trkpt lat="45.03506" lon="5.53811">
        <ele>1224.2</ele>
        <time>2013-08-10T06:36:54.720Z</time>
      </trkpt>
      <trkpt lat="45.03497" lon="5.5381">
        <ele>1227.6</ele>
        <time>2013-08-10T06:37:04.840Z</time>
      </trkpt>
      <trkpt lat="45.03496" lon="5.5381">
        <ele>1228.3</ele>
        <time>2013-08-10T06:37:05.691Z</time>
      </trkpt>
      <trkpt lat="45.03488" lon="5.53808">
        <ele>1232</ele>
        <time>2013-08-10T06:37:13.801Z</time>
      </trkpt>
      <trkpt lat="45.03487" lon="5.53809">
        <ele>1232.4</ele>
        <time>2013-08-10T06:37:14.765Z</time>
      </trkpt>
      <trkpt lat="45.03478" lon="5.53807">
        <ele>1238.6</ele>
        <time>2013-08-10T06:37:26.714Z</time>
      </trkpt>
      <trkpt lat="45.03477" lon="5.53807">
        <ele>1238.3</ele>
        <time>2013-08-10T06:37:27.809Z</time>
      </trkpt>
      <trkpt lat="45.03469" lon="5.53803">
        <ele>1239.1</ele>
        <time>2013-08-10T06:37:34.799Z</time>
      </trkpt>
      <trkpt lat="45.03468" lon="5.53803">
        <ele>1239.5</ele>
        <time>2013-08-10T06:37:35.855Z</time>
      </trkpt>
      <trkpt lat="45.0346" lon="5.53798">
        <ele>1240.3</ele>
        <time>2013-08-10T06:37:44.719Z</time>
      </trkpt>
      <trkpt lat="45.0346" lon="5.53798">
        <ele>1240.4</ele>
        <time>2013-08-10T06:37:45.691Z</time>
      </trkpt>
      <trkpt lat="45.03457" lon="5.53795">
        <ele>1239.8</ele>
        <time>2013-08-10T06:37:52.845Z</time>
      </trkpt>
      <trkpt lat="45.03457" lon="5.53795">
        <ele>1239.7</ele>
        <time>2013-08-10T06:37:53.764Z</time>
      </trkpt>
      <trkpt lat="45.03457" lon="5.53795">
        <ele>1239.6</ele>
        <time>2013-08-10T06:37:56.812Z</time>
      </trkpt>
      <trkpt lat="45.03456" lon="5.53795">
        <ele>1239.6</ele>
        <time>2013-08-10T06:37:57.879Z</time>
      </trkpt>
      <trkpt lat="45.03449" lon="5.53788">
        <ele>1239.8</ele>
        <time>2013-08-10T06:38:03.768Z</time>
      </trkpt>
      <trkpt lat="45.03448" lon="5.53787">
        <ele>1239.9</ele>
        <time>2013-08-10T06:38:04.738Z</time>
      </trkpt>
      <trkpt lat="45.0344" lon="5.53781">
        <ele>1240.9</ele>
        <time>2013-08-10T06:38:11.736Z</time>
      </trkpt>
      <trkpt lat="45.03439" lon="5.5378">
        <ele>1240.2</ele>
        <time>2013-08-10T06:38:12.718Z</time>
      </trkpt>
      <trkpt lat="45.03432" lon="5.53772">
        <ele>1240</ele>
        <time>2013-08-10T06:38:18.843Z</time>
      </trkpt>
      <trkpt lat="45.03431" lon="5.53771">
        <ele>1240.3</ele>
        <time>2013-08-10T06:38:19.717Z</time>
      </trkpt>
      <trkpt lat="45.03424" lon="5.53765">
        <ele>1241.2</ele>
        <time>2013-08-10T06:38:25.675Z</time>
      </trkpt>
      <trkpt lat="45.03423" lon="5.53765">
        <ele>1241.4</ele>
        <time>2013-08-10T06:38:26.672Z</time>
      </trkpt>
      <trkpt lat="45.03415" lon="5.53759">
        <ele>1241.6</ele>
        <time>2013-08-10T06:38:41.857Z</time>
      </trkpt>
      <trkpt lat="45.03415" lon="5.53759">
        <ele>1241.6</ele>
        <time>2013-08-10T06:38:42.845Z</time>
      </trkpt>
      <trkpt lat="45.03408" lon="5.53753">
        <ele>1246.4</ele>
        <time>2013-08-10T06:38:49.759Z</time>
      </trkpt>
      <trkpt lat="45.03407" lon="5.53752">
        <ele>1245.5</ele>
        <time>2013-08-10T06:38:50.734Z</time>
      </trkpt>
      <trkpt lat="45.03399" lon="5.53747">
        <ele>1248.5</ele>
        <time>2013-08-10T06:38:57.847Z</time>
      </trkpt>
      <trkpt lat="45.03399" lon="5.53746">
        <ele>1248.8</ele>
        <time>2013-08-10T06:38:58.853Z</time>
      </trkpt>
      <trkpt lat="45.03397" lon="5.53746">
        <ele>1249</ele>
        <time>2013-08-10T06:39:05.729Z</time>
      </trkpt>
      <trkpt lat="45.03397" lon="5.53746">
        <ele>1249</ele>
        <time>2013-08-10T06:39:06.855Z</time>
      </trkpt>
      <trkpt lat="45.03396" lon="5.53744">
        <ele>1249.6</ele>
        <time>2013-08-10T06:39:41.796Z</time>
      </trkpt>
      <trkpt lat="45.03395" lon="5.53744">
        <ele>1249.3</ele>
        <time>2013-08-10T06:39:42.793Z</time>
      </trkpt>
      <trkpt lat="45.0339" lon="5.53739">
        <ele>1250.2</ele>
        <time>2013-08-10T06:39:54.685Z</time>
      </trkpt>
      <trkpt lat="45.0339" lon="5.53739">
        <ele>1250.2</ele>
        <time>2013-08-10T06:39:55.645Z</time>
      </trkpt>
      <trkpt lat="45.03389" lon="5.53738">
        <ele>1250.6</ele>
        <time>2013-08-10T06:40:10.802Z</time>
      </trkpt>
      <trkpt lat="45.03389" lon="5.53738">
        <ele>1249.6</ele>
        <time>2013-08-10T06:40:10.899Z</time>
      </trkpt>
      <trkpt lat="45.03381" lon="5.53734">
        <ele>1249.4</ele>
        <time>2013-08-10T06:40:16.679Z</time>
      </trkpt>
      <trkpt lat="45.0338" lon="5.53733">
        <ele>1249.5</ele>
        <time>2013-08-10T06:40:17.639Z</time>
      </trkpt>
      <trkpt lat="45.03372" lon="5.53729">
        <ele>1253.9</ele>
        <time>2013-08-10T06:40:24.619Z</time>
      </trkpt>
      <trkpt lat="45.0337" lon="5.53728">
        <ele>1254.9</ele>
        <time>2013-08-10T06:40:25.601Z</time>
      </trkpt>
      <trkpt lat="45.03362" lon="5.53726">
        <ele>1258.3</ele>
        <time>2013-08-10T06:40:30.703Z</time>
      </trkpt>
      <trkpt lat="45.0336" lon="5.53725">
        <ele>1259.3</ele>
        <time>2013-08-10T06:40:31.628Z</time>
      </trkpt>
      <trkpt lat="45.03352" lon="5.53725">
        <ele>1259.2</ele>
        <time>2013-08-10T06:40:38.677Z</time>
      </trkpt>
      <trkpt lat="45.0335" lon="5.53725">
        <ele>1260.3</ele>
        <time>2013-08-10T06:40:39.688Z</time>
      </trkpt>
      <trkpt lat="45.03341" lon="5.53722">
        <ele>1263.2</ele>
        <time>2013-08-10T06:40:46.751Z</time>
      </trkpt>
      <trkpt lat="45.0334" lon="5.53722">
        <ele>1263.2</ele>
        <time>2013-08-10T06:40:47.790Z</time>
      </trkpt>
      <trkpt lat="45.03332" lon="5.53723">
        <ele>1267</ele>
        <time>2013-08-10T06:40:55.879Z</time>
      </trkpt>
      <trkpt lat="45.0333" lon="5.53723">
        <ele>1267.3</ele>
        <time>2013-08-10T06:40:56.883Z</time>
      </trkpt>
      <trkpt lat="45.03322" lon="5.53717">
        <ele>1269.8</ele>
        <time>2013-08-10T06:41:07.742Z</time>
      </trkpt>
      <trkpt lat="45.03321" lon="5.53717">
        <ele>1270.1</ele>
        <time>2013-08-10T06:41:08.685Z</time>
      </trkpt>
      <trkpt lat="45.03313" lon="5.53717">
        <ele>1271.8</ele>
        <time>2013-08-10T06:41:16.843Z</time>
      </trkpt>
      <trkpt lat="45.03311" lon="5.53717">
        <ele>1271.6</ele>
        <time>2013-08-10T06:41:17.844Z</time>
      </trkpt>
      <trkpt lat="45.03303" lon="5.53719">
        <ele>1272.1</ele>
        <time>2013-08-10T06:41:24.640Z</time>
      </trkpt>
      <trkpt lat="45.03302" lon="5.53718">
        <ele>1272.2</ele>
        <time>2013-08-10T06:41:25.631Z</time>
      </trkpt>
      <trkpt lat="45.03294" lon="5.53718">
        <ele>1273.5</ele>
        <time>2013-08-10T06:41:36.700Z</time>
      </trkpt>
      <trkpt lat="45.03293" lon="5.53718">
        <ele>1273.4</ele>
        <time>2013-08-10T06:41:37.652Z</time>
      </trkpt>
      <trkpt lat="45.03292" lon="5.53718">
        <ele>1273.6</ele>
        <time>2013-08-10T06:41:40.865Z</time>
      </trkpt>
      <trkpt lat="45.03292" lon="5.53718">
        <ele>1273.5</ele>
        <time>2013-08-10T06:41:41.830Z</time>
      </trkpt>
      <trkpt lat="45.03292" lon="5.53718">
        <ele>1273.2</ele>
        <time>2013-08-10T06:41:50.689Z</time>
      </trkpt>
      <trkpt lat="45.03291" lon="5.53718">
        <ele>1273.3</ele>
        <time>2013-08-10T06:41:51.646Z</time>
      </trkpt>
      <trkpt lat="45.03283" lon="5.53719">
        <ele>1273.8</ele>
        <time>2013-08-10T06:41:56.686Z</time>
      </trkpt>
      <trkpt lat="45.03282" lon="5.53719">
        <ele>1273.6</ele>
        <time>2013-08-10T06:41:57.756Z</time>
      </trkpt>
      <trkpt lat="45.03273" lon="5.53719">
        <ele>1273.1</ele>
        <time>2013-08-10T06:42:01.745Z</time>
      </trkpt>
      <trkpt lat="45.0327" lon="5.5372">
        <ele>1273.7</ele>
        <time>2013-08-10T06:42:02.757Z</time>
      </trkpt>
      <trkpt lat="45.03262" lon="5.53722">
        <ele>1274.6</ele>
        <time>2013-08-10T06:42:05.561Z</time>
      </trkpt>
      <trkpt lat="45.0326" lon="5.53723">
        <ele>1274.5</ele>
        <time>2013-08-10T06:42:06.865Z</time>
      </trkpt>
      <trkpt lat="45.03251" lon="5.53724">
        <ele>1275.9</ele>
        <time>2013-08-10T06:42:10.268Z</time>
      </trkpt>
      <trkpt lat="45.03249" lon="5.53725">
        <ele>1276.3</ele>
        <time>2013-08-10T06:42:11.268Z</time>
      </trkpt>
      <trkpt lat="45.03241" lon="5.53729">
        <ele>1277.5</ele>
        <time>2013-08-10T06:42:20.666Z</time>
      </trkpt>
      <trkpt lat="45.0324" lon="5.53729">
        <ele>1277.4</ele>
        <time>2013-08-10T06:42:21.618Z</time>
      </trkpt>
      <trkpt lat="45.03232" lon="5.53727">
        <ele>1277.1</ele>
        <time>2013-08-10T06:42:27.865Z</time>
      </trkpt>
      <trkpt lat="45.0323" lon="5.53728">
        <ele>1278.1</ele>
        <time>2013-08-10T06:42:28.844Z</time>
      </trkpt>
      <trkpt lat="45.03223" lon="5.53732">
        <ele>1280.3</ele>
        <time>2013-08-10T06:42:36.618Z</time>
      </trkpt>
      <trkpt lat="45.03222" lon="5.53733">
        <ele>1280.7</ele>
        <time>2013-08-10T06:42:37.738Z</time>
      </trkpt>
      <trkpt lat="45.03219" lon="5.53735">
        <ele>1282.3</ele>
        <time>2013-08-10T06:42:45.631Z</time>
      </trkpt>
      <trkpt lat="45.03219" lon="5.53735">
        <ele>1282.2</ele>
        <time>2013-08-10T06:42:46.742Z</time>
      </trkpt>
      <trkpt lat="45.03218" lon="5.53735">
        <ele>1282.2</ele>
        <time>2013-08-10T06:42:51.793Z</time>
      </trkpt>
      <trkpt lat="45.03217" lon="5.53735">
        <ele>1282.2</ele>
        <time>2013-08-10T06:42:52.869Z</time>
      </trkpt>
      <trkpt lat="45.0321" lon="5.53738">
        <ele>1281.8</ele>
        <time>2013-08-10T06:42:56.736Z</time>
      </trkpt>
      <trkpt lat="45.03208" lon="5.53739">
        <ele>1281.8</ele>
        <time>2013-08-10T06:42:57.742Z</time>
      </trkpt>
      <trkpt lat="45.03201" lon="5.53742">
        <ele>1283</ele>
        <time>2013-08-10T06:43:00.729Z</time>
      </trkpt>
      <trkpt lat="45.03199" lon="5.53743">
        <ele>1283.1</ele>
        <time>2013-08-10T06:43:01.734Z</time>
      </trkpt>
      <trkpt lat="45.03192" lon="5.53747">
        <ele>1283.5</ele>
        <time>2013-08-10T06:43:05.850Z</time>
      </trkpt>
      <trkpt lat="45.0319" lon="5.53747">
        <ele>1284.3</ele>
        <time>2013-08-10T06:43:06.872Z</time>
      </trkpt>
      <trkpt lat="45.03182" lon="5.5375">
        <ele>1285.4</ele>
        <time>2013-08-10T06:43:12.673Z</time>
      </trkpt>
      <trkpt lat="45.0318" lon="5.5375">
        <ele>1284.5</ele>
        <time>2013-08-10T06:43:13.631Z</time>
      </trkpt>
      <trkpt lat="45.03172" lon="5.5375">
        <ele>1285</ele>
        <time>2013-08-10T06:43:19.755Z</time>
      </trkpt>
      <trkpt lat="45.03171" lon="5.5375">
        <ele>1285.3</ele>
        <time>2013-08-10T06:43:20.726Z</time>
      </trkpt>
      <trkpt lat="45.03163" lon="5.5375">
        <ele>1284.6</ele>
        <time>2013-08-10T06:43:27.756Z</time>
      </trkpt>
      <trkpt lat="45.03161" lon="5.5375">
        <ele>1284.3</ele>
        <time>2013-08-10T06:43:28.786Z</time>
      </trkpt>
      <trkpt lat="45.03153" lon="5.53749">
        <ele>1285.4</ele>
        <time>2013-08-10T06:43:34.764Z</time>
      </trkpt>
      <trkpt lat="45.03152" lon="5.53748">
        <ele>1286.9</ele>
        <time>2013-08-10T06:43:35.847Z</time>
      </trkpt>
      <trkpt lat="45.03143" lon="5.5375">
        <ele>1289.2</ele>
        <time>2013-08-10T06:43:40.675Z</time>
      </trkpt>
      <trkpt lat="45.03142" lon="5.5375">
        <ele>1288.8</ele>
        <time>2013-08-10T06:43:41.786Z</time>
      </trkpt>
      <trkpt lat="45.03134" lon="5.53754">
        <ele>1292.1</ele>
        <time>2013-08-10T06:43:49.685Z</time>
      </trkpt>
      <trkpt lat="45.03132" lon="5.53755">
        <ele>1292.4</ele>
        <time>2013-08-10T06:43:50.845Z</time>
      </trkpt>
      <trkpt lat="45.03124" lon="5.53758">
        <ele>1293.2</ele>
        <time>2013-08-10T06:43:58.672Z</time>
      </trkpt>
      <trkpt lat="45.03123" lon="5.53758">
        <ele>1293.5</ele>
        <time>2013-08-10T06:44:00.238Z</time>
      </trkpt>
      <trkpt lat="45.03115" lon="5.53761">
        <ele>1294.9</ele>
        <time>2013-08-10T06:44:05.804Z</time>
      </trkpt>
      <trkpt lat="45.03114" lon="5.53762">
        <ele>1294.7</ele>
        <time>2013-08-10T06:44:06.812Z</time>
      </trkpt>
      <trkpt lat="45.03105" lon="5.53766">
        <ele>1295.1</ele>
        <time>2013-08-10T06:44:14.845Z</time>
      </trkpt>
      <trkpt lat="45.03105" lon="5.53767">
        <ele>1294.4</ele>
        <time>2013-08-10T06:44:15.690Z</time>
      </trkpt>
      <trkpt lat="45.03096" lon="5.53767">
        <ele>1299.1</ele>
        <time>2013-08-10T06:44:26.649Z</time>
      </trkpt>
      <trkpt lat="45.03095" lon="5.53767">
        <ele>1300.1</ele>
        <time>2013-08-10T06:44:27.788Z</time>
      </trkpt>
      <trkpt lat="45.03087" lon="5.5377">
        <ele>1299.7</ele>
        <time>2013-08-10T06:44:33.825Z</time>
      </trkpt>
      <trkpt lat="45.03086" lon="5.5377">
        <ele>1300.2</ele>
        <time>2013-08-10T06:44:34.411Z</time>
      </trkpt>
      <trkpt lat="45.03078" lon="5.53771">
        <ele>1299.8</ele>
        <time>2013-08-10T06:44:39.678Z</time>
      </trkpt>
      <trkpt lat="45.03077" lon="5.5377">
        <ele>1300</ele>
        <time>2013-08-10T06:44:40.728Z</time>
      </trkpt>
      <trkpt lat="45.03068" lon="5.53771">
        <ele>1303.1</ele>
        <time>2013-08-10T06:44:49.756Z</time>
      </trkpt>
      <trkpt lat="45.03067" lon="5.53771">
        <ele>1303.2</ele>
        <time>2013-08-10T06:44:50.733Z</time>
      </trkpt>
      <trkpt lat="45.03058" lon="5.53773">
        <ele>1305.5</ele>
        <time>2013-08-10T06:44:57.845Z</time>
      </trkpt>
      <trkpt lat="45.03057" lon="5.53773">
        <ele>1305.4</ele>
        <time>2013-08-10T06:44:58.845Z</time>
      </trkpt>
      <trkpt lat="45.03048" lon="5.53777">
        <ele>1306.2</ele>
        <time>2013-08-10T06:45:09.683Z</time>
      </trkpt>
      <trkpt lat="45.03047" lon="5.53778">
        <ele>1306.6</ele>
        <time>2013-08-10T06:45:10.669Z</time>
      </trkpt>
      <trkpt lat="45.03039" lon="5.53779">
        <ele>1307.3</ele>
        <time>2013-08-10T06:45:17.848Z</time>
      </trkpt>
      <trkpt lat="45.03037" lon="5.53779">
        <ele>1307.6</ele>
        <time>2013-08-10T06:45:18.608Z</time>
      </trkpt>
      <trkpt lat="45.03029" lon="5.53782">
        <ele>1310.1</ele>
        <time>2013-08-10T06:45:25.673Z</time>
      </trkpt>
      <trkpt lat="45.03027" lon="5.53782">
        <ele>1310.5</ele>
        <time>2013-08-10T06:45:26.737Z</time>
      </trkpt>
      <trkpt lat="45.03019" lon="5.53784">
        <ele>1310.4</ele>
        <time>2013-08-10T06:45:34.053Z</time>
      </trkpt>
      <trkpt lat="45.03018" lon="5.53785">
        <ele>1310.3</ele>
        <time>2013-08-10T06:45:34.706Z</time>
      </trkpt>
      <trkpt lat="45.0301" lon="5.53789">
        <ele>1310.6</ele>
        <time>2013-08-10T06:45:39.699Z</time>
      </trkpt>
      <trkpt lat="45.03009" lon="5.5379">
        <ele>1310.5</ele>
        <time>2013-08-10T06:45:40.697Z</time>
      </trkpt>
      <trkpt lat="45.03001" lon="5.53794">
        <ele>1311.1</ele>
        <time>2013-08-10T06:45:46.779Z</time>
      </trkpt>
      <trkpt lat="45.03" lon="5.53795">
        <ele>1310.7</ele>
        <time>2013-08-10T06:45:47.800Z</time>
      </trkpt>
      <trkpt lat="45.02994" lon="5.53801">
        <ele>1310.7</ele>
        <time>2013-08-10T06:45:54.735Z</time>
      </trkpt>
      <trkpt lat="45.02993" lon="5.53802">
        <ele>1311.7</ele>
        <time>2013-08-10T06:45:55.694Z</time>
      </trkpt>
      <trkpt lat="45.02988" lon="5.53813">
        <ele>1311.6</ele>
        <time>2013-08-10T06:46:01.981Z</time>
      </trkpt>
      <trkpt lat="45.02987" lon="5.53814">
        <ele>1310.9</ele>
        <time>2013-08-10T06:46:02.758Z</time>
      </trkpt>
      <trkpt lat="45.0298" lon="5.53819">
        <ele>1312.1</ele>
        <time>2013-08-10T06:46:09.726Z</time>
      </trkpt>
      <trkpt lat="45.02979" lon="5.5382">
        <ele>1311.9</ele>
        <time>2013-08-10T06:46:10.760Z</time>
      </trkpt>
      <trkpt lat="45.02973" lon="5.53828">
        <ele>1314.1</ele>
        <time>2013-08-10T06:46:18.838Z</time>
      </trkpt>
      <trkpt lat="45.02973" lon="5.5383">
        <ele>1313.3</ele>
        <time>2013-08-10T06:46:19.779Z</time>
      </trkpt>
      <trkpt lat="45.02968" lon="5.53839">
        <ele>1314.8</ele>
        <time>2013-08-10T06:46:26.781Z</time>
      </trkpt>
      <trkpt lat="45.02967" lon="5.5384">
        <ele>1314</ele>
        <time>2013-08-10T06:46:27.737Z</time>
      </trkpt>
      <trkpt lat="45.02961" lon="5.53848">
        <ele>1315.3</ele>
        <time>2013-08-10T06:46:34.681Z</time>
      </trkpt>
      <trkpt lat="45.0296" lon="5.53849">
        <ele>1315.2</ele>
        <time>2013-08-10T06:46:35.860Z</time>
      </trkpt>
      <trkpt lat="45.02955" lon="5.53858">
        <ele>1316.7</ele>
        <time>2013-08-10T06:46:42.822Z</time>
      </trkpt>
      <trkpt lat="45.02954" lon="5.5386">
        <ele>1315.8</ele>
        <time>2013-08-10T06:46:44.434Z</time>
      </trkpt>
      <trkpt lat="45.02951" lon="5.5387">
        <ele>1318.7</ele>
        <time>2013-08-10T06:46:49.721Z</time>
      </trkpt>
      <trkpt lat="45.02951" lon="5.53872">
        <ele>1318.2</ele>
        <time>2013-08-10T06:46:50.718Z</time>
      </trkpt>
      <trkpt lat="45.0295" lon="5.53885">
        <ele>1322.7</ele>
        <time>2013-08-10T06:47:02.737Z</time>
      </trkpt>
      <trkpt lat="45.0295" lon="5.53885">
        <ele>1322.9</ele>
        <time>2013-08-10T06:47:02.765Z</time>
      </trkpt>
      <trkpt lat="45.0295" lon="5.53897">
        <ele>1324.7</ele>
        <time>2013-08-10T06:47:10.688Z</time>
      </trkpt>
      <trkpt lat="45.0295" lon="5.53899">
        <ele>1325.2</ele>
        <time>2013-08-10T06:47:11.701Z</time>
      </trkpt>
      <trkpt lat="45.02946" lon="5.53907">
        <ele>1328.2</ele>
        <time>2013-08-10T06:47:17.057Z</time>
      </trkpt>
      <trkpt lat="45.02945" lon="5.5391">
        <ele>1327.7</ele>
        <time>2013-08-10T06:47:18.841Z</time>
      </trkpt>
      <trkpt lat="45.02941" lon="5.5392">
        <ele>1330</ele>
        <time>2013-08-10T06:47:30.361Z</time>
      </trkpt>
      <trkpt lat="45.0294" lon="5.5392">
        <ele>1329.6</ele>
        <time>2013-08-10T06:47:31.413Z</time>
      </trkpt>
      <trkpt lat="45.02932" lon="5.53925">
        <ele>1335.4</ele>
        <time>2013-08-10T06:47:40.798Z</time>
      </trkpt>
      <trkpt lat="45.02932" lon="5.53926">
        <ele>1335.6</ele>
        <time>2013-08-10T06:47:41.849Z</time>
      </trkpt>
      <trkpt lat="45.02924" lon="5.5393">
        <ele>1343.9</ele>
        <time>2013-08-10T06:47:53.846Z</time>
      </trkpt>
      <trkpt lat="45.02923" lon="5.53931">
        <ele>1344.3</ele>
        <time>2013-08-10T06:47:54.851Z</time>
      </trkpt>
      <trkpt lat="45.02914" lon="5.53929">
        <ele>1346.8</ele>
        <time>2013-08-10T06:48:02.647Z</time>
      </trkpt>
      <trkpt lat="45.02913" lon="5.53929">
        <ele>1346.5</ele>
        <time>2013-08-10T06:48:03.623Z</time>
      </trkpt>
      <trkpt lat="45.0291" lon="5.53934">
        <ele>1349.3</ele>
        <time>2013-08-10T06:48:22.695Z</time>
      </trkpt>
      <trkpt lat="45.0291" lon="5.53934">
        <ele>1349.2</ele>
        <time>2013-08-10T06:48:23.681Z</time>
      </trkpt>
      <trkpt lat="45.0291" lon="5.53934">
        <ele>1349.4</ele>
        <time>2013-08-10T06:48:28.733Z</time>
      </trkpt>
      <trkpt lat="45.02909" lon="5.53935">
        <ele>1349.7</ele>
        <time>2013-08-10T06:48:29.695Z</time>
      </trkpt>
      <trkpt lat="45.02904" lon="5.53942">
        <ele>1359</ele>
        <time>2013-08-10T06:48:37.122Z</time>
      </trkpt>
      <trkpt lat="45.02902" lon="5.53943">
        <ele>1359.4</ele>
        <time>2013-08-10T06:48:38.837Z</time>
      </trkpt>
      <trkpt lat="45.02895" lon="5.53949">
        <ele>1360.7</ele>
        <time>2013-08-10T06:48:43.705Z</time>
      </trkpt>
      <trkpt lat="45.02894" lon="5.5395">
        <ele>1361.2</ele>
        <time>2013-08-10T06:48:44.738Z</time>
      </trkpt>
      <trkpt lat="45.02886" lon="5.53948">
        <ele>1365.2</ele>
        <time>2013-08-10T06:48:55.870Z</time>
      </trkpt>
      <trkpt lat="45.02885" lon="5.53948">
        <ele>1365</ele>
        <time>2013-08-10T06:48:56.294Z</time>
      </trkpt>
      <trkpt lat="45.02883" lon="5.53948">
        <ele>1365.1</ele>
        <time>2013-08-10T06:49:00.395Z</time>
      </trkpt>
      <trkpt lat="45.02883" lon="5.53948">
        <ele>1365</ele>
        <time>2013-08-10T06:49:01.340Z</time>
      </trkpt>
      <trkpt lat="45.02883" lon="5.53948">
        <ele>1365</ele>
        <time>2013-08-10T06:49:10.842Z</time>
      </trkpt>
      <trkpt lat="45.02882" lon="5.53948">
        <ele>1365</ele>
        <time>2013-08-10T06:49:11.668Z</time>
      </trkpt>
      <trkpt lat="45.02875" lon="5.53942">
        <ele>1364.7</ele>
        <time>2013-08-10T06:49:19.843Z</time>
      </trkpt>
      <trkpt lat="45.02874" lon="5.53942">
        <ele>1364</ele>
        <time>2013-08-10T06:49:20.562Z</time>
      </trkpt>
      <trkpt lat="45.02865" lon="5.53939">
        <ele>1360</ele>
        <time>2013-08-10T06:49:26.587Z</time>
      </trkpt>
      <trkpt lat="45.02864" lon="5.53939">
        <ele>1360.4</ele>
        <time>2013-08-10T06:49:27.435Z</time>
      </trkpt>
      <trkpt lat="45.02856" lon="5.53937">
        <ele>1360.3</ele>
        <time>2013-08-10T06:49:32.471Z</time>
      </trkpt>
      <trkpt lat="45.02854" lon="5.53936">
        <ele>1360.4</ele>
        <time>2013-08-10T06:49:33.861Z</time>
      </trkpt>
      <trkpt lat="45.02847" lon="5.53934">
        <ele>1360.8</ele>
        <time>2013-08-10T06:49:38.905Z</time>
      </trkpt>
      <trkpt lat="45.02845" lon="5.53934">
        <ele>1360.9</ele>
        <time>2013-08-10T06:49:39.851Z</time>
      </trkpt>
      <trkpt lat="45.02836" lon="5.53932">
        <ele>1364.1</ele>
        <time>2013-08-10T06:49:48.094Z</time>
      </trkpt>
      <trkpt lat="45.02835" lon="5.53931">
        <ele>1364.2</ele>
        <time>2013-08-10T06:49:49.077Z</time>
      </trkpt>
      <trkpt lat="45.02828" lon="5.53923">
        <ele>1364.2</ele>
        <time>2013-08-10T06:50:02.129Z</time>
      </trkpt>
      <trkpt lat="45.02827" lon="5.53922">
        <ele>1364.2</ele>
        <time>2013-08-10T06:50:02.981Z</time>
      </trkpt>
      <trkpt lat="45.0282" lon="5.5392">
        <ele>1364.4</ele>
        <time>2013-08-10T06:50:09.054Z</time>
      </trkpt>
      <trkpt lat="45.02818" lon="5.5392">
        <ele>1364.5</ele>
        <time>2013-08-10T06:50:10.004Z</time>
      </trkpt>
      <trkpt lat="45.0281" lon="5.53918">
        <ele>1366.1</ele>
        <time>2013-08-10T06:50:18.557Z</time>
      </trkpt>
      <trkpt lat="45.02808" lon="5.53919">
        <ele>1366.6</ele>
        <time>2013-08-10T06:50:19.445Z</time>
      </trkpt>
      <trkpt lat="45.02802" lon="5.5391">
        <ele>1367.1</ele>
        <time>2013-08-10T06:50:27.660Z</time>
      </trkpt>
      <trkpt lat="45.02801" lon="5.53909">
        <ele>1365.6</ele>
        <time>2013-08-10T06:50:28.629Z</time>
      </trkpt>
      <trkpt lat="45.02794" lon="5.53903">
        <ele>1366.7</ele>
        <time>2013-08-10T06:50:34.743Z</time>
      </trkpt>
      <trkpt lat="45.02793" lon="5.53902">
        <ele>1367.4</ele>
        <time>2013-08-10T06:50:35.724Z</time>
      </trkpt>
      <trkpt lat="45.02786" lon="5.53897">
        <ele>1370.1</ele>
        <time>2013-08-10T06:50:43.833Z</time>
      </trkpt>
      <trkpt lat="45.02785" lon="5.53896">
        <ele>1370.8</ele>
        <time>2013-08-10T06:50:44.724Z</time>
      </trkpt>
      <trkpt lat="45.02778" lon="5.53888">
        <ele>1371</ele>
        <time>2013-08-10T06:50:52.788Z</time>
      </trkpt>
      <trkpt lat="45.02777" lon="5.53888">
        <ele>1371</ele>
        <time>2013-08-10T06:50:52.881Z</time>
      </trkpt>
      <trkpt lat="45.0277" lon="5.53884">
        <ele>1368.7</ele>
        <time>2013-08-10T06:51:00.911Z</time>
      </trkpt>
      <trkpt lat="45.02769" lon="5.53882">
        <ele>1368.5</ele>
        <time>2013-08-10T06:51:01.856Z</time>
      </trkpt>
      <trkpt lat="45.02761" lon="5.53878">
        <ele>1369.7</ele>
        <time>2013-08-10T06:51:08.713Z</time>
      </trkpt>
      <trkpt lat="45.0276" lon="5.53877">
        <ele>1369.9</ele>
        <time>2013-08-10T06:51:09.657Z</time>
      </trkpt>
      <trkpt lat="45.02755" lon="5.5387">
        <ele>1371.2</ele>
        <time>2013-08-10T06:51:15.842Z</time>
      </trkpt>
      <trkpt lat="45.02754" lon="5.53869">
        <ele>1371.9</ele>
        <time>2013-08-10T06:51:16.710Z</time>
      </trkpt>
      <trkpt lat="45.02746" lon="5.53863">
        <ele>1369.5</ele>
        <time>2013-08-10T06:51:22.480Z</time>
      </trkpt>
      <trkpt lat="45.02745" lon="5.53862">
        <ele>1369.3</ele>
        <time>2013-08-10T06:51:22.688Z</time>
      </trkpt>
      <trkpt lat="45.02738" lon="5.53856">
        <ele>1370.7</ele>
        <time>2013-08-10T06:51:29.319Z</time>
      </trkpt>
      <trkpt lat="45.02737" lon="5.53855">
        <ele>1370.2</ele>
        <time>2013-08-10T06:51:30.189Z</time>
      </trkpt>
      <trkpt lat="45.02729" lon="5.53853">
        <ele>1372.8</ele>
        <time>2013-08-10T06:51:37.234Z</time>
      </trkpt>
      <trkpt lat="45.02728" lon="5.53852">
        <ele>1373.5</ele>
        <time>2013-08-10T06:51:38.270Z</time>
      </trkpt>
      <trkpt lat="45.0272" lon="5.53849">
        <ele>1376</ele>
        <time>2013-08-10T06:51:45.996Z</time>
      </trkpt>
      <trkpt lat="45.02719" lon="5.53849">
        <ele>1376.2</ele>
        <time>2013-08-10T06:51:46.701Z</time>
      </trkpt>
      <trkpt lat="45.02717" lon="5.53849">
        <ele>1376.9</ele>
        <time>2013-08-10T06:51:51.839Z</time>
      </trkpt>
      <trkpt lat="45.02717" lon="5.53849">
        <ele>1376.8</ele>
        <time>2013-08-10T06:51:52.731Z</time>
      </trkpt>
      <trkpt lat="45.02716" lon="5.53849">
        <ele>1377.5</ele>
        <time>2013-08-10T06:51:55.644Z</time>
      </trkpt>
      <trkpt lat="45.02716" lon="5.53849">
        <ele>1377.8</ele>
        <time>2013-08-10T06:51:56.633Z</time>
      </trkpt>
      <trkpt lat="45.02714" lon="5.53849">
        <ele>1378.9</ele>
        <time>2013-08-10T06:52:04.839Z</time>
      </trkpt>
      <trkpt lat="45.02713" lon="5.53849">
        <ele>1379</ele>
        <time>2013-08-10T06:52:05.842Z</time>
      </trkpt>
      <trkpt lat="45.02713" lon="5.53849">
        <ele>1379.1</ele>
        <time>2013-08-10T06:52:07.651Z</time>
      </trkpt>
      <trkpt lat="45.02713" lon="5.53849">
        <ele>1379.1</ele>
        <time>2013-08-10T06:52:08.634Z</time>
      </trkpt>
      <trkpt lat="45.02705" lon="5.53849">
        <ele>1383.5</ele>
        <time>2013-08-10T06:52:14.727Z</time>
      </trkpt>
      <trkpt lat="45.02703" lon="5.53848">
        <ele>1382.7</ele>
        <time>2013-08-10T06:52:15.690Z</time>
      </trkpt>
      <trkpt lat="45.02696" lon="5.53844">
        <ele>1383.2</ele>
        <time>2013-08-10T06:52:20.747Z</time>
      </trkpt>
      <trkpt lat="45.02695" lon="5.53843">
        <ele>1384.6</ele>
        <time>2013-08-10T06:52:21.715Z</time>
      </trkpt>
      <trkpt lat="45.02687" lon="5.53841">
        <ele>1388.9</ele>
        <time>2013-08-10T06:52:27.675Z</time>
      </trkpt>
      <trkpt lat="45.02685" lon="5.53841">
        <ele>1388.9</ele>
        <time>2013-08-10T06:52:28.746Z</time>
      </trkpt>
      <trkpt lat="45.02678" lon="5.5384">
        <ele>1390.2</ele>
        <time>2013-08-10T06:52:34.171Z</time>
      </trkpt>
      <trkpt lat="45.02676" lon="5.5384">
        <ele>1390.4</ele>
        <time>2013-08-10T06:52:35.148Z</time>
      </trkpt>
      <trkpt lat="45.02667" lon="5.53838">
        <ele>1389.8</ele>
        <time>2013-08-10T06:52:42.142Z</time>
      </trkpt>
      <trkpt lat="45.02666" lon="5.53838">
        <ele>1390.1</ele>
        <time>2013-08-10T06:52:44.860Z</time>
      </trkpt>
      <trkpt lat="45.02666" lon="5.53838">
        <ele>1390.2</ele>
        <time>2013-08-10T06:52:46.211Z</time>
      </trkpt>
      <trkpt lat="45.02666" lon="5.53838">
        <ele>1390.3</ele>
        <time>2013-08-10T06:52:49.882Z</time>
      </trkpt>
      <trkpt lat="45.02666" lon="5.53838">
        <ele>1390.6</ele>
        <time>2013-08-10T06:52:50.881Z</time>
      </trkpt>
      <trkpt lat="45.02666" lon="5.53838">
        <ele>1390.7</ele>
        <time>2013-08-10T06:52:51.720Z</time>
      </trkpt>
      <trkpt lat="45.02665" lon="5.53838">
        <ele>1390.7</ele>
        <time>2013-08-10T06:52:52.728Z</time>
      </trkpt>
      <trkpt lat="45.02665" lon="5.53838">
        <ele>1391.1</ele>
        <time>2013-08-10T06:53:08.864Z</time>
      </trkpt>
      <trkpt lat="45.02664" lon="5.53838">
        <ele>1391.2</ele>
        <time>2013-08-10T06:53:09.559Z</time>
      </trkpt>
      <trkpt lat="45.02657" lon="5.53834">
        <ele>1389</ele>
        <time>2013-08-10T06:53:14.841Z</time>
      </trkpt>
      <trkpt lat="45.02655" lon="5.53834">
        <ele>1389.2</ele>
        <time>2013-08-10T06:53:15.892Z</time>
      </trkpt>
      <trkpt lat="45.02647" lon="5.53829">
        <ele>1392.3</ele>
        <time>2013-08-10T06:53:19.726Z</time>
      </trkpt>
      <trkpt lat="45.02646" lon="5.53828">
        <ele>1392.5</ele>
        <time>2013-08-10T06:53:20.691Z</time>
      </trkpt>
      <trkpt lat="45.02638" lon="5.53822">
        <ele>1390.9</ele>
        <time>2013-08-10T06:53:24.721Z</time>
      </trkpt>
      <trkpt lat="45.02636" lon="5.53821">
        <ele>1390.1</ele>
        <time>2013-08-10T06:53:25.690Z</time>
      </trkpt>
      <trkpt lat="45.02628" lon="5.53817">
        <ele>1393.2</ele>
        <time>2013-08-10T06:53:30.783Z</time>
      </trkpt>
      <trkpt lat="45.02627" lon="5.53816">
        <ele>1392.5</ele>
        <time>2013-08-10T06:53:31.768Z</time>
      </trkpt>
      <trkpt lat="45.02618" lon="5.53813">
        <ele>1395.6</ele>
        <time>2013-08-10T06:53:39.841Z</time>
      </trkpt>
      <trkpt lat="45.02618" lon="5.53812">
        <ele>1395.9</ele>
        <time>2013-08-10T06:53:40.768Z</time>
      </trkpt>
      <trkpt lat="45.02613" lon="5.53802">
        <ele>1399</ele>
        <time>2013-08-10T06:53:48.669Z</time>
      </trkpt>
      <trkpt lat="45.02613" lon="5.538">
        <ele>1398.3</ele>
        <time>2013-08-10T06:53:49.705Z</time>
      </trkpt>
      <trkpt lat="45.02607" lon="5.53792">
        <ele>1401</ele>
        <time>2013-08-10T06:53:58.885Z</time>
      </trkpt>
      <trkpt lat="45.02605" lon="5.53791">
        <ele>1400.6</ele>
        <time>2013-08-10T06:53:59.667Z</time>
      </trkpt>
      <trkpt lat="45.02597" lon="5.53791">
        <ele>1401.1</ele>
        <time>2013-08-10T06:54:06.678Z</time>
      </trkpt>
      <trkpt lat="45.02595" lon="5.53792">
        <ele>1401.3</ele>
        <time>2013-08-10T06:54:07.715Z</time>
      </trkpt>
      <trkpt lat="45.02591" lon="5.53794">
        <ele>1402.6</ele>
        <time>2013-08-10T06:54:17.708Z</time>
      </trkpt>
      <trkpt lat="45.02591" lon="5.53794">
        <ele>1402.6</ele>
        <time>2013-08-10T06:54:18.758Z</time>
      </trkpt>
      <trkpt lat="45.0259" lon="5.53794">
        <ele>1403.1</ele>
        <time>2013-08-10T06:54:21.736Z</time>
      </trkpt>
      <trkpt lat="45.0259" lon="5.53794">
        <ele>1403.1</ele>
        <time>2013-08-10T06:54:22.724Z</time>
      </trkpt>
      <trkpt lat="45.02581" lon="5.53795">
        <ele>1404.1</ele>
        <time>2013-08-10T06:54:28.726Z</time>
      </trkpt>
      <trkpt lat="45.02579" lon="5.53796">
        <ele>1404</ele>
        <time>2013-08-10T06:54:29.803Z</time>
      </trkpt>
      <trkpt lat="45.02571" lon="5.53798">
        <ele>1405.4</ele>
        <time>2013-08-10T06:54:34.818Z</time>
      </trkpt>
      <trkpt lat="45.02569" lon="5.53798">
        <ele>1406</ele>
        <time>2013-08-10T06:54:36.231Z</time>
      </trkpt>
      <trkpt lat="45.0256" lon="5.538">
        <ele>1409.6</ele>
        <time>2013-08-10T06:54:45.646Z</time>
      </trkpt>
      <trkpt lat="45.02559" lon="5.53801">
        <ele>1409.5</ele>
        <time>2013-08-10T06:54:46.679Z</time>
      </trkpt>
      <trkpt lat="45.02552" lon="5.53806">
        <ele>1410.4</ele>
        <time>2013-08-10T06:54:53.724Z</time>
      </trkpt>
      <trkpt lat="45.02551" lon="5.53806">
        <ele>1410.3</ele>
        <time>2013-08-10T06:54:54.681Z</time>
      </trkpt>
      <trkpt lat="45.02545" lon="5.53809">
        <ele>1411.4</ele>
        <time>2013-08-10T06:55:08.247Z</time>
      </trkpt>
      <trkpt lat="45.02545" lon="5.53809">
        <ele>1411.4</ele>
        <time>2013-08-10T06:55:09.225Z</time>
      </trkpt>
      <trkpt lat="45.02544" lon="5.53809">
        <ele>1411.4</ele>
        <time>2013-08-10T06:55:14.854Z</time>
      </trkpt>
      <trkpt lat="45.02544" lon="5.53808">
        <ele>1411.5</ele>
        <time>2013-08-10T06:55:15.708Z</time>
      </trkpt>
      <trkpt lat="45.02536" lon="5.53805">
        <ele>1415.2</ele>
        <time>2013-08-10T06:55:22.897Z</time>
      </trkpt>
      <trkpt lat="45.02534" lon="5.53805">
        <ele>1415.2</ele>
        <time>2013-08-10T06:55:23.761Z</time>
      </trkpt>
      <trkpt lat="45.02526" lon="5.53802">
        <ele>1419</ele>
        <time>2013-08-10T06:55:28.676Z</time>
      </trkpt>
      <trkpt lat="45.02525" lon="5.53802">
        <ele>1419.4</ele>
        <time>2013-08-10T06:55:29.747Z</time>
      </trkpt>
      <trkpt lat="45.02517" lon="5.53797">
        <ele>1420.5</ele>
        <time>2013-08-10T06:55:34.723Z</time>
      </trkpt>
      <trkpt lat="45.02516" lon="5.53797">
        <ele>1420.6</ele>
        <time>2013-08-10T06:55:35.673Z</time>
      </trkpt>
      <trkpt lat="45.02507" lon="5.53796">
        <ele>1422.4</ele>
        <time>2013-08-10T06:55:42.416Z</time>
      </trkpt>
      <trkpt lat="45.02505" lon="5.53795">
        <ele>1422.7</ele>
        <time>2013-08-10T06:55:43.888Z</time>
      </trkpt>
      <trkpt lat="45.02497" lon="5.53797">
        <ele>1422.7</ele>
        <time>2013-08-10T06:55:54.650Z</time>
      </trkpt>
      <trkpt lat="45.02496" lon="5.53798">
        <ele>1422.1</ele>
        <time>2013-08-10T06:55:55.661Z</time>
      </trkpt>
      <trkpt lat="45.02487" lon="5.53798">
        <ele>1422.5</ele>
        <time>2013-08-10T06:56:02.084Z</time>
      </trkpt>
      <trkpt lat="45.02485" lon="5.53797">
        <ele>1423.5</ele>
        <time>2013-08-10T06:56:03.845Z</time>
      </trkpt>
      <trkpt lat="45.02478" lon="5.53801">
        <ele>1423.8</ele>
        <time>2013-08-10T06:56:09.648Z</time>
      </trkpt>
      <trkpt lat="45.02476" lon="5.53801">
        <ele>1423.3</ele>
        <time>2013-08-10T06:56:10.711Z</time>
      </trkpt>
      <trkpt lat="45.02471" lon="5.53809">
        <ele>1425.7</ele>
        <time>2013-08-10T06:56:16.653Z</time>
      </trkpt>
      <trkpt lat="45.02471" lon="5.53811">
        <ele>1426.5</ele>
        <time>2013-08-10T06:56:17.665Z</time>
      </trkpt>
      <trkpt lat="45.02468" lon="5.53823">
        <ele>1430.8</ele>
        <time>2013-08-10T06:56:24.382Z</time>
      </trkpt>
      <trkpt lat="45.02467" lon="5.53824">
        <ele>1430.8</ele>
        <time>2013-08-10T06:56:25.359Z</time>
      </trkpt>
      <trkpt lat="45.02463" lon="5.53835">
        <ele>1436.2</ele>
        <time>2013-08-10T06:56:33.752Z</time>
      </trkpt>
      <trkpt lat="45.02462" lon="5.53835">
        <ele>1436.8</ele>
        <time>2013-08-10T06:56:34.714Z</time>
      </trkpt>
      <trkpt lat="45.02454" lon="5.53835">
        <ele>1436.7</ele>
        <time>2013-08-10T06:56:46.198Z</time>
      </trkpt>
      <trkpt lat="45.02452" lon="5.53834">
        <ele>1436.8</ele>
        <time>2013-08-10T06:56:47.842Z</time>
      </trkpt>
      <trkpt lat="45.02452" lon="5.53833">
        <ele>1437.5</ele>
        <time>2013-08-10T06:56:50.713Z</time>
      </trkpt>
      <trkpt lat="45.02452" lon="5.53833">
        <ele>1437.8</ele>
        <time>2013-08-10T06:56:51.739Z</time>
      </trkpt>
      <trkpt lat="45.0245" lon="5.53834">
        <ele>1440</ele>
        <time>2013-08-10T06:57:17.849Z</time>
      </trkpt>
      <trkpt lat="45.0245" lon="5.53835">
        <ele>1440.8</ele>
        <time>2013-08-10T06:57:18.711Z</time>
      </trkpt>
      <trkpt lat="45.02442" lon="5.53839">
        <ele>1442.2</ele>
        <time>2013-08-10T06:57:23.837Z</time>
      </trkpt>
      <trkpt lat="45.02439" lon="5.5384">
        <ele>1443.3</ele>
        <time>2013-08-10T06:57:24.741Z</time>
      </trkpt>
      <trkpt lat="45.02431" lon="5.53841">
        <ele>1446.2</ele>
        <time>2013-08-10T06:57:29.712Z</time>
      </trkpt>
      <trkpt lat="45.0243" lon="5.53841">
        <ele>1446.4</ele>
        <time>2013-08-10T06:57:30.720Z</time>
      </trkpt>
      <trkpt lat="45.02422" lon="5.53843">
        <ele>1449.9</ele>
        <time>2013-08-10T06:57:40.712Z</time>
      </trkpt>
      <trkpt lat="45.02421" lon="5.53843">
        <ele>1449.7</ele>
        <time>2013-08-10T06:57:41.852Z</time>
      </trkpt>
      <trkpt lat="45.02413" lon="5.5385">
        <ele>1454.4</ele>
        <time>2013-08-10T06:57:50.705Z</time>
      </trkpt>
      <trkpt lat="45.02413" lon="5.53851">
        <ele>1455.2</ele>
        <time>2013-08-10T06:57:52.074Z</time>
      </trkpt>
      <trkpt lat="45.02404" lon="5.53853">
        <ele>1456.9</ele>
        <time>2013-08-10T06:58:11.413Z</time>
      </trkpt>
      <trkpt lat="45.02404" lon="5.53852">
        <ele>1456.8</ele>
        <time>2013-08-10T06:58:13.802Z</time>
      </trkpt>
      <trkpt lat="45.02404" lon="5.53852">
        <ele>1456.9</ele>
        <time>2013-08-10T06:58:13.868Z</time>
      </trkpt>
      <trkpt lat="45.02404" lon="5.53852">
        <ele>1456.9</ele>
        <time>2013-08-10T06:58:14.743Z</time>
      </trkpt>
      <trkpt lat="45.02404" lon="5.53852">
        <ele>1456.8</ele>
        <time>2013-08-10T06:58:15.701Z</time>
      </trkpt>
      <trkpt lat="45.02404" lon="5.53852">
        <ele>1456.8</ele>
        <time>2013-08-10T06:58:17.709Z</time>
      </trkpt>
      <trkpt lat="45.02403" lon="5.53852">
        <ele>1456.8</ele>
        <time>2013-08-10T06:58:18.791Z</time>
      </trkpt>
      <trkpt lat="45.02396" lon="5.53854">
        <ele>1455.9</ele>
        <time>2013-08-10T06:58:22.831Z</time>
      </trkpt>
      <trkpt lat="45.02394" lon="5.53855">
        <ele>1455.8</ele>
        <time>2013-08-10T06:58:23.834Z</time>
      </trkpt>
      <trkpt lat="45.02388" lon="5.53857">
        <ele>1456.4</ele>
        <time>2013-08-10T06:58:26.183Z</time>
      </trkpt>
      <trkpt lat="45.02385" lon="5.53858">
        <ele>1456.5</ele>
        <time>2013-08-10T06:58:27.851Z</time>
      </trkpt>
      <trkpt lat="45.02377" lon="5.53861">
        <ele>1457.4</ele>
        <time>2013-08-10T06:58:30.745Z</time>
      </trkpt>
      <trkpt lat="45.02375" lon="5.53863">
        <ele>1458.8</ele>
        <time>2013-08-10T06:58:31.992Z</time>
      </trkpt>
      <trkpt lat="45.02367" lon="5.53864">
        <ele>1459.6</ele>
        <time>2013-08-10T06:58:38.119Z</time>
      </trkpt>
      <trkpt lat="45.02366" lon="5.53865">
        <ele>1458.9</ele>
        <time>2013-08-10T06:58:39.843Z</time>
      </trkpt>
      <trkpt lat="45.02359" lon="5.5387">
        <ele>1459.8</ele>
        <time>2013-08-10T06:58:47.418Z</time>
      </trkpt>
      <trkpt lat="45.02358" lon="5.53871">
        <ele>1459.7</ele>
        <time>2013-08-10T06:58:48.842Z</time>
      </trkpt>
      <trkpt lat="45.02349" lon="5.53873">
        <ele>1464</ele>
        <time>2013-08-10T06:58:58.748Z</time>
      </trkpt>
      <trkpt lat="45.02348" lon="5.53873">
        <ele>1464.4</ele>
        <time>2013-08-10T06:58:59.735Z</time>
      </trkpt>
      <trkpt lat="45.02341" lon="5.53876">
        <ele>1465.7</ele>
        <time>2013-08-10T06:59:05.675Z</time>
      </trkpt>
      <trkpt lat="45.02339" lon="5.53877">
        <ele>1464.7</ele>
        <time>2013-08-10T06:59:06.686Z</time>
      </trkpt>
      <trkpt lat="45.02332" lon="5.53883">
        <ele>1465.7</ele>
        <time>2013-08-10T06:59:14.695Z</time>
      </trkpt>
      <trkpt lat="45.0233" lon="5.53884">
        <ele>1466.4</ele>
        <time>2013-08-10T06:59:15.720Z</time>
      </trkpt>
      <trkpt lat="45.02324" lon="5.53891">
        <ele>1466.8</ele>
        <time>2013-08-10T06:59:22.834Z</time>
      </trkpt>
      <trkpt lat="45.02323" lon="5.53892">
        <ele>1466.6</ele>
        <time>2013-08-10T06:59:23.843Z</time>
      </trkpt>
      <trkpt lat="45.02316" lon="5.53898">
        <ele>1465.2</ele>
        <time>2013-08-10T06:59:29.840Z</time>
      </trkpt>
      <trkpt lat="45.02315" lon="5.53899">
        <ele>1465.9</ele>
        <time>2013-08-10T06:59:30.708Z</time>
      </trkpt>
      <trkpt lat="45.02308" lon="5.53909">
        <ele>1470.1</ele>
        <time>2013-08-10T06:59:40.710Z</time>
      </trkpt>
      <trkpt lat="45.02308" lon="5.53909">
        <ele>1470.5</ele>
        <time>2013-08-10T06:59:41.718Z</time>
      </trkpt>
      <trkpt lat="45.02301" lon="5.53916">
        <ele>1474.3</ele>
        <time>2013-08-10T06:59:49.924Z</time>
      </trkpt>
      <trkpt lat="45.023" lon="5.53917">
        <ele>1474.4</ele>
        <time>2013-08-10T06:59:50.685Z</time>
      </trkpt>
      <trkpt lat="45.02293" lon="5.53922">
        <ele>1473.6</ele>
        <time>2013-08-10T06:59:56.711Z</time>
      </trkpt>
      <trkpt lat="45.02292" lon="5.53923">
        <ele>1474.2</ele>
        <time>2013-08-10T06:59:57.782Z</time>
      </trkpt>
      <trkpt lat="45.02284" lon="5.53925">
        <ele>1480</ele>
        <time>2013-08-10T07:00:05.076Z</time>
      </trkpt>
      <trkpt lat="45.02283" lon="5.53925">
        <ele>1479.3</ele>
        <time>2013-08-10T07:00:05.727Z</time>
      </trkpt>
      <trkpt lat="45.02274" lon="5.53923">
        <ele>1476.8</ele>
        <time>2013-08-10T07:00:12.885Z</time>
      </trkpt>
      <trkpt lat="45.02273" lon="5.53923">
        <ele>1475.5</ele>
        <time>2013-08-10T07:00:13.792Z</time>
      </trkpt>
      <trkpt lat="45.02265" lon="5.53919">
        <ele>1474.7</ele>
        <time>2013-08-10T07:00:19.776Z</time>
      </trkpt>
      <trkpt lat="45.02263" lon="5.53919">
        <ele>1474.5</ele>
        <time>2013-08-10T07:00:20.773Z</time>
      </trkpt>
      <trkpt lat="45.02255" lon="5.53923">
        <ele>1476.2</ele>
        <time>2013-08-10T07:00:25.643Z</time>
      </trkpt>
      <trkpt lat="45.02254" lon="5.53924">
        <ele>1476.3</ele>
        <time>2013-08-10T07:00:26.854Z</time>
      </trkpt>
      <trkpt lat="45.02245" lon="5.53927">
        <ele>1477.6</ele>
        <time>2013-08-10T07:00:34.674Z</time>
      </trkpt>
      <trkpt lat="45.02244" lon="5.53928">
        <ele>1477.5</ele>
        <time>2013-08-10T07:00:35.665Z</time>
      </trkpt>
      <trkpt lat="45.02237" lon="5.53935">
        <ele>1478.3</ele>
        <time>2013-08-10T07:00:40.712Z</time>
      </trkpt>
      <trkpt lat="45.02236" lon="5.53936">
        <ele>1477.5</ele>
        <time>2013-08-10T07:00:41.715Z</time>
      </trkpt>
      <trkpt lat="45.0223" lon="5.53944">
        <ele>1480.2</ele>
        <time>2013-08-10T07:00:48.381Z</time>
      </trkpt>
      <trkpt lat="45.02229" lon="5.53947">
        <ele>1479.4</ele>
        <time>2013-08-10T07:00:49.856Z</time>
      </trkpt>
      <trkpt lat="45.02224" lon="5.53957">
        <ele>1478.6</ele>
        <time>2013-08-10T07:00:55.419Z</time>
      </trkpt>
      <trkpt lat="45.02224" lon="5.53958">
        <ele>1478.5</ele>
        <time>2013-08-10T07:00:56.861Z</time>
      </trkpt>
      <trkpt lat="45.02223" lon="5.53969">
        <ele>1478.4</ele>
        <time>2013-08-10T07:01:03.792Z</time>
      </trkpt>
      <trkpt lat="45.02222" lon="5.53971">
        <ele>1478.9</ele>
        <time>2013-08-10T07:01:04.777Z</time>
      </trkpt>
      <trkpt lat="45.02221" lon="5.53983">
        <ele>1476.8</ele>
        <time>2013-08-10T07:01:13.848Z</time>
      </trkpt>
      <trkpt lat="45.0222" lon="5.53984">
        <ele>1477.3</ele>
        <time>2013-08-10T07:01:14.692Z</time>
      </trkpt>
      <trkpt lat="45.02218" lon="5.53995">
        <ele>1477.6</ele>
        <time>2013-08-10T07:01:26.744Z</time>
      </trkpt>
      <trkpt lat="45.02218" lon="5.53997">
        <ele>1478.1</ele>
        <time>2013-08-10T07:01:27.738Z</time>
      </trkpt>
      <trkpt lat="45.02215" lon="5.54009">
        <ele>1478.2</ele>
        <time>2013-08-10T07:01:34.163Z</time>
      </trkpt>
      <trkpt lat="45.02215" lon="5.5401">
        <ele>1479</ele>
        <time>2013-08-10T07:01:35.843Z</time>
      </trkpt>
      <trkpt lat="45.02216" lon="5.54022">
        <ele>1479.5</ele>
        <time>2013-08-10T07:01:45.310Z</time>
      </trkpt>
      <trkpt lat="45.02215" lon="5.54023">
        <ele>1479.1</ele>
        <time>2013-08-10T07:01:46.246Z</time>
      </trkpt>
      <trkpt lat="45.02213" lon="5.54034">
        <ele>1478.8</ele>
        <time>2013-08-10T07:01:57.879Z</time>
      </trkpt>
      <trkpt lat="45.02213" lon="5.54036">
        <ele>1478.9</ele>
        <time>2013-08-10T07:01:59.825Z</time>
      </trkpt>
      <trkpt lat="45.02211" lon="5.54047">
        <ele>1478</ele>
        <time>2013-08-10T07:02:08.847Z</time>
      </trkpt>
      <trkpt lat="45.0221" lon="5.54049">
        <ele>1477.9</ele>
        <time>2013-08-10T07:02:09.847Z</time>
      </trkpt>
      <trkpt lat="45.02208" lon="5.54059">
        <ele>1479.1</ele>
        <time>2013-08-10T07:02:13.742Z</time>
      </trkpt>
      <trkpt lat="45.02207" lon="5.54061">
        <ele>1478.9</ele>
        <time>2013-08-10T07:02:14.713Z</time>
      </trkpt>
      <trkpt lat="45.02202" lon="5.54071">
        <ele>1478.1</ele>
        <time>2013-08-10T07:02:21.062Z</time>
      </trkpt>
      <trkpt lat="45.02201" lon="5.54072">
        <ele>1477.8</ele>
        <time>2013-08-10T07:02:21.748Z</time>
      </trkpt>
      <trkpt lat="45.02196" lon="5.54081">
        <ele>1479.7</ele>
        <time>2013-08-10T07:02:28.849Z</time>
      </trkpt>
      <trkpt lat="45.02195" lon="5.54082">
        <ele>1479.7</ele>
        <time>2013-08-10T07:02:29.323Z</time>
      </trkpt>
      <trkpt lat="45.02187" lon="5.54087">
        <ele>1478.4</ele>
        <time>2013-08-10T07:02:36.718Z</time>
      </trkpt>
      <trkpt lat="45.02186" lon="5.54088">
        <ele>1479.8</ele>
        <time>2013-08-10T07:02:37.686Z</time>
      </trkpt>
      <trkpt lat="45.0218" lon="5.54096">
        <ele>1480.6</ele>
        <time>2013-08-10T07:02:43.734Z</time>
      </trkpt>
      <trkpt lat="45.02179" lon="5.54097">
        <ele>1481.8</ele>
        <time>2013-08-10T07:02:44.819Z</time>
      </trkpt>
      <trkpt lat="45.02174" lon="5.54108">
        <ele>1487.3</ele>
        <time>2013-08-10T07:02:54.762Z</time>
      </trkpt>
      <trkpt lat="45.02174" lon="5.54109">
        <ele>1487.2</ele>
        <time>2013-08-10T07:02:55.720Z</time>
      </trkpt>
      <trkpt lat="45.02167" lon="5.54115">
        <ele>1489.7</ele>
        <time>2013-08-10T07:03:02.855Z</time>
      </trkpt>
      <trkpt lat="45.02166" lon="5.54116">
        <ele>1489.5</ele>
        <time>2013-08-10T07:03:03.902Z</time>
      </trkpt>
      <trkpt lat="45.02158" lon="5.54122">
        <ele>1490.9</ele>
        <time>2013-08-10T07:03:10.675Z</time>
      </trkpt>
      <trkpt lat="45.02157" lon="5.54124">
        <ele>1491.4</ele>
        <time>2013-08-10T07:03:11.778Z</time>
      </trkpt>
      <trkpt lat="45.02151" lon="5.54132">
        <ele>1494.5</ele>
        <time>2013-08-10T07:03:18.695Z</time>
      </trkpt>
      <trkpt lat="45.0215" lon="5.54133">
        <ele>1495.2</ele>
        <time>2013-08-10T07:03:19.623Z</time>
      </trkpt>
      <trkpt lat="45.02142" lon="5.54139">
        <ele>1496.8</ele>
        <time>2013-08-10T07:03:26.788Z</time>
      </trkpt>
      <trkpt lat="45.02141" lon="5.54139">
        <ele>1497</ele>
        <time>2013-08-10T07:03:27.859Z</time>
      </trkpt>
      <trkpt lat="45.02133" lon="5.5414">
        <ele>1496.4</ele>
        <time>2013-08-10T07:03:37.690Z</time>
      </trkpt>
      <trkpt lat="45.02132" lon="5.5414">
        <ele>1497.2</ele>
        <time>2013-08-10T07:03:38.781Z</time>
      </trkpt>
      <trkpt lat="45.02123" lon="5.54136">
        <ele>1497.4</ele>
        <time>2013-08-10T07:03:53.846Z</time>
      </trkpt>
      <trkpt lat="45.02123" lon="5.54136">
        <ele>1497.4</ele>
        <time>2013-08-10T07:03:54.846Z</time>
      </trkpt>
      <trkpt lat="45.02123" lon="5.54135">
        <ele>1497.7</ele>
        <time>2013-08-10T07:03:59.012Z</time>
      </trkpt>
      <trkpt lat="45.02123" lon="5.54135">
        <ele>1497.7</ele>
        <time>2013-08-10T07:03:59.697Z</time>
      </trkpt>
      <trkpt lat="45.02115" lon="5.54129">
        <ele>1499.4</ele>
        <time>2013-08-10T07:04:06.737Z</time>
      </trkpt>
      <trkpt lat="45.02114" lon="5.54129">
        <ele>1499.4</ele>
        <time>2013-08-10T07:04:06.752Z</time>
      </trkpt>
      <trkpt lat="45.02107" lon="5.54125">
        <ele>1498.8</ele>
        <time>2013-08-10T07:04:09.861Z</time>
      </trkpt>
      <trkpt lat="45.02105" lon="5.54124">
        <ele>1499.9</ele>
        <time>2013-08-10T07:04:10.834Z</time>
      </trkpt>
      <trkpt lat="45.02097" lon="5.5412">
        <ele>1499.5</ele>
        <time>2013-08-10T07:04:14.677Z</time>
      </trkpt>
      <trkpt lat="45.02095" lon="5.54119">
        <ele>1499.8</ele>
        <time>2013-08-10T07:04:15.756Z</time>
      </trkpt>
      <trkpt lat="45.02088" lon="5.54117">
        <ele>1500.6</ele>
        <time>2013-08-10T07:04:20.728Z</time>
      </trkpt>
      <trkpt lat="45.02086" lon="5.54117">
        <ele>1501.5</ele>
        <time>2013-08-10T07:04:21.722Z</time>
      </trkpt>
      <trkpt lat="45.02078" lon="5.54115">
        <ele>1503.4</ele>
        <time>2013-08-10T07:04:27.685Z</time>
      </trkpt>
      <trkpt lat="45.02077" lon="5.54114">
        <ele>1502.9</ele>
        <time>2013-08-10T07:04:28.678Z</time>
      </trkpt>
      <trkpt lat="45.0207" lon="5.5411">
        <ele>1503.6</ele>
        <time>2013-08-10T07:04:32.112Z</time>
      </trkpt>
      <trkpt lat="45.02068" lon="5.54109">
        <ele>1503.1</ele>
        <time>2013-08-10T07:04:33.839Z</time>
      </trkpt>
      <trkpt lat="45.0206" lon="5.54106">
        <ele>1503.4</ele>
        <time>2013-08-10T07:04:42.765Z</time>
      </trkpt>
      <trkpt lat="45.02059" lon="5.54106">
        <ele>1503.5</ele>
        <time>2013-08-10T07:04:43.769Z</time>
      </trkpt>
      <trkpt lat="45.02051" lon="5.54111">
        <ele>1504</ele>
        <time>2013-08-10T07:04:56.841Z</time>
      </trkpt>
      <trkpt lat="45.0205" lon="5.54111">
        <ele>1504.1</ele>
        <time>2013-08-10T07:04:57.847Z</time>
      </trkpt>
      <trkpt lat="45.02042" lon="5.54108">
        <ele>1502.7</ele>
        <time>2013-08-10T07:05:09.681Z</time>
      </trkpt>
      <trkpt lat="45.02041" lon="5.54107">
        <ele>1503.3</ele>
        <time>2013-08-10T07:05:10.746Z</time>
      </trkpt>
      <trkpt lat="45.02033" lon="5.54106">
        <ele>1505.9</ele>
        <time>2013-08-10T07:05:17.721Z</time>
      </trkpt>
      <trkpt lat="45.02031" lon="5.54106">
        <ele>1506.3</ele>
        <time>2013-08-10T07:05:18.596Z</time>
      </trkpt>
      <trkpt lat="45.02022" lon="5.54105">
        <ele>1508.8</ele>
        <time>2013-08-10T07:05:25.702Z</time>
      </trkpt>
      <trkpt lat="45.02021" lon="5.54104">
        <ele>1509.2</ele>
        <time>2013-08-10T07:05:27.003Z</time>
      </trkpt>
      <trkpt lat="45.02012" lon="5.54103">
        <ele>1511.1</ele>
        <time>2013-08-10T07:05:33.724Z</time>
      </trkpt>
      <trkpt lat="45.02011" lon="5.54102">
        <ele>1511.3</ele>
        <time>2013-08-10T07:05:34.779Z</time>
      </trkpt>
      <trkpt lat="45.02003" lon="5.541">
        <ele>1513.5</ele>
        <time>2013-08-10T07:05:41.342Z</time>
      </trkpt>
      <trkpt lat="45.02001" lon="5.541">
        <ele>1513</ele>
        <time>2013-08-10T07:05:42.264Z</time>
      </trkpt>
      <trkpt lat="45.01994" lon="5.54095">
        <ele>1513.4</ele>
        <time>2013-08-10T07:05:50.634Z</time>
      </trkpt>
      <trkpt lat="45.01993" lon="5.54095">
        <ele>1513.6</ele>
        <time>2013-08-10T07:05:51.712Z</time>
      </trkpt>
      <trkpt lat="45.01985" lon="5.5409">
        <ele>1511.8</ele>
        <time>2013-08-10T07:05:59.344Z</time>
      </trkpt>
      <trkpt lat="45.01984" lon="5.54089">
        <ele>1511.6</ele>
        <time>2013-08-10T07:06:00.916Z</time>
      </trkpt>
      <trkpt lat="45.01976" lon="5.54086">
        <ele>1514.7</ele>
        <time>2013-08-10T07:06:14.727Z</time>
      </trkpt>
      <trkpt lat="45.01976" lon="5.54086">
        <ele>1514.6</ele>
        <time>2013-08-10T07:06:15.708Z</time>
      </trkpt>
      <trkpt lat="45.01967" lon="5.54088">
        <ele>1516.3</ele>
        <time>2013-08-10T07:06:23.730Z</time>
      </trkpt>
      <trkpt lat="45.01966" lon="5.54088">
        <ele>1515.9</ele>
        <time>2013-08-10T07:06:24.717Z</time>
      </trkpt>
      <trkpt lat="45.01958" lon="5.54086">
        <ele>1517.2</ele>
        <time>2013-08-10T07:06:30.666Z</time>
      </trkpt>
      <trkpt lat="45.01957" lon="5.54086">
        <ele>1517</ele>
        <time>2013-08-10T07:06:31.625Z</time>
      </trkpt>
      <trkpt lat="45.01948" lon="5.54085">
        <ele>1519.6</ele>
        <time>2013-08-10T07:06:40.619Z</time>
      </trkpt>
      <trkpt lat="45.01947" lon="5.54085">
        <ele>1519.5</ele>
        <time>2013-08-10T07:06:41.710Z</time>
      </trkpt>
      <trkpt lat="45.01939" lon="5.54084">
        <ele>1522.6</ele>
        <time>2013-08-10T07:06:49.854Z</time>
      </trkpt>
      <trkpt lat="45.01937" lon="5.54084">
        <ele>1521.9</ele>
        <time>2013-08-10T07:06:50.800Z</time>
      </trkpt>
      <trkpt lat="45.01929" lon="5.54089">
        <ele>1525</ele>
        <time>2013-08-10T07:06:59.732Z</time>
      </trkpt>
      <trkpt lat="45.01929" lon="5.54089">
        <ele>1525.4</ele>
        <time>2013-08-10T07:07:00.715Z</time>
      </trkpt>
      <trkpt lat="45.01926" lon="5.541">
        <ele>1529</ele>
        <time>2013-08-10T07:07:12.479Z</time>
      </trkpt>
      <trkpt lat="45.01926" lon="5.54102">
        <ele>1528.9</ele>
        <time>2013-08-10T07:07:13.843Z</time>
      </trkpt>
      <trkpt lat="45.01924" lon="5.54114">
        <ele>1527.7</ele>
        <time>2013-08-10T07:07:25.903Z</time>
      </trkpt>
      <trkpt lat="45.01923" lon="5.54115">
        <ele>1529.2</ele>
        <time>2013-08-10T07:07:26.830Z</time>
      </trkpt>
      <trkpt lat="45.01918" lon="5.54124">
        <ele>1530.8</ele>
        <time>2013-08-10T07:07:33.710Z</time>
      </trkpt>
      <trkpt lat="45.01917" lon="5.54125">
        <ele>1530.7</ele>
        <time>2013-08-10T07:07:34.666Z</time>
      </trkpt>
      <trkpt lat="45.01916" lon="5.54129">
        <ele>1532</ele>
        <time>2013-08-10T07:07:41.722Z</time>
      </trkpt>
      <trkpt lat="45.01916" lon="5.54129">
        <ele>1532.2</ele>
        <time>2013-08-10T07:07:42.755Z</time>
      </trkpt>
      <trkpt lat="45.01915" lon="5.54129">
        <ele>1532.5</ele>
        <time>2013-08-10T07:07:56.702Z</time>
      </trkpt>
      <trkpt lat="45.01914" lon="5.54129">
        <ele>1532.5</ele>
        <time>2013-08-10T07:07:57.658Z</time>
      </trkpt>
      <trkpt lat="45.01911" lon="5.5414">
        <ele>1535.7</ele>
        <time>2013-08-10T07:08:10.702Z</time>
      </trkpt>
      <trkpt lat="45.0191" lon="5.5414">
        <ele>1535.9</ele>
        <time>2013-08-10T07:08:11.633Z</time>
      </trkpt>
      <trkpt lat="45.01908" lon="5.54143">
        <ele>1536.1</ele>
        <time>2013-08-10T07:08:19.137Z</time>
      </trkpt>
      <trkpt lat="45.01908" lon="5.54143">
        <ele>1536.1</ele>
        <time>2013-08-10T07:08:20.860Z</time>
      </trkpt>
      <trkpt lat="45.01907" lon="5.54143">
        <ele>1536.4</ele>
        <time>2013-08-10T07:08:26.439Z</time>
      </trkpt>
      <trkpt lat="45.01907" lon="5.54143">
        <ele>1536.4</ele>
        <time>2013-08-10T07:08:27.367Z</time>
      </trkpt>
      <trkpt lat="45.01904" lon="5.54155">
        <ele>1538.4</ele>
        <time>2013-08-10T07:08:35.214Z</time>
      </trkpt>
      <trkpt lat="45.01903" lon="5.54157">
        <ele>1539.3</ele>
        <time>2013-08-10T07:08:36.424Z</time>
      </trkpt>
      <trkpt lat="45.01898" lon="5.54166">
        <ele>1538.2</ele>
        <time>2013-08-10T07:08:43.797Z</time>
      </trkpt>
      <trkpt lat="45.01898" lon="5.54167">
        <ele>1538.6</ele>
        <time>2013-08-10T07:08:43.895Z</time>
      </trkpt>
      <trkpt lat="45.01893" lon="5.54177">
        <ele>1540.1</ele>
        <time>2013-08-10T07:08:49.186Z</time>
      </trkpt>
      <trkpt lat="45.01892" lon="5.54179">
        <ele>1539.2</ele>
        <time>2013-08-10T07:08:50.341Z</time>
      </trkpt>
      <trkpt lat="45.01888" lon="5.5419">
        <ele>1546.6</ele>
        <time>2013-08-10T07:08:59.843Z</time>
      </trkpt>
      <trkpt lat="45.01888" lon="5.54191">
        <ele>1547</ele>
        <time>2013-08-10T07:09:00.851Z</time>
      </trkpt>
      <trkpt lat="45.01888" lon="5.54202">
        <ele>1546.7</ele>
        <time>2013-08-10T07:09:09.742Z</time>
      </trkpt>
      <trkpt lat="45.01889" lon="5.54204">
        <ele>1548.9</ele>
        <time>2013-08-10T07:09:10.741Z</time>
      </trkpt>
      <trkpt lat="45.01895" lon="5.54213">
        <ele>1549.3</ele>
        <time>2013-08-10T07:09:15.674Z</time>
      </trkpt>
      <trkpt lat="45.01896" lon="5.54215">
        <ele>1549.8</ele>
        <time>2013-08-10T07:09:16.604Z</time>
      </trkpt>
      <trkpt lat="45.01903" lon="5.54222">
        <ele>1546.8</ele>
        <time>2013-08-10T07:09:23.847Z</time>
      </trkpt>
      <trkpt lat="45.01903" lon="5.54224">
        <ele>1545.8</ele>
        <time>2013-08-10T07:09:24.851Z</time>
      </trkpt>
      <trkpt lat="45.01909" lon="5.54233">
        <ele>1543.8</ele>
        <time>2013-08-10T07:09:31.668Z</time>
      </trkpt>
      <trkpt lat="45.0191" lon="5.54234">
        <ele>1543.8</ele>
        <time>2013-08-10T07:09:32.679Z</time>
      </trkpt>
      <trkpt lat="45.01916" lon="5.54243">
        <ele>1542.9</ele>
        <time>2013-08-10T07:09:37.706Z</time>
      </trkpt>
      <trkpt lat="45.01917" lon="5.54245">
        <ele>1543.1</ele>
        <time>2013-08-10T07:09:38.855Z</time>
      </trkpt>
      <trkpt lat="45.01922" lon="5.54252">
        <ele>1543.3</ele>
        <time>2013-08-10T07:09:43.876Z</time>
      </trkpt>
      <trkpt lat="45.01923" lon="5.54254">
        <ele>1543.3</ele>
        <time>2013-08-10T07:09:44.845Z</time>
      </trkpt>
      <trkpt lat="45.01925" lon="5.54266">
        <ele>1542.7</ele>
        <time>2013-08-10T07:09:52.705Z</time>
      </trkpt>
      <trkpt lat="45.01925" lon="5.54267">
        <ele>1543.2</ele>
        <time>2013-08-10T07:09:53.661Z</time>
      </trkpt>
      <trkpt lat="45.01931" lon="5.54277">
        <ele>1542.4</ele>
        <time>2013-08-10T07:09:58.755Z</time>
      </trkpt>
      <trkpt lat="45.01932" lon="5.54279">
        <ele>1542.5</ele>
        <time>2013-08-10T07:09:59.718Z</time>
      </trkpt>
      <trkpt lat="45.01934" lon="5.54289">
        <ele>1543.3</ele>
        <time>2013-08-10T07:10:03.853Z</time>
      </trkpt>
      <trkpt lat="45.01933" lon="5.54292">
        <ele>1543.9</ele>
        <time>2013-08-10T07:10:04.860Z</time>
      </trkpt>
      <trkpt lat="45.01931" lon="5.54303">
        <ele>1544.5</ele>
        <time>2013-08-10T07:10:08.854Z</time>
      </trkpt>
      <trkpt lat="45.01931" lon="5.54306">
        <ele>1545</ele>
        <time>2013-08-10T07:10:09.846Z</time>
      </trkpt>
      <trkpt lat="45.01935" lon="5.54315">
        <ele>1543.6</ele>
        <time>2013-08-10T07:10:20.630Z</time>
      </trkpt>
      <trkpt lat="45.01936" lon="5.54318">
        <ele>1543.1</ele>
        <time>2013-08-10T07:10:21.755Z</time>
      </trkpt>
      <trkpt lat="45.01941" lon="5.54326">
        <ele>1546.2</ele>
        <time>2013-08-10T07:10:25.846Z</time>
      </trkpt>
      <trkpt lat="45.01942" lon="5.54328">
        <ele>1546.3</ele>
        <time>2013-08-10T07:10:26.841Z</time>
      </trkpt>
      <trkpt lat="45.01949" lon="5.54336">
        <ele>1546.6</ele>
        <time>2013-08-10T07:10:32.794Z</time>
      </trkpt>
      <trkpt lat="45.0195" lon="5.54337">
        <ele>1547</ele>
        <time>2013-08-10T07:10:33.735Z</time>
      </trkpt>
      <trkpt lat="45.01955" lon="5.54344">
        <ele>1551.6</ele>
        <time>2013-08-10T07:10:39.807Z</time>
      </trkpt>
      <trkpt lat="45.01957" lon="5.54345">
        <ele>1551.2</ele>
        <time>2013-08-10T07:10:41.865Z</time>
      </trkpt>
      <trkpt lat="45.01965" lon="5.54348">
        <ele>1549.9</ele>
        <time>2013-08-10T07:10:46.849Z</time>
      </trkpt>
      <trkpt lat="45.01966" lon="5.54348">
        <ele>1549.9</ele>
        <time>2013-08-10T07:10:47.630Z</time>
      </trkpt>
      <trkpt lat="45.01972" lon="5.54357">
        <ele>1545.1</ele>
        <time>2013-08-10T07:10:53.698Z</time>
      </trkpt>
      <trkpt lat="45.01974" lon="5.54359">
        <ele>1544.8</ele>
        <time>2013-08-10T07:10:54.710Z</time>
      </trkpt>
      <trkpt lat="45.0198" lon="5.54365">
        <ele>1543.8</ele>
        <time>2013-08-10T07:10:58.692Z</time>
      </trkpt>
      <trkpt lat="45.01981" lon="5.54366">
        <ele>1543.6</ele>
        <time>2013-08-10T07:10:59.631Z</time>
      </trkpt>
      <trkpt lat="45.01987" lon="5.54375">
        <ele>1543</ele>
        <time>2013-08-10T07:11:04.903Z</time>
      </trkpt>
      <trkpt lat="45.01988" lon="5.54376">
        <ele>1542.7</ele>
        <time>2013-08-10T07:11:05.868Z</time>
      </trkpt>
      <trkpt lat="45.01993" lon="5.54385">
        <ele>1539.5</ele>
        <time>2013-08-10T07:11:12.824Z</time>
      </trkpt>
      <trkpt lat="45.01995" lon="5.54388">
        <ele>1538.6</ele>
        <time>2013-08-10T07:11:14.880Z</time>
      </trkpt>
      <trkpt lat="45.02" lon="5.54397">
        <ele>1539.2</ele>
        <time>2013-08-10T07:11:18.821Z</time>
      </trkpt>
      <trkpt lat="45.02002" lon="5.54399">
        <ele>1538.9</ele>
        <time>2013-08-10T07:11:19.702Z</time>
      </trkpt>
      <trkpt lat="45.02007" lon="5.54406">
        <ele>1538.5</ele>
        <time>2013-08-10T07:11:23.723Z</time>
      </trkpt>
      <trkpt lat="45.02009" lon="5.54408">
        <ele>1538</ele>
        <time>2013-08-10T07:11:24.671Z</time>
      </trkpt>
      <trkpt lat="45.02015" lon="5.54415">
        <ele>1538.4</ele>
        <time>2013-08-10T07:11:29.901Z</time>
      </trkpt>
      <trkpt lat="45.02016" lon="5.54417">
        <ele>1539</ele>
        <time>2013-08-10T07:11:30.860Z</time>
      </trkpt>
      <trkpt lat="45.02022" lon="5.54424">
        <ele>1538.8</ele>
        <time>2013-08-10T07:11:36.692Z</time>
      </trkpt>
      <trkpt lat="45.02023" lon="5.54426">
        <ele>1539.1</ele>
        <time>2013-08-10T07:11:37.620Z</time>
      </trkpt>
      <trkpt lat="45.02028" lon="5.54433">
        <ele>1539.3</ele>
        <time>2013-08-10T07:11:42.588Z</time>
      </trkpt>
      <trkpt lat="45.0203" lon="5.54435">
        <ele>1537.3</ele>
        <time>2013-08-10T07:11:43.629Z</time>
      </trkpt>
      <trkpt lat="45.0203" lon="5.54446">
        <ele>1535.6</ele>
        <time>2013-08-10T07:11:49.875Z</time>
      </trkpt>
      <trkpt lat="45.0203" lon="5.54447">
        <ele>1535.4</ele>
        <time>2013-08-10T07:11:50.663Z</time>
      </trkpt>
      <trkpt lat="45.02034" lon="5.54458">
        <ele>1537.8</ele>
        <time>2013-08-10T07:11:55.867Z</time>
      </trkpt>
      <trkpt lat="45.02035" lon="5.5446">
        <ele>1538.2</ele>
        <time>2013-08-10T07:11:56.657Z</time>
      </trkpt>
      <trkpt lat="45.02039" lon="5.54469">
        <ele>1536.9</ele>
        <time>2013-08-10T07:12:02.806Z</time>
      </trkpt>
      <trkpt lat="45.02039" lon="5.54473">
        <ele>1537.2</ele>
        <time>2013-08-10T07:12:03.772Z</time>
      </trkpt>
      <trkpt lat="45.02045" lon="5.54482">
        <ele>1534.4</ele>
        <time>2013-08-10T07:12:09.736Z</time>
      </trkpt>
      <trkpt lat="45.02047" lon="5.54483">
        <ele>1535.1</ele>
        <time>2013-08-10T07:12:10.657Z</time>
      </trkpt>
      <trkpt lat="45.02054" lon="5.54488">
        <ele>1534.6</ele>
        <time>2013-08-10T07:12:14.869Z</time>
      </trkpt>
      <trkpt lat="45.02056" lon="5.54488">
        <ele>1534.1</ele>
        <time>2013-08-10T07:12:15.846Z</time>
      </trkpt>
      <trkpt lat="45.02063" lon="5.54493">
        <ele>1529.6</ele>
        <time>2013-08-10T07:12:22.712Z</time>
      </trkpt>
      <trkpt lat="45.02064" lon="5.54493">
        <ele>1529.4</ele>
        <time>2013-08-10T07:12:23.624Z</time>
      </trkpt>
      <trkpt lat="45.02072" lon="5.54489">
        <ele>1530.6</ele>
        <time>2013-08-10T07:12:29.693Z</time>
      </trkpt>
      <trkpt lat="45.02073" lon="5.54488">
        <ele>1530.7</ele>
        <time>2013-08-10T07:12:30.954Z</time>
      </trkpt>
      <trkpt lat="45.02079" lon="5.5448">
        <ele>1527.6</ele>
        <time>2013-08-10T07:12:39.823Z</time>
      </trkpt>
      <trkpt lat="45.0208" lon="5.54479">
        <ele>1527.1</ele>
        <time>2013-08-10T07:12:40.845Z</time>
      </trkpt>
      <trkpt lat="45.02087" lon="5.54479">
        <ele>1526.1</ele>
        <time>2013-08-10T07:12:46.644Z</time>
      </trkpt>
      <trkpt lat="45.02089" lon="5.54478">
        <ele>1526.6</ele>
        <time>2013-08-10T07:12:47.851Z</time>
      </trkpt>
      <trkpt lat="45.02097" lon="5.5448">
        <ele>1525.7</ele>
        <time>2013-08-10T07:12:53.873Z</time>
      </trkpt>
      <trkpt lat="45.02099" lon="5.54481">
        <ele>1525.3</ele>
        <time>2013-08-10T07:12:54.845Z</time>
      </trkpt>
      <trkpt lat="45.02106" lon="5.54485">
        <ele>1520.9</ele>
        <time>2013-08-10T07:13:00.224Z</time>
      </trkpt>
      <trkpt lat="45.02108" lon="5.54486">
        <ele>1519.8</ele>
        <time>2013-08-10T07:13:01.339Z</time>
      </trkpt>
      <trkpt lat="45.02116" lon="5.5449">
        <ele>1519.1</ele>
        <time>2013-08-10T07:13:07.352Z</time>
      </trkpt>
      <trkpt lat="45.02118" lon="5.5449">
        <ele>1518.6</ele>
        <time>2013-08-10T07:13:08.350Z</time>
      </trkpt>
      <trkpt lat="45.02124" lon="5.54496">
        <ele>1521.8</ele>
        <time>2013-08-10T07:13:15.837Z</time>
      </trkpt>
      <trkpt lat="45.02124" lon="5.54496">
        <ele>1521.8</ele>
        <time>2013-08-10T07:13:16.770Z</time>
      </trkpt>
      <trkpt lat="45.02125" lon="5.54497">
        <ele>1522.7</ele>
        <time>2013-08-10T07:14:56.827Z</time>
      </trkpt>
      <trkpt lat="45.02126" lon="5.54498">
        <ele>1522.5</ele>
        <time>2013-08-10T07:14:57.718Z</time>
      </trkpt>
      <trkpt lat="45.02132" lon="5.54505">
        <ele>1519.8</ele>
        <time>2013-08-10T07:15:01.724Z</time>
      </trkpt>
      <trkpt lat="45.02134" lon="5.54506">
        <ele>1519.8</ele>
        <time>2013-08-10T07:15:02.697Z</time>
      </trkpt>
      <trkpt lat="45.02142" lon="5.54511">
        <ele>1516.4</ele>
        <time>2013-08-10T07:15:06.702Z</time>
      </trkpt>
      <trkpt lat="45.02144" lon="5.54511">
        <ele>1516.2</ele>
        <time>2013-08-10T07:15:07.601Z</time>
      </trkpt>
      <trkpt lat="45.02152" lon="5.54516">
        <ele>1513.6</ele>
        <time>2013-08-10T07:15:12.868Z</time>
      </trkpt>
      <trkpt lat="45.02154" lon="5.54516">
        <ele>1514.7</ele>
        <time>2013-08-10T07:15:13.850Z</time>
      </trkpt>
      <trkpt lat="45.02162" lon="5.54515">
        <ele>1510.9</ele>
        <time>2013-08-10T07:15:18.815Z</time>
      </trkpt>
      <trkpt lat="45.02163" lon="5.54516">
        <ele>1511.2</ele>
        <time>2013-08-10T07:15:19.850Z</time>
      </trkpt>
      <trkpt lat="45.0217" lon="5.5452">
        <ele>1509.9</ele>
        <time>2013-08-10T07:15:25.597Z</time>
      </trkpt>
      <trkpt lat="45.02171" lon="5.54521">
        <ele>1509</ele>
        <time>2013-08-10T07:15:26.538Z</time>
      </trkpt>
      <trkpt lat="45.02177" lon="5.54528">
        <ele>1512.2</ele>
        <time>2013-08-10T07:15:31.866Z</time>
      </trkpt>
      <trkpt lat="45.02178" lon="5.54529">
        <ele>1512.3</ele>
        <time>2013-08-10T07:15:32.845Z</time>
      </trkpt>
      <trkpt lat="45.02183" lon="5.54539">
        <ele>1512.3</ele>
        <time>2013-08-10T07:15:41.744Z</time>
      </trkpt>
      <trkpt lat="45.02183" lon="5.54542">
        <ele>1512.2</ele>
        <time>2013-08-10T07:15:42.698Z</time>
      </trkpt>
      <trkpt lat="45.02185" lon="5.54548">
        <ele>1514</ele>
        <time>2013-08-10T07:15:49.593Z</time>
      </trkpt>
      <trkpt lat="45.02186" lon="5.54548">
        <ele>1514.1</ele>
        <time>2013-08-10T07:15:51.771Z</time>
      </trkpt>
      <trkpt lat="45.02186" lon="5.5455">
        <ele>1513.2</ele>
        <time>2013-08-10T07:16:14.563Z</time>
      </trkpt>
      <trkpt lat="45.02186" lon="5.5455">
        <ele>1513.1</ele>
        <time>2013-08-10T07:16:15.271Z</time>
      </trkpt>
      <trkpt lat="45.02189" lon="5.54562">
        <ele>1511.1</ele>
        <time>2013-08-10T07:16:26.302Z</time>
      </trkpt>
      <trkpt lat="45.02189" lon="5.54563">
        <ele>1511.3</ele>
        <time>2013-08-10T07:16:27.365Z</time>
      </trkpt>
      <trkpt lat="45.02191" lon="5.54574">
        <ele>1512.2</ele>
        <time>2013-08-10T07:16:32.847Z</time>
      </trkpt>
      <trkpt lat="45.02191" lon="5.54577">
        <ele>1512.2</ele>
        <time>2013-08-10T07:16:33.847Z</time>
      </trkpt>
      <trkpt lat="45.0219" lon="5.54587">
        <ele>1512</ele>
        <time>2013-08-10T07:16:38.639Z</time>
      </trkpt>
      <trkpt lat="45.0219" lon="5.54589">
        <ele>1511.8</ele>
        <time>2013-08-10T07:16:39.565Z</time>
      </trkpt>
      <trkpt lat="45.0219" lon="5.54601">
        <ele>1513.8</ele>
        <time>2013-08-10T07:16:45.879Z</time>
      </trkpt>
      <trkpt lat="45.0219" lon="5.54603">
        <ele>1513.5</ele>
        <time>2013-08-10T07:16:46.959Z</time>
      </trkpt>
      <trkpt lat="45.02188" lon="5.54614">
        <ele>1514.5</ele>
        <time>2013-08-10T07:16:51.851Z</time>
      </trkpt>
      <trkpt lat="45.02188" lon="5.54616">
        <ele>1515.1</ele>
        <time>2013-08-10T07:16:52.611Z</time>
      </trkpt>
      <trkpt lat="45.02188" lon="5.54628">
        <ele>1516.3</ele>
        <time>2013-08-10T07:16:58.751Z</time>
      </trkpt>
      <trkpt lat="45.02188" lon="5.5463">
        <ele>1517.4</ele>
        <time>2013-08-10T07:16:59.757Z</time>
      </trkpt>
      <trkpt lat="45.02188" lon="5.54634">
        <ele>1517.1</ele>
        <time>2013-08-10T07:17:04.864Z</time>
      </trkpt>
      <trkpt lat="45.02188" lon="5.54634">
        <ele>1517</ele>
        <time>2013-08-10T07:17:05.711Z</time>
      </trkpt>
      <trkpt lat="45.02188" lon="5.54634">
        <ele>1516.9</ele>
        <time>2013-08-10T07:17:07.660Z</time>
      </trkpt>
      <trkpt lat="45.02188" lon="5.54635">
        <ele>1517.4</ele>
        <time>2013-08-10T07:17:09.806Z</time>
      </trkpt>
      <trkpt lat="45.02191" lon="5.54647">
        <ele>1519</ele>
        <time>2013-08-10T07:17:21.815Z</time>
      </trkpt>
      <trkpt lat="45.02191" lon="5.54648">
        <ele>1518.5</ele>
        <time>2013-08-10T07:17:22.910Z</time>
      </trkpt>
      <trkpt lat="45.02191" lon="5.54651">
        <ele>1517</ele>
        <time>2013-08-10T07:17:28.147Z</time>
      </trkpt>
      <trkpt lat="45.02191" lon="5.54651">
        <ele>1517.1</ele>
        <time>2013-08-10T07:17:28.818Z</time>
      </trkpt>
      <trkpt lat="45.02191" lon="5.54653">
        <ele>1517.2</ele>
        <time>2013-08-10T07:18:23.846Z</time>
      </trkpt>
      <trkpt lat="45.02191" lon="5.54653">
        <ele>1517.4</ele>
        <time>2013-08-10T07:18:24.327Z</time>
      </trkpt>
      <trkpt lat="45.02191" lon="5.54654">
        <ele>1517.4</ele>
        <time>2013-08-10T07:18:26.237Z</time>
      </trkpt>
      <trkpt lat="45.02191" lon="5.54654">
        <ele>1517.7</ele>
        <time>2013-08-10T07:19:10.516Z</time>
      </trkpt>
      <trkpt lat="45.0219" lon="5.54654">
        <ele>1517.7</ele>
        <time>2013-08-10T07:19:11.638Z</time>
      </trkpt>
      <trkpt lat="45.0219" lon="5.54656">
        <ele>1517.8</ele>
        <time>2013-08-10T07:19:17.764Z</time>
      </trkpt>
      <trkpt lat="45.0219" lon="5.54657">
        <ele>1517.7</ele>
        <time>2013-08-10T07:19:18.580Z</time>
      </trkpt>
      <trkpt lat="45.0219" lon="5.54658">
        <ele>1517.5</ele>
        <time>2013-08-10T07:20:03.700Z</time>
      </trkpt>
      <trkpt lat="45.02189" lon="5.54657">
        <ele>1517.2</ele>
        <time>2013-08-10T07:20:04.884Z</time>
      </trkpt>
      <trkpt lat="45.02189" lon="5.54656">
        <ele>1517.2</ele>
        <time>2013-08-10T07:20:06.501Z</time>
      </trkpt>
      <trkpt lat="45.02189" lon="5.54656">
        <ele>1517.2</ele>
        <time>2013-08-10T07:20:07.507Z</time>
      </trkpt>
      <trkpt lat="45.02189" lon="5.54656">
        <ele>1517</ele>
        <time>2013-08-10T07:20:12.671Z</time>
      </trkpt>
      <trkpt lat="45.02189" lon="5.54655">
        <ele>1517.1</ele>
        <time>2013-08-10T07:20:13.516Z</time>
      </trkpt>
      <trkpt lat="45.02183" lon="5.54646">
        <ele>1511.8</ele>
        <time>2013-08-10T07:20:26.580Z</time>
      </trkpt>
      <trkpt lat="45.02183" lon="5.54645">
        <ele>1512.2</ele>
        <time>2013-08-10T07:20:27.484Z</time>
      </trkpt>
      <trkpt lat="45.02181" lon="5.54644">
        <ele>1512</ele>
        <time>2013-08-10T07:20:33.599Z</time>
      </trkpt>
      <trkpt lat="45.02181" lon="5.54644">
        <ele>1512</ele>
        <time>2013-08-10T07:20:34.693Z</time>
      </trkpt>
      <trkpt lat="45.0218" lon="5.54644">
        <ele>1511.9</ele>
        <time>2013-08-10T07:20:46.328Z</time>
      </trkpt>
      <trkpt lat="45.0218" lon="5.54643">
        <ele>1511.2</ele>
        <time>2013-08-10T07:20:47.369Z</time>
      </trkpt>
      <trkpt lat="45.02175" lon="5.54635">
        <ele>1514.1</ele>
        <time>2013-08-10T07:20:53.891Z</time>
      </trkpt>
      <trkpt lat="45.02174" lon="5.54633">
        <ele>1513.9</ele>
        <time>2013-08-10T07:20:54.695Z</time>
      </trkpt>
      <trkpt lat="45.02169" lon="5.54624">
        <ele>1513.8</ele>
        <time>2013-08-10T07:21:07.715Z</time>
      </trkpt>
      <trkpt lat="45.02168" lon="5.54622">
        <ele>1513.7</ele>
        <time>2013-08-10T07:21:08.706Z</time>
      </trkpt>
      <trkpt lat="45.02176" lon="5.5462">
        <ele>1507.6</ele>
        <time>2013-08-10T07:21:24.816Z</time>
      </trkpt>
      <trkpt lat="45.02177" lon="5.54621">
        <ele>1508</ele>
        <time>2013-08-10T07:21:25.842Z</time>
      </trkpt>
      <trkpt lat="45.02182" lon="5.54626">
        <ele>1508.9</ele>
        <time>2013-08-10T07:21:31.850Z</time>
      </trkpt>
      <trkpt lat="45.02182" lon="5.54626">
        <ele>1508.9</ele>
        <time>2013-08-10T07:21:32.721Z</time>
      </trkpt>
      <trkpt lat="45.02182" lon="5.54626">
        <ele>1508.8</ele>
        <time>2013-08-10T07:21:33.849Z</time>
      </trkpt>
      <trkpt lat="45.02182" lon="5.54627">
        <ele>1508.9</ele>
        <time>2013-08-10T07:21:35.041Z</time>
      </trkpt>
      <trkpt lat="45.02187" lon="5.54638">
        <ele>1512.5</ele>
        <time>2013-08-10T07:21:44.806Z</time>
      </trkpt>
      <trkpt lat="45.02187" lon="5.54639">
        <ele>1512</ele>
        <time>2013-08-10T07:21:45.850Z</time>
      </trkpt>
      <trkpt lat="45.0219" lon="5.5465">
        <ele>1514.9</ele>
        <time>2013-08-10T07:21:51.832Z</time>
      </trkpt>
      <trkpt lat="45.02191" lon="5.54652">
        <ele>1515.2</ele>
        <time>2013-08-10T07:21:52.796Z</time>
      </trkpt>
      <trkpt lat="45.02188" lon="5.54664">
        <ele>1513.7</ele>
        <time>2013-08-10T07:21:59.673Z</time>
      </trkpt>
      <trkpt lat="45.02188" lon="5.54664">
        <ele>1513.7</ele>
        <time>2013-08-10T07:22:00.826Z</time>
      </trkpt>
      <trkpt lat="45.02189" lon="5.54665">
        <ele>1512.9</ele>
        <time>2013-08-10T07:22:04.722Z</time>
      </trkpt>
      <trkpt lat="45.0219" lon="5.54664">
        <ele>1512.6</ele>
        <time>2013-08-10T07:22:05.903Z</time>
      </trkpt>
      <trkpt lat="45.0219" lon="5.54664">
        <ele>1512.6</ele>
        <time>2013-08-10T07:22:06.887Z</time>
      </trkpt>
      <trkpt lat="45.0219" lon="5.54665">
        <ele>1512.5</ele>
        <time>2013-08-10T07:22:08.513Z</time>
      </trkpt>
      <trkpt lat="45.0219" lon="5.54665">
        <ele>1512.6</ele>
        <time>2013-08-10T07:22:09.862Z</time>
      </trkpt>
      <trkpt lat="45.0219" lon="5.54664">
        <ele>1512.7</ele>
        <time>2013-08-10T07:22:12.535Z</time>
      </trkpt>
      <trkpt lat="45.02191" lon="5.54665">
        <ele>1512.7</ele>
        <time>2013-08-10T07:22:13.493Z</time>
      </trkpt>
      <trkpt lat="45.02197" lon="5.54674">
        <ele>1514.3</ele>
        <time>2013-08-10T07:22:28.046Z</time>
      </trkpt>
      <trkpt lat="45.02198" lon="5.54675">
        <ele>1514.4</ele>
        <time>2013-08-10T07:22:29.816Z</time>
      </trkpt>
      <trkpt lat="45.022" lon="5.54686">
        <ele>1513.4</ele>
        <time>2013-08-10T07:22:35.850Z</time>
      </trkpt>
      <trkpt lat="45.022" lon="5.54688">
        <ele>1513.5</ele>
        <time>2013-08-10T07:22:36.873Z</time>
      </trkpt>
      <trkpt lat="45.02204" lon="5.54697">
        <ele>1512.6</ele>
        <time>2013-08-10T07:22:40.686Z</time>
      </trkpt>
      <trkpt lat="45.02206" lon="5.54699">
        <ele>1512.7</ele>
        <time>2013-08-10T07:22:41.806Z</time>
      </trkpt>
      <trkpt lat="45.02209" lon="5.5471">
        <ele>1513.3</ele>
        <time>2013-08-10T07:22:47.801Z</time>
      </trkpt>
      <trkpt lat="45.02209" lon="5.54712">
        <ele>1513.2</ele>
        <time>2013-08-10T07:22:48.744Z</time>
      </trkpt>
      <trkpt lat="45.02212" lon="5.54723">
        <ele>1515.3</ele>
        <time>2013-08-10T07:22:54.481Z</time>
      </trkpt>
      <trkpt lat="45.02213" lon="5.54725">
        <ele>1515.5</ele>
        <time>2013-08-10T07:22:55.844Z</time>
      </trkpt>
      <trkpt lat="45.02217" lon="5.54735">
        <ele>1516.1</ele>
        <time>2013-08-10T07:23:01.770Z</time>
      </trkpt>
      <trkpt lat="45.02218" lon="5.54737">
        <ele>1516.1</ele>
        <time>2013-08-10T07:23:02.711Z</time>
      </trkpt>
      <trkpt lat="45.02223" lon="5.54746">
        <ele>1517.2</ele>
        <time>2013-08-10T07:23:08.696Z</time>
      </trkpt>
      <trkpt lat="45.02225" lon="5.54746">
        <ele>1517.5</ele>
        <time>2013-08-10T07:23:10.823Z</time>
      </trkpt>
      <trkpt lat="45.02233" lon="5.5475">
        <ele>1519.2</ele>
        <time>2013-08-10T07:23:15.896Z</time>
      </trkpt>
      <trkpt lat="45.02234" lon="5.5475">
        <ele>1519.2</ele>
        <time>2013-08-10T07:23:16.857Z</time>
      </trkpt>
      <trkpt lat="45.02243" lon="5.54751">
        <ele>1523.9</ele>
        <time>2013-08-10T07:23:22.565Z</time>
      </trkpt>
      <trkpt lat="45.02244" lon="5.54752">
        <ele>1525.1</ele>
        <time>2013-08-10T07:23:23.570Z</time>
      </trkpt>
      <trkpt lat="45.02253" lon="5.54752">
        <ele>1525.2</ele>
        <time>2013-08-10T07:23:30.851Z</time>
      </trkpt>
      <trkpt lat="45.02254" lon="5.54752">
        <ele>1525.3</ele>
        <time>2013-08-10T07:23:31.733Z</time>
      </trkpt>
      <trkpt lat="45.02262" lon="5.54755">
        <ele>1526.8</ele>
        <time>2013-08-10T07:23:38.872Z</time>
      </trkpt>
      <trkpt lat="45.02263" lon="5.54756">
        <ele>1526.8</ele>
        <time>2013-08-10T07:23:39.714Z</time>
      </trkpt>
      <trkpt lat="45.02271" lon="5.54761">
        <ele>1526.9</ele>
        <time>2013-08-10T07:23:45.720Z</time>
      </trkpt>
      <trkpt lat="45.02271" lon="5.54763">
        <ele>1526.3</ele>
        <time>2013-08-10T07:23:46.719Z</time>
      </trkpt>
      <trkpt lat="45.02277" lon="5.54771">
        <ele>1525.4</ele>
        <time>2013-08-10T07:23:54.559Z</time>
      </trkpt>
      <trkpt lat="45.02278" lon="5.54772">
        <ele>1525.5</ele>
        <time>2013-08-10T07:23:55.032Z</time>
      </trkpt>
      <trkpt lat="45.02284" lon="5.5478">
        <ele>1526.5</ele>
        <time>2013-08-10T07:24:01.638Z</time>
      </trkpt>
      <trkpt lat="45.02285" lon="5.54782">
        <ele>1527.1</ele>
        <time>2013-08-10T07:24:02.625Z</time>
      </trkpt>
      <trkpt lat="45.02289" lon="5.5479">
        <ele>1527.9</ele>
        <time>2013-08-10T07:24:09.736Z</time>
      </trkpt>
      <trkpt lat="45.02289" lon="5.54793">
        <ele>1528.4</ele>
        <time>2013-08-10T07:24:10.896Z</time>
      </trkpt>
      <trkpt lat="45.0229" lon="5.54805">
        <ele>1529.9</ele>
        <time>2013-08-10T07:24:18.799Z</time>
      </trkpt>
      <trkpt lat="45.0229" lon="5.54805">
        <ele>1530</ele>
        <time>2013-08-10T07:24:18.870Z</time>
      </trkpt>
      <trkpt lat="45.02293" lon="5.54817">
        <ele>1530.3</ele>
        <time>2013-08-10T07:24:25.679Z</time>
      </trkpt>
      <trkpt lat="45.02293" lon="5.54819">
        <ele>1530.7</ele>
        <time>2013-08-10T07:24:26.813Z</time>
      </trkpt>
      <trkpt lat="45.02296" lon="5.54829">
        <ele>1530.3</ele>
        <time>2013-08-10T07:24:31.785Z</time>
      </trkpt>
      <trkpt lat="45.02297" lon="5.54832">
        <ele>1530.1</ele>
        <time>2013-08-10T07:24:33.802Z</time>
      </trkpt>
      <trkpt lat="45.023" lon="5.54842">
        <ele>1531.2</ele>
        <time>2013-08-10T07:24:39.385Z</time>
      </trkpt>
      <trkpt lat="45.02301" lon="5.54844">
        <ele>1531.3</ele>
        <time>2013-08-10T07:24:40.881Z</time>
      </trkpt>
      <trkpt lat="45.02304" lon="5.54856">
        <ele>1532.1</ele>
        <time>2013-08-10T07:24:46.766Z</time>
      </trkpt>
      <trkpt lat="45.02304" lon="5.54858">
        <ele>1532.7</ele>
        <time>2013-08-10T07:24:47.720Z</time>
      </trkpt>
      <trkpt lat="45.02304" lon="5.5487">
        <ele>1533.9</ele>
        <time>2013-08-10T07:24:54.867Z</time>
      </trkpt>
      <trkpt lat="45.02304" lon="5.54871">
        <ele>1534.7</ele>
        <time>2013-08-10T07:24:55.719Z</time>
      </trkpt>
      <trkpt lat="45.02304" lon="5.54882">
        <ele>1538.7</ele>
        <time>2013-08-10T07:25:02.854Z</time>
      </trkpt>
      <trkpt lat="45.02304" lon="5.54884">
        <ele>1539.3</ele>
        <time>2013-08-10T07:25:03.744Z</time>
      </trkpt>
      <trkpt lat="45.02299" lon="5.54894">
        <ele>1539.2</ele>
        <time>2013-08-10T07:25:10.790Z</time>
      </trkpt>
      <trkpt lat="45.02298" lon="5.54896">
        <ele>1537.9</ele>
        <time>2013-08-10T07:25:11.728Z</time>
      </trkpt>
      <trkpt lat="45.02293" lon="5.54905">
        <ele>1538.4</ele>
        <time>2013-08-10T07:25:18.852Z</time>
      </trkpt>
      <trkpt lat="45.02292" lon="5.54906">
        <ele>1538.7</ele>
        <time>2013-08-10T07:25:19.706Z</time>
      </trkpt>
      <trkpt lat="45.02287" lon="5.54915">
        <ele>1538.8</ele>
        <time>2013-08-10T07:25:25.634Z</time>
      </trkpt>
      <trkpt lat="45.02286" lon="5.54917">
        <ele>1539.1</ele>
        <time>2013-08-10T07:25:26.866Z</time>
      </trkpt>
      <trkpt lat="45.02285" lon="5.54928">
        <ele>1539.6</ele>
        <time>2013-08-10T07:25:31.653Z</time>
      </trkpt>
      <trkpt lat="45.02284" lon="5.54929">
        <ele>1541.3</ele>
        <time>2013-08-10T07:25:32.766Z</time>
      </trkpt>
      <trkpt lat="45.02278" lon="5.54939">
        <ele>1544.5</ele>
        <time>2013-08-10T07:25:39.834Z</time>
      </trkpt>
      <trkpt lat="45.02278" lon="5.54941">
        <ele>1544.8</ele>
        <time>2013-08-10T07:25:40.765Z</time>
      </trkpt>
      <trkpt lat="45.0228" lon="5.54953">
        <ele>1544.5</ele>
        <time>2013-08-10T07:25:48.761Z</time>
      </trkpt>
      <trkpt lat="45.0228" lon="5.54954">
        <ele>1544.7</ele>
        <time>2013-08-10T07:25:48.806Z</time>
      </trkpt>
      <trkpt lat="45.02277" lon="5.54966">
        <ele>1545</ele>
        <time>2013-08-10T07:25:55.803Z</time>
      </trkpt>
      <trkpt lat="45.02276" lon="5.54966">
        <ele>1544.9</ele>
        <time>2013-08-10T07:25:56.839Z</time>
      </trkpt>
      <trkpt lat="45.02281" lon="5.54976">
        <ele>1549</ele>
        <time>2013-08-10T07:26:08.874Z</time>
      </trkpt>
      <trkpt lat="45.02282" lon="5.54978">
        <ele>1548.9</ele>
        <time>2013-08-10T07:26:09.852Z</time>
      </trkpt>
      <trkpt lat="45.02286" lon="5.54988">
        <ele>1548.9</ele>
        <time>2013-08-10T07:26:14.848Z</time>
      </trkpt>
      <trkpt lat="45.02287" lon="5.5499">
        <ele>1548.7</ele>
        <time>2013-08-10T07:26:15.701Z</time>
      </trkpt>
      <trkpt lat="45.0229" lon="5.55001">
        <ele>1549.3</ele>
        <time>2013-08-10T07:26:21.676Z</time>
      </trkpt>
      <trkpt lat="45.02291" lon="5.55003">
        <ele>1549.8</ele>
        <time>2013-08-10T07:26:22.697Z</time>
      </trkpt>
      <trkpt lat="45.02295" lon="5.55013">
        <ele>1549.9</ele>
        <time>2013-08-10T07:26:27.606Z</time>
      </trkpt>
      <trkpt lat="45.02295" lon="5.55015">
        <ele>1549.2</ele>
        <time>2013-08-10T07:26:28.849Z</time>
      </trkpt>
      <trkpt lat="45.023" lon="5.55025">
        <ele>1552.1</ele>
        <time>2013-08-10T07:26:33.850Z</time>
      </trkpt>
      <trkpt lat="45.02301" lon="5.55026">
        <ele>1552.4</ele>
        <time>2013-08-10T07:26:34.329Z</time>
      </trkpt>
      <trkpt lat="45.02305" lon="5.55036">
        <ele>1553.7</ele>
        <time>2013-08-10T07:26:40.292Z</time>
      </trkpt>
      <trkpt lat="45.02305" lon="5.55038">
        <ele>1554.1</ele>
        <time>2013-08-10T07:26:41.370Z</time>
      </trkpt>
      <trkpt lat="45.02311" lon="5.55048">
        <ele>1554.9</ele>
        <time>2013-08-10T07:26:47.259Z</time>
      </trkpt>
      <trkpt lat="45.02312" lon="5.5505">
        <ele>1554.7</ele>
        <time>2013-08-10T07:26:49.802Z</time>
      </trkpt>
      <trkpt lat="45.02314" lon="5.55061">
        <ele>1551.1</ele>
        <time>2013-08-10T07:26:55.698Z</time>
      </trkpt>
      <trkpt lat="45.02315" lon="5.55063">
        <ele>1551.1</ele>
        <time>2013-08-10T07:26:56.631Z</time>
      </trkpt>
      <trkpt lat="45.02317" lon="5.55074">
        <ele>1552</ele>
        <time>2013-08-10T07:27:03.710Z</time>
      </trkpt>
      <trkpt lat="45.02318" lon="5.55075">
        <ele>1552.1</ele>
        <time>2013-08-10T07:27:04.797Z</time>
      </trkpt>
      <trkpt lat="45.02319" lon="5.55087">
        <ele>1553.3</ele>
        <time>2013-08-10T07:27:12.738Z</time>
      </trkpt>
      <trkpt lat="45.02319" lon="5.55089">
        <ele>1553.7</ele>
        <time>2013-08-10T07:27:13.701Z</time>
      </trkpt>
      <trkpt lat="45.02321" lon="5.55101">
        <ele>1555.8</ele>
        <time>2013-08-10T07:27:19.650Z</time>
      </trkpt>
      <trkpt lat="45.0232" lon="5.55103">
        <ele>1555.4</ele>
        <time>2013-08-10T07:27:20.637Z</time>
      </trkpt>
      <trkpt lat="45.02317" lon="5.55113">
        <ele>1557.9</ele>
        <time>2013-08-10T07:27:26.737Z</time>
      </trkpt>
      <trkpt lat="45.02316" lon="5.55114">
        <ele>1557.6</ele>
        <time>2013-08-10T07:27:27.695Z</time>
      </trkpt>
      <trkpt lat="45.02316" lon="5.55125">
        <ele>1559</ele>
        <time>2013-08-10T07:27:33.768Z</time>
      </trkpt>
      <trkpt lat="45.02316" lon="5.55128">
        <ele>1559.4</ele>
        <time>2013-08-10T07:27:34.858Z</time>
      </trkpt>
      <trkpt lat="45.02312" lon="5.55138">
        <ele>1561.3</ele>
        <time>2013-08-10T07:27:40.827Z</time>
      </trkpt>
      <trkpt lat="45.02312" lon="5.55139">
        <ele>1561.7</ele>
        <time>2013-08-10T07:27:41.854Z</time>
      </trkpt>
      <trkpt lat="45.02308" lon="5.55149">
        <ele>1561.4</ele>
        <time>2013-08-10T07:27:47.306Z</time>
      </trkpt>
      <trkpt lat="45.02307" lon="5.55152">
        <ele>1561.7</ele>
        <time>2013-08-10T07:27:48.430Z</time>
      </trkpt>
      <trkpt lat="45.02303" lon="5.55161">
        <ele>1563.9</ele>
        <time>2013-08-10T07:27:56.324Z</time>
      </trkpt>
      <trkpt lat="45.02302" lon="5.55163">
        <ele>1564.1</ele>
        <time>2013-08-10T07:27:58.870Z</time>
      </trkpt>
      <trkpt lat="45.023" lon="5.55175">
        <ele>1570.7</ele>
        <time>2013-08-10T07:28:06.886Z</time>
      </trkpt>
      <trkpt lat="45.023" lon="5.55177">
        <ele>1571.1</ele>
        <time>2013-08-10T07:28:07.850Z</time>
      </trkpt>
      <trkpt lat="45.02298" lon="5.55188">
        <ele>1571.4</ele>
        <time>2013-08-10T07:28:15.697Z</time>
      </trkpt>
      <trkpt lat="45.02297" lon="5.5519">
        <ele>1572.1</ele>
        <time>2013-08-10T07:28:16.779Z</time>
      </trkpt>
      <trkpt lat="45.02292" lon="5.552">
        <ele>1575</ele>
        <time>2013-08-10T07:28:29.754Z</time>
      </trkpt>
      <trkpt lat="45.02292" lon="5.55201">
        <ele>1575.5</ele>
        <time>2013-08-10T07:28:30.781Z</time>
      </trkpt>
      <trkpt lat="45.0229" lon="5.55212">
        <ele>1577.1</ele>
        <time>2013-08-10T07:28:37.848Z</time>
      </trkpt>
      <trkpt lat="45.02289" lon="5.55214">
        <ele>1576.8</ele>
        <time>2013-08-10T07:28:38.788Z</time>
      </trkpt>
      <trkpt lat="45.02282" lon="5.5522">
        <ele>1576.9</ele>
        <time>2013-08-10T07:28:45.716Z</time>
      </trkpt>
      <trkpt lat="45.02281" lon="5.55221">
        <ele>1577</ele>
        <time>2013-08-10T07:28:46.676Z</time>
      </trkpt>
      <trkpt lat="45.02272" lon="5.55226">
        <ele>1575.8</ele>
        <time>2013-08-10T07:28:53.659Z</time>
      </trkpt>
      <trkpt lat="45.02271" lon="5.55227">
        <ele>1574.6</ele>
        <time>2013-08-10T07:28:54.633Z</time>
      </trkpt>
      <trkpt lat="45.02264" lon="5.55231">
        <ele>1574.8</ele>
        <time>2013-08-10T07:29:01.849Z</time>
      </trkpt>
      <trkpt lat="45.02263" lon="5.55232">
        <ele>1574.4</ele>
        <time>2013-08-10T07:29:02.852Z</time>
      </trkpt>
      <trkpt lat="45.02255" lon="5.55233">
        <ele>1576.2</ele>
        <time>2013-08-10T07:29:10.650Z</time>
      </trkpt>
      <trkpt lat="45.02253" lon="5.55233">
        <ele>1576.2</ele>
        <time>2013-08-10T07:29:11.694Z</time>
      </trkpt>
      <trkpt lat="45.02245" lon="5.55233">
        <ele>1580.2</ele>
        <time>2013-08-10T07:29:23.778Z</time>
      </trkpt>
      <trkpt lat="45.02243" lon="5.55232">
        <ele>1580.2</ele>
        <time>2013-08-10T07:29:24.822Z</time>
      </trkpt>
      <trkpt lat="45.02235" lon="5.55234">
        <ele>1578.8</ele>
        <time>2013-08-10T07:29:34.848Z</time>
      </trkpt>
      <trkpt lat="45.02234" lon="5.55234">
        <ele>1578.5</ele>
        <time>2013-08-10T07:29:35.730Z</time>
      </trkpt>
      <trkpt lat="45.02226" lon="5.55235">
        <ele>1579.2</ele>
        <time>2013-08-10T07:29:41.706Z</time>
      </trkpt>
      <trkpt lat="45.02224" lon="5.55235">
        <ele>1579.8</ele>
        <time>2013-08-10T07:29:43.014Z</time>
      </trkpt>
      <trkpt lat="45.02216" lon="5.55235">
        <ele>1579.9</ele>
        <time>2013-08-10T07:29:48.714Z</time>
      </trkpt>
      <trkpt lat="45.02215" lon="5.55235">
        <ele>1580.8</ele>
        <time>2013-08-10T07:29:49.223Z</time>
      </trkpt>
      <trkpt lat="45.02207" lon="5.55233">
        <ele>1582.2</ele>
        <time>2013-08-10T07:29:53.712Z</time>
      </trkpt>
      <trkpt lat="45.02206" lon="5.55233">
        <ele>1582.3</ele>
        <time>2013-08-10T07:29:54.722Z</time>
      </trkpt>
      <trkpt lat="45.02197" lon="5.55231">
        <ele>1585.4</ele>
        <time>2013-08-10T07:30:02.104Z</time>
      </trkpt>
      <trkpt lat="45.02196" lon="5.55231">
        <ele>1586.1</ele>
        <time>2013-08-10T07:30:02.725Z</time>
      </trkpt>
      <trkpt lat="45.02189" lon="5.55224">
        <ele>1590.4</ele>
        <time>2013-08-10T07:30:09.861Z</time>
      </trkpt>
      <trkpt lat="45.02189" lon="5.55223">
        <ele>1592.2</ele>
        <time>2013-08-10T07:30:10.849Z</time>
      </trkpt>
      <trkpt lat="45.02181" lon="5.55219">
        <ele>1591.6</ele>
        <time>2013-08-10T07:30:17.719Z</time>
      </trkpt>
      <trkpt lat="45.02179" lon="5.55219">
        <ele>1591.2</ele>
        <time>2013-08-10T07:30:18.716Z</time>
      </trkpt>
      <trkpt lat="45.02171" lon="5.55213">
        <ele>1593</ele>
        <time>2013-08-10T07:30:24.864Z</time>
      </trkpt>
      <trkpt lat="45.0217" lon="5.55213">
        <ele>1591.8</ele>
        <time>2013-08-10T07:30:25.844Z</time>
      </trkpt>
      <trkpt lat="45.02162" lon="5.55208">
        <ele>1588.1</ele>
        <time>2013-08-10T07:30:33.041Z</time>
      </trkpt>
      <trkpt lat="45.02161" lon="5.55207">
        <ele>1587.8</ele>
        <time>2013-08-10T07:30:34.014Z</time>
      </trkpt>
      <trkpt lat="45.02154" lon="5.55203">
        <ele>1587.5</ele>
        <time>2013-08-10T07:30:40.315Z</time>
      </trkpt>
      <trkpt lat="45.02152" lon="5.55203">
        <ele>1587.5</ele>
        <time>2013-08-10T07:30:41.293Z</time>
      </trkpt>
      <trkpt lat="45.02146" lon="5.55196">
        <ele>1589.1</ele>
        <time>2013-08-10T07:30:47.504Z</time>
      </trkpt>
      <trkpt lat="45.02144" lon="5.55194">
        <ele>1588.5</ele>
        <time>2013-08-10T07:30:48.841Z</time>
      </trkpt>
      <trkpt lat="45.02137" lon="5.55189">
        <ele>1588.6</ele>
        <time>2013-08-10T07:30:55.822Z</time>
      </trkpt>
      <trkpt lat="45.02136" lon="5.55189">
        <ele>1589.5</ele>
        <time>2013-08-10T07:30:56.692Z</time>
      </trkpt>
      <trkpt lat="45.02128" lon="5.55184">
        <ele>1589.8</ele>
        <time>2013-08-10T07:31:07.596Z</time>
      </trkpt>
      <trkpt lat="45.02127" lon="5.55184">
        <ele>1590.1</ele>
        <time>2013-08-10T07:31:08.734Z</time>
      </trkpt>
      <trkpt lat="45.02119" lon="5.55182">
        <ele>1591.3</ele>
        <time>2013-08-10T07:31:13.875Z</time>
      </trkpt>
      <trkpt lat="45.02117" lon="5.55181">
        <ele>1591.2</ele>
        <time>2013-08-10T07:31:15.815Z</time>
      </trkpt>
      <trkpt lat="45.02109" lon="5.55181">
        <ele>1592.7</ele>
        <time>2013-08-10T07:31:22.854Z</time>
      </trkpt>
      <trkpt lat="45.02107" lon="5.5518">
        <ele>1593.6</ele>
        <time>2013-08-10T07:31:24.888Z</time>
      </trkpt>
      <trkpt lat="45.02099" lon="5.55179">
        <ele>1597.7</ele>
        <time>2013-08-10T07:31:30.784Z</time>
      </trkpt>
      <trkpt lat="45.02097" lon="5.55178">
        <ele>1595.9</ele>
        <time>2013-08-10T07:31:31.759Z</time>
      </trkpt>
      <trkpt lat="45.02089" lon="5.55179">
        <ele>1596.4</ele>
        <time>2013-08-10T07:31:45.660Z</time>
      </trkpt>
      <trkpt lat="45.02088" lon="5.5518">
        <ele>1597.5</ele>
        <time>2013-08-10T07:31:46.858Z</time>
      </trkpt>
      <trkpt lat="45.02079" lon="5.55181">
        <ele>1603.4</ele>
        <time>2013-08-10T07:31:52.781Z</time>
      </trkpt>
      <trkpt lat="45.02078" lon="5.55181">
        <ele>1603.9</ele>
        <time>2013-08-10T07:31:53.327Z</time>
      </trkpt>
      <trkpt lat="45.0207" lon="5.55182">
        <ele>1605.7</ele>
        <time>2013-08-10T07:31:56.780Z</time>
      </trkpt>
      <trkpt lat="45.02068" lon="5.55182">
        <ele>1605.1</ele>
        <time>2013-08-10T07:31:57.736Z</time>
      </trkpt>
      <trkpt lat="45.0206" lon="5.55183">
        <ele>1608.3</ele>
        <time>2013-08-10T07:32:03.669Z</time>
      </trkpt>
      <trkpt lat="45.02058" lon="5.55184">
        <ele>1608.8</ele>
        <time>2013-08-10T07:32:05.875Z</time>
      </trkpt>
      <trkpt lat="45.02049" lon="5.55184">
        <ele>1611.4</ele>
        <time>2013-08-10T07:32:12.739Z</time>
      </trkpt>
      <trkpt lat="45.02048" lon="5.55184">
        <ele>1611.3</ele>
        <time>2013-08-10T07:32:13.821Z</time>
      </trkpt>
      <trkpt lat="45.02041" lon="5.55184">
        <ele>1612.1</ele>
        <time>2013-08-10T07:32:21.151Z</time>
      </trkpt>
      <trkpt lat="45.02038" lon="5.55184">
        <ele>1611.6</ele>
        <time>2013-08-10T07:32:22.211Z</time>
      </trkpt>
      <trkpt lat="45.02036" lon="5.55173">
        <ele>1612.5</ele>
        <time>2013-08-10T07:32:35.255Z</time>
      </trkpt>
      <trkpt lat="45.02035" lon="5.55171">
        <ele>1612.1</ele>
        <time>2013-08-10T07:32:36.219Z</time>
      </trkpt>
      <trkpt lat="45.02032" lon="5.55161">
        <ele>1610.6</ele>
        <time>2013-08-10T07:32:42.867Z</time>
      </trkpt>
      <trkpt lat="45.02032" lon="5.55159">
        <ele>1610.6</ele>
        <time>2013-08-10T07:32:43.875Z</time>
      </trkpt>
      <trkpt lat="45.02031" lon="5.55147">
        <ele>1610.5</ele>
        <time>2013-08-10T07:32:50.704Z</time>
      </trkpt>
      <trkpt lat="45.02031" lon="5.55145">
        <ele>1610.4</ele>
        <time>2013-08-10T07:32:51.762Z</time>
      </trkpt>
      <trkpt lat="45.0203" lon="5.55134">
        <ele>1612.8</ele>
        <time>2013-08-10T07:32:56.764Z</time>
      </trkpt>
      <trkpt lat="45.0203" lon="5.55132">
        <ele>1613.3</ele>
        <time>2013-08-10T07:32:57.865Z</time>
      </trkpt>
      <trkpt lat="45.0203" lon="5.55121">
        <ele>1613.2</ele>
        <time>2013-08-10T07:33:04.699Z</time>
      </trkpt>
      <trkpt lat="45.02029" lon="5.55119">
        <ele>1613.8</ele>
        <time>2013-08-10T07:33:05.792Z</time>
      </trkpt>
      <trkpt lat="45.02026" lon="5.55109">
        <ele>1615.3</ele>
        <time>2013-08-10T07:33:12.746Z</time>
      </trkpt>
      <trkpt lat="45.02026" lon="5.55107">
        <ele>1615.4</ele>
        <time>2013-08-10T07:33:13.867Z</time>
      </trkpt>
      <trkpt lat="45.0202" lon="5.55098">
        <ele>1620</ele>
        <time>2013-08-10T07:33:21.327Z</time>
      </trkpt>
      <trkpt lat="45.02019" lon="5.55097">
        <ele>1620.2</ele>
        <time>2013-08-10T07:33:22.291Z</time>
      </trkpt>
      <trkpt lat="45.0201" lon="5.55093">
        <ele>1622</ele>
        <time>2013-08-10T07:33:31.706Z</time>
      </trkpt>
      <trkpt lat="45.0201" lon="5.55093">
        <ele>1621.2</ele>
        <time>2013-08-10T07:33:32.720Z</time>
      </trkpt>
      <trkpt lat="45.02002" lon="5.55092">
        <ele>1625.8</ele>
        <time>2013-08-10T07:33:39.804Z</time>
      </trkpt>
      <trkpt lat="45.02001" lon="5.55092">
        <ele>1628.1</ele>
        <time>2013-08-10T07:33:40.733Z</time>
      </trkpt>
      <trkpt lat="45.01992" lon="5.55093">
        <ele>1634.3</ele>
        <time>2013-08-10T07:33:51.857Z</time>
      </trkpt>
      <trkpt lat="45.01993" lon="5.55093">
        <ele>1634.3</ele>
        <time>2013-08-10T07:33:52.662Z</time>
      </trkpt>
      <trkpt lat="45.01993" lon="5.55093">
        <ele>1634.4</ele>
        <time>2013-08-10T07:33:53.859Z</time>
      </trkpt>
      <trkpt lat="45.01993" lon="5.55093">
        <ele>1634.4</ele>
        <time>2013-08-10T07:33:55.335Z</time>
      </trkpt>
      <trkpt lat="45.01993" lon="5.55093">
        <ele>1634.1</ele>
        <time>2013-08-10T07:34:08.078Z</time>
      </trkpt>
      <trkpt lat="45.01993" lon="5.55093">
        <ele>1634.1</ele>
        <time>2013-08-10T07:34:08.612Z</time>
      </trkpt>
      <trkpt lat="45.01984" lon="5.55089">
        <ele>1637</ele>
        <time>2013-08-10T07:34:18.861Z</time>
      </trkpt>
      <trkpt lat="45.01983" lon="5.55089">
        <ele>1637</ele>
        <time>2013-08-10T07:34:19.849Z</time>
      </trkpt>
      <trkpt lat="45.01975" lon="5.55085">
        <ele>1639.6</ele>
        <time>2013-08-10T07:34:28.742Z</time>
      </trkpt>
      <trkpt lat="45.01974" lon="5.55085">
        <ele>1640.2</ele>
        <time>2013-08-10T07:34:29.774Z</time>
      </trkpt>
      <trkpt lat="45.01965" lon="5.55082">
        <ele>1641.5</ele>
        <time>2013-08-10T07:34:39.758Z</time>
      </trkpt>
      <trkpt lat="45.01964" lon="5.55081">
        <ele>1641.7</ele>
        <time>2013-08-10T07:34:40.693Z</time>
      </trkpt>
      <trkpt lat="45.01958" lon="5.55074">
        <ele>1641.8</ele>
        <time>2013-08-10T07:34:47.665Z</time>
      </trkpt>
      <trkpt lat="45.01957" lon="5.55073">
        <ele>1641.6</ele>
        <time>2013-08-10T07:34:48.854Z</time>
      </trkpt>
      <trkpt lat="45.01951" lon="5.55066">
        <ele>1642.2</ele>
        <time>2013-08-10T07:34:55.151Z</time>
      </trkpt>
      <trkpt lat="45.0195" lon="5.55066">
        <ele>1642.2</ele>
        <time>2013-08-10T07:34:56.095Z</time>
      </trkpt>
      <trkpt lat="45.01943" lon="5.55059">
        <ele>1640</ele>
        <time>2013-08-10T07:35:02.756Z</time>
      </trkpt>
      <trkpt lat="45.01942" lon="5.55058">
        <ele>1640.1</ele>
        <time>2013-08-10T07:35:04.804Z</time>
      </trkpt>
      <trkpt lat="45.01936" lon="5.5505">
        <ele>1640.6</ele>
        <time>2013-08-10T07:35:10.607Z</time>
      </trkpt>
      <trkpt lat="45.01935" lon="5.55049">
        <ele>1640.5</ele>
        <time>2013-08-10T07:35:11.657Z</time>
      </trkpt>
      <trkpt lat="45.01927" lon="5.55044">
        <ele>1641.5</ele>
        <time>2013-08-10T07:35:18.835Z</time>
      </trkpt>
      <trkpt lat="45.01926" lon="5.55043">
        <ele>1641</ele>
        <time>2013-08-10T07:35:19.353Z</time>
      </trkpt>
      <trkpt lat="45.0192" lon="5.55036">
        <ele>1639.8</ele>
        <time>2013-08-10T07:35:25.842Z</time>
      </trkpt>
      <trkpt lat="45.01919" lon="5.55034">
        <ele>1640.4</ele>
        <time>2013-08-10T07:35:27.845Z</time>
      </trkpt>
      <trkpt lat="45.01912" lon="5.5503">
        <ele>1643.3</ele>
        <time>2013-08-10T07:35:33.816Z</time>
      </trkpt>
      <trkpt lat="45.01911" lon="5.55028">
        <ele>1644.1</ele>
        <time>2013-08-10T07:35:35.857Z</time>
      </trkpt>
      <trkpt lat="45.01906" lon="5.55022">
        <ele>1643.5</ele>
        <time>2013-08-10T07:35:43.751Z</time>
      </trkpt>
      <trkpt lat="45.01906" lon="5.55022">
        <ele>1643.3</ele>
        <time>2013-08-10T07:35:44.704Z</time>
      </trkpt>
      <trkpt lat="45.01906" lon="5.5502">
        <ele>1644.2</ele>
        <time>2013-08-10T07:36:01.412Z</time>
      </trkpt>
      <trkpt lat="45.01905" lon="5.5502">
        <ele>1644.2</ele>
        <time>2013-08-10T07:36:02.336Z</time>
      </trkpt>
      <trkpt lat="45.01896" lon="5.55022">
        <ele>1646.4</ele>
        <time>2013-08-10T07:36:08.327Z</time>
      </trkpt>
      <trkpt lat="45.01895" lon="5.55022">
        <ele>1646.7</ele>
        <time>2013-08-10T07:36:09.295Z</time>
      </trkpt>
      <trkpt lat="45.01887" lon="5.55024">
        <ele>1648.6</ele>
        <time>2013-08-10T07:36:16.130Z</time>
      </trkpt>
      <trkpt lat="45.01886" lon="5.55026">
        <ele>1648.6</ele>
        <time>2013-08-10T07:36:17.876Z</time>
      </trkpt>
      <trkpt lat="45.01878" lon="5.55033">
        <ele>1651</ele>
        <time>2013-08-10T07:36:25.694Z</time>
      </trkpt>
      <trkpt lat="45.01877" lon="5.55033">
        <ele>1651.2</ele>
        <time>2013-08-10T07:36:26.762Z</time>
      </trkpt>
      <trkpt lat="45.01873" lon="5.55044">
        <ele>1653</ele>
        <time>2013-08-10T07:36:37.695Z</time>
      </trkpt>
      <trkpt lat="45.01873" lon="5.55045">
        <ele>1653.8</ele>
        <time>2013-08-10T07:36:39.142Z</time>
      </trkpt>
      <trkpt lat="45.01871" lon="5.55056">
        <ele>1654.7</ele>
        <time>2013-08-10T07:36:47.734Z</time>
      </trkpt>
      <trkpt lat="45.0187" lon="5.55058">
        <ele>1654.8</ele>
        <time>2013-08-10T07:36:48.667Z</time>
      </trkpt>
      <trkpt lat="45.01869" lon="5.5507">
        <ele>1653.9</ele>
        <time>2013-08-10T07:36:57.705Z</time>
      </trkpt>
      <trkpt lat="45.01869" lon="5.5507">
        <ele>1653.5</ele>
        <time>2013-08-10T07:36:58.758Z</time>
      </trkpt>
      <trkpt lat="45.01869" lon="5.55082">
        <ele>1658.9</ele>
        <time>2013-08-10T07:37:14.756Z</time>
      </trkpt>
      <trkpt lat="45.01869" lon="5.55083">
        <ele>1658</ele>
        <time>2013-08-10T07:37:15.829Z</time>
      </trkpt>
      <trkpt lat="45.01868" lon="5.55095">
        <ele>1658</ele>
        <time>2013-08-10T07:37:25.657Z</time>
      </trkpt>
      <trkpt lat="45.01868" lon="5.55096">
        <ele>1658.6</ele>
        <time>2013-08-10T07:37:26.711Z</time>
      </trkpt>
      <trkpt lat="45.01869" lon="5.55108">
        <ele>1662.8</ele>
        <time>2013-08-10T07:37:38.740Z</time>
      </trkpt>
      <trkpt lat="45.0187" lon="5.5511">
        <ele>1663.1</ele>
        <time>2013-08-10T07:37:39.830Z</time>
      </trkpt>
      <trkpt lat="45.01871" lon="5.55121">
        <ele>1666.9</ele>
        <time>2013-08-10T07:37:48.692Z</time>
      </trkpt>
      <trkpt lat="45.01871" lon="5.55122">
        <ele>1668.9</ele>
        <time>2013-08-10T07:37:49.692Z</time>
      </trkpt>
      <trkpt lat="45.01875" lon="5.55133">
        <ele>1673.8</ele>
        <time>2013-08-10T07:37:59.383Z</time>
      </trkpt>
      <trkpt lat="45.01875" lon="5.55135">
        <ele>1673.8</ele>
        <time>2013-08-10T07:38:00.876Z</time>
      </trkpt>
      <trkpt lat="45.01877" lon="5.55146">
        <ele>1675.8</ele>
        <time>2013-08-10T07:38:09.769Z</time>
      </trkpt>
      <trkpt lat="45.01877" lon="5.55147">
        <ele>1675.8</ele>
        <time>2013-08-10T07:38:10.703Z</time>
      </trkpt>
      <trkpt lat="45.0188" lon="5.55158">
        <ele>1674.2</ele>
        <time>2013-08-10T07:38:19.880Z</time>
      </trkpt>
      <trkpt lat="45.0188" lon="5.55158">
        <ele>1673.9</ele>
        <time>2013-08-10T07:38:20.725Z</time>
      </trkpt>
      <trkpt lat="45.0188" lon="5.55157">
        <ele>1673.8</ele>
        <time>2013-08-10T07:38:21.740Z</time>
      </trkpt>
      <trkpt lat="45.0188" lon="5.55156">
        <ele>1673.8</ele>
        <time>2013-08-10T07:38:23.756Z</time>
      </trkpt>
      <trkpt lat="45.0188" lon="5.55156">
        <ele>1673.7</ele>
        <time>2013-08-10T07:38:24.701Z</time>
      </trkpt>
      <trkpt lat="45.0188" lon="5.55156">
        <ele>1675.3</ele>
        <time>2013-08-10T07:38:39.966Z</time>
      </trkpt>
      <trkpt lat="45.0188" lon="5.55157">
        <ele>1675.5</ele>
        <time>2013-08-10T07:38:40.738Z</time>
      </trkpt>
      <trkpt lat="45.0188" lon="5.55169">
        <ele>1678.2</ele>
        <time>2013-08-10T07:38:46.707Z</time>
      </trkpt>
      <trkpt lat="45.01881" lon="5.55171">
        <ele>1679</ele>
        <time>2013-08-10T07:38:47.740Z</time>
      </trkpt>
      <trkpt lat="45.01882" lon="5.55182">
        <ele>1681.3</ele>
        <time>2013-08-10T07:38:52.749Z</time>
      </trkpt>
      <trkpt lat="45.01882" lon="5.55184">
        <ele>1681.4</ele>
        <time>2013-08-10T07:38:53.805Z</time>
      </trkpt>
      <trkpt lat="45.0188" lon="5.55196">
        <ele>1680.5</ele>
        <time>2013-08-10T07:39:00.826Z</time>
      </trkpt>
      <trkpt lat="45.0188" lon="5.55198">
        <ele>1680.1</ele>
        <time>2013-08-10T07:39:01.852Z</time>
      </trkpt>
      <trkpt lat="45.01879" lon="5.55209">
        <ele>1679.7</ele>
        <time>2013-08-10T07:39:06.773Z</time>
      </trkpt>
      <trkpt lat="45.01879" lon="5.55211">
        <ele>1679.7</ele>
        <time>2013-08-10T07:39:07.718Z</time>
      </trkpt>
      <trkpt lat="45.0188" lon="5.55223">
        <ele>1682.2</ele>
        <time>2013-08-10T07:39:14.850Z</time>
      </trkpt>
      <trkpt lat="45.0188" lon="5.55224">
        <ele>1681.5</ele>
        <time>2013-08-10T07:39:15.764Z</time>
      </trkpt>
      <trkpt lat="45.01879" lon="5.55236">
        <ele>1681.5</ele>
        <time>2013-08-10T07:39:24.925Z</time>
      </trkpt>
      <trkpt lat="45.01879" lon="5.55238">
        <ele>1680.7</ele>
        <time>2013-08-10T07:39:25.867Z</time>
      </trkpt>
      <trkpt lat="45.01875" lon="5.55248">
        <ele>1681.6</ele>
        <time>2013-08-10T07:39:32.883Z</time>
      </trkpt>
      <trkpt lat="45.01874" lon="5.5525">
        <ele>1681.5</ele>
        <time>2013-08-10T07:39:34.930Z</time>
      </trkpt>
      <trkpt lat="45.01871" lon="5.5526">
        <ele>1682.5</ele>
        <time>2013-08-10T07:39:41.937Z</time>
      </trkpt>
      <trkpt lat="45.0187" lon="5.55261">
        <ele>1683</ele>
        <time>2013-08-10T07:39:42.397Z</time>
      </trkpt>
      <trkpt lat="45.01864" lon="5.5527">
        <ele>1688.7</ele>
        <time>2013-08-10T07:39:51.258Z</time>
      </trkpt>
      <trkpt lat="45.01864" lon="5.55271">
        <ele>1689.5</ele>
        <time>2013-08-10T07:39:52.870Z</time>
      </trkpt>
      <trkpt lat="45.01858" lon="5.55275">
        <ele>1694.6</ele>
        <time>2013-08-10T07:40:01.683Z</time>
      </trkpt>
      <trkpt lat="45.01858" lon="5.55275">
        <ele>1694.5</ele>
        <time>2013-08-10T07:40:02.732Z</time>
      </trkpt>
      <trkpt lat="45.01858" lon="5.55276">
        <ele>1695.5</ele>
        <time>2013-08-10T07:40:07.658Z</time>
      </trkpt>
      <trkpt lat="45.01857" lon="5.55276">
        <ele>1696.2</ele>
        <time>2013-08-10T07:40:08.815Z</time>
      </trkpt>
      <trkpt lat="45.01857" lon="5.55277">
        <ele>1696.3</ele>
        <time>2013-08-10T07:40:10.897Z</time>
      </trkpt>
      <trkpt lat="45.01857" lon="5.55277">
        <ele>1696.3</ele>
        <time>2013-08-10T07:40:12.845Z</time>
      </trkpt>
      <trkpt lat="45.01857" lon="5.55277">
        <ele>1695.8</ele>
        <time>2013-08-10T07:40:16.327Z</time>
      </trkpt>
      <trkpt lat="45.01857" lon="5.55277">
        <ele>1695.8</ele>
        <time>2013-08-10T07:40:17.256Z</time>
      </trkpt>
      <trkpt lat="45.01849" lon="5.55279">
        <ele>1699.7</ele>
        <time>2013-08-10T07:40:24.461Z</time>
      </trkpt>
      <trkpt lat="45.01848" lon="5.55279">
        <ele>1700</ele>
        <time>2013-08-10T07:40:25.429Z</time>
      </trkpt>
      <trkpt lat="45.0184" lon="5.55284">
        <ele>1702.7</ele>
        <time>2013-08-10T07:40:31.479Z</time>
      </trkpt>
      <trkpt lat="45.01839" lon="5.55285">
        <ele>1702.4</ele>
        <time>2013-08-10T07:40:32.420Z</time>
      </trkpt>
      <trkpt lat="45.01832" lon="5.55293">
        <ele>1706</ele>
        <time>2013-08-10T07:40:44.715Z</time>
      </trkpt>
      <trkpt lat="45.01832" lon="5.55294">
        <ele>1706.3</ele>
        <time>2013-08-10T07:40:45.714Z</time>
      </trkpt>
      <trkpt lat="45.01832" lon="5.55294">
        <ele>1706.2</ele>
        <time>2013-08-10T07:40:46.659Z</time>
      </trkpt>
      <trkpt lat="45.01831" lon="5.55294">
        <ele>1706.4</ele>
        <time>2013-08-10T07:40:47.845Z</time>
      </trkpt>
      <trkpt lat="45.01831" lon="5.55295">
        <ele>1707</ele>
        <time>2013-08-10T07:40:51.728Z</time>
      </trkpt>
      <trkpt lat="45.01831" lon="5.55295">
        <ele>1707</ele>
        <time>2013-08-10T07:40:52.696Z</time>
      </trkpt>
      <trkpt lat="45.01831" lon="5.55296">
        <ele>1707.5</ele>
        <time>2013-08-10T07:40:59.860Z</time>
      </trkpt>
      <trkpt lat="45.0183" lon="5.55296">
        <ele>1707.6</ele>
        <time>2013-08-10T07:41:00.873Z</time>
      </trkpt>
      <trkpt lat="45.01825" lon="5.55307">
        <ele>1709.7</ele>
        <time>2013-08-10T07:41:06.767Z</time>
      </trkpt>
      <trkpt lat="45.01825" lon="5.55309">
        <ele>1709.4</ele>
        <time>2013-08-10T07:41:07.742Z</time>
      </trkpt>
      <trkpt lat="45.0182" lon="5.55319">
        <ele>1710.2</ele>
        <time>2013-08-10T07:41:17.875Z</time>
      </trkpt>
      <trkpt lat="45.01819" lon="5.5532">
        <ele>1710.9</ele>
        <time>2013-08-10T07:41:18.596Z</time>
      </trkpt>
      <trkpt lat="45.01815" lon="5.5533">
        <ele>1713.1</ele>
        <time>2013-08-10T07:41:27.073Z</time>
      </trkpt>
      <trkpt lat="45.01814" lon="5.55332">
        <ele>1713.1</ele>
        <time>2013-08-10T07:41:28.857Z</time>
      </trkpt>
      <trkpt lat="45.01809" lon="5.55342">
        <ele>1715.1</ele>
        <time>2013-08-10T07:41:38.737Z</time>
      </trkpt>
      <trkpt lat="45.01808" lon="5.55342">
        <ele>1714.9</ele>
        <time>2013-08-10T07:41:39.755Z</time>
      </trkpt>
      <trkpt lat="45.01806" lon="5.55353">
        <ele>1716.3</ele>
        <time>2013-08-10T07:41:50.677Z</time>
      </trkpt>
      <trkpt lat="45.01805" lon="5.55355">
        <ele>1716.3</ele>
        <time>2013-08-10T07:41:51.872Z</time>
      </trkpt>
      <trkpt lat="45.01802" lon="5.55365">
        <ele>1717.7</ele>
        <time>2013-08-10T07:41:58.709Z</time>
      </trkpt>
      <trkpt lat="45.01802" lon="5.55367">
        <ele>1719</ele>
        <time>2013-08-10T07:41:59.647Z</time>
      </trkpt>
      <trkpt lat="45.018" lon="5.55379">
        <ele>1720.2</ele>
        <time>2013-08-10T07:42:04.721Z</time>
      </trkpt>
      <trkpt lat="45.01799" lon="5.55381">
        <ele>1720.1</ele>
        <time>2013-08-10T07:42:05.721Z</time>
      </trkpt>
      <trkpt lat="45.01795" lon="5.55392">
        <ele>1721.3</ele>
        <time>2013-08-10T07:42:15.705Z</time>
      </trkpt>
      <trkpt lat="45.01795" lon="5.55393">
        <ele>1721.4</ele>
        <time>2013-08-10T07:42:16.708Z</time>
      </trkpt>
      <trkpt lat="45.01791" lon="5.55404">
        <ele>1724.1</ele>
        <time>2013-08-10T07:42:33.813Z</time>
      </trkpt>
      <trkpt lat="45.0179" lon="5.55404">
        <ele>1724.1</ele>
        <time>2013-08-10T07:42:35.845Z</time>
      </trkpt>
      <trkpt lat="45.01783" lon="5.55409">
        <ele>1725.6</ele>
        <time>2013-08-10T07:42:40.883Z</time>
      </trkpt>
      <trkpt lat="45.01781" lon="5.5541">
        <ele>1726</ele>
        <time>2013-08-10T07:42:41.772Z</time>
      </trkpt>
      <trkpt lat="45.01773" lon="5.55416">
        <ele>1728</ele>
        <time>2013-08-10T07:42:46.808Z</time>
      </trkpt>
      <trkpt lat="45.01772" lon="5.55416">
        <ele>1728</ele>
        <time>2013-08-10T07:42:47.741Z</time>
      </trkpt>
      <trkpt lat="45.01764" lon="5.5542">
        <ele>1728.4</ele>
        <time>2013-08-10T07:42:52.834Z</time>
      </trkpt>
      <trkpt lat="45.01763" lon="5.55421">
        <ele>1729</ele>
        <time>2013-08-10T07:42:53.940Z</time>
      </trkpt>
      <trkpt lat="45.01754" lon="5.55421">
        <ele>1729.9</ele>
        <time>2013-08-10T07:43:05.677Z</time>
      </trkpt>
      <trkpt lat="45.01753" lon="5.55421">
        <ele>1730.2</ele>
        <time>2013-08-10T07:43:06.613Z</time>
      </trkpt>
      <trkpt lat="45.01745" lon="5.55423">
        <ele>1731.2</ele>
        <time>2013-08-10T07:43:15.611Z</time>
      </trkpt>
      <trkpt lat="45.01744" lon="5.55423">
        <ele>1731.4</ele>
        <time>2013-08-10T07:43:16.711Z</time>
      </trkpt>
      <trkpt lat="45.01741" lon="5.5542">
        <ele>1734.2</ele>
        <time>2013-08-10T07:43:27.853Z</time>
      </trkpt>
      <trkpt lat="45.01741" lon="5.5542">
        <ele>1733.9</ele>
        <time>2013-08-10T07:43:28.346Z</time>
      </trkpt>
      <trkpt lat="45.01742" lon="5.55419">
        <ele>1734.6</ele>
        <time>2013-08-10T07:43:30.887Z</time>
      </trkpt>
      <trkpt lat="45.01742" lon="5.55419">
        <ele>1734.6</ele>
        <time>2013-08-10T07:43:31.585Z</time>
      </trkpt>
      <trkpt lat="45.01742" lon="5.55418">
        <ele>1734.7</ele>
        <time>2013-08-10T07:43:32.865Z</time>
      </trkpt>
      <trkpt lat="45.01742" lon="5.55418">
        <ele>1734.8</ele>
        <time>2013-08-10T07:43:33.704Z</time>
      </trkpt>
      <trkpt lat="45.01741" lon="5.55418">
        <ele>1734.8</ele>
        <time>2013-08-10T07:43:34.658Z</time>
      </trkpt>
      <trkpt lat="45.01741" lon="5.55418">
        <ele>1735.7</ele>
        <time>2013-08-10T07:43:35.774Z</time>
      </trkpt>
      <trkpt lat="45.01732" lon="5.55421">
        <ele>1736.7</ele>
        <time>2013-08-10T07:43:46.589Z</time>
      </trkpt>
      <trkpt lat="45.01732" lon="5.55421">
        <ele>1737.6</ele>
        <time>2013-08-10T07:43:46.610Z</time>
      </trkpt>
      <trkpt lat="45.01724" lon="5.55426">
        <ele>1741.8</ele>
        <time>2013-08-10T07:44:01.614Z</time>
      </trkpt>
      <trkpt lat="45.01723" lon="5.55426">
        <ele>1741.8</ele>
        <time>2013-08-10T07:44:02.701Z</time>
      </trkpt>
      <trkpt lat="45.01715" lon="5.55427">
        <ele>1746.6</ele>
        <time>2013-08-10T07:44:12.664Z</time>
      </trkpt>
      <trkpt lat="45.01714" lon="5.55427">
        <ele>1746.7</ele>
        <time>2013-08-10T07:44:13.622Z</time>
      </trkpt>
      <trkpt lat="45.01705" lon="5.55429">
        <ele>1752.2</ele>
        <time>2013-08-10T07:44:23.398Z</time>
      </trkpt>
      <trkpt lat="45.01705" lon="5.55429">
        <ele>1752.3</ele>
        <time>2013-08-10T07:44:24.365Z</time>
      </trkpt>
      <trkpt lat="45.01702" lon="5.55433">
        <ele>1752.8</ele>
        <time>2013-08-10T07:44:32.429Z</time>
      </trkpt>
      <trkpt lat="45.01702" lon="5.55433">
        <ele>1752.7</ele>
        <time>2013-08-10T07:44:33.729Z</time>
      </trkpt>
      <trkpt lat="45.01702" lon="5.55434">
        <ele>1753.3</ele>
        <time>2013-08-10T07:44:39.724Z</time>
      </trkpt>
      <trkpt lat="45.01702" lon="5.55434">
        <ele>1753.3</ele>
        <time>2013-08-10T07:44:40.725Z</time>
      </trkpt>
      <trkpt lat="45.01703" lon="5.55435">
        <ele>1753.3</ele>
        <time>2013-08-10T07:44:42.755Z</time>
      </trkpt>
      <trkpt lat="45.01703" lon="5.55435">
        <ele>1753.3</ele>
        <time>2013-08-10T07:44:44.850Z</time>
      </trkpt>
      <trkpt lat="45.01703" lon="5.55435">
        <ele>1753.7</ele>
        <time>2013-08-10T07:44:49.839Z</time>
      </trkpt>
      <trkpt lat="45.01703" lon="5.55436">
        <ele>1753.8</ele>
        <time>2013-08-10T07:44:50.703Z</time>
      </trkpt>
      <trkpt lat="45.01697" lon="5.55444">
        <ele>1753.3</ele>
        <time>2013-08-10T07:44:55.635Z</time>
      </trkpt>
      <trkpt lat="45.01696" lon="5.55446">
        <ele>1753.6</ele>
        <time>2013-08-10T07:44:56.635Z</time>
      </trkpt>
      <trkpt lat="45.01691" lon="5.55456">
        <ele>1754.8</ele>
        <time>2013-08-10T07:45:02.736Z</time>
      </trkpt>
      <trkpt lat="45.01691" lon="5.55457">
        <ele>1755.2</ele>
        <time>2013-08-10T07:45:02.773Z</time>
      </trkpt>
      <trkpt lat="45.01687" lon="5.55467">
        <ele>1755.9</ele>
        <time>2013-08-10T07:45:06.863Z</time>
      </trkpt>
      <trkpt lat="45.01687" lon="5.55469">
        <ele>1755.5</ele>
        <time>2013-08-10T07:45:07.852Z</time>
      </trkpt>
      <trkpt lat="45.01683" lon="5.5548">
        <ele>1756</ele>
        <time>2013-08-10T07:45:12.728Z</time>
      </trkpt>
      <trkpt lat="45.01682" lon="5.55482">
        <ele>1756.2</ele>
        <time>2013-08-10T07:45:13.708Z</time>
      </trkpt>
      <trkpt lat="45.0168" lon="5.55494">
        <ele>1755.9</ele>
        <time>2013-08-10T07:45:19.847Z</time>
      </trkpt>
      <trkpt lat="45.0168" lon="5.55496">
        <ele>1756.3</ele>
        <time>2013-08-10T07:45:20.761Z</time>
      </trkpt>
      <trkpt lat="45.01674" lon="5.55506">
        <ele>1757.1</ele>
        <time>2013-08-10T07:45:25.668Z</time>
      </trkpt>
      <trkpt lat="45.01673" lon="5.55508">
        <ele>1757.4</ele>
        <time>2013-08-10T07:45:26.868Z</time>
      </trkpt>
      <trkpt lat="45.01668" lon="5.55517">
        <ele>1757.7</ele>
        <time>2013-08-10T07:45:31.483Z</time>
      </trkpt>
      <trkpt lat="45.01666" lon="5.55519">
        <ele>1757.5</ele>
        <time>2013-08-10T07:45:32.451Z</time>
      </trkpt>
      <trkpt lat="45.01661" lon="5.55528">
        <ele>1757</ele>
        <time>2013-08-10T07:45:37.433Z</time>
      </trkpt>
      <trkpt lat="45.0166" lon="5.5553">
        <ele>1757.1</ele>
        <time>2013-08-10T07:45:38.503Z</time>
      </trkpt>
      <trkpt lat="45.01655" lon="5.55539">
        <ele>1757.1</ele>
        <time>2013-08-10T07:45:45.678Z</time>
      </trkpt>
      <trkpt lat="45.01654" lon="5.5554">
        <ele>1757.4</ele>
        <time>2013-08-10T07:45:46.777Z</time>
      </trkpt>
      <trkpt lat="45.01648" lon="5.55549">
        <ele>1761.3</ele>
        <time>2013-08-10T07:45:56.724Z</time>
      </trkpt>
      <trkpt lat="45.01647" lon="5.5555">
        <ele>1760.9</ele>
        <time>2013-08-10T07:45:57.714Z</time>
      </trkpt>
      <trkpt lat="45.0164" lon="5.55559">
        <ele>1762.2</ele>
        <time>2013-08-10T07:46:05.222Z</time>
      </trkpt>
      <trkpt lat="45.0164" lon="5.5556">
        <ele>1763</ele>
        <time>2013-08-10T07:46:05.834Z</time>
      </trkpt>
      <trkpt lat="45.01638" lon="5.55558">
        <ele>1765.8</ele>
        <time>2013-08-10T07:46:19.712Z</time>
      </trkpt>
      <trkpt lat="45.01637" lon="5.55558">
        <ele>1765.8</ele>
        <time>2013-08-10T07:46:21.844Z</time>
      </trkpt>
      <trkpt lat="45.01637" lon="5.55558">
        <ele>1765.5</ele>
        <time>2013-08-10T07:46:21.891Z</time>
      </trkpt>
      <trkpt lat="45.01638" lon="5.55559">
        <ele>1766.7</ele>
        <time>2013-08-10T07:46:22.770Z</time>
      </trkpt>
      <trkpt lat="45.01636" lon="5.55558">
        <ele>1764.3</ele>
        <time>2013-08-10T07:46:27.891Z</time>
      </trkpt>
      <trkpt lat="45.01636" lon="5.55557">
        <ele>1764.2</ele>
        <time>2013-08-10T07:46:28.887Z</time>
      </trkpt>
      <trkpt lat="45.01637" lon="5.55557">
        <ele>1763.3</ele>
        <time>2013-08-10T07:48:20.824Z</time>
      </trkpt>
      <trkpt lat="45.01636" lon="5.55557">
        <ele>1763.3</ele>
        <time>2013-08-10T07:48:21.812Z</time>
      </trkpt>
      <trkpt lat="45.01629" lon="5.55565">
        <ele>1762.6</ele>
        <time>2013-08-10T07:48:25.914Z</time>
      </trkpt>
      <trkpt lat="45.01627" lon="5.55567">
        <ele>1762.7</ele>
        <time>2013-08-10T07:48:26.883Z</time>
      </trkpt>
      <trkpt lat="45.01621" lon="5.55573">
        <ele>1763</ele>
        <time>2013-08-10T07:48:29.814Z</time>
      </trkpt>
      <trkpt lat="45.01619" lon="5.55575">
        <ele>1763</ele>
        <time>2013-08-10T07:48:30.823Z</time>
      </trkpt>
      <trkpt lat="45.01611" lon="5.55578">
        <ele>1762.1</ele>
        <time>2013-08-10T07:48:35.837Z</time>
      </trkpt>
      <trkpt lat="45.0161" lon="5.55579">
        <ele>1761.7</ele>
        <time>2013-08-10T07:48:36.817Z</time>
      </trkpt>
      <trkpt lat="45.01601" lon="5.55582">
        <ele>1761.7</ele>
        <time>2013-08-10T07:48:42.762Z</time>
      </trkpt>
      <trkpt lat="45.016" lon="5.55583">
        <ele>1761.1</ele>
        <time>2013-08-10T07:48:43.813Z</time>
      </trkpt>
      <trkpt lat="45.01594" lon="5.55592">
        <ele>1760.3</ele>
        <time>2013-08-10T07:48:49.762Z</time>
      </trkpt>
      <trkpt lat="45.01593" lon="5.55593">
        <ele>1760.5</ele>
        <time>2013-08-10T07:48:50.803Z</time>
      </trkpt>
      <trkpt lat="45.01585" lon="5.55598">
        <ele>1760.6</ele>
        <time>2013-08-10T07:48:58.808Z</time>
      </trkpt>
      <trkpt lat="45.01584" lon="5.55599">
        <ele>1761</ele>
        <time>2013-08-10T07:48:59.912Z</time>
      </trkpt>
      <trkpt lat="45.01577" lon="5.55605">
        <ele>1760.1</ele>
        <time>2013-08-10T07:49:05.860Z</time>
      </trkpt>
      <trkpt lat="45.01576" lon="5.55606">
        <ele>1760</ele>
        <time>2013-08-10T07:49:06.822Z</time>
      </trkpt>
      <trkpt lat="45.01569" lon="5.55611">
        <ele>1761</ele>
        <time>2013-08-10T07:49:13.818Z</time>
      </trkpt>
      <trkpt lat="45.01568" lon="5.55614">
        <ele>1761.6</ele>
        <time>2013-08-10T07:49:14.854Z</time>
      </trkpt>
      <trkpt lat="45.01561" lon="5.55619">
        <ele>1762</ele>
        <time>2013-08-10T07:49:24.819Z</time>
      </trkpt>
      <trkpt lat="45.01559" lon="5.55619">
        <ele>1762.5</ele>
        <time>2013-08-10T07:49:25.860Z</time>
      </trkpt>
      <trkpt lat="45.01551" lon="5.55623">
        <ele>1765.4</ele>
        <time>2013-08-10T07:49:29.796Z</time>
      </trkpt>
      <trkpt lat="45.01549" lon="5.55624">
        <ele>1766.7</ele>
        <time>2013-08-10T07:49:30.821Z</time>
      </trkpt>
      <trkpt lat="45.01542" lon="5.5563">
        <ele>1769.6</ele>
        <time>2013-08-10T07:49:35.827Z</time>
      </trkpt>
      <trkpt lat="45.0154" lon="5.55631">
        <ele>1769.6</ele>
        <time>2013-08-10T07:49:36.849Z</time>
      </trkpt>
      <trkpt lat="45.01534" lon="5.55639">
        <ele>1769.4</ele>
        <time>2013-08-10T07:49:50.832Z</time>
      </trkpt>
      <trkpt lat="45.01533" lon="5.55639">
        <ele>1769.4</ele>
        <time>2013-08-10T07:49:51.821Z</time>
      </trkpt>
      <trkpt lat="45.01533" lon="5.55639">
        <ele>1769.4</ele>
        <time>2013-08-10T07:49:52.860Z</time>
      </trkpt>
      <trkpt lat="45.01533" lon="5.55639">
        <ele>1769.4</ele>
        <time>2013-08-10T07:49:53.877Z</time>
      </trkpt>
      <trkpt lat="45.01532" lon="5.55639">
        <ele>1769.4</ele>
        <time>2013-08-10T07:49:54.880Z</time>
      </trkpt>
      <trkpt lat="45.01525" lon="5.55642">
        <ele>1769</ele>
        <time>2013-08-10T07:49:58.821Z</time>
      </trkpt>
      <trkpt lat="45.01523" lon="5.55643">
        <ele>1769.4</ele>
        <time>2013-08-10T07:49:59.807Z</time>
      </trkpt>
      <trkpt lat="45.01516" lon="5.55646">
        <ele>1768.6</ele>
        <time>2013-08-10T07:50:03.806Z</time>
      </trkpt>
      <trkpt lat="45.01514" lon="5.55647">
        <ele>1769.1</ele>
        <time>2013-08-10T07:50:04.799Z</time>
      </trkpt>
      <trkpt lat="45.01507" lon="5.55653">
        <ele>1770.7</ele>
        <time>2013-08-10T07:50:09.927Z</time>
      </trkpt>
      <trkpt lat="45.01507" lon="5.55655">
        <ele>1770.5</ele>
        <time>2013-08-10T07:50:10.892Z</time>
      </trkpt>
      <trkpt lat="45.015" lon="5.55663">
        <ele>1768.7</ele>
        <time>2013-08-10T07:50:17.764Z</time>
      </trkpt>
      <trkpt lat="45.01499" lon="5.55664">
        <ele>1769.1</ele>
        <time>2013-08-10T07:50:18.840Z</time>
      </trkpt>
      <trkpt lat="45.01491" lon="5.55664">
        <ele>1771.4</ele>
        <time>2013-08-10T07:50:42.687Z</time>
      </trkpt>
      <trkpt lat="45.01489" lon="5.55665">
        <ele>1772.6</ele>
        <time>2013-08-10T07:50:43.202Z</time>
      </trkpt>
      <trkpt lat="45.01483" lon="5.55671">
        <ele>1773.1</ele>
        <time>2013-08-10T07:50:45.826Z</time>
      </trkpt>
      <trkpt lat="45.01481" lon="5.55673">
        <ele>1772.6</ele>
        <time>2013-08-10T07:50:46.734Z</time>
      </trkpt>
      <trkpt lat="45.01474" lon="5.55681">
        <ele>1774.1</ele>
        <time>2013-08-10T07:50:50.833Z</time>
      </trkpt>
      <trkpt lat="45.01473" lon="5.55682">
        <ele>1774.1</ele>
        <time>2013-08-10T07:50:51.737Z</time>
      </trkpt>
      <trkpt lat="45.01467" lon="5.55691">
        <ele>1775.1</ele>
        <time>2013-08-10T07:50:56.814Z</time>
      </trkpt>
      <trkpt lat="45.01465" lon="5.55692">
        <ele>1775.3</ele>
        <time>2013-08-10T07:50:57.740Z</time>
      </trkpt>
      <trkpt lat="45.01466" lon="5.55688">
        <ele>1786.8</ele>
        <time>2013-08-10T07:51:07.620Z</time>
      </trkpt>
      <trkpt lat="45.01466" lon="5.55689">
        <ele>1786.4</ele>
        <time>2013-08-10T07:51:07.336Z</time>
      </trkpt>
      <trkpt lat="45.01465" lon="5.5569">
        <ele>1785.7</ele>
        <time>2013-08-10T07:52:39.630Z</time>
      </trkpt>
      <trkpt lat="45.01465" lon="5.5569">
        <ele>1785.7</ele>
        <time>2013-08-10T07:52:40.624Z</time>
      </trkpt>
      <trkpt lat="45.0146" lon="5.55687">
        <ele>1783</ele>
        <time>2013-08-10T07:52:53.663Z</time>
      </trkpt>
      <trkpt lat="45.0146" lon="5.55687">
        <ele>1781.6</ele>
        <time>2013-08-10T07:52:54.679Z</time>
      </trkpt>
      <trkpt lat="45.01461" lon="5.55687">
        <ele>1780.2</ele>
        <time>2013-08-10T07:52:57.810Z</time>
      </trkpt>
      <trkpt lat="45.01461" lon="5.55686">
        <ele>1780.3</ele>
        <time>2013-08-10T07:52:57.881Z</time>
      </trkpt>
      <trkpt lat="45.01463" lon="5.55684">
        <ele>1779.9</ele>
        <time>2013-08-10T07:53:01.299Z</time>
      </trkpt>
      <trkpt lat="45.01462" lon="5.55684">
        <ele>1779.9</ele>
        <time>2013-08-10T07:53:02.941Z</time>
      </trkpt>
      <trkpt lat="45.01462" lon="5.55685">
        <ele>1779.9</ele>
        <time>2013-08-10T07:53:03.635Z</time>
      </trkpt>
      <trkpt lat="45.01462" lon="5.55685">
        <ele>1779.7</ele>
        <time>2013-08-10T07:53:04.708Z</time>
      </trkpt>
      <trkpt lat="45.01462" lon="5.55685">
        <ele>1779.8</ele>
        <time>2013-08-10T07:53:05.926Z</time>
      </trkpt>
      <trkpt lat="45.01462" lon="5.55685">
        <ele>1780.1</ele>
        <time>2013-08-10T07:53:07.925Z</time>
      </trkpt>
      <trkpt lat="45.01462" lon="5.55685">
        <ele>1780</ele>
        <time>2013-08-10T07:53:08.741Z</time>
      </trkpt>
      <trkpt lat="45.01458" lon="5.55675">
        <ele>1775</ele>
        <time>2013-08-10T07:53:15.736Z</time>
      </trkpt>
      <trkpt lat="45.01457" lon="5.55673">
        <ele>1774.3</ele>
        <time>2013-08-10T07:53:17.883Z</time>
      </trkpt>
      <trkpt lat="45.0145" lon="5.55669">
        <ele>1772.3</ele>
        <time>2013-08-10T07:53:37.654Z</time>
      </trkpt>
      <trkpt lat="45.01448" lon="5.5567">
        <ele>1772.2</ele>
        <time>2013-08-10T07:53:38.649Z</time>
      </trkpt>
      <trkpt lat="45.0144" lon="5.5567">
        <ele>1771.9</ele>
        <time>2013-08-10T07:53:41.714Z</time>
      </trkpt>
      <trkpt lat="45.01438" lon="5.55669">
        <ele>1770.1</ele>
        <time>2013-08-10T07:53:42.869Z</time>
      </trkpt>
      <trkpt lat="45.0143" lon="5.55667">
        <ele>1768.7</ele>
        <time>2013-08-10T07:53:46.766Z</time>
      </trkpt>
      <trkpt lat="45.01428" lon="5.55667">
        <ele>1769</ele>
        <time>2013-08-10T07:53:48.895Z</time>
      </trkpt>
      <trkpt lat="45.01421" lon="5.55661">
        <ele>1771.5</ele>
        <time>2013-08-10T07:53:54.600Z</time>
      </trkpt>
      <trkpt lat="45.01419" lon="5.5566">
        <ele>1772</ele>
        <time>2013-08-10T07:53:55.473Z</time>
      </trkpt>
      <trkpt lat="45.01412" lon="5.55657">
        <ele>1772.8</ele>
        <time>2013-08-10T07:53:58.866Z</time>
      </trkpt>
      <trkpt lat="45.0141" lon="5.55657">
        <ele>1773.7</ele>
        <time>2013-08-10T07:53:59.863Z</time>
      </trkpt>
      <trkpt lat="45.01402" lon="5.55656">
        <ele>1774.5</ele>
        <time>2013-08-10T07:54:03.717Z</time>
      </trkpt>
      <trkpt lat="45.01401" lon="5.55656">
        <ele>1774.5</ele>
        <time>2013-08-10T07:54:04.719Z</time>
      </trkpt>
      <trkpt lat="45.01392" lon="5.55656">
        <ele>1772.8</ele>
        <time>2013-08-10T07:54:11.725Z</time>
      </trkpt>
      <trkpt lat="45.01391" lon="5.55656">
        <ele>1771.6</ele>
        <time>2013-08-10T07:54:13.874Z</time>
      </trkpt>
      <trkpt lat="45.01383" lon="5.55651">
        <ele>1771.7</ele>
        <time>2013-08-10T07:54:18.906Z</time>
      </trkpt>
      <trkpt lat="45.01382" lon="5.5565">
        <ele>1771.1</ele>
        <time>2013-08-10T07:54:19.704Z</time>
      </trkpt>
      <trkpt lat="45.01375" lon="5.55645">
        <ele>1767.9</ele>
        <time>2013-08-10T07:54:25.423Z</time>
      </trkpt>
      <trkpt lat="45.01373" lon="5.55645">
        <ele>1767.2</ele>
        <time>2013-08-10T07:54:26.861Z</time>
      </trkpt>
      <trkpt lat="45.01365" lon="5.55644">
        <ele>1767.8</ele>
        <time>2013-08-10T07:54:32.597Z</time>
      </trkpt>
      <trkpt lat="45.01364" lon="5.55644">
        <ele>1768.1</ele>
        <time>2013-08-10T07:54:33.594Z</time>
      </trkpt>
      <trkpt lat="45.01357" lon="5.55637">
        <ele>1771</ele>
        <time>2013-08-10T07:54:41.103Z</time>
      </trkpt>
      <trkpt lat="45.01356" lon="5.55635">
        <ele>1770.9</ele>
        <time>2013-08-10T07:54:41.868Z</time>
      </trkpt>
      <trkpt lat="45.01349" lon="5.5563">
        <ele>1772.5</ele>
        <time>2013-08-10T07:54:49.619Z</time>
      </trkpt>
      <trkpt lat="45.01348" lon="5.55629">
        <ele>1772.4</ele>
        <time>2013-08-10T07:54:50.550Z</time>
      </trkpt>
      <trkpt lat="45.0134" lon="5.55626">
        <ele>1771.4</ele>
        <time>2013-08-10T07:54:59.737Z</time>
      </trkpt>
      <trkpt lat="45.01339" lon="5.55626">
        <ele>1771.6</ele>
        <time>2013-08-10T07:55:00.734Z</time>
      </trkpt>
      <trkpt lat="45.01331" lon="5.5562">
        <ele>1772.8</ele>
        <time>2013-08-10T07:55:08.736Z</time>
      </trkpt>
      <trkpt lat="45.0133" lon="5.55619">
        <ele>1773.1</ele>
        <time>2013-08-10T07:55:09.745Z</time>
      </trkpt>
      <trkpt lat="45.01323" lon="5.55614">
        <ele>1774.2</ele>
        <time>2013-08-10T07:55:17.933Z</time>
      </trkpt>
      <trkpt lat="45.01321" lon="5.55614">
        <ele>1774.4</ele>
        <time>2013-08-10T07:55:18.861Z</time>
      </trkpt>
      <trkpt lat="45.01318" lon="5.55613">
        <ele>1775.8</ele>
        <time>2013-08-10T07:55:24.742Z</time>
      </trkpt>
      <trkpt lat="45.01318" lon="5.55613">
        <ele>1775.8</ele>
        <time>2013-08-10T07:55:25.828Z</time>
      </trkpt>
      <trkpt lat="45.01317" lon="5.55612">
        <ele>1776.4</ele>
        <time>2013-08-10T07:55:35.652Z</time>
      </trkpt>
      <trkpt lat="45.01317" lon="5.55612">
        <ele>1776.5</ele>
        <time>2013-08-10T07:55:36.625Z</time>
      </trkpt>
      <trkpt lat="45.01309" lon="5.55606">
        <ele>1783.2</ele>
        <time>2013-08-10T07:55:42.744Z</time>
      </trkpt>
      <trkpt lat="45.01308" lon="5.55604">
        <ele>1784.4</ele>
        <time>2013-08-10T07:55:43.743Z</time>
      </trkpt>
      <trkpt lat="45.01301" lon="5.55597">
        <ele>1785.4</ele>
        <time>2013-08-10T07:55:56.791Z</time>
      </trkpt>
      <trkpt lat="45.01301" lon="5.55597">
        <ele>1785.5</ele>
        <time>2013-08-10T07:55:57.924Z</time>
      </trkpt>
      <trkpt lat="45.01292" lon="5.55592">
        <ele>1786.8</ele>
        <time>2013-08-10T07:56:06.983Z</time>
      </trkpt>
      <trkpt lat="45.01292" lon="5.55592">
        <ele>1786.6</ele>
        <time>2013-08-10T07:56:07.858Z</time>
      </trkpt>
      <trkpt lat="45.0129" lon="5.55592">
        <ele>1786.7</ele>
        <time>2013-08-10T07:56:14.729Z</time>
      </trkpt>
      <trkpt lat="45.0129" lon="5.55592">
        <ele>1786.7</ele>
        <time>2013-08-10T07:56:15.735Z</time>
      </trkpt>
      <trkpt lat="45.0129" lon="5.55592">
        <ele>1786.7</ele>
        <time>2013-08-10T07:56:30.692Z</time>
      </trkpt>
      <trkpt lat="45.01289" lon="5.55592">
        <ele>1787.3</ele>
        <time>2013-08-10T07:56:31.765Z</time>
      </trkpt>
      <trkpt lat="45.01285" lon="5.55591">
        <ele>1790.2</ele>
        <time>2013-08-10T07:56:42.686Z</time>
      </trkpt>
      <trkpt lat="45.01285" lon="5.55592">
        <ele>1790.9</ele>
        <time>2013-08-10T07:56:43.788Z</time>
      </trkpt>
      <trkpt lat="45.01285" lon="5.55591">
        <ele>1791.1</ele>
        <time>2013-08-10T07:56:45.736Z</time>
      </trkpt>
      <trkpt lat="45.01285" lon="5.55591">
        <ele>1791.4</ele>
        <time>2013-08-10T07:56:46.783Z</time>
      </trkpt>
      <trkpt lat="45.01282" lon="5.55587">
        <ele>1789.8</ele>
        <time>2013-08-10T07:56:53.747Z</time>
      </trkpt>
      <trkpt lat="45.01282" lon="5.55587">
        <ele>1790</ele>
        <time>2013-08-10T07:56:54.673Z</time>
      </trkpt>
      <trkpt lat="45.01281" lon="5.55587">
        <ele>1789.8</ele>
        <time>2013-08-10T07:57:03.739Z</time>
      </trkpt>
      <trkpt lat="45.01281" lon="5.55588">
        <ele>1790.2</ele>
        <time>2013-08-10T07:57:04.737Z</time>
      </trkpt>
      <trkpt lat="45.0128" lon="5.55586">
        <ele>1790.8</ele>
        <time>2013-08-10T07:57:07.684Z</time>
      </trkpt>
      <trkpt lat="45.0128" lon="5.55586">
        <ele>1790.8</ele>
        <time>2013-08-10T07:57:08.708Z</time>
      </trkpt>
      <trkpt lat="45.01279" lon="5.55585">
        <ele>1791.7</ele>
        <time>2013-08-10T07:57:16.778Z</time>
      </trkpt>
      <trkpt lat="45.01279" lon="5.55585">
        <ele>1792.1</ele>
        <time>2013-08-10T07:57:17.692Z</time>
      </trkpt>
      <trkpt lat="45.01271" lon="5.55583">
        <ele>1796.6</ele>
        <time>2013-08-10T07:57:26.676Z</time>
      </trkpt>
      <trkpt lat="45.01269" lon="5.55583">
        <ele>1796.4</ele>
        <time>2013-08-10T07:57:27.675Z</time>
      </trkpt>
      <trkpt lat="45.01264" lon="5.5558">
        <ele>1797.5</ele>
        <time>2013-08-10T07:57:37.808Z</time>
      </trkpt>
      <trkpt lat="45.01263" lon="5.5558">
        <ele>1797.5</ele>
        <time>2013-08-10T07:57:38.677Z</time>
      </trkpt>
      <trkpt lat="45.01263" lon="5.5558">
        <ele>1797.9</ele>
        <time>2013-08-10T07:58:04.834Z</time>
      </trkpt>
      <trkpt lat="45.01262" lon="5.5558">
        <ele>1798.1</ele>
        <time>2013-08-10T07:58:05.759Z</time>
      </trkpt>
      <trkpt lat="45.0126" lon="5.5558">
        <ele>1799.7</ele>
        <time>2013-08-10T07:58:10.697Z</time>
      </trkpt>
      <trkpt lat="45.0126" lon="5.5558">
        <ele>1799.6</ele>
        <time>2013-08-10T07:58:11.747Z</time>
      </trkpt>
      <trkpt lat="45.01259" lon="5.5558">
        <ele>1800</ele>
        <time>2013-08-10T07:58:12.707Z</time>
      </trkpt>
      <trkpt lat="45.0125" lon="5.55581">
        <ele>1801.6</ele>
        <time>2013-08-10T07:58:22.920Z</time>
      </trkpt>
      <trkpt lat="45.0125" lon="5.55581">
        <ele>1802.1</ele>
        <time>2013-08-10T07:58:23.680Z</time>
      </trkpt>
      <trkpt lat="45.01241" lon="5.5558">
        <ele>1804.3</ele>
        <time>2013-08-10T07:58:41.721Z</time>
      </trkpt>
      <trkpt lat="45.01241" lon="5.5558">
        <ele>1804.5</ele>
        <time>2013-08-10T07:58:42.719Z</time>
      </trkpt>
      <trkpt lat="45.01241" lon="5.5558">
        <ele>1804.9</ele>
        <time>2013-08-10T07:58:48.773Z</time>
      </trkpt>
      <trkpt lat="45.0124" lon="5.5558">
        <ele>1804.8</ele>
        <time>2013-08-10T07:58:49.732Z</time>
      </trkpt>
      <trkpt lat="45.0124" lon="5.55579">
        <ele>1805.2</ele>
        <time>2013-08-10T07:58:50.728Z</time>
      </trkpt>
      <trkpt lat="45.01239" lon="5.5558">
        <ele>1805.2</ele>
        <time>2013-08-10T07:59:08.729Z</time>
      </trkpt>
      <trkpt lat="45.01239" lon="5.55579">
        <ele>1805.3</ele>
        <time>2013-08-10T07:59:09.797Z</time>
      </trkpt>
      <trkpt lat="45.01232" lon="5.55572">
        <ele>1807.5</ele>
        <time>2013-08-10T07:59:19.731Z</time>
      </trkpt>
      <trkpt lat="45.01231" lon="5.55572">
        <ele>1806.6</ele>
        <time>2013-08-10T07:59:20.740Z</time>
      </trkpt>
      <trkpt lat="45.01223" lon="5.55566">
        <ele>1809.4</ele>
        <time>2013-08-10T07:59:29.734Z</time>
      </trkpt>
      <trkpt lat="45.01222" lon="5.55565">
        <ele>1809.9</ele>
        <time>2013-08-10T07:59:30.873Z</time>
      </trkpt>
      <trkpt lat="45.01213" lon="5.55562">
        <ele>1814.9</ele>
        <time>2013-08-10T07:59:42.904Z</time>
      </trkpt>
      <trkpt lat="45.01212" lon="5.55562">
        <ele>1817.1</ele>
        <time>2013-08-10T07:59:43.433Z</time>
      </trkpt>
      <trkpt lat="45.01204" lon="5.5556">
        <ele>1817.7</ele>
        <time>2013-08-10T07:59:51.222Z</time>
      </trkpt>
      <trkpt lat="45.01203" lon="5.55559">
        <ele>1817.4</ele>
        <time>2013-08-10T07:59:52.238Z</time>
      </trkpt>
      <trkpt lat="45.01196" lon="5.55553">
        <ele>1812.7</ele>
        <time>2013-08-10T08:00:02.833Z</time>
      </trkpt>
      <trkpt lat="45.01195" lon="5.55553">
        <ele>1812.5</ele>
        <time>2013-08-10T08:00:02.913Z</time>
      </trkpt>
      <trkpt lat="45.01187" lon="5.55548">
        <ele>1817</ele>
        <time>2013-08-10T08:00:10.730Z</time>
      </trkpt>
      <trkpt lat="45.01186" lon="5.55548">
        <ele>1817.4</ele>
        <time>2013-08-10T08:00:11.730Z</time>
      </trkpt>
      <trkpt lat="45.01185" lon="5.55549">
        <ele>1816.3</ele>
        <time>2013-08-10T08:00:15.731Z</time>
      </trkpt>
      <trkpt lat="45.01185" lon="5.55549">
        <ele>1816.4</ele>
        <time>2013-08-10T08:00:16.754Z</time>
      </trkpt>
      <trkpt lat="45.01184" lon="5.55549">
        <ele>1814.6</ele>
        <time>2013-08-10T08:00:20.733Z</time>
      </trkpt>
      <trkpt lat="45.01184" lon="5.55547">
        <ele>1814.6</ele>
        <time>2013-08-10T08:00:21.731Z</time>
      </trkpt>
      <trkpt lat="45.0118" lon="5.55537">
        <ele>1812.7</ele>
        <time>2013-08-10T08:00:29.509Z</time>
      </trkpt>
      <trkpt lat="45.01179" lon="5.55535">
        <ele>1812.8</ele>
        <time>2013-08-10T08:00:30.030Z</time>
      </trkpt>
      <trkpt lat="45.01176" lon="5.55525">
        <ele>1815.6</ele>
        <time>2013-08-10T08:00:35.697Z</time>
      </trkpt>
      <trkpt lat="45.01175" lon="5.55523">
        <ele>1816.5</ele>
        <time>2013-08-10T08:00:36.673Z</time>
      </trkpt>
      <trkpt lat="45.01168" lon="5.5552">
        <ele>1818.9</ele>
        <time>2013-08-10T08:00:46.954Z</time>
      </trkpt>
      <trkpt lat="45.01168" lon="5.5552">
        <ele>1819</ele>
        <time>2013-08-10T08:00:47.879Z</time>
      </trkpt>
      <trkpt lat="45.01168" lon="5.5552">
        <ele>1819.1</ele>
        <time>2013-08-10T08:00:49.853Z</time>
      </trkpt>
      <trkpt lat="45.01168" lon="5.55519">
        <ele>1819.1</ele>
        <time>2013-08-10T08:00:50.738Z</time>
      </trkpt>
      <trkpt lat="45.01164" lon="5.55508">
        <ele>1818.2</ele>
        <time>2013-08-10T08:00:58.191Z</time>
      </trkpt>
      <trkpt lat="45.01164" lon="5.55507">
        <ele>1817.8</ele>
        <time>2013-08-10T08:00:59.922Z</time>
      </trkpt>
      <trkpt lat="45.01157" lon="5.55499">
        <ele>1817.5</ele>
        <time>2013-08-10T08:01:08.658Z</time>
      </trkpt>
      <trkpt lat="45.01156" lon="5.55497">
        <ele>1817.7</ele>
        <time>2013-08-10T08:01:09.614Z</time>
      </trkpt>
      <trkpt lat="45.0115" lon="5.55496">
        <ele>1817.2</ele>
        <time>2013-08-10T08:01:19.807Z</time>
      </trkpt>
      <trkpt lat="45.0115" lon="5.55496">
        <ele>1817.6</ele>
        <time>2013-08-10T08:01:20.832Z</time>
      </trkpt>
      <trkpt lat="45.0115" lon="5.55496">
        <ele>1817.1</ele>
        <time>2013-08-10T08:01:22.716Z</time>
      </trkpt>
      <trkpt lat="45.01149" lon="5.55496">
        <ele>1817.3</ele>
        <time>2013-08-10T08:01:23.699Z</time>
      </trkpt>
      <trkpt lat="45.01142" lon="5.5549">
        <ele>1824.9</ele>
        <time>2013-08-10T08:01:44.766Z</time>
      </trkpt>
      <trkpt lat="45.01142" lon="5.5549">
        <ele>1825.5</ele>
        <time>2013-08-10T08:01:46.882Z</time>
      </trkpt>
      <trkpt lat="45.01142" lon="5.5549">
        <ele>1824.4</ele>
        <time>2013-08-10T08:01:48.664Z</time>
      </trkpt>
      <trkpt lat="45.01141" lon="5.5549">
        <ele>1825</ele>
        <time>2013-08-10T08:01:49.610Z</time>
      </trkpt>
      <trkpt lat="45.01135" lon="5.5549">
        <ele>1827.6</ele>
        <time>2013-08-10T08:02:05.073Z</time>
      </trkpt>
      <trkpt lat="45.01135" lon="5.5549">
        <ele>1827.4</ele>
        <time>2013-08-10T08:02:06.883Z</time>
      </trkpt>
      <trkpt lat="45.01135" lon="5.5549">
        <ele>1827.4</ele>
        <time>2013-08-10T08:02:09.694Z</time>
      </trkpt>
      <trkpt lat="45.01134" lon="5.5549">
        <ele>1827.9</ele>
        <time>2013-08-10T08:02:09.931Z</time>
      </trkpt>
      <trkpt lat="45.01131" lon="5.55495">
        <ele>1830.2</ele>
        <time>2013-08-10T08:02:16.989Z</time>
      </trkpt>
      <trkpt lat="45.01131" lon="5.55495">
        <ele>1830.1</ele>
        <time>2013-08-10T08:02:17.994Z</time>
      </trkpt>
      <trkpt lat="45.01131" lon="5.55495">
        <ele>1830.5</ele>
        <time>2013-08-10T08:02:21.035Z</time>
      </trkpt>
      <trkpt lat="45.01131" lon="5.55495">
        <ele>1830.4</ele>
        <time>2013-08-10T08:02:21.965Z</time>
      </trkpt>
      <trkpt lat="45.01125" lon="5.55504">
        <ele>1837.8</ele>
        <time>2013-08-10T08:02:42.744Z</time>
      </trkpt>
      <trkpt lat="45.01124" lon="5.55505">
        <ele>1838.5</ele>
        <time>2013-08-10T08:02:43.744Z</time>
      </trkpt>
      <trkpt lat="45.01119" lon="5.55507">
        <ele>1838.2</ele>
        <time>2013-08-10T08:02:57.052Z</time>
      </trkpt>
      <trkpt lat="45.01119" lon="5.55507">
        <ele>1838.3</ele>
        <time>2013-08-10T08:02:58.054Z</time>
      </trkpt>
      <trkpt lat="45.01119" lon="5.55507">
        <ele>1838.3</ele>
        <time>2013-08-10T08:02:57.851Z</time>
      </trkpt>
      <trkpt lat="45.01118" lon="5.55507">
        <ele>1838.5</ele>
        <time>2013-08-10T08:02:58.912Z</time>
      </trkpt>
      <trkpt lat="45.01114" lon="5.55505">
        <ele>1841.4</ele>
        <time>2013-08-10T08:03:12.420Z</time>
      </trkpt>
      <trkpt lat="45.01114" lon="5.55505">
        <ele>1842.2</ele>
        <time>2013-08-10T08:03:13.395Z</time>
      </trkpt>
      <trkpt lat="45.01113" lon="5.55505">
        <ele>1841.8</ele>
        <time>2013-08-10T08:03:15.624Z</time>
      </trkpt>
      <trkpt lat="45.01113" lon="5.55505">
        <ele>1841.1</ele>
        <time>2013-08-10T08:03:16.559Z</time>
      </trkpt>
      <trkpt lat="45.01113" lon="5.55505">
        <ele>1841.3</ele>
        <time>2013-08-10T08:03:17.631Z</time>
      </trkpt>
      <trkpt lat="45.01113" lon="5.55505">
        <ele>1842</ele>
        <time>2013-08-10T08:03:19.788Z</time>
      </trkpt>
      <trkpt lat="45.01112" lon="5.55506">
        <ele>1842.4</ele>
        <time>2013-08-10T08:03:20.595Z</time>
      </trkpt>
      <trkpt lat="45.01104" lon="5.55509">
        <ele>1845.6</ele>
        <time>2013-08-10T08:03:39.874Z</time>
      </trkpt>
      <trkpt lat="45.01103" lon="5.5551">
        <ele>1845.7</ele>
        <time>2013-08-10T08:03:40.924Z</time>
      </trkpt>
      <trkpt lat="45.01097" lon="5.55519">
        <ele>1853.7</ele>
        <time>2013-08-10T08:04:05.850Z</time>
      </trkpt>
      <trkpt lat="45.01097" lon="5.55519">
        <ele>1853.8</ele>
        <time>2013-08-10T08:04:06.866Z</time>
      </trkpt>
      <trkpt lat="45.01098" lon="5.55522">
        <ele>1855.4</ele>
        <time>2013-08-10T08:04:10.006Z</time>
      </trkpt>
      <trkpt lat="45.01098" lon="5.55522">
        <ele>1855.5</ele>
        <time>2013-08-10T08:04:11.876Z</time>
      </trkpt>
      <trkpt lat="45.01098" lon="5.55522">
        <ele>1855.4</ele>
        <time>2013-08-10T08:04:13.904Z</time>
      </trkpt>
      <trkpt lat="45.01097" lon="5.55522">
        <ele>1855.9</ele>
        <time>2013-08-10T08:04:14.776Z</time>
      </trkpt>
      <trkpt lat="45.01098" lon="5.55526">
        <ele>1858.2</ele>
        <time>2013-08-10T08:04:21.866Z</time>
      </trkpt>
      <trkpt lat="45.01098" lon="5.55526">
        <ele>1858.2</ele>
        <time>2013-08-10T08:04:22.651Z</time>
      </trkpt>
      <trkpt lat="45.01097" lon="5.55526">
        <ele>1858.3</ele>
        <time>2013-08-10T08:04:29.468Z</time>
      </trkpt>
      <trkpt lat="45.01096" lon="5.55527">
        <ele>1857.7</ele>
        <time>2013-08-10T08:04:30.507Z</time>
      </trkpt>
      <trkpt lat="45.01089" lon="5.55532">
        <ele>1860</ele>
        <time>2013-08-10T08:04:46.730Z</time>
      </trkpt>
      <trkpt lat="45.01089" lon="5.55532">
        <ele>1860</ele>
        <time>2013-08-10T08:04:48.072Z</time>
      </trkpt>
      <trkpt lat="45.01089" lon="5.55533">
        <ele>1860</ele>
        <time>2013-08-10T08:04:50.739Z</time>
      </trkpt>
      <trkpt lat="45.01089" lon="5.55533">
        <ele>1861</ele>
        <time>2013-08-10T08:04:51.885Z</time>
      </trkpt>
      <trkpt lat="45.01088" lon="5.55536">
        <ele>1862</ele>
        <time>2013-08-10T08:04:57.873Z</time>
      </trkpt>
      <trkpt lat="45.01088" lon="5.55536">
        <ele>1862</ele>
        <time>2013-08-10T08:04:58.785Z</time>
      </trkpt>
      <trkpt lat="45.01088" lon="5.55536">
        <ele>1862</ele>
        <time>2013-08-10T08:05:00.890Z</time>
      </trkpt>
      <trkpt lat="45.01088" lon="5.55536">
        <ele>1862.1</ele>
        <time>2013-08-10T08:05:01.882Z</time>
      </trkpt>
      <trkpt lat="45.01091" lon="5.55544">
        <ele>1865</ele>
        <time>2013-08-10T08:05:17.778Z</time>
      </trkpt>
      <trkpt lat="45.01091" lon="5.55544">
        <ele>1864.9</ele>
        <time>2013-08-10T08:05:18.876Z</time>
      </trkpt>
      <trkpt lat="45.0109" lon="5.55545">
        <ele>1869.2</ele>
        <time>2013-08-10T08:08:19.991Z</time>
      </trkpt>
      <trkpt lat="45.0109" lon="5.55546">
        <ele>1868.9</ele>
        <time>2013-08-10T08:08:20.758Z</time>
      </trkpt>
      <trkpt lat="45.0109" lon="5.55546">
        <ele>1869.3</ele>
        <time>2013-08-10T08:08:21.720Z</time>
      </trkpt>
      <trkpt lat="45.01091" lon="5.55547">
        <ele>1868.9</ele>
        <time>2013-08-10T08:12:39.699Z</time>
      </trkpt>
      <trkpt lat="45.01091" lon="5.55547">
        <ele>1868.8</ele>
        <time>2013-08-10T08:12:40.881Z</time>
      </trkpt>
      <trkpt lat="45.01091" lon="5.55549">
        <ele>1868.4</ele>
        <time>2013-08-10T08:12:43.760Z</time>
      </trkpt>
      <trkpt lat="45.01091" lon="5.55549">
        <ele>1868.3</ele>
        <time>2013-08-10T08:12:45.870Z</time>
      </trkpt>
      <trkpt lat="45.01092" lon="5.55548">
        <ele>1867.9</ele>
        <time>2013-08-10T08:13:25.896Z</time>
      </trkpt>
      <trkpt lat="45.01092" lon="5.55549">
        <ele>1867.4</ele>
        <time>2013-08-10T08:13:26.867Z</time>
      </trkpt>
      <trkpt lat="45.0109" lon="5.55558">
        <ele>1871.5</ele>
        <time>2013-08-10T08:13:46.749Z</time>
      </trkpt>
      <trkpt lat="45.0109" lon="5.55558">
        <ele>1871.7</ele>
        <time>2013-08-10T08:13:47.682Z</time>
      </trkpt>
      <trkpt lat="45.0109" lon="5.55558">
        <ele>1871.9</ele>
        <time>2013-08-10T08:13:49.865Z</time>
      </trkpt>
      <trkpt lat="45.01089" lon="5.55558">
        <ele>1871.9</ele>
        <time>2013-08-10T08:13:50.874Z</time>
      </trkpt>
      <trkpt lat="45.0109" lon="5.55559">
        <ele>1872.4</ele>
        <time>2013-08-10T08:13:53.781Z</time>
      </trkpt>
      <trkpt lat="45.0109" lon="5.55559">
        <ele>1872.4</ele>
        <time>2013-08-10T08:13:54.730Z</time>
      </trkpt>
      <trkpt lat="45.0109" lon="5.55559">
        <ele>1872.4</ele>
        <time>2013-08-10T08:13:54.754Z</time>
      </trkpt>
      <trkpt lat="45.0109" lon="5.5556">
        <ele>1872.5</ele>
        <time>2013-08-10T08:13:55.600Z</time>
      </trkpt>
      <trkpt lat="45.0109" lon="5.5556">
        <ele>1872.6</ele>
        <time>2013-08-10T08:13:56.577Z</time>
      </trkpt>
      <trkpt lat="45.0109" lon="5.5556">
        <ele>1873.1</ele>
        <time>2013-08-10T08:13:57.624Z</time>
      </trkpt>
      <trkpt lat="45.0109" lon="5.5556">
        <ele>1873.5</ele>
        <time>2013-08-10T08:13:59.785Z</time>
      </trkpt>
      <trkpt lat="45.0109" lon="5.55561">
        <ele>1873.5</ele>
        <time>2013-08-10T08:14:00.642Z</time>
      </trkpt>
      <trkpt lat="45.01091" lon="5.55562">
        <ele>1874.1</ele>
        <time>2013-08-10T08:14:05.106Z</time>
      </trkpt>
      <trkpt lat="45.01091" lon="5.55562">
        <ele>1874.4</ele>
        <time>2013-08-10T08:14:05.863Z</time>
      </trkpt>
      <trkpt lat="45.01091" lon="5.55562">
        <ele>1874.5</ele>
        <time>2013-08-10T08:14:08.247Z</time>
      </trkpt>
      <trkpt lat="45.01091" lon="5.55563">
        <ele>1874.9</ele>
        <time>2013-08-10T08:14:08.765Z</time>
      </trkpt>
      <trkpt lat="45.01091" lon="5.55563">
        <ele>1875.2</ele>
        <time>2013-08-10T08:14:10.530Z</time>
      </trkpt>
      <trkpt lat="45.01091" lon="5.55563">
        <ele>1875.1</ele>
        <time>2013-08-10T08:14:11.590Z</time>
      </trkpt>
      <trkpt lat="45.01091" lon="5.55564">
        <ele>1875</ele>
        <time>2013-08-10T08:14:12.696Z</time>
      </trkpt>
      <trkpt lat="45.01091" lon="5.55564">
        <ele>1875</ele>
        <time>2013-08-10T08:14:13.576Z</time>
      </trkpt>
      <trkpt lat="45.01091" lon="5.55564">
        <ele>1875.1</ele>
        <time>2013-08-10T08:14:14.370Z</time>
      </trkpt>
      <trkpt lat="45.0109" lon="5.55564">
        <ele>1875.8</ele>
        <time>2013-08-10T08:14:58.688Z</time>
      </trkpt>
      <trkpt lat="45.0109" lon="5.55564">
        <ele>1875.7</ele>
        <time>2013-08-10T08:14:59.712Z</time>
      </trkpt>
      <trkpt lat="45.01089" lon="5.55566">
        <ele>1875.4</ele>
        <time>2013-08-10T08:15:05.672Z</time>
      </trkpt>
      <trkpt lat="45.01089" lon="5.55566">
        <ele>1875.4</ele>
        <time>2013-08-10T08:15:06.785Z</time>
      </trkpt>
      <trkpt lat="45.01089" lon="5.55566">
        <ele>1875.4</ele>
        <time>2013-08-10T08:15:08.908Z</time>
      </trkpt>
      <trkpt lat="45.01089" lon="5.55565">
        <ele>1876.1</ele>
        <time>2013-08-10T08:15:09.702Z</time>
      </trkpt>
      <trkpt lat="45.01089" lon="5.55564">
        <ele>1876.8</ele>
        <time>2013-08-10T08:15:11.650Z</time>
      </trkpt>
      <trkpt lat="45.01089" lon="5.55564">
        <ele>1876.8</ele>
        <time>2013-08-10T08:15:12.648Z</time>
      </trkpt>
      <trkpt lat="45.01089" lon="5.55566">
        <ele>1876.9</ele>
        <time>2013-08-10T08:15:32.720Z</time>
      </trkpt>
      <trkpt lat="45.01089" lon="5.55566">
        <ele>1876.6</ele>
        <time>2013-08-10T08:15:33.754Z</time>
      </trkpt>
      <trkpt lat="45.01089" lon="5.55566">
        <ele>1877.3</ele>
        <time>2013-08-10T08:15:34.818Z</time>
      </trkpt>
      <trkpt lat="45.01088" lon="5.55567">
        <ele>1876.8</ele>
        <time>2013-08-10T08:15:49.025Z</time>
      </trkpt>
      <trkpt lat="45.01088" lon="5.55567">
        <ele>1876.8</ele>
        <time>2013-08-10T08:15:49.782Z</time>
      </trkpt>
      <trkpt lat="45.01088" lon="5.55567">
        <ele>1876.9</ele>
        <time>2013-08-10T08:15:50.773Z</time>
      </trkpt>
      <trkpt lat="45.01088" lon="5.55567">
        <ele>1877.5</ele>
        <time>2013-08-10T08:15:55.708Z</time>
      </trkpt>
      <trkpt lat="45.01087" lon="5.55567">
        <ele>1878.4</ele>
        <time>2013-08-10T08:15:56.897Z</time>
      </trkpt>
      <trkpt lat="45.01086" lon="5.5557">
        <ele>1881.9</ele>
        <time>2013-08-10T08:16:06.733Z</time>
      </trkpt>
      <trkpt lat="45.01086" lon="5.5557">
        <ele>1881.7</ele>
        <time>2013-08-10T08:16:07.578Z</time>
      </trkpt>
      <trkpt lat="45.01086" lon="5.5557">
        <ele>1881.8</ele>
        <time>2013-08-10T08:16:15.814Z</time>
      </trkpt>
      <trkpt lat="45.01085" lon="5.5557">
        <ele>1882.6</ele>
        <time>2013-08-10T08:16:16.710Z</time>
      </trkpt>
      <trkpt lat="45.01085" lon="5.55571">
        <ele>1882.7</ele>
        <time>2013-08-10T08:16:18.639Z</time>
      </trkpt>
      <trkpt lat="45.01085" lon="5.55571">
        <ele>1883.2</ele>
        <time>2013-08-10T08:16:19.788Z</time>
      </trkpt>
      <trkpt lat="45.01085" lon="5.55571">
        <ele>1884</ele>
        <time>2013-08-10T08:16:20.677Z</time>
      </trkpt>
      <trkpt lat="45.01085" lon="5.55571">
        <ele>1884.5</ele>
        <time>2013-08-10T08:16:21.171Z</time>
      </trkpt>
      <trkpt lat="45.01084" lon="5.55571">
        <ele>1886.3</ele>
        <time>2013-08-10T08:16:23.114Z</time>
      </trkpt>
      <trkpt lat="45.01084" lon="5.55571">
        <ele>1886.9</ele>
        <time>2013-08-10T08:16:24.880Z</time>
      </trkpt>
      <trkpt lat="45.01083" lon="5.55571">
        <ele>1886.8</ele>
        <time>2013-08-10T08:16:26.916Z</time>
      </trkpt>
      <trkpt lat="45.01083" lon="5.55571">
        <ele>1886.9</ele>
        <time>2013-08-10T08:16:27.677Z</time>
      </trkpt>
      <trkpt lat="45.01083" lon="5.55571">
        <ele>1887.1</ele>
        <time>2013-08-10T08:16:28.885Z</time>
      </trkpt>
      <trkpt lat="45.01083" lon="5.55572">
        <ele>1887.4</ele>
        <time>2013-08-10T08:16:32.694Z</time>
      </trkpt>
      <trkpt lat="45.01082" lon="5.55572">
        <ele>1887.7</ele>
        <time>2013-08-10T08:16:33.742Z</time>
      </trkpt>
      <trkpt lat="45.01082" lon="5.55572">
        <ele>1887.7</ele>
        <time>2013-08-10T08:16:35.753Z</time>
      </trkpt>
      <trkpt lat="45.01082" lon="5.55572">
        <ele>1887.9</ele>
        <time>2013-08-10T08:16:36.664Z</time>
      </trkpt>
      <trkpt lat="45.01081" lon="5.55572">
        <ele>1888.7</ele>
        <time>2013-08-10T08:16:50.913Z</time>
      </trkpt>
      <trkpt lat="45.01081" lon="5.55572">
        <ele>1888.5</ele>
        <time>2013-08-10T08:16:51.800Z</time>
      </trkpt>
      <trkpt lat="45.01081" lon="5.55572">
        <ele>1888.8</ele>
        <time>2013-08-10T08:16:52.919Z</time>
      </trkpt>
      <trkpt lat="45.01081" lon="5.55573">
        <ele>1889.2</ele>
        <time>2013-08-10T08:16:55.781Z</time>
      </trkpt>
      <trkpt lat="45.01081" lon="5.55572">
        <ele>1889.9</ele>
        <time>2013-08-10T08:16:56.806Z</time>
      </trkpt>
      <trkpt lat="45.01079" lon="5.55573">
        <ele>1890.4</ele>
        <time>2013-08-10T08:17:01.883Z</time>
      </trkpt>
      <trkpt lat="45.01079" lon="5.55573">
        <ele>1891.5</ele>
        <time>2013-08-10T08:17:02.806Z</time>
      </trkpt>
      <trkpt lat="45.01079" lon="5.55573">
        <ele>1891.7</ele>
        <time>2013-08-10T08:17:05.884Z</time>
      </trkpt>
      <trkpt lat="45.01079" lon="5.55574">
        <ele>1892.2</ele>
        <time>2013-08-10T08:17:06.799Z</time>
      </trkpt>
      <trkpt lat="45.01078" lon="5.55575">
        <ele>1893.2</ele>
        <time>2013-08-10T08:17:09.779Z</time>
      </trkpt>
      <trkpt lat="45.01078" lon="5.55575">
        <ele>1893</ele>
        <time>2013-08-10T08:17:10.788Z</time>
      </trkpt>
      <trkpt lat="45.01077" lon="5.55575">
        <ele>1896.8</ele>
        <time>2013-08-10T08:17:23.760Z</time>
      </trkpt>
      <trkpt lat="45.01077" lon="5.55575">
        <ele>1896.9</ele>
        <time>2013-08-10T08:17:24.877Z</time>
      </trkpt>
      <trkpt lat="45.01077" lon="5.55576">
        <ele>1897.1</ele>
        <time>2013-08-10T08:17:26.674Z</time>
      </trkpt>
      <trkpt lat="45.01077" lon="5.55576">
        <ele>1897.5</ele>
        <time>2013-08-10T08:17:27.764Z</time>
      </trkpt>
      <trkpt lat="45.01077" lon="5.55576">
        <ele>1897.7</ele>
        <time>2013-08-10T08:17:29.815Z</time>
      </trkpt>
      <trkpt lat="45.01077" lon="5.55576">
        <ele>1897.3</ele>
        <time>2013-08-10T08:17:30.816Z</time>
      </trkpt>
      <trkpt lat="45.01074" lon="5.55581">
        <ele>1901.4</ele>
        <time>2013-08-10T08:17:45.805Z</time>
      </trkpt>
      <trkpt lat="45.01074" lon="5.55581">
        <ele>1901.4</ele>
        <time>2013-08-10T08:17:46.726Z</time>
      </trkpt>
      <trkpt lat="45.01074" lon="5.55582">
        <ele>1901</ele>
        <time>2013-08-10T08:17:53.905Z</time>
      </trkpt>
      <trkpt lat="45.01074" lon="5.55583">
        <ele>1903.1</ele>
        <time>2013-08-10T08:17:54.907Z</time>
      </trkpt>
      <trkpt lat="45.01075" lon="5.55583">
        <ele>1904.5</ele>
        <time>2013-08-10T08:17:55.724Z</time>
      </trkpt>
      <trkpt lat="45.01075" lon="5.55583">
        <ele>1904.6</ele>
        <time>2013-08-10T08:17:56.717Z</time>
      </trkpt>
      <trkpt lat="45.01075" lon="5.55583">
        <ele>1905</ele>
        <time>2013-08-10T08:17:59.862Z</time>
      </trkpt>
      <trkpt lat="45.01075" lon="5.55584">
        <ele>1904.8</ele>
        <time>2013-08-10T08:18:00.712Z</time>
      </trkpt>
      <trkpt lat="45.01072" lon="5.55592">
        <ele>1906</ele>
        <time>2013-08-10T08:18:14.741Z</time>
      </trkpt>
      <trkpt lat="45.01072" lon="5.55592">
        <ele>1906.7</ele>
        <time>2013-08-10T08:18:15.743Z</time>
      </trkpt>
      <trkpt lat="45.01072" lon="5.55591">
        <ele>1906.5</ele>
        <time>2013-08-10T08:18:19.741Z</time>
      </trkpt>
      <trkpt lat="45.01072" lon="5.55591">
        <ele>1906.4</ele>
        <time>2013-08-10T08:18:20.739Z</time>
      </trkpt>
      <trkpt lat="45.01071" lon="5.5559">
        <ele>1907</ele>
        <time>2013-08-10T08:18:21.738Z</time>
      </trkpt>
      <trkpt lat="45.01071" lon="5.55591">
        <ele>1906.6</ele>
        <time>2013-08-10T08:18:23.210Z</time>
      </trkpt>
      <trkpt lat="45.01072" lon="5.5559">
        <ele>1906.6</ele>
        <time>2013-08-10T08:18:23.730Z</time>
      </trkpt>
      <trkpt lat="45.01072" lon="5.55591">
        <ele>1905.8</ele>
        <time>2013-08-10T08:18:27.740Z</time>
      </trkpt>
      <trkpt lat="45.01072" lon="5.55592">
        <ele>1906</ele>
        <time>2013-08-10T08:18:28.747Z</time>
      </trkpt>
      <trkpt lat="45.01071" lon="5.55592">
        <ele>1906.4</ele>
        <time>2013-08-10T08:18:33.741Z</time>
      </trkpt>
      <trkpt lat="45.01071" lon="5.55592">
        <ele>1906.5</ele>
        <time>2013-08-10T08:18:34.732Z</time>
      </trkpt>
      <trkpt lat="45.01071" lon="5.55592">
        <ele>1906.2</ele>
        <time>2013-08-10T08:18:35.728Z</time>
      </trkpt>
      <trkpt lat="45.01071" lon="5.55593">
        <ele>1906.1</ele>
        <time>2013-08-10T08:18:37.846Z</time>
      </trkpt>
      <trkpt lat="45.01071" lon="5.55593">
        <ele>1906.3</ele>
        <time>2013-08-10T08:18:38.735Z</time>
      </trkpt>
      <trkpt lat="45.01069" lon="5.55604">
        <ele>1907.9</ele>
        <time>2013-08-10T08:18:52.766Z</time>
      </trkpt>
      <trkpt lat="45.01068" lon="5.55605">
        <ele>1907.9</ele>
        <time>2013-08-10T08:18:53.733Z</time>
      </trkpt>
      <trkpt lat="45.01061" lon="5.55598">
        <ele>1916.5</ele>
        <time>2013-08-10T08:19:12.718Z</time>
      </trkpt>
      <trkpt lat="45.0106" lon="5.55598">
        <ele>1916.7</ele>
        <time>2013-08-10T08:19:13.728Z</time>
      </trkpt>
      <trkpt lat="45.0106" lon="5.55598">
        <ele>1916.5</ele>
        <time>2013-08-10T08:19:14.955Z</time>
      </trkpt>
      <trkpt lat="45.0106" lon="5.55598">
        <ele>1916.6</ele>
        <time>2013-08-10T08:19:15.882Z</time>
      </trkpt>
      <trkpt lat="45.0106" lon="5.55597">
        <ele>1917.2</ele>
        <time>2013-08-10T08:19:17.392Z</time>
      </trkpt>
      <trkpt lat="45.01059" lon="5.55597">
        <ele>1918.1</ele>
        <time>2013-08-10T08:19:18.740Z</time>
      </trkpt>
      <trkpt lat="45.01059" lon="5.55598">
        <ele>1918.1</ele>
        <time>2013-08-10T08:19:19.871Z</time>
      </trkpt>
      <trkpt lat="45.0106" lon="5.55598">
        <ele>1917.6</ele>
        <time>2013-08-10T08:19:33.828Z</time>
      </trkpt>
      <trkpt lat="45.01059" lon="5.55598">
        <ele>1918.6</ele>
        <time>2013-08-10T08:19:34.730Z</time>
      </trkpt>
      <trkpt lat="45.01058" lon="5.55601">
        <ele>1917.3</ele>
        <time>2013-08-10T08:19:41.745Z</time>
      </trkpt>
      <trkpt lat="45.01058" lon="5.55601">
        <ele>1918</ele>
        <time>2013-08-10T08:19:42.735Z</time>
      </trkpt>
      <trkpt lat="45.01058" lon="5.55601">
        <ele>1918.8</ele>
        <time>2013-08-10T08:19:43.726Z</time>
      </trkpt>
      <trkpt lat="45.01058" lon="5.55601">
        <ele>1917.6</ele>
        <time>2013-08-10T08:19:44.727Z</time>
      </trkpt>
      <trkpt lat="45.01057" lon="5.55603">
        <ele>1917.5</ele>
        <time>2013-08-10T08:19:48.724Z</time>
      </trkpt>
      <trkpt lat="45.01057" lon="5.55603">
        <ele>1917.2</ele>
        <time>2013-08-10T08:19:49.735Z</time>
      </trkpt>
      <trkpt lat="45.01058" lon="5.55603">
        <ele>1917.3</ele>
        <time>2013-08-10T08:19:50.764Z</time>
      </trkpt>
      <trkpt lat="45.01058" lon="5.55603">
        <ele>1917.9</ele>
        <time>2013-08-10T08:19:51.728Z</time>
      </trkpt>
      <trkpt lat="45.01058" lon="5.55604">
        <ele>1916.8</ele>
        <time>2013-08-10T08:19:52.755Z</time>
      </trkpt>
      <trkpt lat="45.01059" lon="5.55616">
        <ele>1922.7</ele>
        <time>2013-08-10T08:20:14.739Z</time>
      </trkpt>
      <trkpt lat="45.01059" lon="5.55617">
        <ele>1925.2</ele>
        <time>2013-08-10T08:20:15.885Z</time>
      </trkpt>
      <trkpt lat="45.01055" lon="5.55621">
        <ele>1927.5</ele>
        <time>2013-08-10T08:20:25.722Z</time>
      </trkpt>
      <trkpt lat="45.01055" lon="5.5562">
        <ele>1927.5</ele>
        <time>2013-08-10T08:20:26.721Z</time>
      </trkpt>
      <trkpt lat="45.01055" lon="5.55621">
        <ele>1927.1</ele>
        <time>2013-08-10T08:20:27.737Z</time>
      </trkpt>
      <trkpt lat="45.01055" lon="5.55622">
        <ele>1927</ele>
        <time>2013-08-10T08:20:28.734Z</time>
      </trkpt>
      <trkpt lat="45.01052" lon="5.55627">
        <ele>1927.9</ele>
        <time>2013-08-10T08:20:42.754Z</time>
      </trkpt>
      <trkpt lat="45.01052" lon="5.55628">
        <ele>1927.8</ele>
        <time>2013-08-10T08:20:43.871Z</time>
      </trkpt>
      <trkpt lat="45.01052" lon="5.55628">
        <ele>1927.6</ele>
        <time>2013-08-10T08:20:52.702Z</time>
      </trkpt>
      <trkpt lat="45.01051" lon="5.55628">
        <ele>1927.2</ele>
        <time>2013-08-10T08:20:53.703Z</time>
      </trkpt>
      <trkpt lat="45.01051" lon="5.55628">
        <ele>1927.4</ele>
        <time>2013-08-10T08:20:55.876Z</time>
      </trkpt>
      <trkpt lat="45.01051" lon="5.55628">
        <ele>1928</ele>
        <time>2013-08-10T08:20:55.893Z</time>
      </trkpt>
      <trkpt lat="45.01051" lon="5.55628">
        <ele>1928.5</ele>
        <time>2013-08-10T08:20:56.745Z</time>
      </trkpt>
      <trkpt lat="45.01045" lon="5.55638">
        <ele>1929.2</ele>
        <time>2013-08-10T08:21:15.903Z</time>
      </trkpt>
      <trkpt lat="45.01045" lon="5.55638">
        <ele>1929.6</ele>
        <time>2013-08-10T08:21:16.694Z</time>
      </trkpt>
      <trkpt lat="45.01038" lon="5.55644">
        <ele>1931.4</ele>
        <time>2013-08-10T08:21:23.044Z</time>
      </trkpt>
      <trkpt lat="45.01036" lon="5.55645">
        <ele>1931.1</ele>
        <time>2013-08-10T08:21:24.852Z</time>
      </trkpt>
      <trkpt lat="45.01033" lon="5.55648">
        <ele>1932.1</ele>
        <time>2013-08-10T08:21:36.773Z</time>
      </trkpt>
      <trkpt lat="45.01033" lon="5.55648">
        <ele>1932.1</ele>
        <time>2013-08-10T08:21:38.864Z</time>
      </trkpt>
      <trkpt lat="45.01033" lon="5.55648">
        <ele>1932.3</ele>
        <time>2013-08-10T08:21:38.926Z</time>
      </trkpt>
      <trkpt lat="45.01032" lon="5.55648">
        <ele>1932.5</ele>
        <time>2013-08-10T08:21:39.644Z</time>
      </trkpt>
      <trkpt lat="45.01032" lon="5.55649">
        <ele>1931.7</ele>
        <time>2013-08-10T08:21:42.964Z</time>
      </trkpt>
      <trkpt lat="45.01032" lon="5.55649">
        <ele>1932</ele>
        <time>2013-08-10T08:21:43.967Z</time>
      </trkpt>
      <trkpt lat="45.01031" lon="5.55649">
        <ele>1932.1</ele>
        <time>2013-08-10T08:21:44.632Z</time>
      </trkpt>
      <trkpt lat="45.01031" lon="5.55649">
        <ele>1932</ele>
        <time>2013-08-10T08:21:45.813Z</time>
      </trkpt>
      <trkpt lat="45.01029" lon="5.5565">
        <ele>1934.8</ele>
        <time>2013-08-10T08:21:53.227Z</time>
      </trkpt>
      <trkpt lat="45.01028" lon="5.5565">
        <ele>1934.8</ele>
        <time>2013-08-10T08:21:54.407Z</time>
      </trkpt>
      <trkpt lat="45.01028" lon="5.55649">
        <ele>1934.8</ele>
        <time>2013-08-10T08:21:55.283Z</time>
      </trkpt>
      <trkpt lat="45.01028" lon="5.55649">
        <ele>1934.8</ele>
        <time>2013-08-10T08:21:56.322Z</time>
      </trkpt>
      <trkpt lat="45.01026" lon="5.55651">
        <ele>1935</ele>
        <time>2013-08-10T08:22:02.412Z</time>
      </trkpt>
      <trkpt lat="45.01026" lon="5.55651">
        <ele>1935.3</ele>
        <time>2013-08-10T08:22:03.855Z</time>
      </trkpt>
      <trkpt lat="45.01024" lon="5.55651">
        <ele>1937.1</ele>
        <time>2013-08-10T08:22:27.623Z</time>
      </trkpt>
      <trkpt lat="45.01023" lon="5.5565">
        <ele>1938.1</ele>
        <time>2013-08-10T08:22:28.582Z</time>
      </trkpt>
      <trkpt lat="45.01015" lon="5.55654">
        <ele>1939.7</ele>
        <time>2013-08-10T08:22:51.736Z</time>
      </trkpt>
      <trkpt lat="45.01015" lon="5.55654">
        <ele>1939.9</ele>
        <time>2013-08-10T08:22:54.862Z</time>
      </trkpt>
      <trkpt lat="45.01015" lon="5.55654">
        <ele>1939.3</ele>
        <time>2013-08-10T08:22:54.883Z</time>
      </trkpt>
      <trkpt lat="45.01014" lon="5.55654">
        <ele>1939.5</ele>
        <time>2013-08-10T08:22:55.726Z</time>
      </trkpt>
      <trkpt lat="45.01011" lon="5.55656">
        <ele>1940.8</ele>
        <time>2013-08-10T08:23:04.762Z</time>
      </trkpt>
      <trkpt lat="45.01011" lon="5.55656">
        <ele>1941.2</ele>
        <time>2013-08-10T08:23:05.688Z</time>
      </trkpt>
      <trkpt lat="45.01011" lon="5.55656">
        <ele>1941.6</ele>
        <time>2013-08-10T08:23:09.680Z</time>
      </trkpt>
      <trkpt lat="45.01011" lon="5.55656">
        <ele>1941.9</ele>
        <time>2013-08-10T08:23:10.642Z</time>
      </trkpt>
      <trkpt lat="45.01008" lon="5.55661">
        <ele>1946.7</ele>
        <time>2013-08-10T08:23:21.765Z</time>
      </trkpt>
      <trkpt lat="45.01008" lon="5.55661">
        <ele>1945.8</ele>
        <time>2013-08-10T08:23:22.759Z</time>
      </trkpt>
      <trkpt lat="45.01007" lon="5.55661">
        <ele>1946.4</ele>
        <time>2013-08-10T08:23:23.686Z</time>
      </trkpt>
      <trkpt lat="45.01007" lon="5.55662">
        <ele>1946.6</ele>
        <time>2013-08-10T08:23:24.718Z</time>
      </trkpt>
      <trkpt lat="45.01007" lon="5.55662">
        <ele>1946.7</ele>
        <time>2013-08-10T08:23:26.117Z</time>
      </trkpt>
      <trkpt lat="45.01006" lon="5.55661">
        <ele>1947.1</ele>
        <time>2013-08-10T08:23:29.789Z</time>
      </trkpt>
      <trkpt lat="45.01006" lon="5.5566">
        <ele>1947.2</ele>
        <time>2013-08-10T08:23:30.780Z</time>
      </trkpt>
      <trkpt lat="45.01007" lon="5.5566">
        <ele>1953.5</ele>
        <time>2013-08-10T08:23:48.861Z</time>
      </trkpt>
      <trkpt lat="45.01006" lon="5.5566">
        <ele>1954.2</ele>
        <time>2013-08-10T08:23:50.809Z</time>
      </trkpt>
      <trkpt lat="45.01005" lon="5.55661">
        <ele>1954.7</ele>
        <time>2013-08-10T08:23:51.804Z</time>
      </trkpt>
      <trkpt lat="45.01005" lon="5.55661">
        <ele>1955.5</ele>
        <time>2013-08-10T08:23:52.712Z</time>
      </trkpt>
      <trkpt lat="45.01" lon="5.5567">
        <ele>1957.5</ele>
        <time>2013-08-10T08:23:58.814Z</time>
      </trkpt>
      <trkpt lat="45.00999" lon="5.55672">
        <ele>1958.1</ele>
        <time>2013-08-10T08:23:59.793Z</time>
      </trkpt>
      <trkpt lat="45.00994" lon="5.55683">
        <ele>1958.3</ele>
        <time>2013-08-10T08:24:07.774Z</time>
      </trkpt>
      <trkpt lat="45.00993" lon="5.55684">
        <ele>1957.8</ele>
        <time>2013-08-10T08:24:09.849Z</time>
      </trkpt>
      <trkpt lat="45.0099" lon="5.55696">
        <ele>1962.6</ele>
        <time>2013-08-10T08:24:19.176Z</time>
      </trkpt>
      <trkpt lat="45.0099" lon="5.55697">
        <ele>1962.3</ele>
        <time>2013-08-10T08:24:20.206Z</time>
      </trkpt>
      <trkpt lat="45.00993" lon="5.55707">
        <ele>1976.8</ele>
        <time>2013-08-10T08:24:31.868Z</time>
      </trkpt>
      <trkpt lat="45.00995" lon="5.55708">
        <ele>1977.4</ele>
        <time>2013-08-10T08:24:32.641Z</time>
      </trkpt>
      <trkpt lat="45.0099" lon="5.55717">
        <ele>1968.9</ele>
        <time>2013-08-10T08:24:44.657Z</time>
      </trkpt>
      <trkpt lat="45.00988" lon="5.55717">
        <ele>1967.6</ele>
        <time>2013-08-10T08:24:45.607Z</time>
      </trkpt>
      <trkpt lat="45.0098" lon="5.55719">
        <ele>1965.5</ele>
        <time>2013-08-10T08:24:50.868Z</time>
      </trkpt>
      <trkpt lat="45.00979" lon="5.5572">
        <ele>1965.4</ele>
        <time>2013-08-10T08:24:51.367Z</time>
      </trkpt>
      <trkpt lat="45.00971" lon="5.55725">
        <ele>1964.6</ele>
        <time>2013-08-10T08:25:05.698Z</time>
      </trkpt>
      <trkpt lat="45.00971" lon="5.55725">
        <ele>1964.7</ele>
        <time>2013-08-10T08:25:06.870Z</time>
      </trkpt>
      <trkpt lat="45.00971" lon="5.55725">
        <ele>1964.7</ele>
        <time>2013-08-10T08:25:10.898Z</time>
      </trkpt>
      <trkpt lat="45.0097" lon="5.55726">
        <ele>1964.9</ele>
        <time>2013-08-10T08:25:11.910Z</time>
      </trkpt>
      <trkpt lat="45.00966" lon="5.55729">
        <ele>1967.5</ele>
        <time>2013-08-10T08:25:25.662Z</time>
      </trkpt>
      <trkpt lat="45.00966" lon="5.55729">
        <ele>1967.4</ele>
        <time>2013-08-10T08:25:26.618Z</time>
      </trkpt>
      <trkpt lat="45.00966" lon="5.55729">
        <ele>1967.2</ele>
        <time>2013-08-10T08:25:30.866Z</time>
      </trkpt>
      <trkpt lat="45.00966" lon="5.55729">
        <ele>1967.1</ele>
        <time>2013-08-10T08:25:31.878Z</time>
      </trkpt>
      <trkpt lat="45.00966" lon="5.55729">
        <ele>1967.3</ele>
        <time>2013-08-10T08:25:31.938Z</time>
      </trkpt>
      <trkpt lat="45.00966" lon="5.55729">
        <ele>1966.4</ele>
        <time>2013-08-10T08:25:32.649Z</time>
      </trkpt>
      <trkpt lat="45.00957" lon="5.5573">
        <ele>1966.3</ele>
        <time>2013-08-10T08:25:47.842Z</time>
      </trkpt>
      <trkpt lat="45.00956" lon="5.5573">
        <ele>1966.5</ele>
        <time>2013-08-10T08:25:48.748Z</time>
      </trkpt>
      <trkpt lat="45.00951" lon="5.55735">
        <ele>1970</ele>
        <time>2013-08-10T08:26:06.849Z</time>
      </trkpt>
      <trkpt lat="45.0095" lon="5.55735">
        <ele>1970</ele>
        <time>2013-08-10T08:26:08.773Z</time>
      </trkpt>
      <trkpt lat="45.0095" lon="5.55735">
        <ele>1969.5</ele>
        <time>2013-08-10T08:26:24.001Z</time>
      </trkpt>
      <trkpt lat="45.00949" lon="5.55736">
        <ele>1970.1</ele>
        <time>2013-08-10T08:26:25.048Z</time>
      </trkpt>
      <trkpt lat="45.00949" lon="5.55736">
        <ele>1970.9</ele>
        <time>2013-08-10T08:26:25.995Z</time>
      </trkpt>
      <trkpt lat="45.00949" lon="5.55736">
        <ele>1971.7</ele>
        <time>2013-08-10T08:26:28.847Z</time>
      </trkpt>
      <trkpt lat="45.00949" lon="5.55737">
        <ele>1972.6</ele>
        <time>2013-08-10T08:26:28.869Z</time>
      </trkpt>
      <trkpt lat="45.00941" lon="5.55742">
        <ele>1975.2</ele>
        <time>2013-08-10T08:26:48.842Z</time>
      </trkpt>
      <trkpt lat="45.00941" lon="5.55742">
        <ele>1975.3</ele>
        <time>2013-08-10T08:26:49.712Z</time>
      </trkpt>
      <trkpt lat="45.00941" lon="5.55742">
        <ele>1975.5</ele>
        <time>2013-08-10T08:26:50.659Z</time>
      </trkpt>
      <trkpt lat="45.00941" lon="5.55744">
        <ele>1976.5</ele>
        <time>2013-08-10T08:27:07.877Z</time>
      </trkpt>
      <trkpt lat="45.0094" lon="5.55745">
        <ele>1977.8</ele>
        <time>2013-08-10T08:27:08.639Z</time>
      </trkpt>
      <trkpt lat="45.00938" lon="5.55747">
        <ele>1984</ele>
        <time>2013-08-10T08:27:19.833Z</time>
      </trkpt>
      <trkpt lat="45.00938" lon="5.55748">
        <ele>1983.7</ele>
        <time>2013-08-10T08:27:20.966Z</time>
      </trkpt>
      <trkpt lat="45.00938" lon="5.55748">
        <ele>1983.9</ele>
        <time>2013-08-10T08:27:38.854Z</time>
      </trkpt>
      <trkpt lat="45.00938" lon="5.55749">
        <ele>1984.8</ele>
        <time>2013-08-10T08:27:39.747Z</time>
      </trkpt>
      <trkpt lat="45.00937" lon="5.55749">
        <ele>1984.8</ele>
        <time>2013-08-10T08:27:40.786Z</time>
      </trkpt>
      <trkpt lat="45.00937" lon="5.55749">
        <ele>1984.5</ele>
        <time>2013-08-10T08:27:41.752Z</time>
      </trkpt>
      <trkpt lat="45.00937" lon="5.55748">
        <ele>1984</ele>
        <time>2013-08-10T08:27:42.806Z</time>
      </trkpt>
      <trkpt lat="45.00937" lon="5.55748">
        <ele>1984.1</ele>
        <time>2013-08-10T08:27:43.907Z</time>
      </trkpt>
      <trkpt lat="45.00938" lon="5.55747">
        <ele>1984.2</ele>
        <time>2013-08-10T08:27:45.671Z</time>
      </trkpt>
      <trkpt lat="45.00938" lon="5.55747">
        <ele>1984.3</ele>
        <time>2013-08-10T08:27:46.794Z</time>
      </trkpt>
      <trkpt lat="45.00938" lon="5.55749">
        <ele>1985.1</ele>
        <time>2013-08-10T08:29:28.847Z</time>
      </trkpt>
      <trkpt lat="45.00936" lon="5.5575">
        <ele>1984.3</ele>
        <time>2013-08-10T08:29:30.638Z</time>
      </trkpt>
      <trkpt lat="45.00931" lon="5.55756">
        <ele>1985</ele>
        <time>2013-08-10T08:29:33.428Z</time>
      </trkpt>
      <trkpt lat="45.00928" lon="5.55759">
        <ele>1985.3</ele>
        <time>2013-08-10T08:29:37.453Z</time>
      </trkpt>
      <trkpt lat="45.00923" lon="5.55766">
        <ele>1991.1</ele>
        <time>2013-08-10T08:29:46.013Z</time>
      </trkpt>
      <trkpt lat="45.00923" lon="5.55766">
        <ele>1991.1</ele>
        <time>2013-08-10T08:29:46.815Z</time>
      </trkpt>
      <trkpt lat="45.00923" lon="5.55765">
        <ele>1991.2</ele>
        <time>2013-08-10T08:31:50.657Z</time>
      </trkpt>
      <trkpt lat="45.00925" lon="5.55762">
        <ele>1990.6</ele>
        <time>2013-08-10T08:31:51.706Z</time>
      </trkpt>
      <trkpt lat="45.00929" lon="5.55753">
        <ele>1989.7</ele>
        <time>2013-08-10T08:31:55.688Z</time>
      </trkpt>
      <trkpt lat="45.0093" lon="5.55751">
        <ele>1988.8</ele>
        <time>2013-08-10T08:31:56.650Z</time>
      </trkpt>
      <trkpt lat="45.0093" lon="5.55749">
        <ele>1991.7</ele>
        <time>2013-08-10T08:31:59.639Z</time>
      </trkpt>
      <trkpt lat="45.0093" lon="5.55751">
        <ele>1992.6</ele>
        <time>2013-08-10T08:32:00.652Z</time>
      </trkpt>
      <trkpt lat="45.0093" lon="5.55753">
        <ele>1992.7</ele>
        <time>2013-08-10T08:32:01.645Z</time>
      </trkpt>
      <trkpt lat="45.00929" lon="5.55758">
        <ele>1993.9</ele>
        <time>2013-08-10T08:32:08.670Z</time>
      </trkpt>
      <trkpt lat="45.00929" lon="5.55758">
        <ele>1994</ele>
        <time>2013-08-10T08:32:09.737Z</time>
      </trkpt>
      <trkpt lat="45.00928" lon="5.55758">
        <ele>1994.5</ele>
        <time>2013-08-10T08:32:25.781Z</time>
      </trkpt>
      <trkpt lat="45.00927" lon="5.55759">
        <ele>2015.7</ele>
        <time>2013-08-10T08:32:26.663Z</time>
      </trkpt>
      <trkpt lat="45.00923" lon="5.55762">
        <ele>2017</ele>
        <time>2013-08-10T08:32:29.537Z</time>
      </trkpt>
      <trkpt lat="45.0092" lon="5.55787">
        <ele>2013.2</ele>
        <time>2013-08-10T08:32:59.848Z</time>
      </trkpt>
      <trkpt lat="45.00916" lon="5.55791">
        <ele>2010.6</ele>
        <time>2013-08-10T08:33:00.729Z</time>
      </trkpt>
      <trkpt lat="45.00912" lon="5.55795">
        <ele>2007.1</ele>
        <time>2013-08-10T08:33:01.726Z</time>
      </trkpt>
      <trkpt lat="45.00914" lon="5.55799">
        <ele>2021.5</ele>
        <time>2013-08-10T08:33:03.846Z</time>
      </trkpt>
      <trkpt lat="45.00922" lon="5.55803">
        <ele>2020.7</ele>
        <time>2013-08-10T08:33:05.870Z</time>
      </trkpt>
      <trkpt lat="45.00918" lon="5.55794">
        <ele>2009.1</ele>
        <time>2013-08-10T08:33:08.793Z</time>
      </trkpt>
      <trkpt lat="45.0091" lon="5.55802">
        <ele>2031.5</ele>
        <time>2013-08-10T08:35:02.830Z</time>
      </trkpt>
      <trkpt lat="45.00903" lon="5.55817">
        <ele>2051.5</ele>
        <time>2013-08-10T08:35:03.660Z</time>
      </trkpt>
      <trkpt lat="45.00902" lon="5.55829">
        <ele>2064.8</ele>
        <time>2013-08-10T08:35:04.070Z</time>
      </trkpt>
      <trkpt lat="45.00907" lon="5.55805">
        <ele>2030.9</ele>
        <time>2013-08-10T08:35:06.789Z</time>
      </trkpt>
      <trkpt lat="45.00907" lon="5.55817">
        <ele>2036.1</ele>
        <time>2013-08-10T08:35:24.826Z</time>
      </trkpt>
      <trkpt lat="45.00903" lon="5.55816">
        <ele>2036</ele>
        <time>2013-08-10T08:35:25.826Z</time>
      </trkpt>
      <trkpt lat="45.00895" lon="5.55824">
        <ele>2034.6</ele>
        <time>2013-08-10T08:35:43.685Z</time>
      </trkpt>
      <trkpt lat="45.00895" lon="5.55824">
        <ele>2035.5</ele>
        <time>2013-08-10T08:35:44.657Z</time>
      </trkpt>
      <trkpt lat="45.00892" lon="5.55826">
        <ele>2037.8</ele>
        <time>2013-08-10T08:35:51.735Z</time>
      </trkpt>
      <trkpt lat="45.00892" lon="5.55826">
        <ele>2037.4</ele>
        <time>2013-08-10T08:35:52.675Z</time>
      </trkpt>
      <trkpt lat="45.00892" lon="5.55825">
        <ele>2036.3</ele>
        <time>2013-08-10T08:36:04.661Z</time>
      </trkpt>
      <trkpt lat="45.00892" lon="5.55825">
        <ele>2036.2</ele>
        <time>2013-08-10T08:36:05.694Z</time>
      </trkpt>
      <trkpt lat="45.00892" lon="5.55825">
        <ele>2036.3</ele>
        <time>2013-08-10T08:36:06.655Z</time>
      </trkpt>
      <trkpt lat="45.00892" lon="5.55826">
        <ele>2036.5</ele>
        <time>2013-08-10T08:36:07.714Z</time>
      </trkpt>
      <trkpt lat="45.00885" lon="5.55833">
        <ele>2041.7</ele>
        <time>2013-08-10T08:36:13.749Z</time>
      </trkpt>
      <trkpt lat="45.00883" lon="5.55835">
        <ele>2041.5</ele>
        <time>2013-08-10T08:36:14.251Z</time>
      </trkpt>
      <trkpt lat="45.00885" lon="5.55829">
        <ele>2039.3</ele>
        <time>2013-08-10T08:36:18.517Z</time>
      </trkpt>
      <trkpt lat="45.00871" lon="5.55834">
        <ele>2039.7</ele>
        <time>2013-08-10T08:36:51.725Z</time>
      </trkpt>
      <trkpt lat="45.00871" lon="5.55835">
        <ele>2039.7</ele>
        <time>2013-08-10T08:36:53.277Z</time>
      </trkpt>
      <trkpt lat="45.00871" lon="5.55835">
        <ele>2039.7</ele>
        <time>2013-08-10T08:36:54.276Z</time>
      </trkpt>
      <trkpt lat="45.00872" lon="5.55835">
        <ele>2040.1</ele>
        <time>2013-08-10T08:36:55.286Z</time>
      </trkpt>
      <trkpt lat="45.00865" lon="5.55843">
        <ele>2041.2</ele>
        <time>2013-08-10T08:37:21.863Z</time>
      </trkpt>
      <trkpt lat="45.00861" lon="5.55845">
        <ele>2043.4</ele>
        <time>2013-08-10T08:37:22.692Z</time>
      </trkpt>
      <trkpt lat="45.00864" lon="5.5585">
        <ele>2049.5</ele>
        <time>2013-08-10T08:37:31.678Z</time>
      </trkpt>
      <trkpt lat="45.00852" lon="5.55861">
        <ele>2058</ele>
        <time>2013-08-10T08:37:51.738Z</time>
      </trkpt>
      <trkpt lat="45.00854" lon="5.55867">
        <ele>2063.6</ele>
        <time>2013-08-10T08:38:01.679Z</time>
      </trkpt>
      <trkpt lat="45.00854" lon="5.55867">
        <ele>2063.5</ele>
        <time>2013-08-10T08:38:02.701Z</time>
      </trkpt>
      <trkpt lat="45.00855" lon="5.55866">
        <ele>2062.1</ele>
        <time>2013-08-10T08:38:03.638Z</time>
      </trkpt>
      <trkpt lat="45.00852" lon="5.55868">
        <ele>2064.6</ele>
        <time>2013-08-10T08:38:05.927Z</time>
      </trkpt>
      <trkpt lat="45.00839" lon="5.55873">
        <ele>2062.2</ele>
        <time>2013-08-10T08:38:22.993Z</time>
      </trkpt>
      <trkpt lat="45.00843" lon="5.55878">
        <ele>2072.6</ele>
        <time>2013-08-10T08:38:34.880Z</time>
      </trkpt>
      <trkpt lat="45.00847" lon="5.55881">
        <ele>2080.6</ele>
        <time>2013-08-10T08:38:35.688Z</time>
      </trkpt>
      <trkpt lat="45.00847" lon="5.5588">
        <ele>2076.3</ele>
        <time>2013-08-10T08:38:36.455Z</time>
      </trkpt>
      <trkpt lat="45.00843" lon="5.55868">
        <ele>2060.2</ele>
        <time>2013-08-10T08:38:53.042Z</time>
      </trkpt>
      <trkpt lat="45.00841" lon="5.55879">
        <ele>2066.3</ele>
        <time>2013-08-10T08:38:57.893Z</time>
      </trkpt>
      <trkpt lat="45.0084" lon="5.5588">
        <ele>2065.8</ele>
        <time>2013-08-10T08:38:58.730Z</time>
      </trkpt>
      <trkpt lat="45.00836" lon="5.55887">
        <ele>2072</ele>
        <time>2013-08-10T08:39:04.731Z</time>
      </trkpt>
      <trkpt lat="45.00831" lon="5.55892">
        <ele>2068</ele>
        <time>2013-08-10T08:39:06.736Z</time>
      </trkpt>
      <trkpt lat="45.00828" lon="5.559">
        <ele>2084.1</ele>
        <time>2013-08-10T08:39:23.659Z</time>
      </trkpt>
      <trkpt lat="45.00828" lon="5.559">
        <ele>2084.7</ele>
        <time>2013-08-10T08:39:24.660Z</time>
      </trkpt>
      <trkpt lat="45.00829" lon="5.55898">
        <ele>2082.7</ele>
        <time>2013-08-10T08:39:25.658Z</time>
      </trkpt>
      <trkpt lat="45.00824" lon="5.55899">
        <ele>2082.4</ele>
        <time>2013-08-10T08:39:34.691Z</time>
      </trkpt>
      <trkpt lat="45.00824" lon="5.55899">
        <ele>2081.5</ele>
        <time>2013-08-10T08:39:35.843Z</time>
      </trkpt>
      <trkpt lat="45.00825" lon="5.55899">
        <ele>2081</ele>
        <time>2013-08-10T08:39:36.721Z</time>
      </trkpt>
      <trkpt lat="45.00825" lon="5.55899">
        <ele>2080.9</ele>
        <time>2013-08-10T08:39:37.823Z</time>
      </trkpt>
      <trkpt lat="45.00825" lon="5.55899">
        <ele>2081.3</ele>
        <time>2013-08-10T08:39:38.750Z</time>
      </trkpt>
      <trkpt lat="45.00826" lon="5.559">
        <ele>2083.1</ele>
        <time>2013-08-10T08:39:39.790Z</time>
      </trkpt>
      <trkpt lat="45.00821" lon="5.55906">
        <ele>2082.7</ele>
        <time>2013-08-10T08:40:11.843Z</time>
      </trkpt>
      <trkpt lat="45.008" lon="5.55932">
        <ele>2102.6</ele>
        <time>2013-08-10T08:40:51.458Z</time>
      </trkpt>
      <trkpt lat="45.008" lon="5.55932">
        <ele>2102.6</ele>
        <time>2013-08-10T08:40:51.721Z</time>
      </trkpt>
      <trkpt lat="45.00776" lon="5.55952">
        <ele>2091.4</ele>
        <time>2013-08-10T08:41:21.873Z</time>
      </trkpt>
      <trkpt lat="45.00776" lon="5.55952">
        <ele>2091.6</ele>
        <time>2013-08-10T08:41:22.138Z</time>
      </trkpt>
      <trkpt lat="45.00792" lon="5.55944">
        <ele>2100.5</ele>
        <time>2013-08-10T08:41:22.913Z</time>
      </trkpt>
      <trkpt lat="45.00797" lon="5.55934">
        <ele>2097.8</ele>
        <time>2013-08-10T08:41:27.637Z</time>
      </trkpt>
      <trkpt lat="45.00797" lon="5.55934">
        <ele>2098.8</ele>
        <time>2013-08-10T08:41:28.827Z</time>
      </trkpt>
      <trkpt lat="45.00794" lon="5.55942">
        <ele>2109.9</ele>
        <time>2013-08-10T08:41:42.053Z</time>
      </trkpt>
      <trkpt lat="45.00795" lon="5.55941">
        <ele>2098.2</ele>
        <time>2013-08-10T08:41:43.051Z</time>
      </trkpt>
      <trkpt lat="45.00788" lon="5.55956">
        <ele>2111</ele>
        <time>2013-08-10T08:42:10.867Z</time>
      </trkpt>
      <trkpt lat="45.00774" lon="5.55979">
        <ele>2113.3</ele>
        <time>2013-08-10T08:42:51.467Z</time>
      </trkpt>
      <trkpt lat="45.0077" lon="5.55986">
        <ele>2117.3</ele>
        <time>2013-08-10T08:43:26.638Z</time>
      </trkpt>
      <trkpt lat="45.0077" lon="5.55985">
        <ele>2117</ele>
        <time>2013-08-10T08:43:27.646Z</time>
      </trkpt>
      <trkpt lat="45.0077" lon="5.55984">
        <ele>2116.6</ele>
        <time>2013-08-10T08:43:28.638Z</time>
      </trkpt>
      <trkpt lat="45.00764" lon="5.55993">
        <ele>2122.1</ele>
        <time>2013-08-10T08:43:47.752Z</time>
      </trkpt>
      <trkpt lat="45.00763" lon="5.55994">
        <ele>2122.1</ele>
        <time>2013-08-10T08:43:48.717Z</time>
      </trkpt>
      <trkpt lat="45.00757" lon="5.56">
        <ele>2124.9</ele>
        <time>2013-08-10T08:43:52.104Z</time>
      </trkpt>
      <trkpt lat="45.00754" lon="5.56004">
        <ele>2128.3</ele>
        <time>2013-08-10T08:44:15.891Z</time>
      </trkpt>
      <trkpt lat="45.00759" lon="5.56005">
        <ele>2124.2</ele>
        <time>2013-08-10T08:44:19.083Z</time>
      </trkpt>
      <trkpt lat="45.00757" lon="5.56004">
        <ele>2123.8</ele>
        <time>2013-08-10T08:44:20.080Z</time>
      </trkpt>
      <trkpt lat="45.00757" lon="5.56006">
        <ele>2122.4</ele>
        <time>2013-08-10T08:44:21.082Z</time>
      </trkpt>
      <trkpt lat="45.00755" lon="5.56016">
        <ele>2127.6</ele>
        <time>2013-08-10T08:44:35.811Z</time>
      </trkpt>
      <trkpt lat="45.00755" lon="5.56016">
        <ele>2127.6</ele>
        <time>2013-08-10T08:44:37.064Z</time>
      </trkpt>
      <trkpt lat="45.00754" lon="5.56015">
        <ele>2127.9</ele>
        <time>2013-08-10T08:44:54.685Z</time>
      </trkpt>
      <trkpt lat="45.00753" lon="5.56016">
        <ele>2128.2</ele>
        <time>2013-08-10T08:44:55.777Z</time>
      </trkpt>
      <trkpt lat="45.00753" lon="5.56016">
        <ele>2128.3</ele>
        <time>2013-08-10T08:44:57.667Z</time>
      </trkpt>
      <trkpt lat="45.00753" lon="5.56016">
        <ele>2128.1</ele>
        <time>2013-08-10T08:44:58.712Z</time>
      </trkpt>
      <trkpt lat="45.00753" lon="5.56016">
        <ele>2127.9</ele>
        <time>2013-08-10T08:45:00.977Z</time>
      </trkpt>
      <trkpt lat="45.00753" lon="5.56017">
        <ele>2128</ele>
        <time>2013-08-10T08:45:01.784Z</time>
      </trkpt>
      <trkpt lat="45.0075" lon="5.56019">
        <ele>2127.5</ele>
        <time>2013-08-10T08:45:09.657Z</time>
      </trkpt>
      <trkpt lat="45.0075" lon="5.5602">
        <ele>2127.8</ele>
        <time>2013-08-10T08:45:10.956Z</time>
      </trkpt>
      <trkpt lat="45.0075" lon="5.5602">
        <ele>2127.6</ele>
        <time>2013-08-10T08:45:11.632Z</time>
      </trkpt>
      <trkpt lat="45.00742" lon="5.56025">
        <ele>2131.6</ele>
        <time>2013-08-10T08:45:15.039Z</time>
      </trkpt>
      <trkpt lat="45.00741" lon="5.56025">
        <ele>2127.8</ele>
        <time>2013-08-10T08:45:16.045Z</time>
      </trkpt>
      <trkpt lat="45.00729" lon="5.56026">
        <ele>2131.9</ele>
        <time>2013-08-10T08:45:52.231Z</time>
      </trkpt>
      <trkpt lat="45.00747" lon="5.56018">
        <ele>2134.5</ele>
        <time>2013-08-10T08:45:53.229Z</time>
      </trkpt>
      <trkpt lat="45.00745" lon="5.56019">
        <ele>2134.6</ele>
        <time>2013-08-10T08:45:54.230Z</time>
      </trkpt>
      <trkpt lat="45.0074" lon="5.56029">
        <ele>2132.9</ele>
        <time>2013-08-10T08:45:55.230Z</time>
      </trkpt>
      <trkpt lat="45.00734" lon="5.5603">
        <ele>2133.7</ele>
        <time>2013-08-10T08:46:00.905Z</time>
      </trkpt>
      <trkpt lat="45.00705" lon="5.56028">
        <ele>2133.4</ele>
        <time>2013-08-10T08:46:40.945Z</time>
      </trkpt>
      <trkpt lat="45.00721" lon="5.56064">
        <ele>2162.3</ele>
        <time>2013-08-10T08:47:25.662Z</time>
      </trkpt>
      <trkpt lat="45.00717" lon="5.56042">
        <ele>2135.6</ele>
        <time>2013-08-10T08:47:26.240Z</time>
      </trkpt>
      <trkpt lat="45.00718" lon="5.56052">
        <ele>2145.6</ele>
        <time>2013-08-10T08:47:29.241Z</time>
      </trkpt>
      <trkpt lat="45.00719" lon="5.56057">
        <ele>2149</ele>
        <time>2013-08-10T08:47:30.242Z</time>
      </trkpt>
      <trkpt lat="45.00712" lon="5.5605">
        <ele>2146.8</ele>
        <time>2013-08-10T08:47:37.692Z</time>
      </trkpt>
      <trkpt lat="45.0071" lon="5.5605">
        <ele>2147.3</ele>
        <time>2013-08-10T08:47:38.691Z</time>
      </trkpt>
      <trkpt lat="45.00717" lon="5.56056">
        <ele>2150.5</ele>
        <time>2013-08-10T08:47:40.318Z</time>
      </trkpt>
      <trkpt lat="45.00693" lon="5.56056">
        <ele>2139.5</ele>
        <time>2013-08-10T08:48:14.865Z</time>
      </trkpt>
      <trkpt lat="45.00714" lon="5.56073">
        <ele>2160.7</ele>
        <time>2013-08-10T08:48:41.664Z</time>
      </trkpt>
      <trkpt lat="45.00715" lon="5.5608">
        <ele>2160.8</ele>
        <time>2013-08-10T08:48:42.663Z</time>
      </trkpt>
      <trkpt lat="45.00713" lon="5.56089">
        <ele>2170.6</ele>
        <time>2013-08-10T08:48:43.660Z</time>
      </trkpt>
      <trkpt lat="45.00713" lon="5.56078">
        <ele>2160.6</ele>
        <time>2013-08-10T08:48:44.660Z</time>
      </trkpt>
      <trkpt lat="45.00688" lon="5.56047">
        <ele>2157.8</ele>
        <time>2013-08-10T08:49:22.843Z</time>
      </trkpt>
      <trkpt lat="45.00695" lon="5.56052">
        <ele>2166.3</ele>
        <time>2013-08-10T08:49:23.773Z</time>
      </trkpt>
      <trkpt lat="45.00697" lon="5.56051">
        <ele>2172.6</ele>
        <time>2013-08-10T08:49:24.675Z</time>
      </trkpt>
      <trkpt lat="45.00698" lon="5.56049">
        <ele>2175.1</ele>
        <time>2013-08-10T08:49:31.143Z</time>
      </trkpt>
      <trkpt lat="45.00698" lon="5.56049">
        <ele>2175</ele>
        <time>2013-08-10T08:49:31.824Z</time>
      </trkpt>
      <trkpt lat="45.00697" lon="5.56048">
        <ele>2180.7</ele>
        <time>2013-08-10T08:49:32.674Z</time>
      </trkpt>
      <trkpt lat="45.0069" lon="5.56053">
        <ele>2181.6</ele>
        <time>2013-08-10T08:50:15.663Z</time>
      </trkpt>
      <trkpt lat="45.00686" lon="5.56058">
        <ele>2183.9</ele>
        <time>2013-08-10T08:50:16.909Z</time>
      </trkpt>
      <trkpt lat="45.00686" lon="5.56059">
        <ele>2183.3</ele>
        <time>2013-08-10T08:50:20.690Z</time>
      </trkpt>
      <trkpt lat="45.00686" lon="5.56059">
        <ele>2183.5</ele>
        <time>2013-08-10T08:50:21.866Z</time>
      </trkpt>
      <trkpt lat="45.00686" lon="5.56058">
        <ele>2183.6</ele>
        <time>2013-08-10T08:50:22.764Z</time>
      </trkpt>
      <trkpt lat="45.00685" lon="5.56059">
        <ele>2183.7</ele>
        <time>2013-08-10T08:50:23.718Z</time>
      </trkpt>
      <trkpt lat="45.00683" lon="5.56061">
        <ele>2183.3</ele>
        <time>2013-08-10T08:50:28.699Z</time>
      </trkpt>
      <trkpt lat="45.00683" lon="5.56061">
        <ele>2183.2</ele>
        <time>2013-08-10T08:50:29.759Z</time>
      </trkpt>
      <trkpt lat="45.00684" lon="5.56061">
        <ele>2183.4</ele>
        <time>2013-08-10T08:50:37.797Z</time>
      </trkpt>
      <trkpt lat="45.00684" lon="5.56061">
        <ele>2183.3</ele>
        <time>2013-08-10T08:50:37.844Z</time>
      </trkpt>
      <trkpt lat="45.00683" lon="5.5606">
        <ele>2183.4</ele>
        <time>2013-08-10T08:50:38.387Z</time>
      </trkpt>
      <trkpt lat="45.00684" lon="5.56061">
        <ele>2183.6</ele>
        <time>2013-08-10T08:50:41.650Z</time>
      </trkpt>
      <trkpt lat="45.00668" lon="5.56101">
        <ele>2207</ele>
        <time>2013-08-10T08:51:40.486Z</time>
      </trkpt>
      <trkpt lat="45.00668" lon="5.56102">
        <ele>2206.9</ele>
        <time>2013-08-10T08:51:40.776Z</time>
      </trkpt>
      <trkpt lat="45.00668" lon="5.56073">
        <ele>2197.5</ele>
        <time>2013-08-10T08:51:41.692Z</time>
      </trkpt>
      <trkpt lat="45.00652" lon="5.56097">
        <ele>2204.6</ele>
        <time>2013-08-10T08:52:34.291Z</time>
      </trkpt>
      <trkpt lat="45.0065" lon="5.56098">
        <ele>2204.5</ele>
        <time>2013-08-10T08:52:39.232Z</time>
      </trkpt>
      <trkpt lat="45.0065" lon="5.56098">
        <ele>2204.1</ele>
        <time>2013-08-10T08:52:40.230Z</time>
      </trkpt>
      <trkpt lat="45.0065" lon="5.56099">
        <ele>2204</ele>
        <time>2013-08-10T08:52:43.230Z</time>
      </trkpt>
      <trkpt lat="45.0065" lon="5.56099">
        <ele>2204.2</ele>
        <time>2013-08-10T08:52:44.276Z</time>
      </trkpt>
      <trkpt lat="45.00648" lon="5.561">
        <ele>2203.8</ele>
        <time>2013-08-10T08:52:47.308Z</time>
      </trkpt>
      <trkpt lat="45.00648" lon="5.561">
        <ele>2203.8</ele>
        <time>2013-08-10T08:52:48.130Z</time>
      </trkpt>
      <trkpt lat="45.00648" lon="5.561">
        <ele>2204</ele>
        <time>2013-08-10T08:52:49.844Z</time>
      </trkpt>
      <trkpt lat="45.00637" lon="5.56106">
        <ele>2217.9</ele>
        <time>2013-08-10T08:53:22.882Z</time>
      </trkpt>
      <trkpt lat="45.00637" lon="5.56107">
        <ele>2218.1</ele>
        <time>2013-08-10T08:53:23.940Z</time>
      </trkpt>
      <trkpt lat="45.00637" lon="5.56107">
        <ele>2218.1</ele>
        <time>2013-08-10T08:53:24.779Z</time>
      </trkpt>
      <trkpt lat="45.00636" lon="5.56107">
        <ele>2218.4</ele>
        <time>2013-08-10T08:53:25.764Z</time>
      </trkpt>
      <trkpt lat="45.0063" lon="5.56113">
        <ele>2220</ele>
        <time>2013-08-10T08:53:57.740Z</time>
      </trkpt>
      <trkpt lat="45.00627" lon="5.56113">
        <ele>2219.4</ele>
        <time>2013-08-10T08:53:59.178Z</time>
      </trkpt>
      <trkpt lat="45.0063" lon="5.56115">
        <ele>2219.2</ele>
        <time>2013-08-10T08:54:05.702Z</time>
      </trkpt>
      <trkpt lat="45.00618" lon="5.56108">
        <ele>2228.4</ele>
        <time>2013-08-10T08:54:22.918Z</time>
      </trkpt>
      <trkpt lat="45.00623" lon="5.56113">
        <ele>2221</ele>
        <time>2013-08-10T08:54:36.757Z</time>
      </trkpt>
      <trkpt lat="45.00623" lon="5.56112">
        <ele>2221.3</ele>
        <time>2013-08-10T08:54:37.710Z</time>
      </trkpt>
      <trkpt lat="45.00623" lon="5.56111">
        <ele>2234.5</ele>
        <time>2013-08-10T08:54:38.720Z</time>
      </trkpt>
      <trkpt lat="45.00624" lon="5.5611">
        <ele>2234.1</ele>
        <time>2013-08-10T08:54:42.110Z</time>
      </trkpt>
      <trkpt lat="45.00624" lon="5.5611">
        <ele>2234.1</ele>
        <time>2013-08-10T08:54:43.110Z</time>
      </trkpt>
      <trkpt lat="45.00624" lon="5.5611">
        <ele>2284.4</ele>
        <time>2013-08-10T08:54:44.112Z</time>
      </trkpt>
      <trkpt lat="45.00625" lon="5.56109">
        <ele>2235.5</ele>
        <time>2013-08-10T08:54:44.803Z</time>
      </trkpt>
      <trkpt lat="45.00617" lon="5.56129">
        <ele>2228.8</ele>
        <time>2013-08-10T08:55:22.859Z</time>
      </trkpt>
      <trkpt lat="45.00615" lon="5.5613">
        <ele>2231.4</ele>
        <time>2013-08-10T08:55:29.708Z</time>
      </trkpt>
      <trkpt lat="45.00615" lon="5.56129">
        <ele>2231.4</ele>
        <time>2013-08-10T08:55:30.263Z</time>
      </trkpt>
      <trkpt lat="45.00603" lon="5.5614">
        <ele>2231.6</ele>
        <time>2013-08-10T08:56:21.734Z</time>
      </trkpt>
      <trkpt lat="45.00602" lon="5.56142">
        <ele>2231.6</ele>
        <time>2013-08-10T08:56:22.691Z</time>
      </trkpt>
      <trkpt lat="45.00593" lon="5.5616">
        <ele>2244.1</ele>
        <time>2013-08-10T08:56:52.927Z</time>
      </trkpt>
      <trkpt lat="45.0058" lon="5.56173">
        <ele>2243.6</ele>
        <time>2013-08-10T08:57:23.106Z</time>
      </trkpt>
      <trkpt lat="45.0058" lon="5.56172">
        <ele>2243</ele>
        <time>2013-08-10T08:57:23.635Z</time>
      </trkpt>
      <trkpt lat="45.0058" lon="5.56172">
        <ele>2243</ele>
        <time>2013-08-10T08:57:24.636Z</time>
      </trkpt>
      <trkpt lat="45.0058" lon="5.56173">
        <ele>2243.8</ele>
        <time>2013-08-10T08:57:25.646Z</time>
      </trkpt>
      <trkpt lat="45.00581" lon="5.56173">
        <ele>2243</ele>
        <time>2013-08-10T08:57:26.642Z</time>
      </trkpt>
      <trkpt lat="45.00581" lon="5.56174">
        <ele>2242.7</ele>
        <time>2013-08-10T08:57:27.642Z</time>
      </trkpt>
      <trkpt lat="45.00581" lon="5.56174">
        <ele>2242.7</ele>
        <time>2013-08-10T08:57:28.845Z</time>
      </trkpt>
      <trkpt lat="45.00581" lon="5.56174">
        <ele>2245.4</ele>
        <time>2013-08-10T08:57:32.671Z</time>
      </trkpt>
      <trkpt lat="45.00581" lon="5.56174">
        <ele>2246.7</ele>
        <time>2013-08-10T08:57:33.661Z</time>
      </trkpt>
      <trkpt lat="45.00576" lon="5.56174">
        <ele>2245</ele>
        <time>2013-08-10T08:57:39.798Z</time>
      </trkpt>
      <trkpt lat="45.00571" lon="5.56174">
        <ele>2247.6</ele>
        <time>2013-08-10T08:57:40.666Z</time>
      </trkpt>
      <trkpt lat="45.00575" lon="5.56173">
        <ele>2245.6</ele>
        <time>2013-08-10T08:57:46.810Z</time>
      </trkpt>
      <trkpt lat="45.00575" lon="5.56173">
        <ele>2245.8</ele>
        <time>2013-08-10T08:57:47.529Z</time>
      </trkpt>
      <trkpt lat="45.00572" lon="5.56166">
        <ele>2271.2</ele>
        <time>2013-08-10T08:58:11.736Z</time>
      </trkpt>
      <trkpt lat="45.00574" lon="5.56167">
        <ele>2267.8</ele>
        <time>2013-08-10T08:58:12.691Z</time>
      </trkpt>
      <trkpt lat="45.0057" lon="5.56162">
        <ele>2274.7</ele>
        <time>2013-08-10T08:58:14.692Z</time>
      </trkpt>
      <trkpt lat="45.00558" lon="5.56176">
        <ele>2261.6</ele>
        <time>2013-08-10T08:58:51.883Z</time>
      </trkpt>
      <trkpt lat="45.00558" lon="5.56181">
        <ele>2261.4</ele>
        <time>2013-08-10T08:59:02.253Z</time>
      </trkpt>
      <trkpt lat="45.00558" lon="5.56181">
        <ele>2261.5</ele>
        <time>2013-08-10T08:59:03.135Z</time>
      </trkpt>
      <trkpt lat="45.00558" lon="5.56181">
        <ele>2263.1</ele>
        <time>2013-08-10T08:59:09.816Z</time>
      </trkpt>
      <trkpt lat="45.00557" lon="5.56182">
        <ele>2263.4</ele>
        <time>2013-08-10T08:59:10.390Z</time>
      </trkpt>
      <trkpt lat="45.00557" lon="5.56183">
        <ele>2263.6</ele>
        <time>2013-08-10T08:59:12.181Z</time>
      </trkpt>
      <trkpt lat="45.00553" lon="5.56217">
        <ele>2290.4</ele>
        <time>2013-08-10T08:59:40.449Z</time>
      </trkpt>
      <trkpt lat="45.00553" lon="5.56217">
        <ele>2290.6</ele>
        <time>2013-08-10T08:59:40.754Z</time>
      </trkpt>
      <trkpt lat="45.00545" lon="5.56188">
        <ele>2276.1</ele>
        <time>2013-08-10T08:59:41.693Z</time>
      </trkpt>
      <trkpt lat="45.00541" lon="5.56195">
        <ele>2275.1</ele>
        <time>2013-08-10T09:00:22.098Z</time>
      </trkpt>
      <trkpt lat="45.00539" lon="5.56197">
        <ele>2271.2</ele>
        <time>2013-08-10T09:00:23.050Z</time>
      </trkpt>
      <trkpt lat="45.00539" lon="5.56199">
        <ele>2273.8</ele>
        <time>2013-08-10T09:00:25.323Z</time>
      </trkpt>
      <trkpt lat="45.00539" lon="5.56199">
        <ele>2274</ele>
        <time>2013-08-10T09:00:26.297Z</time>
      </trkpt>
      <trkpt lat="45.00539" lon="5.56199">
        <ele>2274.8</ele>
        <time>2013-08-10T09:00:29.298Z</time>
      </trkpt>
      <trkpt lat="45.00539" lon="5.562">
        <ele>2275.4</ele>
        <time>2013-08-10T09:00:30.352Z</time>
      </trkpt>
      <trkpt lat="45.0054" lon="5.56201">
        <ele>2274.6</ele>
        <time>2013-08-10T09:00:32.416Z</time>
      </trkpt>
      <trkpt lat="45.00539" lon="5.56201">
        <ele>2274.7</ele>
        <time>2013-08-10T09:00:33.834Z</time>
      </trkpt>
      <trkpt lat="45.0054" lon="5.56201">
        <ele>2275</ele>
        <time>2013-08-10T09:00:35.884Z</time>
      </trkpt>
      <trkpt lat="45.0054" lon="5.56202">
        <ele>2275.8</ele>
        <time>2013-08-10T09:00:36.640Z</time>
      </trkpt>
      <trkpt lat="45.00544" lon="5.56211">
        <ele>2277.1</ele>
        <time>2013-08-10T09:00:50.626Z</time>
      </trkpt>
      <trkpt lat="45.00538" lon="5.56238">
        <ele>2286.4</ele>
        <time>2013-08-10T09:01:21.853Z</time>
      </trkpt>
      <trkpt lat="45.0054" lon="5.56237">
        <ele>2286.9</ele>
        <time>2013-08-10T09:01:22.956Z</time>
      </trkpt>
      <trkpt lat="45.0054" lon="5.56238">
        <ele>2287</ele>
        <time>2013-08-10T09:01:25.351Z</time>
      </trkpt>
      <trkpt lat="45.0054" lon="5.56238">
        <ele>2287.2</ele>
        <time>2013-08-10T09:01:25.555Z</time>
      </trkpt>
      <trkpt lat="45.00536" lon="5.5625">
        <ele>2287.6</ele>
        <time>2013-08-10T09:01:43.695Z</time>
      </trkpt>
      <trkpt lat="45.00537" lon="5.56252">
        <ele>2288.4</ele>
        <time>2013-08-10T09:01:44.827Z</time>
      </trkpt>
      <trkpt lat="45.00535" lon="5.56264">
        <ele>2288.5</ele>
        <time>2013-08-10T09:02:02.683Z</time>
      </trkpt>
      <trkpt lat="45.00535" lon="5.56265">
        <ele>2290.2</ele>
        <time>2013-08-10T09:02:03.683Z</time>
      </trkpt>
      <trkpt lat="45.00532" lon="5.56273">
        <ele>2290</ele>
        <time>2013-08-10T09:02:16.698Z</time>
      </trkpt>
      <trkpt lat="45.00532" lon="5.56273">
        <ele>2290.3</ele>
        <time>2013-08-10T09:02:17.695Z</time>
      </trkpt>
      <trkpt lat="45.00532" lon="5.56273">
        <ele>2290.2</ele>
        <time>2013-08-10T09:02:18.683Z</time>
      </trkpt>
      <trkpt lat="45.00532" lon="5.56273">
        <ele>2289.6</ele>
        <time>2013-08-10T09:02:19.684Z</time>
      </trkpt>
      <trkpt lat="45.0053" lon="5.56277">
        <ele>2293.8</ele>
        <time>2013-08-10T09:02:31.673Z</time>
      </trkpt>
      <trkpt lat="45.00529" lon="5.56278">
        <ele>2293.7</ele>
        <time>2013-08-10T09:02:32.675Z</time>
      </trkpt>
      <trkpt lat="45.00529" lon="5.56278">
        <ele>2292.5</ele>
        <time>2013-08-10T09:02:33.667Z</time>
      </trkpt>
      <trkpt lat="45.00529" lon="5.56278">
        <ele>2293.1</ele>
        <time>2013-08-10T09:02:34.670Z</time>
      </trkpt>
      <trkpt lat="45.00527" lon="5.5628">
        <ele>2292.9</ele>
        <time>2013-08-10T09:02:39.816Z</time>
      </trkpt>
      <trkpt lat="45.00527" lon="5.5628">
        <ele>2293</ele>
        <time>2013-08-10T09:02:40.817Z</time>
      </trkpt>
      <trkpt lat="45.00527" lon="5.5628">
        <ele>2293.7</ele>
        <time>2013-08-10T09:02:41.882Z</time>
      </trkpt>
      <trkpt lat="45.00526" lon="5.56282">
        <ele>2294.9</ele>
        <time>2013-08-10T09:02:44.798Z</time>
      </trkpt>
      <trkpt lat="45.00526" lon="5.56282">
        <ele>2295.5</ele>
        <time>2013-08-10T09:02:46.780Z</time>
      </trkpt>
      <trkpt lat="45.00526" lon="5.56281">
        <ele>2294.4</ele>
        <time>2013-08-10T09:02:48.496Z</time>
      </trkpt>
      <trkpt lat="45.00525" lon="5.56281">
        <ele>2295.3</ele>
        <time>2013-08-10T09:02:49.423Z</time>
      </trkpt>
      <trkpt lat="45.00523" lon="5.56281">
        <ele>2293.9</ele>
        <time>2013-08-10T09:02:54.466Z</time>
      </trkpt>
      <trkpt lat="45.00523" lon="5.56281">
        <ele>2293.6</ele>
        <time>2013-08-10T09:02:55.445Z</time>
      </trkpt>
      <trkpt lat="45.00523" lon="5.56281">
        <ele>2293.5</ele>
        <time>2013-08-10T09:02:56.435Z</time>
      </trkpt>
      <trkpt lat="45.00523" lon="5.56281">
        <ele>2293.3</ele>
        <time>2013-08-10T09:02:57.441Z</time>
      </trkpt>
      <trkpt lat="45.00519" lon="5.56282">
        <ele>2292.5</ele>
        <time>2013-08-10T09:03:08.445Z</time>
      </trkpt>
      <trkpt lat="45.00519" lon="5.56282">
        <ele>2292.4</ele>
        <time>2013-08-10T09:03:09.464Z</time>
      </trkpt>
      <trkpt lat="45.00519" lon="5.56282">
        <ele>2292.5</ele>
        <time>2013-08-10T09:03:12.444Z</time>
      </trkpt>
      <trkpt lat="45.00519" lon="5.56283">
        <ele>2292.5</ele>
        <time>2013-08-10T09:03:13.426Z</time>
      </trkpt>
      <trkpt lat="45.0051" lon="5.56283">
        <ele>2295.6</ele>
        <time>2013-08-10T09:03:29.763Z</time>
      </trkpt>
      <trkpt lat="45.0051" lon="5.56283">
        <ele>2295.7</ele>
        <time>2013-08-10T09:03:30.757Z</time>
      </trkpt>
      <trkpt lat="45.00508" lon="5.56283">
        <ele>2296.3</ele>
        <time>2013-08-10T09:03:34.770Z</time>
      </trkpt>
      <trkpt lat="45.00508" lon="5.56283">
        <ele>2296.4</ele>
        <time>2013-08-10T09:03:35.770Z</time>
      </trkpt>
      <trkpt lat="45.00508" lon="5.56284">
        <ele>2297.2</ele>
        <time>2013-08-10T09:03:40.681Z</time>
      </trkpt>
      <trkpt lat="45.00508" lon="5.56284">
        <ele>2297.9</ele>
        <time>2013-08-10T09:03:41.757Z</time>
      </trkpt>
      <trkpt lat="45.00506" lon="5.56288">
        <ele>2303.6</ele>
        <time>2013-08-10T09:03:56.842Z</time>
      </trkpt>
      <trkpt lat="45.00505" lon="5.56288">
        <ele>2303.7</ele>
        <time>2013-08-10T09:03:57.704Z</time>
      </trkpt>
      <trkpt lat="45.00505" lon="5.56287">
        <ele>2302.7</ele>
        <time>2013-08-10T09:03:58.941Z</time>
      </trkpt>
      <trkpt lat="45.00505" lon="5.56287">
        <ele>2302.2</ele>
        <time>2013-08-10T09:04:00.665Z</time>
      </trkpt>
      <trkpt lat="45.00504" lon="5.56287">
        <ele>2301.5</ele>
        <time>2013-08-10T09:04:02.788Z</time>
      </trkpt>
      <trkpt lat="45.00504" lon="5.56287">
        <ele>2301.6</ele>
        <time>2013-08-10T09:04:02.837Z</time>
      </trkpt>
      <trkpt lat="45.00504" lon="5.56288">
        <ele>2301.2</ele>
        <time>2013-08-10T09:04:03.832Z</time>
      </trkpt>
      <trkpt lat="45.00503" lon="5.56288">
        <ele>2298.9</ele>
        <time>2013-08-10T09:04:08.697Z</time>
      </trkpt>
      <trkpt lat="45.00502" lon="5.56288">
        <ele>2298.9</ele>
        <time>2013-08-10T09:04:09.679Z</time>
      </trkpt>
      <trkpt lat="45.00502" lon="5.56288">
        <ele>2298.4</ele>
        <time>2013-08-10T09:04:11.690Z</time>
      </trkpt>
      <trkpt lat="45.00502" lon="5.56288">
        <ele>2298.1</ele>
        <time>2013-08-10T09:04:12.697Z</time>
      </trkpt>
      <trkpt lat="45.00502" lon="5.56288">
        <ele>2298.1</ele>
        <time>2013-08-10T09:04:14.869Z</time>
      </trkpt>
      <trkpt lat="45.00501" lon="5.56288">
        <ele>2298.1</ele>
        <time>2013-08-10T09:04:14.886Z</time>
      </trkpt>
      <trkpt lat="45.00501" lon="5.56288">
        <ele>2298.7</ele>
        <time>2013-08-10T09:04:15.700Z</time>
      </trkpt>
      <trkpt lat="45.00501" lon="5.56288">
        <ele>2298.8</ele>
        <time>2013-08-10T09:04:16.685Z</time>
      </trkpt>
      <trkpt lat="45.00501" lon="5.56288">
        <ele>2297.3</ele>
        <time>2013-08-10T09:04:18.678Z</time>
      </trkpt>
      <trkpt lat="45.00501" lon="5.56289">
        <ele>2297.2</ele>
        <time>2013-08-10T09:04:19.685Z</time>
      </trkpt>
      <trkpt lat="45.00499" lon="5.56293">
        <ele>2296.3</ele>
        <time>2013-08-10T09:04:24.700Z</time>
      </trkpt>
      <trkpt lat="45.00499" lon="5.56292">
        <ele>2296.3</ele>
        <time>2013-08-10T09:04:26.076Z</time>
      </trkpt>
      <trkpt lat="45.00499" lon="5.56292">
        <ele>2296.1</ele>
        <time>2013-08-10T09:04:26.677Z</time>
      </trkpt>
      <trkpt lat="45.00499" lon="5.56293">
        <ele>2296.7</ele>
        <time>2013-08-10T09:04:27.687Z</time>
      </trkpt>
      <trkpt lat="45.00493" lon="5.56302">
        <ele>2303.7</ele>
        <time>2013-08-10T09:04:46.659Z</time>
      </trkpt>
      <trkpt lat="45.00493" lon="5.56303">
        <ele>2304.2</ele>
        <time>2013-08-10T09:04:47.660Z</time>
      </trkpt>
      <trkpt lat="45.0049" lon="5.56304">
        <ele>2304.8</ele>
        <time>2013-08-10T09:04:52.678Z</time>
      </trkpt>
      <trkpt lat="45.0049" lon="5.56304">
        <ele>2304.5</ele>
        <time>2013-08-10T09:04:53.673Z</time>
      </trkpt>
      <trkpt lat="45.0049" lon="5.56305">
        <ele>2304.5</ele>
        <time>2013-08-10T09:04:55.876Z</time>
      </trkpt>
      <trkpt lat="45.0049" lon="5.56305">
        <ele>2304.2</ele>
        <time>2013-08-10T09:04:56.816Z</time>
      </trkpt>
      <trkpt lat="45.00487" lon="5.56314">
        <ele>2296.7</ele>
        <time>2013-08-10T09:05:06.686Z</time>
      </trkpt>
      <trkpt lat="45.00487" lon="5.56317">
        <ele>2293.5</ele>
        <time>2013-08-10T09:05:08.118Z</time>
      </trkpt>
      <trkpt lat="45.00486" lon="5.56313">
        <ele>2307.6</ele>
        <time>2013-08-10T09:05:09.411Z</time>
      </trkpt>
      <trkpt lat="45.00486" lon="5.56313">
        <ele>2308.1</ele>
        <time>2013-08-10T09:05:09.691Z</time>
      </trkpt>
      <trkpt lat="45.00486" lon="5.56313">
        <ele>2309</ele>
        <time>2013-08-10T09:05:10.691Z</time>
      </trkpt>
      <trkpt lat="45.00486" lon="5.56313">
        <ele>2309.6</ele>
        <time>2013-08-10T09:05:11.689Z</time>
      </trkpt>
      <trkpt lat="45.00486" lon="5.56314">
        <ele>2309.6</ele>
        <time>2013-08-10T09:05:12.817Z</time>
      </trkpt>
      <trkpt lat="45.00484" lon="5.56321">
        <ele>2314.9</ele>
        <time>2013-08-10T09:05:20.410Z</time>
      </trkpt>
      <trkpt lat="45.00482" lon="5.56346">
        <ele>2340.4</ele>
        <time>2013-08-10T09:05:52.818Z</time>
      </trkpt>
      <trkpt lat="45.00478" lon="5.56344">
        <ele>2333.8</ele>
        <time>2013-08-10T09:05:59.363Z</time>
      </trkpt>
      <trkpt lat="45.00478" lon="5.56344">
        <ele>2333.8</ele>
        <time>2013-08-10T09:06:00.327Z</time>
      </trkpt>
      <trkpt lat="45.00478" lon="5.56344">
        <ele>2332.8</ele>
        <time>2013-08-10T09:06:05.714Z</time>
      </trkpt>
      <trkpt lat="45.00475" lon="5.56342">
        <ele>2332.4</ele>
        <time>2013-08-10T09:06:06.609Z</time>
      </trkpt>
      <trkpt lat="45.00477" lon="5.56341">
        <ele>2333</ele>
        <time>2013-08-10T09:06:26.386Z</time>
      </trkpt>
      <trkpt lat="45.00477" lon="5.56341">
        <ele>2332.9</ele>
        <time>2013-08-10T09:06:27.869Z</time>
      </trkpt>
      <trkpt lat="45.00478" lon="5.56342">
        <ele>2332.5</ele>
        <time>2013-08-10T09:06:28.689Z</time>
      </trkpt>
      <trkpt lat="45.00478" lon="5.56345">
        <ele>2332.6</ele>
        <time>2013-08-10T09:06:31.688Z</time>
      </trkpt>
      <trkpt lat="45.00478" lon="5.56345">
        <ele>2332.5</ele>
        <time>2013-08-10T09:06:33.119Z</time>
      </trkpt>
      <trkpt lat="45.00479" lon="5.56344">
        <ele>2332.1</ele>
        <time>2013-08-10T09:06:34.032Z</time>
      </trkpt>
      <trkpt lat="45.00477" lon="5.56339">
        <ele>2336.1</ele>
        <time>2013-08-10T09:06:52.919Z</time>
      </trkpt>
      <trkpt lat="45.00477" lon="5.56339">
        <ele>2336</ele>
        <time>2013-08-10T09:06:53.744Z</time>
      </trkpt>
      <trkpt lat="45.00477" lon="5.56339">
        <ele>2335.9</ele>
        <time>2013-08-10T09:06:53.766Z</time>
      </trkpt>
      <trkpt lat="45.00477" lon="5.5634">
        <ele>2335.8</ele>
        <time>2013-08-10T09:06:54.694Z</time>
      </trkpt>
      <trkpt lat="45.00477" lon="5.5634">
        <ele>2335.9</ele>
        <time>2013-08-10T09:06:55.688Z</time>
      </trkpt>
      <trkpt lat="45.00477" lon="5.56341">
        <ele>2335.5</ele>
        <time>2013-08-10T09:07:01.696Z</time>
      </trkpt>
      <trkpt lat="45.00474" lon="5.56342">
        <ele>2325.8</ele>
        <time>2013-08-10T09:07:02.688Z</time>
      </trkpt>
      <trkpt lat="45.00476" lon="5.56342">
        <ele>2338.7</ele>
        <time>2013-08-10T09:07:24.334Z</time>
      </trkpt>
      <trkpt lat="45.00477" lon="5.56342">
        <ele>2338.6</ele>
        <time>2013-08-10T09:07:25.163Z</time>
      </trkpt>
      <trkpt lat="45.00477" lon="5.56342">
        <ele>2337</ele>
        <time>2013-08-10T09:07:28.163Z</time>
      </trkpt>
      <trkpt lat="45.00477" lon="5.56342">
        <ele>2336.4</ele>
        <time>2013-08-10T09:07:29.159Z</time>
      </trkpt>
      <trkpt lat="45.00477" lon="5.56342">
        <ele>2335.8</ele>
        <time>2013-08-10T09:07:30.162Z</time>
      </trkpt>
      <trkpt lat="45.00477" lon="5.56342">
        <ele>2335.7</ele>
        <time>2013-08-10T09:07:33.192Z</time>
      </trkpt>
      <trkpt lat="45.00478" lon="5.56341">
        <ele>2332.3</ele>
        <time>2013-08-10T09:07:34.172Z</time>
      </trkpt>
      <trkpt lat="45.00479" lon="5.56341">
        <ele>2332.2</ele>
        <time>2013-08-10T09:07:35.605Z</time>
      </trkpt>
      <trkpt lat="45.00479" lon="5.56342">
        <ele>2333.3</ele>
        <time>2013-08-10T09:07:37.800Z</time>
      </trkpt>
      <trkpt lat="45.00478" lon="5.56342">
        <ele>2335.5</ele>
        <time>2013-08-10T09:07:37.845Z</time>
      </trkpt>
      <trkpt lat="45.00477" lon="5.56342">
        <ele>2335.8</ele>
        <time>2013-08-10T09:07:40.156Z</time>
      </trkpt>
      <trkpt lat="45.00477" lon="5.56342">
        <ele>2335.9</ele>
        <time>2013-08-10T09:07:41.148Z</time>
      </trkpt>
      <trkpt lat="45.00473" lon="5.56345">
        <ele>2351.6</ele>
        <time>2013-08-10T09:08:11.694Z</time>
      </trkpt>
      <trkpt lat="45.00473" lon="5.56343">
        <ele>2352.3</ele>
        <time>2013-08-10T09:08:12.698Z</time>
      </trkpt>
      <trkpt lat="45.00477" lon="5.56344">
        <ele>2333.5</ele>
        <time>2013-08-10T09:08:18.271Z</time>
      </trkpt>
      <trkpt lat="45.00477" lon="5.56344">
        <ele>2332.7</ele>
        <time>2013-08-10T09:08:19.260Z</time>
      </trkpt>
      <trkpt lat="45.00477" lon="5.56343">
        <ele>2333.7</ele>
        <time>2013-08-10T09:08:51.869Z</time>
      </trkpt>
      <trkpt lat="45.00477" lon="5.56344">
        <ele>2339.5</ele>
        <time>2013-08-10T09:08:52.893Z</time>
      </trkpt>
      <trkpt lat="45.00477" lon="5.56344">
        <ele>2339.2</ele>
        <time>2013-08-10T09:08:53.951Z</time>
      </trkpt>
      <trkpt lat="45.00477" lon="5.56344">
        <ele>2339.1</ele>
        <time>2013-08-10T09:08:54.825Z</time>
      </trkpt>
      <trkpt lat="45.00477" lon="5.56343">
        <ele>2337.8</ele>
        <time>2013-08-10T09:08:58.710Z</time>
      </trkpt>
      <trkpt lat="45.00477" lon="5.56343">
        <ele>2337.9</ele>
        <time>2013-08-10T09:08:59.683Z</time>
      </trkpt>
      <trkpt lat="45.00477" lon="5.56343">
        <ele>2337.9</ele>
        <time>2013-08-10T09:09:00.693Z</time>
      </trkpt>
      <trkpt lat="45.00477" lon="5.56342">
        <ele>2336.3</ele>
        <time>2013-08-10T09:09:01.709Z</time>
      </trkpt>
      <trkpt lat="45.00477" lon="5.56341">
        <ele>2336.6</ele>
        <time>2013-08-10T09:09:03.691Z</time>
      </trkpt>
      <trkpt lat="45.00477" lon="5.56341">
        <ele>2336.1</ele>
        <time>2013-08-10T09:09:04.688Z</time>
      </trkpt>
      <trkpt lat="45.00477" lon="5.56343">
        <ele>2333.8</ele>
        <time>2013-08-10T09:09:32.660Z</time>
      </trkpt>
      <trkpt lat="45.00477" lon="5.56343">
        <ele>2333.8</ele>
        <time>2013-08-10T09:09:33.674Z</time>
      </trkpt>
      <trkpt lat="45.00478" lon="5.56343">
        <ele>2334.8</ele>
        <time>2013-08-10T09:09:36.832Z</time>
      </trkpt>
      <trkpt lat="45.00478" lon="5.56343">
        <ele>2335.1</ele>
        <time>2013-08-10T09:09:38.814Z</time>
      </trkpt>
      <trkpt lat="45.00478" lon="5.56343">
        <ele>2335.7</ele>
        <time>2013-08-10T09:09:41.860Z</time>
      </trkpt>
      <trkpt lat="45.00477" lon="5.56343">
        <ele>2335.9</ele>
        <time>2013-08-10T09:09:42.815Z</time>
      </trkpt>
      <trkpt lat="45.00477" lon="5.56343">
        <ele>2336.1</ele>
        <time>2013-08-10T09:09:43.845Z</time>
      </trkpt>
      <trkpt lat="45.00477" lon="5.56342">
        <ele>2334</ele>
        <time>2013-08-10T09:10:16.661Z</time>
      </trkpt>
      <trkpt lat="45.00478" lon="5.56343">
        <ele>2334.5</ele>
        <time>2013-08-10T09:10:17.822Z</time>
      </trkpt>
      <trkpt lat="45.00477" lon="5.56348">
        <ele>2333</ele>
        <time>2013-08-10T09:10:24.675Z</time>
      </trkpt>
      <trkpt lat="45.00477" lon="5.56348">
        <ele>2332.8</ele>
        <time>2013-08-10T09:10:25.677Z</time>
      </trkpt>
      <trkpt lat="45.00478" lon="5.56348">
        <ele>2331.6</ele>
        <time>2013-08-10T09:10:34.695Z</time>
      </trkpt>
      <trkpt lat="45.00478" lon="5.56348">
        <ele>2331.5</ele>
        <time>2013-08-10T09:10:25.938Z</time>
      </trkpt>
      <trkpt lat="45.00479" lon="5.56347">
        <ele>2331.1</ele>
        <time>2013-08-10T09:10:28.958Z</time>
      </trkpt>
      <trkpt lat="45.00479" lon="5.56347">
        <ele>2331.2</ele>
        <time>2013-08-10T09:10:29.933Z</time>
      </trkpt>
      <trkpt lat="45.0048" lon="5.56347">
        <ele>2330.1</ele>
        <time>2013-08-10T09:11:00.119Z</time>
      </trkpt>
      <trkpt lat="45.0048" lon="5.56347">
        <ele>2330</ele>
        <time>2013-08-10T09:11:01.063Z</time>
      </trkpt>
      <trkpt lat="45.00481" lon="5.56347">
        <ele>2330.5</ele>
        <time>2013-08-10T09:11:03.044Z</time>
      </trkpt>
      <trkpt lat="45.00481" lon="5.56347">
        <ele>2330.3</ele>
        <time>2013-08-10T09:11:03.951Z</time>
      </trkpt>
      <trkpt lat="45.00481" lon="5.56347">
        <ele>2330.4</ele>
        <time>2013-08-10T09:11:05.124Z</time>
      </trkpt>
      <trkpt lat="45.00482" lon="5.56348">
        <ele>2330.6</ele>
        <time>2013-08-10T09:11:05.981Z</time>
      </trkpt>
      <trkpt lat="45.00485" lon="5.56358">
        <ele>2329.7</ele>
        <time>2013-08-10T09:11:16.905Z</time>
      </trkpt>
      <trkpt lat="45.00486" lon="5.5636">
        <ele>2329.6</ele>
        <time>2013-08-10T09:11:17.908Z</time>
      </trkpt>
      <trkpt lat="45.00486" lon="5.56361">
        <ele>2329.1</ele>
        <time>2013-08-10T09:11:21.059Z</time>
      </trkpt>
      <trkpt lat="45.00486" lon="5.56361">
        <ele>2328.9</ele>
        <time>2013-08-10T09:11:21.980Z</time>
      </trkpt>
      <trkpt lat="45.00486" lon="5.56361">
        <ele>2328.2</ele>
        <time>2013-08-10T09:11:22.935Z</time>
      </trkpt>
      <trkpt lat="45.00486" lon="5.56371">
        <ele>2330.1</ele>
        <time>2013-08-10T09:11:32.936Z</time>
      </trkpt>
      <trkpt lat="45.00486" lon="5.56371">
        <ele>2330.2</ele>
        <time>2013-08-10T09:11:33.921Z</time>
      </trkpt>
      <trkpt lat="45.00487" lon="5.56371">
        <ele>2330.5</ele>
        <time>2013-08-10T09:11:34.916Z</time>
      </trkpt>
      <trkpt lat="45.00494" lon="5.56378">
        <ele>2333</ele>
        <time>2013-08-10T09:11:44.919Z</time>
      </trkpt>
      <trkpt lat="45.00494" lon="5.56379">
        <ele>2332.7</ele>
        <time>2013-08-10T09:11:45.912Z</time>
      </trkpt>
      <trkpt lat="45.00493" lon="5.56391">
        <ele>2332.3</ele>
        <time>2013-08-10T09:11:53.986Z</time>
      </trkpt>
      <trkpt lat="45.00493" lon="5.56392">
        <ele>2332.4</ele>
        <time>2013-08-10T09:11:54.912Z</time>
      </trkpt>
      <trkpt lat="45.00492" lon="5.56404">
        <ele>2331.3</ele>
        <time>2013-08-10T09:12:08.910Z</time>
      </trkpt>
      <trkpt lat="45.00492" lon="5.56406">
        <ele>2331</ele>
        <time>2013-08-10T09:12:09.983Z</time>
      </trkpt>
      <trkpt lat="45.0049" lon="5.56413">
        <ele>2332.8</ele>
        <time>2013-08-10T09:12:23.077Z</time>
      </trkpt>
      <trkpt lat="45.0049" lon="5.56413">
        <ele>2333</ele>
        <time>2013-08-10T09:12:23.931Z</time>
      </trkpt>
      <trkpt lat="45.0049" lon="5.56413">
        <ele>2333.2</ele>
        <time>2013-08-10T09:12:37.150Z</time>
      </trkpt>
      <trkpt lat="45.00486" lon="5.56416">
        <ele>2341.3</ele>
        <time>2013-08-10T09:12:37.936Z</time>
      </trkpt>
      <trkpt lat="45.00493" lon="5.56411">
        <ele>2334.3</ele>
        <time>2013-08-10T09:13:15.784Z</time>
      </trkpt>
      <trkpt lat="45.00493" lon="5.56411">
        <ele>2334.2</ele>
        <time>2013-08-10T09:13:16.762Z</time>
      </trkpt>
      <trkpt lat="45.00493" lon="5.56412">
        <ele>2335.1</ele>
        <time>2013-08-10T09:13:38.216Z</time>
      </trkpt>
      <trkpt lat="45.00493" lon="5.56412">
        <ele>2335.2</ele>
        <time>2013-08-10T09:13:39.219Z</time>
      </trkpt>
      <trkpt lat="45.00493" lon="5.56412">
        <ele>2335.1</ele>
        <time>2013-08-10T09:13:40.208Z</time>
      </trkpt>
      <trkpt lat="45.00493" lon="5.56412">
        <ele>2335.4</ele>
        <time>2013-08-10T09:13:41.246Z</time>
      </trkpt>
      <trkpt lat="45.00493" lon="5.56413">
        <ele>2335.9</ele>
        <time>2013-08-10T09:13:58.232Z</time>
      </trkpt>
      <trkpt lat="45.00492" lon="5.56412">
        <ele>2336.1</ele>
        <time>2013-08-10T09:13:59.392Z</time>
      </trkpt>
      <trkpt lat="45.00492" lon="5.56412">
        <ele>2336.3</ele>
        <time>2013-08-10T09:14:01.341Z</time>
      </trkpt>
      <trkpt lat="45.00492" lon="5.56412">
        <ele>2336.1</ele>
        <time>2013-08-10T09:14:02.286Z</time>
      </trkpt>
      <trkpt lat="45.00492" lon="5.56415">
        <ele>2327.7</ele>
        <time>2013-08-10T09:14:03.214Z</time>
      </trkpt>
      <trkpt lat="45.00486" lon="5.56416">
        <ele>2336.2</ele>
        <time>2013-08-10T09:14:51.651Z</time>
      </trkpt>
      <trkpt lat="45.00483" lon="5.56419">
        <ele>2336.2</ele>
        <time>2013-08-10T09:14:52.241Z</time>
      </trkpt>
      <trkpt lat="45.00491" lon="5.56414">
        <ele>2338.6</ele>
        <time>2013-08-10T09:15:18.007Z</time>
      </trkpt>
      <trkpt lat="45.0049" lon="5.56413">
        <ele>2338.5</ele>
        <time>2013-08-10T09:15:19.007Z</time>
      </trkpt>
      <trkpt lat="45.00489" lon="5.56413">
        <ele>2336.8</ele>
        <time>2013-08-10T09:15:20.009Z</time>
      </trkpt>
      <trkpt lat="45.00487" lon="5.56414">
        <ele>2336.4</ele>
        <time>2013-08-10T09:15:23.566Z</time>
      </trkpt>
      <trkpt lat="45.00487" lon="5.56414">
        <ele>2336.4</ele>
        <time>2013-08-10T09:15:24.592Z</time>
      </trkpt>
      <trkpt lat="45.00487" lon="5.56414">
        <ele>2336.4</ele>
        <time>2013-08-10T09:15:27.155Z</time>
      </trkpt>
      <trkpt lat="45.00491" lon="5.56415">
        <ele>2347.1</ele>
        <time>2013-08-10T09:15:27.888Z</time>
      </trkpt>
      <trkpt lat="45.00489" lon="5.56412">
        <ele>2334.4</ele>
        <time>2013-08-10T09:15:53.589Z</time>
      </trkpt>
      <trkpt lat="45.00489" lon="5.56412">
        <ele>2334.6</ele>
        <time>2013-08-10T09:15:54.592Z</time>
      </trkpt>
      <trkpt lat="45.00489" lon="5.56412">
        <ele>2335.2</ele>
        <time>2013-08-10T09:15:56.695Z</time>
      </trkpt>
      <trkpt lat="45.0049" lon="5.56414">
        <ele>2342</ele>
        <time>2013-08-10T09:15:57.153Z</time>
      </trkpt>
      <trkpt lat="45.00483" lon="5.56414">
        <ele>2334.8</ele>
        <time>2013-08-10T09:16:24.702Z</time>
      </trkpt>
      <trkpt lat="45.00483" lon="5.56414">
        <ele>2334.5</ele>
        <time>2013-08-10T09:16:25.559Z</time>
      </trkpt>
      <trkpt lat="45.00483" lon="5.56413">
        <ele>2334.1</ele>
        <time>2013-08-10T09:16:26.557Z</time>
      </trkpt>
      <trkpt lat="45.00488" lon="5.56415">
        <ele>2337.7</ele>
        <time>2013-08-10T09:16:59.231Z</time>
      </trkpt>
      <trkpt lat="45.00487" lon="5.56415">
        <ele>2338</ele>
        <time>2013-08-10T09:17:00.199Z</time>
      </trkpt>
      <trkpt lat="45.00487" lon="5.56415">
        <ele>2338</ele>
        <time>2013-08-10T09:17:01.197Z</time>
      </trkpt>
      <trkpt lat="45.00486" lon="5.56415">
        <ele>2337.8</ele>
        <time>2013-08-10T09:17:02.211Z</time>
      </trkpt>
      <trkpt lat="45.00486" lon="5.56415">
        <ele>2337.9</ele>
        <time>2013-08-10T09:17:03.200Z</time>
      </trkpt>
      <trkpt lat="45.00486" lon="5.56415">
        <ele>2337.9</ele>
        <time>2013-08-10T09:17:04.348Z</time>
      </trkpt>
      <trkpt lat="45.00487" lon="5.56415">
        <ele>2337.8</ele>
        <time>2013-08-10T09:17:10.635Z</time>
      </trkpt>
      <trkpt lat="45.00488" lon="5.56415">
        <ele>2342.2</ele>
        <time>2013-08-10T09:17:11.466Z</time>
      </trkpt>
      <trkpt lat="45.00488" lon="5.56414">
        <ele>2337.3</ele>
        <time>2013-08-10T09:17:16.145Z</time>
      </trkpt>
      <trkpt lat="45.00496" lon="5.56424">
        <ele>2329.3</ele>
        <time>2013-08-10T09:17:51.404Z</time>
      </trkpt>
      <trkpt lat="45.00492" lon="5.56426">
        <ele>2331.9</ele>
        <time>2013-08-10T09:17:59.910Z</time>
      </trkpt>
      <trkpt lat="45.00492" lon="5.56426">
        <ele>2332</ele>
        <time>2013-08-10T09:18:00.904Z</time>
      </trkpt>
      <trkpt lat="45.00492" lon="5.56426">
        <ele>2332.4</ele>
        <time>2013-08-10T09:18:02.929Z</time>
      </trkpt>
      <trkpt lat="45.00492" lon="5.56426">
        <ele>2332.8</ele>
        <time>2013-08-10T09:18:03.908Z</time>
      </trkpt>
      <trkpt lat="45.00492" lon="5.56428">
        <ele>2333.1</ele>
        <time>2013-08-10T09:18:06.926Z</time>
      </trkpt>
      <trkpt lat="45.00492" lon="5.56428">
        <ele>2333.2</ele>
        <time>2013-08-10T09:18:07.973Z</time>
      </trkpt>
      <trkpt lat="45.00492" lon="5.56427">
        <ele>2333.3</ele>
        <time>2013-08-10T09:18:08.895Z</time>
      </trkpt>
      <trkpt lat="45.00491" lon="5.56428">
        <ele>2333.6</ele>
        <time>2013-08-10T09:18:10.096Z</time>
      </trkpt>
      <trkpt lat="45.00492" lon="5.5643">
        <ele>2333.9</ele>
        <time>2013-08-10T09:18:15.938Z</time>
      </trkpt>
      <trkpt lat="45.00492" lon="5.5643">
        <ele>2333.8</ele>
        <time>2013-08-10T09:18:16.912Z</time>
      </trkpt>
      <trkpt lat="45.00492" lon="5.56431">
        <ele>2333.4</ele>
        <time>2013-08-10T09:18:17.898Z</time>
      </trkpt>
      <trkpt lat="45.00491" lon="5.56432">
        <ele>2332.9</ele>
        <time>2013-08-10T09:18:20.133Z</time>
      </trkpt>
      <trkpt lat="45.00491" lon="5.56431">
        <ele>2332.8</ele>
        <time>2013-08-10T09:18:21.131Z</time>
      </trkpt>
      <trkpt lat="45.00491" lon="5.56432">
        <ele>2335.9</ele>
        <time>2013-08-10T09:18:31.993Z</time>
      </trkpt>
      <trkpt lat="45.00491" lon="5.56433">
        <ele>2336.3</ele>
        <time>2013-08-10T09:18:32.992Z</time>
      </trkpt>
      <trkpt lat="45.0049" lon="5.56438">
        <ele>2335.3</ele>
        <time>2013-08-10T09:18:34.381Z</time>
      </trkpt>
      <trkpt lat="45.0049" lon="5.56438">
        <ele>2335.3</ele>
        <time>2013-08-10T09:18:35.262Z</time>
      </trkpt>
      <trkpt lat="45.0049" lon="5.56438">
        <ele>2334.7</ele>
        <time>2013-08-10T09:18:37.264Z</time>
      </trkpt>
      <trkpt lat="45.0049" lon="5.56439">
        <ele>2334.6</ele>
        <time>2013-08-10T09:18:38.426Z</time>
      </trkpt>
      <trkpt lat="45.00491" lon="5.56451">
        <ele>2335.5</ele>
        <time>2013-08-10T09:18:48.566Z</time>
      </trkpt>
      <trkpt lat="45.0049" lon="5.56452">
        <ele>2335.5</ele>
        <time>2013-08-10T09:18:49.577Z</time>
      </trkpt>
      <trkpt lat="45.0049" lon="5.56454">
        <ele>2335.3</ele>
        <time>2013-08-10T09:18:53.561Z</time>
      </trkpt>
      <trkpt lat="45.0049" lon="5.56454">
        <ele>2335.5</ele>
        <time>2013-08-10T09:18:54.715Z</time>
      </trkpt>
      <trkpt lat="45.0049" lon="5.56454">
        <ele>2335.8</ele>
        <time>2013-08-10T09:18:56.693Z</time>
      </trkpt>
      <trkpt lat="45.0049" lon="5.56455">
        <ele>2335.6</ele>
        <time>2013-08-10T09:18:57.692Z</time>
      </trkpt>
      <trkpt lat="45.00488" lon="5.56459">
        <ele>2335.3</ele>
        <time>2013-08-10T09:19:05.568Z</time>
      </trkpt>
      <trkpt lat="45.00488" lon="5.56459">
        <ele>2334.6</ele>
        <time>2013-08-10T09:19:06.563Z</time>
      </trkpt>
      <trkpt lat="45.00488" lon="5.56459">
        <ele>2333.7</ele>
        <time>2013-08-10T09:19:17.682Z</time>
      </trkpt>
      <trkpt lat="45.00488" lon="5.5646">
        <ele>2333.9</ele>
        <time>2013-08-10T09:19:18.546Z</time>
      </trkpt>
      <trkpt lat="45.00485" lon="5.56469">
        <ele>2330.2</ele>
        <time>2013-08-10T09:19:35.699Z</time>
      </trkpt>
      <trkpt lat="45.00485" lon="5.56469">
        <ele>2330.4</ele>
        <time>2013-08-10T09:19:37.684Z</time>
      </trkpt>
      <trkpt lat="45.00484" lon="5.56469">
        <ele>2330.2</ele>
        <time>2013-08-10T09:19:39.500Z</time>
      </trkpt>
      <trkpt lat="45.00485" lon="5.5647">
        <ele>2329.6</ele>
        <time>2013-08-10T09:19:40.138Z</time>
      </trkpt>
      <trkpt lat="45.00483" lon="5.56475">
        <ele>2330.1</ele>
        <time>2013-08-10T09:19:51.693Z</time>
      </trkpt>
      <trkpt lat="45.00483" lon="5.56475">
        <ele>2330.2</ele>
        <time>2013-08-10T09:19:52.487Z</time>
      </trkpt>
      <trkpt lat="45.00483" lon="5.56475">
        <ele>2330.3</ele>
        <time>2013-08-10T09:19:53.500Z</time>
      </trkpt>
      <trkpt lat="45.00481" lon="5.56487">
        <ele>2329.8</ele>
        <time>2013-08-10T09:20:04.603Z</time>
      </trkpt>
      <trkpt lat="45.00481" lon="5.56488">
        <ele>2329.4</ele>
        <time>2013-08-10T09:20:05.526Z</time>
      </trkpt>
      <trkpt lat="45.0048" lon="5.56497">
        <ele>2328.2</ele>
        <time>2013-08-10T09:20:57.957Z</time>
      </trkpt>
      <trkpt lat="45.0048" lon="5.56497">
        <ele>2328.3</ele>
        <time>2013-08-10T09:20:58.986Z</time>
      </trkpt>
      <trkpt lat="45.0048" lon="5.56498">
        <ele>2328.4</ele>
        <time>2013-08-10T09:21:00.126Z</time>
      </trkpt>
      <trkpt lat="45.00479" lon="5.56502">
        <ele>2326.7</ele>
        <time>2013-08-10T09:21:04.961Z</time>
      </trkpt>
      <trkpt lat="45.00479" lon="5.56502">
        <ele>2326.7</ele>
        <time>2013-08-10T09:21:06.024Z</time>
      </trkpt>
      <trkpt lat="45.00479" lon="5.56502">
        <ele>2327.2</ele>
        <time>2013-08-10T09:21:07.412Z</time>
      </trkpt>
      <trkpt lat="45.0048" lon="5.56496">
        <ele>2327.9</ele>
        <time>2013-08-10T09:21:07.934Z</time>
      </trkpt>
      <trkpt lat="45.00481" lon="5.56502">
        <ele>2326.4</ele>
        <time>2013-08-10T09:21:51.190Z</time>
      </trkpt>
      <trkpt lat="45.00481" lon="5.56522">
        <ele>2326.3</ele>
        <time>2013-08-10T09:21:51.958Z</time>
      </trkpt>
      <trkpt lat="45.00488" lon="5.56519">
        <ele>2324.5</ele>
        <time>2013-08-10T09:21:53.399Z</time>
      </trkpt>
      <trkpt lat="45.00483" lon="5.56507">
        <ele>2326.4</ele>
        <time>2013-08-10T09:21:54.450Z</time>
      </trkpt>
      <trkpt lat="45.00481" lon="5.56503">
        <ele>2326.4</ele>
        <time>2013-08-10T09:21:55.925Z</time>
      </trkpt>
      <trkpt lat="45.00492" lon="5.56539">
        <ele>2341.8</ele>
        <time>2013-08-10T09:22:26.959Z</time>
      </trkpt>
      <trkpt lat="45.00492" lon="5.56532">
        <ele>2338.7</ele>
        <time>2013-08-10T09:22:30.399Z</time>
      </trkpt>
      <trkpt lat="45.0048" lon="5.56505">
        <ele>2313.5</ele>
        <time>2013-08-10T09:22:49.580Z</time>
      </trkpt>
      <trkpt lat="45.00479" lon="5.56507">
        <ele>2312.8</ele>
        <time>2013-08-10T09:22:58.301Z</time>
      </trkpt>
      <trkpt lat="45.00487" lon="5.56515">
        <ele>2317.8</ele>
        <time>2013-08-10T09:23:21.534Z</time>
      </trkpt>
      <trkpt lat="45.00483" lon="5.5651">
        <ele>2318.1</ele>
        <time>2013-08-10T09:23:29.958Z</time>
      </trkpt>
      <trkpt lat="45.00483" lon="5.5651">
        <ele>2318.1</ele>
        <time>2013-08-10T09:23:31.046Z</time>
      </trkpt>
      <trkpt lat="45.00484" lon="5.5651">
        <ele>2317.7</ele>
        <time>2013-08-10T09:23:33.095Z</time>
      </trkpt>
      <trkpt lat="45.00483" lon="5.56508">
        <ele>2297.2</ele>
        <time>2013-08-10T09:23:33.932Z</time>
      </trkpt>
      <trkpt lat="45.00482" lon="5.56502">
        <ele>2297</ele>
        <time>2013-08-10T09:23:35.319Z</time>
      </trkpt>
      <trkpt lat="45.0048" lon="5.56495">
        <ele>2296.7</ele>
        <time>2013-08-10T09:23:36.316Z</time>
      </trkpt>
      <trkpt lat="45.00478" lon="5.56488">
        <ele>2296.5</ele>
        <time>2013-08-10T09:23:37.295Z</time>
      </trkpt>
      <trkpt lat="45.00476" lon="5.56482">
        <ele>2296.3</ele>
        <time>2013-08-10T09:23:38.303Z</time>
      </trkpt>
      <trkpt lat="45.00475" lon="5.56477">
        <ele>2300.2</ele>
        <time>2013-08-10T09:23:39.301Z</time>
      </trkpt>
      <trkpt lat="45.00485" lon="5.56506">
        <ele>2314</ele>
        <time>2013-08-10T09:23:40.020Z</time>
      </trkpt>
      <trkpt lat="45.00472" lon="5.5648">
        <ele>2285.6</ele>
        <time>2013-08-10T09:24:11.371Z</time>
      </trkpt>
      <trkpt lat="45.00465" lon="5.56462">
        <ele>2274.2</ele>
        <time>2013-08-10T09:24:13.314Z</time>
      </trkpt>
      <trkpt lat="45.00466" lon="5.56471">
        <ele>2282</ele>
        <time>2013-08-10T09:24:14.310Z</time>
      </trkpt>
      <trkpt lat="45.00469" lon="5.56475">
        <ele>2282.8</ele>
        <time>2013-08-10T09:24:15.321Z</time>
      </trkpt>
      <trkpt lat="45.00471" lon="5.5647">
        <ele>2280.8</ele>
        <time>2013-08-10T09:24:16.839Z</time>
      </trkpt>
      <trkpt lat="45.0048" lon="5.56468">
        <ele>2316</ele>
        <time>2013-08-10T09:24:17.798Z</time>
      </trkpt>
      <trkpt lat="45.00489" lon="5.56484">
        <ele>2314</ele>
        <time>2013-08-10T09:24:18.798Z</time>
      </trkpt>
      <trkpt lat="45.00489" lon="5.56508">
        <ele>2313.8</ele>
        <time>2013-08-10T09:24:19.574Z</time>
      </trkpt>
      <trkpt lat="45.00487" lon="5.5652">
        <ele>2313.7</ele>
        <time>2013-08-10T09:24:29.397Z</time>
      </trkpt>
      <trkpt lat="45.00487" lon="5.56521">
        <ele>2313.6</ele>
        <time>2013-08-10T09:24:30.397Z</time>
      </trkpt>
      <trkpt lat="45.00483" lon="5.56526">
        <ele>2313.4</ele>
        <time>2013-08-10T09:24:33.517Z</time>
      </trkpt>
      <trkpt lat="45.00497" lon="5.56548">
        <ele>2313.1</ele>
        <time>2013-08-10T09:24:51.521Z</time>
      </trkpt>
      <trkpt lat="45.00489" lon="5.56546">
        <ele>2312.4</ele>
        <time>2013-08-10T09:24:59.094Z</time>
      </trkpt>
      <trkpt lat="45.00488" lon="5.56547">
        <ele>2312.2</ele>
        <time>2013-08-10T09:25:00.076Z</time>
      </trkpt>
      <trkpt lat="45.00485" lon="5.56545">
        <ele>2311.3</ele>
        <time>2013-08-10T09:25:06.548Z</time>
      </trkpt>
      <trkpt lat="45.00485" lon="5.56545">
        <ele>2311.1</ele>
        <time>2013-08-10T09:25:08.395Z</time>
      </trkpt>
      <trkpt lat="45.00484" lon="5.56545">
        <ele>2310.5</ele>
        <time>2013-08-10T09:25:09.432Z</time>
      </trkpt>
      <trkpt lat="45.00483" lon="5.56541">
        <ele>2315.7</ele>
        <time>2013-08-10T09:25:14.841Z</time>
      </trkpt>
      <trkpt lat="45.00483" lon="5.56542">
        <ele>2309.5</ele>
        <time>2013-08-10T09:25:15.556Z</time>
      </trkpt>
      <trkpt lat="45.00481" lon="5.5655">
        <ele>2309.1</ele>
        <time>2013-08-10T09:25:51.571Z</time>
      </trkpt>
      <trkpt lat="45.00479" lon="5.56545">
        <ele>2309.4</ele>
        <time>2013-08-10T09:25:52.398Z</time>
      </trkpt>
      <trkpt lat="45.00479" lon="5.56546">
        <ele>2299.2</ele>
        <time>2013-08-10T09:26:25.575Z</time>
      </trkpt>
      <trkpt lat="45.00478" lon="5.56545">
        <ele>2299</ele>
        <time>2013-08-10T09:26:26.508Z</time>
      </trkpt>
      <trkpt lat="45.00478" lon="5.56545">
        <ele>2299.2</ele>
        <time>2013-08-10T09:26:27.595Z</time>
      </trkpt>
      <trkpt lat="45.00477" lon="5.56545">
        <ele>2298.5</ele>
        <time>2013-08-10T09:26:28.424Z</time>
      </trkpt>
      <trkpt lat="45.00476" lon="5.56544">
        <ele>2299.6</ele>
        <time>2013-08-10T09:26:31.517Z</time>
      </trkpt>
      <trkpt lat="45.00476" lon="5.56544">
        <ele>2300</ele>
        <time>2013-08-10T09:26:32.509Z</time>
      </trkpt>
      <trkpt lat="45.00476" lon="5.56545">
        <ele>2300.2</ele>
        <time>2013-08-10T09:26:33.394Z</time>
      </trkpt>
      <trkpt lat="45.00479" lon="5.56547">
        <ele>2309.4</ele>
        <time>2013-08-10T09:26:35.843Z</time>
      </trkpt>
      <trkpt lat="45.00477" lon="5.56545">
        <ele>2300.2</ele>
        <time>2013-08-10T09:26:36.843Z</time>
      </trkpt>
      <trkpt lat="45.00484" lon="5.56572">
        <ele>2293.8</ele>
        <time>2013-08-10T09:27:51.200Z</time>
      </trkpt>
      <trkpt lat="45.00486" lon="5.56576">
        <ele>2291.1</ele>
        <time>2013-08-10T09:27:52.101Z</time>
      </trkpt>
      <trkpt lat="45.00486" lon="5.56587">
        <ele>2295.8</ele>
        <time>2013-08-10T09:27:52.826Z</time>
      </trkpt>
      <trkpt lat="45.00482" lon="5.56579">
        <ele>2286.2</ele>
        <time>2013-08-10T09:27:58.397Z</time>
      </trkpt>
      <trkpt lat="45.00482" lon="5.5658">
        <ele>2285.8</ele>
        <time>2013-08-10T09:27:59.397Z</time>
      </trkpt>
      <trkpt lat="45.00481" lon="5.56578">
        <ele>2281.2</ele>
        <time>2013-08-10T09:28:00.397Z</time>
      </trkpt>
      <trkpt lat="45.00483" lon="5.56586">
        <ele>2283.8</ele>
        <time>2013-08-10T09:28:07.397Z</time>
      </trkpt>
      <trkpt lat="45.00483" lon="5.56585">
        <ele>2282.6</ele>
        <time>2013-08-10T09:28:08.396Z</time>
      </trkpt>
      <trkpt lat="45.00483" lon="5.56584">
        <ele>2281.4</ele>
        <time>2013-08-10T09:28:09.397Z</time>
      </trkpt>
      <trkpt lat="45.00482" lon="5.56582">
        <ele>2278.8</ele>
        <time>2013-08-10T09:28:16.901Z</time>
      </trkpt>
      <trkpt lat="45.00482" lon="5.56581">
        <ele>2278.8</ele>
        <time>2013-08-10T09:28:17.509Z</time>
      </trkpt>
      <trkpt lat="45.00482" lon="5.56581">
        <ele>2278.6</ele>
        <time>2013-08-10T09:28:18.916Z</time>
      </trkpt>
      <trkpt lat="45.00482" lon="5.5658">
        <ele>2278</ele>
        <time>2013-08-10T09:28:19.422Z</time>
      </trkpt>
      <trkpt lat="45.00482" lon="5.5658">
        <ele>2277.1</ele>
        <time>2013-08-10T09:28:21.606Z</time>
      </trkpt>
      <trkpt lat="45.00482" lon="5.5658">
        <ele>2276.4</ele>
        <time>2013-08-10T09:28:22.597Z</time>
      </trkpt>
      <trkpt lat="45.00488" lon="5.56601">
        <ele>2257.3</ele>
        <time>2013-08-10T09:29:21.084Z</time>
      </trkpt>
      <trkpt lat="45.0048" lon="5.56606">
        <ele>2264</ele>
        <time>2013-08-10T09:29:27.520Z</time>
      </trkpt>
      <trkpt lat="45.00479" lon="5.56606">
        <ele>2263.8</ele>
        <time>2013-08-10T09:29:28.521Z</time>
      </trkpt>
      <trkpt lat="45.00487" lon="5.56613">
        <ele>2260.1</ele>
        <time>2013-08-10T09:29:50.397Z</time>
      </trkpt>
      <trkpt lat="45.00487" lon="5.56613">
        <ele>2260</ele>
        <time>2013-08-10T09:29:51.440Z</time>
      </trkpt>
      <trkpt lat="45.00493" lon="5.5662">
        <ele>2258.5</ele>
        <time>2013-08-10T09:30:02.384Z</time>
      </trkpt>
      <trkpt lat="45.00494" lon="5.56621">
        <ele>2257.8</ele>
        <time>2013-08-10T09:30:03.386Z</time>
      </trkpt>
      <trkpt lat="45.00487" lon="5.56629">
        <ele>2252.1</ele>
        <time>2013-08-10T09:30:16.386Z</time>
      </trkpt>
      <trkpt lat="45.00487" lon="5.5663">
        <ele>2252.1</ele>
        <time>2013-08-10T09:30:17.397Z</time>
      </trkpt>
      <trkpt lat="45.00483" lon="5.56641">
        <ele>2246.9</ele>
        <time>2013-08-10T09:30:31.663Z</time>
      </trkpt>
      <trkpt lat="45.00483" lon="5.56642">
        <ele>2246.6</ele>
        <time>2013-08-10T09:30:32.664Z</time>
      </trkpt>
      <trkpt lat="45.00482" lon="5.56645">
        <ele>2244.3</ele>
        <time>2013-08-10T09:30:39.394Z</time>
      </trkpt>
      <trkpt lat="45.00482" lon="5.56645">
        <ele>2243.6</ele>
        <time>2013-08-10T09:30:40.600Z</time>
      </trkpt>
      <trkpt lat="45.00482" lon="5.56644">
        <ele>2241.2</ele>
        <time>2013-08-10T09:30:44.395Z</time>
      </trkpt>
      <trkpt lat="45.00481" lon="5.56645">
        <ele>2241.4</ele>
        <time>2013-08-10T09:30:45.396Z</time>
      </trkpt>
      <trkpt lat="45.00476" lon="5.56655">
        <ele>2239</ele>
        <time>2013-08-10T09:30:54.486Z</time>
      </trkpt>
      <trkpt lat="45.00476" lon="5.56655">
        <ele>2238.8</ele>
        <time>2013-08-10T09:30:55.513Z</time>
      </trkpt>
      <trkpt lat="45.00476" lon="5.56656">
        <ele>2237.9</ele>
        <time>2013-08-10T09:31:00.449Z</time>
      </trkpt>
      <trkpt lat="45.00476" lon="5.56656">
        <ele>2237.8</ele>
        <time>2013-08-10T09:31:01.433Z</time>
      </trkpt>
      <trkpt lat="45.00476" lon="5.56656">
        <ele>2237.8</ele>
        <time>2013-08-10T09:31:02.432Z</time>
      </trkpt>
      <trkpt lat="45.00476" lon="5.56656">
        <ele>2238.3</ele>
        <time>2013-08-10T09:31:03.433Z</time>
      </trkpt>
      <trkpt lat="45.00476" lon="5.56657">
        <ele>2238</ele>
        <time>2013-08-10T09:31:06.547Z</time>
      </trkpt>
      <trkpt lat="45.00477" lon="5.56658">
        <ele>2237.5</ele>
        <time>2013-08-10T09:31:07.017Z</time>
      </trkpt>
      <trkpt lat="45.00477" lon="5.5667">
        <ele>2236.9</ele>
        <time>2013-08-10T09:31:21.811Z</time>
      </trkpt>
      <trkpt lat="45.00477" lon="5.5667">
        <ele>2237.1</ele>
        <time>2013-08-10T09:31:22.547Z</time>
      </trkpt>
      <trkpt lat="45.00483" lon="5.56677">
        <ele>2231</ele>
        <time>2013-08-10T09:31:29.584Z</time>
      </trkpt>
      <trkpt lat="45.00484" lon="5.56679">
        <ele>2230</ele>
        <time>2013-08-10T09:31:30.388Z</time>
      </trkpt>
      <trkpt lat="45.00477" lon="5.56686">
        <ele>2229</ele>
        <time>2013-08-10T09:31:41.393Z</time>
      </trkpt>
      <trkpt lat="45.00477" lon="5.56688">
        <ele>2230.5</ele>
        <time>2013-08-10T09:31:42.489Z</time>
      </trkpt>
      <trkpt lat="45.00476" lon="5.567">
        <ele>2238.5</ele>
        <time>2013-08-10T09:31:53.396Z</time>
      </trkpt>
      <trkpt lat="45.00475" lon="5.56701">
        <ele>2239.3</ele>
        <time>2013-08-10T09:31:54.414Z</time>
      </trkpt>
      <trkpt lat="45.00472" lon="5.56712">
        <ele>2238.4</ele>
        <time>2013-08-10T09:32:00.388Z</time>
      </trkpt>
      <trkpt lat="45.00471" lon="5.56714">
        <ele>2236.9</ele>
        <time>2013-08-10T09:32:01.397Z</time>
      </trkpt>
      <trkpt lat="45.00473" lon="5.56726">
        <ele>2254.3</ele>
        <time>2013-08-10T09:32:06.396Z</time>
      </trkpt>
      <trkpt lat="45.0047" lon="5.56732">
        <ele>2255.7</ele>
        <time>2013-08-10T09:32:07.849Z</time>
      </trkpt>
      <trkpt lat="45.00473" lon="5.5673">
        <ele>2232.7</ele>
        <time>2013-08-10T09:32:10.497Z</time>
      </trkpt>
      <trkpt lat="45.00462" lon="5.56748">
        <ele>2202.1</ele>
        <time>2013-08-10T09:32:21.499Z</time>
      </trkpt>
      <trkpt lat="45.00459" lon="5.5676">
        <ele>2199</ele>
        <time>2013-08-10T09:32:31.396Z</time>
      </trkpt>
      <trkpt lat="45.00458" lon="5.56762">
        <ele>2198.8</ele>
        <time>2013-08-10T09:32:32.395Z</time>
      </trkpt>
      <trkpt lat="45.00453" lon="5.56771">
        <ele>2198.1</ele>
        <time>2013-08-10T09:32:39.603Z</time>
      </trkpt>
      <trkpt lat="45.00452" lon="5.56772">
        <ele>2198.7</ele>
        <time>2013-08-10T09:32:41.023Z</time>
      </trkpt>
      <trkpt lat="45.00452" lon="5.56774">
        <ele>2197.6</ele>
        <time>2013-08-10T09:32:43.397Z</time>
      </trkpt>
      <trkpt lat="45.00452" lon="5.56774">
        <ele>2198.2</ele>
        <time>2013-08-10T09:32:44.408Z</time>
      </trkpt>
      <trkpt lat="45.00452" lon="5.56774">
        <ele>2199.4</ele>
        <time>2013-08-10T09:32:57.588Z</time>
      </trkpt>
      <trkpt lat="45.00452" lon="5.56773">
        <ele>2198.4</ele>
        <time>2013-08-10T09:32:58.524Z</time>
      </trkpt>
      <trkpt lat="45.00451" lon="5.56773">
        <ele>2198.6</ele>
        <time>2013-08-10T09:33:00.573Z</time>
      </trkpt>
      <trkpt lat="45.00451" lon="5.56773">
        <ele>2199.4</ele>
        <time>2013-08-10T09:33:38.396Z</time>
      </trkpt>
      <trkpt lat="45.00451" lon="5.56778">
        <ele>2199.2</ele>
        <time>2013-08-10T09:33:41.851Z</time>
      </trkpt>
      <trkpt lat="45.00445" lon="5.56787">
        <ele>2201.4</ele>
        <time>2013-08-10T09:34:26.947Z</time>
      </trkpt>
      <trkpt lat="45.00446" lon="5.56788">
        <ele>2202</ele>
        <time>2013-08-10T09:34:27.948Z</time>
      </trkpt>
      <trkpt lat="45.0044" lon="5.56797">
        <ele>2200.7</ele>
        <time>2013-08-10T09:34:32.966Z</time>
      </trkpt>
      <trkpt lat="45.00437" lon="5.56801">
        <ele>2201.5</ele>
        <time>2013-08-10T09:34:34.405Z</time>
      </trkpt>
      <trkpt lat="45.00432" lon="5.56805">
        <ele>2204.7</ele>
        <time>2013-08-10T09:34:51.947Z</time>
      </trkpt>
      <trkpt lat="45.00428" lon="5.56806">
        <ele>2208.5</ele>
        <time>2013-08-10T09:34:52.952Z</time>
      </trkpt>
      <trkpt lat="45.00429" lon="5.56816">
        <ele>2202.9</ele>
        <time>2013-08-10T09:35:00.820Z</time>
      </trkpt>
      <trkpt lat="45.00423" lon="5.5682">
        <ele>2208.3</ele>
        <time>2013-08-10T09:35:01.433Z</time>
      </trkpt>
      <trkpt lat="45.00424" lon="5.56832">
        <ele>2201.7</ele>
        <time>2013-08-10T09:35:08.527Z</time>
      </trkpt>
      <trkpt lat="45.00422" lon="5.56834">
        <ele>2202.6</ele>
        <time>2013-08-10T09:35:09.334Z</time>
      </trkpt>
      <trkpt lat="45.00422" lon="5.56833">
        <ele>2201.4</ele>
        <time>2013-08-10T09:35:11.010Z</time>
      </trkpt>
      <trkpt lat="45.00407" lon="5.56858">
        <ele>2227.4</ele>
        <time>2013-08-10T09:35:50.385Z</time>
      </trkpt>
      <trkpt lat="45.0041" lon="5.56851">
        <ele>2219.3</ele>
        <time>2013-08-10T09:35:54.027Z</time>
      </trkpt>
      <trkpt lat="45.0041" lon="5.56851">
        <ele>2219.1</ele>
        <time>2013-08-10T09:35:54.933Z</time>
      </trkpt>
      <trkpt lat="45.00409" lon="5.5685">
        <ele>2215.3</ele>
        <time>2013-08-10T09:36:24.922Z</time>
      </trkpt>
      <trkpt lat="45.00408" lon="5.56848">
        <ele>2201.9</ele>
        <time>2013-08-10T09:36:25.921Z</time>
      </trkpt>
      <trkpt lat="45.00408" lon="5.56854">
        <ele>2212.6</ele>
        <time>2013-08-10T09:36:35.034Z</time>
      </trkpt>
      <trkpt lat="45.00379" lon="5.56893">
        <ele>2200.3</ele>
        <time>2013-08-10T09:36:51.614Z</time>
      </trkpt>
      <trkpt lat="45.00394" lon="5.56879">
        <ele>2199.3</ele>
        <time>2013-08-10T09:36:53.432Z</time>
      </trkpt>
      <trkpt lat="45.00389" lon="5.56887">
        <ele>2206.2</ele>
        <time>2013-08-10T09:37:01.841Z</time>
      </trkpt>
      <trkpt lat="45.00387" lon="5.56889">
        <ele>2198.5</ele>
        <time>2013-08-10T09:37:02.840Z</time>
      </trkpt>
      <trkpt lat="45.00388" lon="5.569">
        <ele>2201.4</ele>
        <time>2013-08-10T09:37:10.405Z</time>
      </trkpt>
      <trkpt lat="45.00387" lon="5.56901">
        <ele>2203</ele>
        <time>2013-08-10T09:37:11.403Z</time>
      </trkpt>
      <trkpt lat="45.00385" lon="5.56906">
        <ele>2203.3</ele>
        <time>2013-08-10T09:37:14.371Z</time>
      </trkpt>
      <trkpt lat="45.00361" lon="5.56918">
        <ele>2205.7</ele>
        <time>2013-08-10T09:37:51.363Z</time>
      </trkpt>
      <trkpt lat="45.00355" lon="5.56924">
        <ele>2203.8</ele>
        <time>2013-08-10T09:37:53.930Z</time>
      </trkpt>
      <trkpt lat="45.00353" lon="5.56926">
        <ele>2203.8</ele>
        <time>2013-08-10T09:37:54.938Z</time>
      </trkpt>
      <trkpt lat="45.00349" lon="5.56928">
        <ele>2204.1</ele>
        <time>2013-08-10T09:37:58.390Z</time>
      </trkpt>
      <trkpt lat="45.0035" lon="5.56927">
        <ele>2203.6</ele>
        <time>2013-08-10T09:37:59.388Z</time>
      </trkpt>
      <trkpt lat="45.0035" lon="5.56927">
        <ele>2204.3</ele>
        <time>2013-08-10T09:37:59.932Z</time>
      </trkpt>
      <trkpt lat="45.0035" lon="5.56928">
        <ele>2205</ele>
        <time>2013-08-10T09:38:00.972Z</time>
      </trkpt>
      <trkpt lat="45.00346" lon="5.56942">
        <ele>2242.8</ele>
        <time>2013-08-10T09:38:21.843Z</time>
      </trkpt>
      <trkpt lat="45.00342" lon="5.56949">
        <ele>2240.5</ele>
        <time>2013-08-10T09:38:22.608Z</time>
      </trkpt>
      <trkpt lat="45.00339" lon="5.56959">
        <ele>2204.8</ele>
        <time>2013-08-10T09:38:22.633Z</time>
      </trkpt>
      <trkpt lat="45.00343" lon="5.56954">
        <ele>2203.8</ele>
        <time>2013-08-10T09:38:28.772Z</time>
      </trkpt>
      <trkpt lat="45.00349" lon="5.56963">
        <ele>2204.2</ele>
        <time>2013-08-10T09:38:29.770Z</time>
      </trkpt>
      <trkpt lat="45.0035" lon="5.56964">
        <ele>2204.7</ele>
        <time>2013-08-10T09:38:30.511Z</time>
      </trkpt>
      <trkpt lat="45.00349" lon="5.56981">
        <ele>2193.9</ele>
        <time>2013-08-10T09:38:50.794Z</time>
      </trkpt>
      <trkpt lat="45.00349" lon="5.56969">
        <ele>2201.6</ele>
        <time>2013-08-10T09:38:51.772Z</time>
      </trkpt>
      <trkpt lat="45.0035" lon="5.56968">
        <ele>2201.1</ele>
        <time>2013-08-10T09:38:52.317Z</time>
      </trkpt>
      <trkpt lat="45.00348" lon="5.56979">
        <ele>2196.3</ele>
        <time>2013-08-10T09:38:56.315Z</time>
      </trkpt>
      <trkpt lat="45.00347" lon="5.56981">
        <ele>2198.7</ele>
        <time>2013-08-10T09:38:57.446Z</time>
      </trkpt>
      <trkpt lat="45.00343" lon="5.56992">
        <ele>2203.5</ele>
        <time>2013-08-10T09:39:04.378Z</time>
      </trkpt>
      <trkpt lat="45.00337" lon="5.57002">
        <ele>2185.7</ele>
        <time>2013-08-10T09:39:04.501Z</time>
      </trkpt>
      <trkpt lat="45.00338" lon="5.57">
        <ele>2204.3</ele>
        <time>2013-08-10T09:39:05.614Z</time>
      </trkpt>
      <trkpt lat="45.0032" lon="5.57036">
        <ele>2234.4</ele>
        <time>2013-08-10T09:39:22.371Z</time>
      </trkpt>
      <trkpt lat="45.00325" lon="5.57028">
        <ele>2209.6</ele>
        <time>2013-08-10T09:39:22.393Z</time>
      </trkpt>
      <trkpt lat="45.0033" lon="5.57029">
        <ele>2203.3</ele>
        <time>2013-08-10T09:39:23.302Z</time>
      </trkpt>
      <trkpt lat="45.00337" lon="5.57026">
        <ele>2177</ele>
        <time>2013-08-10T09:39:25.311Z</time>
      </trkpt>
      <trkpt lat="45.0034" lon="5.57026">
        <ele>2180.6</ele>
        <time>2013-08-10T09:39:26.303Z</time>
      </trkpt>
      <trkpt lat="45.0034" lon="5.57023">
        <ele>2174.5</ele>
        <time>2013-08-10T09:39:53.382Z</time>
      </trkpt>
      <trkpt lat="45.0034" lon="5.57023">
        <ele>2175.9</ele>
        <time>2013-08-10T09:39:54.313Z</time>
      </trkpt>
      <trkpt lat="45.00339" lon="5.57023">
        <ele>2176.6</ele>
        <time>2013-08-10T09:39:55.338Z</time>
      </trkpt>
      <trkpt lat="45.0034" lon="5.57022">
        <ele>2175.3</ele>
        <time>2013-08-10T09:39:59.318Z</time>
      </trkpt>
      <trkpt lat="45.00339" lon="5.57022">
        <ele>2176.4</ele>
        <time>2013-08-10T09:40:00.312Z</time>
      </trkpt>
      <trkpt lat="45.00339" lon="5.57023">
        <ele>2176.9</ele>
        <time>2013-08-10T09:40:58.301Z</time>
      </trkpt>
      <trkpt lat="45.00338" lon="5.57028">
        <ele>2177.8</ele>
        <time>2013-08-10T09:40:59.459Z</time>
      </trkpt>
      <trkpt lat="45.00338" lon="5.57027">
        <ele>2176.9</ele>
        <time>2013-08-10T09:41:28.922Z</time>
      </trkpt>
      <trkpt lat="45.00338" lon="5.57027">
        <ele>2176.9</ele>
        <time>2013-08-10T09:41:29.909Z</time>
      </trkpt>
      <trkpt lat="45.00338" lon="5.57027">
        <ele>2177</ele>
        <time>2013-08-10T09:41:32.917Z</time>
      </trkpt>
      <trkpt lat="45.00338" lon="5.57026">
        <ele>2177</ele>
        <time>2013-08-10T09:41:33.920Z</time>
      </trkpt>
      <trkpt lat="45.00338" lon="5.57026">
        <ele>2177</ele>
        <time>2013-08-10T09:41:34.934Z</time>
      </trkpt>
      <trkpt lat="45.00338" lon="5.57026">
        <ele>2177</ele>
        <time>2013-08-10T09:41:43.909Z</time>
      </trkpt>
      <trkpt lat="45.00338" lon="5.57026">
        <ele>2177.3</ele>
        <time>2013-08-10T09:41:44.982Z</time>
      </trkpt>
      <trkpt lat="45.00337" lon="5.57025">
        <ele>2176.7</ele>
        <time>2013-08-10T09:41:47.982Z</time>
      </trkpt>
      <trkpt lat="45.00337" lon="5.57026">
        <ele>2176.7</ele>
        <time>2013-08-10T09:41:48.933Z</time>
      </trkpt>
      <trkpt lat="45.00337" lon="5.57026">
        <ele>2176.9</ele>
        <time>2013-08-10T09:41:52.075Z</time>
      </trkpt>
      <trkpt lat="45.00338" lon="5.57026">
        <ele>2176.9</ele>
        <time>2013-08-10T09:41:53.024Z</time>
      </trkpt>
      <trkpt lat="45.00338" lon="5.57026">
        <ele>2177.3</ele>
        <time>2013-08-10T09:41:54.012Z</time>
      </trkpt>
      <trkpt lat="45.00337" lon="5.57026">
        <ele>2178.1</ele>
        <time>2013-08-10T09:42:07.305Z</time>
      </trkpt>
      <trkpt lat="45.00336" lon="5.57025">
        <ele>2177.6</ele>
        <time>2013-08-10T09:42:08.313Z</time>
      </trkpt>
      <trkpt lat="45.00337" lon="5.57026">
        <ele>2178.3</ele>
        <time>2013-08-10T09:42:13.484Z</time>
      </trkpt>
      <trkpt lat="45.00337" lon="5.57026">
        <ele>2178.3</ele>
        <time>2013-08-10T09:42:14.315Z</time>
      </trkpt>
      <trkpt lat="45.00319" lon="5.57156">
        <ele>2199.7</ele>
        <time>2013-08-10T09:43:09.209Z</time>
      </trkpt>
      <trkpt lat="45.00319" lon="5.57158">
        <ele>2199.8</ele>
        <time>2013-08-10T09:43:09.418Z</time>
      </trkpt>
      <trkpt lat="45.00336" lon="5.57103">
        <ele>2156.7</ele>
        <time>2013-08-10T09:43:12.399Z</time>
      </trkpt>
      <trkpt lat="45.00334" lon="5.5711">
        <ele>2160.7</ele>
        <time>2013-08-10T09:43:15.938Z</time>
      </trkpt>
      <trkpt lat="45.00332" lon="5.57115">
        <ele>2160.9</ele>
        <time>2013-08-10T09:43:16.937Z</time>
      </trkpt>
      <trkpt lat="45.0033" lon="5.57126">
        <ele>2159.5</ele>
        <time>2013-08-10T09:43:20.981Z</time>
      </trkpt>
      <trkpt lat="45.0033" lon="5.57128">
        <ele>2159.8</ele>
        <time>2013-08-10T09:43:21.992Z</time>
      </trkpt>
      <trkpt lat="45.00329" lon="5.5713">
        <ele>2160.3</ele>
        <time>2013-08-10T09:43:23.440Z</time>
      </trkpt>
      <trkpt lat="45.00311" lon="5.57164">
        <ele>2165.4</ele>
        <time>2013-08-10T09:43:39.550Z</time>
      </trkpt>
      <trkpt lat="45.00307" lon="5.57173">
        <ele>2164.1</ele>
        <time>2013-08-10T09:43:46.394Z</time>
      </trkpt>
      <trkpt lat="45.00306" lon="5.57175">
        <ele>2165.8</ele>
        <time>2013-08-10T09:43:47.703Z</time>
      </trkpt>
      <trkpt lat="45.00304" lon="5.57187">
        <ele>2164</ele>
        <time>2013-08-10T09:43:56.041Z</time>
      </trkpt>
      <trkpt lat="45.00303" lon="5.57189">
        <ele>2164.1</ele>
        <time>2013-08-10T09:43:57.022Z</time>
      </trkpt>
      <trkpt lat="45.00302" lon="5.57201">
        <ele>2165.6</ele>
        <time>2013-08-10T09:44:03.433Z</time>
      </trkpt>
      <trkpt lat="45.00302" lon="5.57202">
        <ele>2165.7</ele>
        <time>2013-08-10T09:44:04.433Z</time>
      </trkpt>
      <trkpt lat="45.00301" lon="5.57207">
        <ele>2166.5</ele>
        <time>2013-08-10T09:44:10.220Z</time>
      </trkpt>
      <trkpt lat="45.0029" lon="5.57232">
        <ele>2171.5</ele>
        <time>2013-08-10T09:44:39.398Z</time>
      </trkpt>
      <trkpt lat="45.00286" lon="5.57228">
        <ele>2169.2</ele>
        <time>2013-08-10T09:44:41.122Z</time>
      </trkpt>
      <trkpt lat="45.00264" lon="5.57256">
        <ele>2170.4</ele>
        <time>2013-08-10T09:45:09.434Z</time>
      </trkpt>
      <trkpt lat="45.00263" lon="5.57257">
        <ele>2174.5</ele>
        <time>2013-08-10T09:45:11.870Z</time>
      </trkpt>
      <trkpt lat="45.00244" lon="5.57284">
        <ele>2173.8</ele>
        <time>2013-08-10T09:45:49.529Z</time>
      </trkpt>
      <trkpt lat="45.0024" lon="5.57284">
        <ele>2175.6</ele>
        <time>2013-08-10T09:45:50.821Z</time>
      </trkpt>
      <trkpt lat="45.00231" lon="5.57322">
        <ele>2189.7</ele>
        <time>2013-08-10T09:46:09.622Z</time>
      </trkpt>
      <trkpt lat="45.00228" lon="5.5731">
        <ele>2180.4</ele>
        <time>2013-08-10T09:46:11.362Z</time>
      </trkpt>
      <trkpt lat="45.00227" lon="5.5731">
        <ele>2181</ele>
        <time>2013-08-10T09:46:12.548Z</time>
      </trkpt>
      <trkpt lat="45.00225" lon="5.5732">
        <ele>2185.6</ele>
        <time>2013-08-10T09:46:18.373Z</time>
      </trkpt>
      <trkpt lat="45.00224" lon="5.57325">
        <ele>2185.5</ele>
        <time>2013-08-10T09:46:19.371Z</time>
      </trkpt>
      <trkpt lat="45.00221" lon="5.57335">
        <ele>2184.4</ele>
        <time>2013-08-10T09:46:27.030Z</time>
      </trkpt>
      <trkpt lat="45.0022" lon="5.57336">
        <ele>2182.5</ele>
        <time>2013-08-10T09:46:27.515Z</time>
      </trkpt>
      <trkpt lat="45.00216" lon="5.57345">
        <ele>2177.7</ele>
        <time>2013-08-10T09:46:37.109Z</time>
      </trkpt>
      <trkpt lat="45.0021" lon="5.57356">
        <ele>2187.9</ele>
        <time>2013-08-10T09:46:51.434Z</time>
      </trkpt>
      <trkpt lat="45.00202" lon="5.57358">
        <ele>2181.8</ele>
        <time>2013-08-10T09:46:55.394Z</time>
      </trkpt>
      <trkpt lat="45.002" lon="5.57358">
        <ele>2181.8</ele>
        <time>2013-08-10T09:46:56.406Z</time>
      </trkpt>
      <trkpt lat="45.00197" lon="5.57359">
        <ele>2186.4</ele>
        <time>2013-08-10T09:47:04.374Z</time>
      </trkpt>
      <trkpt lat="45.00183" lon="5.57374">
        <ele>2190.3</ele>
        <time>2013-08-10T09:47:21.444Z</time>
      </trkpt>
      <trkpt lat="45.0018" lon="5.57385">
        <ele>2190</ele>
        <time>2013-08-10T09:47:31.388Z</time>
      </trkpt>
      <trkpt lat="45.0018" lon="5.57386">
        <ele>2190.1</ele>
        <time>2013-08-10T09:47:32.525Z</time>
      </trkpt>
      <trkpt lat="45.0018" lon="5.57386">
        <ele>2189.2</ele>
        <time>2013-08-10T09:47:33.627Z</time>
      </trkpt>
      <trkpt lat="45.0018" lon="5.57385">
        <ele>2189.2</ele>
        <time>2013-08-10T09:47:34.517Z</time>
      </trkpt>
      <trkpt lat="45.00183" lon="5.57386">
        <ele>2186.5</ele>
        <time>2013-08-10T09:47:36.854Z</time>
      </trkpt>
      <trkpt lat="45.0018" lon="5.57387">
        <ele>2190.6</ele>
        <time>2013-08-10T09:47:37.572Z</time>
      </trkpt>
      <trkpt lat="45.00163" lon="5.57405">
        <ele>2194.4</ele>
        <time>2013-08-10T09:47:51.514Z</time>
      </trkpt>
      <trkpt lat="45.00164" lon="5.57415">
        <ele>2191.5</ele>
        <time>2013-08-10T09:48:00.394Z</time>
      </trkpt>
      <trkpt lat="45.00152" lon="5.57439">
        <ele>2183.9</ele>
        <time>2013-08-10T09:48:22.431Z</time>
      </trkpt>
      <trkpt lat="45.00153" lon="5.57439">
        <ele>2185.9</ele>
        <time>2013-08-10T09:48:23.932Z</time>
      </trkpt>
      <trkpt lat="45.00153" lon="5.5744">
        <ele>2185.8</ele>
        <time>2013-08-10T09:48:24.929Z</time>
      </trkpt>
      <trkpt lat="45.00153" lon="5.57441">
        <ele>2183.3</ele>
        <time>2013-08-10T09:48:25.881Z</time>
      </trkpt>
      <trkpt lat="45.0015" lon="5.57447">
        <ele>2181.4</ele>
        <time>2013-08-10T09:48:29.867Z</time>
      </trkpt>
      <trkpt lat="45.00143" lon="5.5747">
        <ele>2183.4</ele>
        <time>2013-08-10T09:48:50.562Z</time>
      </trkpt>
      <trkpt lat="45.00142" lon="5.57477">
        <ele>2183.5</ele>
        <time>2013-08-10T09:49:01.840Z</time>
      </trkpt>
      <trkpt lat="45.00142" lon="5.57489">
        <ele>2177.1</ele>
        <time>2013-08-10T09:49:08.723Z</time>
      </trkpt>
      <trkpt lat="45.00142" lon="5.57486">
        <ele>2176.7</ele>
        <time>2013-08-10T09:49:08.858Z</time>
      </trkpt>
      <trkpt lat="45.00149" lon="5.57525">
        <ele>2175.7</ele>
        <time>2013-08-10T09:49:39.431Z</time>
      </trkpt>
      <trkpt lat="45.00147" lon="5.57526">
        <ele>2177.1</ele>
        <time>2013-08-10T09:49:40.918Z</time>
      </trkpt>
      <trkpt lat="45.00144" lon="5.5754">
        <ele>2177.7</ele>
        <time>2013-08-10T09:50:09.599Z</time>
      </trkpt>
      <trkpt lat="45.00137" lon="5.57549">
        <ele>2178.6</ele>
        <time>2013-08-10T09:50:16.836Z</time>
      </trkpt>
      <trkpt lat="45.00136" lon="5.57547">
        <ele>2178.3</ele>
        <time>2013-08-10T09:50:17.848Z</time>
      </trkpt>
      <trkpt lat="45.00137" lon="5.57547">
        <ele>2178.1</ele>
        <time>2013-08-10T09:50:18.502Z</time>
      </trkpt>
      <trkpt lat="45.00127" lon="5.57562">
        <ele>2185.7</ele>
        <time>2013-08-10T09:50:50.549Z</time>
      </trkpt>
      <trkpt lat="45.00125" lon="5.57562">
        <ele>2188</ele>
        <time>2013-08-10T09:50:59.970Z</time>
      </trkpt>
      <trkpt lat="45.00125" lon="5.57562">
        <ele>2188.2</ele>
        <time>2013-08-10T09:51:01.142Z</time>
      </trkpt>
      <trkpt lat="45.00124" lon="5.57564">
        <ele>2190.2</ele>
        <time>2013-08-10T09:51:02.527Z</time>
      </trkpt>
      <trkpt lat="45.00124" lon="5.57563">
        <ele>2189.2</ele>
        <time>2013-08-10T09:51:03.785Z</time>
      </trkpt>
      <trkpt lat="45.00125" lon="5.57563">
        <ele>2188.4</ele>
        <time>2013-08-10T09:51:04.747Z</time>
      </trkpt>
      <trkpt lat="45.00121" lon="5.57571">
        <ele>2191.8</ele>
        <time>2013-08-10T09:51:21.773Z</time>
      </trkpt>
      <trkpt lat="45.00121" lon="5.57567">
        <ele>2196.4</ele>
        <time>2013-08-10T09:51:22.496Z</time>
      </trkpt>
      <trkpt lat="45.00121" lon="5.57568">
        <ele>2196.6</ele>
        <time>2013-08-10T09:51:23.290Z</time>
      </trkpt>
      <trkpt lat="45.0012" lon="5.57568">
        <ele>2195.8</ele>
        <time>2013-08-10T09:51:23.593Z</time>
      </trkpt>
      <trkpt lat="45.00119" lon="5.57571">
        <ele>2194.7</ele>
        <time>2013-08-10T09:51:29.397Z</time>
      </trkpt>
      <trkpt lat="45.00119" lon="5.57571">
        <ele>2194.8</ele>
        <time>2013-08-10T09:51:30.583Z</time>
      </trkpt>
      <trkpt lat="45.0012" lon="5.57573">
        <ele>2213.4</ele>
        <time>2013-08-10T09:51:31.487Z</time>
      </trkpt>
      <trkpt lat="45.0012" lon="5.57573">
        <ele>2190.5</ele>
        <time>2013-08-10T09:51:34.568Z</time>
      </trkpt>
      <trkpt lat="45.00115" lon="5.57585">
        <ele>2201.7</ele>
        <time>2013-08-10T09:51:52.515Z</time>
      </trkpt>
      <trkpt lat="45.00116" lon="5.57583">
        <ele>2197.1</ele>
        <time>2013-08-10T09:51:55.929Z</time>
      </trkpt>
      <trkpt lat="45.00116" lon="5.57583">
        <ele>2197.4</ele>
        <time>2013-08-10T09:51:56.929Z</time>
      </trkpt>
      <trkpt lat="45.00115" lon="5.57583">
        <ele>2197.3</ele>
        <time>2013-08-10T09:51:57.931Z</time>
      </trkpt>
      <trkpt lat="45.00107" lon="5.57581">
        <ele>2201.1</ele>
        <time>2013-08-10T09:52:12.344Z</time>
      </trkpt>
      <trkpt lat="45.00106" lon="5.57581">
        <ele>2201.2</ele>
        <time>2013-08-10T09:52:13.328Z</time>
      </trkpt>
      <trkpt lat="45.00103" lon="5.5758">
        <ele>2201.6</ele>
        <time>2013-08-10T09:52:18.395Z</time>
      </trkpt>
      <trkpt lat="45.00103" lon="5.5758">
        <ele>2201.3</ele>
        <time>2013-08-10T09:52:19.398Z</time>
      </trkpt>
      <trkpt lat="45.00103" lon="5.57581">
        <ele>2201.4</ele>
        <time>2013-08-10T09:52:21.396Z</time>
      </trkpt>
      <trkpt lat="45.00103" lon="5.5758">
        <ele>2201.3</ele>
        <time>2013-08-10T09:52:22.396Z</time>
      </trkpt>
      <trkpt lat="45.00094" lon="5.57577">
        <ele>2204.1</ele>
        <time>2013-08-10T09:52:35.513Z</time>
      </trkpt>
      <trkpt lat="45.00094" lon="5.57577">
        <ele>2204.4</ele>
        <time>2013-08-10T09:52:36.518Z</time>
      </trkpt>
      <trkpt lat="45.00086" lon="5.57573">
        <ele>2207.5</ele>
        <time>2013-08-10T09:52:52.397Z</time>
      </trkpt>
      <trkpt lat="45.00084" lon="5.57572">
        <ele>2209</ele>
        <time>2013-08-10T09:52:53.536Z</time>
      </trkpt>
      <trkpt lat="45.00082" lon="5.57573">
        <ele>2207.9</ele>
        <time>2013-08-10T09:52:55.490Z</time>
      </trkpt>
      <trkpt lat="45.00083" lon="5.57573">
        <ele>2207.6</ele>
        <time>2013-08-10T09:52:56.416Z</time>
      </trkpt>
      <trkpt lat="45.00083" lon="5.57572">
        <ele>2207.9</ele>
        <time>2013-08-10T09:52:57.392Z</time>
      </trkpt>
      <trkpt lat="45.00083" lon="5.57572">
        <ele>2208.5</ele>
        <time>2013-08-10T09:52:57.868Z</time>
      </trkpt>
      <trkpt lat="45.00083" lon="5.57572">
        <ele>2208.6</ele>
        <time>2013-08-10T09:52:58.514Z</time>
      </trkpt>
      <trkpt lat="45.0008" lon="5.57572">
        <ele>2209.2</ele>
        <time>2013-08-10T09:53:02.357Z</time>
      </trkpt>
      <trkpt lat="45.0008" lon="5.57584">
        <ele>2211</ele>
        <time>2013-08-10T09:53:20.550Z</time>
      </trkpt>
      <trkpt lat="45.00081" lon="5.57596">
        <ele>2209.4</ele>
        <time>2013-08-10T09:53:30.392Z</time>
      </trkpt>
      <trkpt lat="45.00081" lon="5.57597">
        <ele>2209.3</ele>
        <time>2013-08-10T09:53:31.509Z</time>
      </trkpt>
      <trkpt lat="45.00082" lon="5.57596">
        <ele>2210.8</ele>
        <time>2013-08-10T09:53:34.508Z</time>
      </trkpt>
      <trkpt lat="45.00091" lon="5.57621">
        <ele>2212.1</ele>
        <time>2013-08-10T09:53:57.430Z</time>
      </trkpt>
      <trkpt lat="45.00088" lon="5.57622">
        <ele>2214.1</ele>
        <time>2013-08-10T09:54:05.871Z</time>
      </trkpt>
      <trkpt lat="45.0009" lon="5.57644">
        <ele>2214.1</ele>
        <time>2013-08-10T09:54:21.560Z</time>
      </trkpt>
      <trkpt lat="45.00086" lon="5.57634">
        <ele>2215.5</ele>
        <time>2013-08-10T09:54:27.365Z</time>
      </trkpt>
      <trkpt lat="45.00086" lon="5.57631">
        <ele>2215.6</ele>
        <time>2013-08-10T09:54:28.365Z</time>
      </trkpt>
      <trkpt lat="45.00086" lon="5.57634">
        <ele>2216.1</ele>
        <time>2013-08-10T09:54:30.868Z</time>
      </trkpt>
      <trkpt lat="45.0009" lon="5.5765">
        <ele>2225</ele>
        <time>2013-08-10T09:54:50.395Z</time>
      </trkpt>
      <trkpt lat="45.00092" lon="5.57649">
        <ele>2233.9</ele>
        <time>2013-08-10T09:54:52.847Z</time>
      </trkpt>
      <trkpt lat="45.00093" lon="5.57669">
        <ele>2233</ele>
        <time>2013-08-10T09:55:20.416Z</time>
      </trkpt>
      <trkpt lat="45.00093" lon="5.57668">
        <ele>2232.1</ele>
        <time>2013-08-10T09:55:21.365Z</time>
      </trkpt>
      <trkpt lat="45.00093" lon="5.57668">
        <ele>2232.1</ele>
        <time>2013-08-10T09:55:21.895Z</time>
      </trkpt>
      <trkpt lat="45.00093" lon="5.57669">
        <ele>2232</ele>
        <time>2013-08-10T09:55:22.896Z</time>
      </trkpt>
      <trkpt lat="45.00093" lon="5.57669">
        <ele>2232.6</ele>
        <time>2013-08-10T09:55:23.901Z</time>
      </trkpt>
      <trkpt lat="45.00093" lon="5.5767">
        <ele>2232.6</ele>
        <time>2013-08-10T09:55:24.907Z</time>
      </trkpt>
      <trkpt lat="45.0009" lon="5.5767">
        <ele>2236.1</ele>
        <time>2013-08-10T09:55:25.907Z</time>
      </trkpt>
      <trkpt lat="45.00093" lon="5.57671">
        <ele>2232.6</ele>
        <time>2013-08-10T09:55:28.548Z</time>
      </trkpt>
      <trkpt lat="45.00097" lon="5.57686">
        <ele>2234</ele>
        <time>2013-08-10T09:55:50.568Z</time>
      </trkpt>
      <trkpt lat="45.00092" lon="5.5769">
        <ele>2236.8</ele>
        <time>2013-08-10T09:56:00.430Z</time>
      </trkpt>
      <trkpt lat="45.00089" lon="5.57693">
        <ele>2241.4</ele>
        <time>2013-08-10T09:56:01.428Z</time>
      </trkpt>
      <trkpt lat="45.0009" lon="5.57702">
        <ele>2237.3</ele>
        <time>2013-08-10T09:56:24.374Z</time>
      </trkpt>
      <trkpt lat="45.00089" lon="5.57706">
        <ele>2236.9</ele>
        <time>2013-08-10T09:56:26.517Z</time>
      </trkpt>
      <trkpt lat="45.00092" lon="5.57701">
        <ele>2237.5</ele>
        <time>2013-08-10T09:56:54.507Z</time>
      </trkpt>
      <trkpt lat="45.00092" lon="5.577">
        <ele>2237.7</ele>
        <time>2013-08-10T09:56:55.507Z</time>
      </trkpt>
      <trkpt lat="45.00092" lon="5.577">
        <ele>2238.4</ele>
        <time>2013-08-10T09:57:00.396Z</time>
      </trkpt>
      <trkpt lat="45.00092" lon="5.577">
        <ele>2239.2</ele>
        <time>2013-08-10T09:57:01.395Z</time>
      </trkpt>
      <trkpt lat="45.00092" lon="5.577">
        <ele>2239</ele>
        <time>2013-08-10T09:57:02.863Z</time>
      </trkpt>
      <trkpt lat="45.00092" lon="5.577">
        <ele>2238.6</ele>
        <time>2013-08-10T09:57:05.861Z</time>
      </trkpt>
      <trkpt lat="45.0009" lon="5.57705">
        <ele>2237.1</ele>
        <time>2013-08-10T09:57:06.864Z</time>
      </trkpt>
      <trkpt lat="45.0009" lon="5.57699">
        <ele>2241</ele>
        <time>2013-08-10T09:57:27.438Z</time>
      </trkpt>
      <trkpt lat="45.00091" lon="5.577">
        <ele>2241</ele>
        <time>2013-08-10T09:57:28.720Z</time>
      </trkpt>
      <trkpt lat="45.00091" lon="5.577">
        <ele>2241.1</ele>
        <time>2013-08-10T09:57:28.919Z</time>
      </trkpt>
      <trkpt lat="45.00092" lon="5.57702">
        <ele>2238.6</ele>
        <time>2013-08-10T09:57:31.508Z</time>
      </trkpt>
      <trkpt lat="45.00091" lon="5.57701">
        <ele>2238.9</ele>
        <time>2013-08-10T09:57:32.856Z</time>
      </trkpt>
      <trkpt lat="45.00091" lon="5.577">
        <ele>2240.9</ele>
        <time>2013-08-10T09:57:33.612Z</time>
      </trkpt>
      <trkpt lat="45.00085" lon="5.57706">
        <ele>2246.8</ele>
        <time>2013-08-10T09:57:53.909Z</time>
      </trkpt>
      <trkpt lat="45.00083" lon="5.57708">
        <ele>2243.1</ele>
        <time>2013-08-10T09:57:55.363Z</time>
      </trkpt>
      <trkpt lat="45.00088" lon="5.57707">
        <ele>2232.1</ele>
        <time>2013-08-10T09:58:21.395Z</time>
      </trkpt>
      <trkpt lat="45.00092" lon="5.57701">
        <ele>2243.8</ele>
        <time>2013-08-10T09:58:22.522Z</time>
      </trkpt>
      <trkpt lat="45.00096" lon="5.577">
        <ele>2232.7</ele>
        <time>2013-08-10T09:58:26.378Z</time>
      </trkpt>
      <trkpt lat="45.00095" lon="5.577">
        <ele>2230.8</ele>
        <time>2013-08-10T09:58:27.377Z</time>
      </trkpt>
      <trkpt lat="45.00092" lon="5.577">
        <ele>2243.5</ele>
        <time>2013-08-10T09:58:28.579Z</time>
      </trkpt>
      <trkpt lat="45.00088" lon="5.57701">
        <ele>2243.4</ele>
        <time>2013-08-10T09:58:56.509Z</time>
      </trkpt>
      <trkpt lat="45.00089" lon="5.57702">
        <ele>2243.4</ele>
        <time>2013-08-10T09:58:57.524Z</time>
      </trkpt>
      <trkpt lat="45.00091" lon="5.577">
        <ele>2243.2</ele>
        <time>2013-08-10T09:58:58.574Z</time>
      </trkpt>
      <trkpt lat="45.00094" lon="5.57697">
        <ele>2241.4</ele>
        <time>2013-08-10T09:59:59.292Z</time>
      </trkpt>
      <trkpt lat="45.00094" lon="5.57697">
        <ele>2241.4</ele>
        <time>2013-08-10T10:00:00.379Z</time>
      </trkpt>
      <trkpt lat="45.00093" lon="5.57697">
        <ele>2241.4</ele>
        <time>2013-08-10T10:00:01.739Z</time>
      </trkpt>
      <trkpt lat="45.00092" lon="5.57696">
        <ele>2241.9</ele>
        <time>2013-08-10T10:00:02.293Z</time>
      </trkpt>
      <trkpt lat="45.00092" lon="5.57696">
        <ele>2241.4</ele>
        <time>2013-08-10T10:00:06.441Z</time>
      </trkpt>
      <trkpt lat="45.00078" lon="5.57677">
        <ele>2241.5</ele>
        <time>2013-08-10T10:00:40.508Z</time>
      </trkpt>
      <trkpt lat="45.00105" lon="5.57709">
        <ele>2241.6</ele>
        <time>2013-08-10T10:00:41.394Z</time>
      </trkpt>
      <trkpt lat="45.00102" lon="5.5772">
        <ele>2242.2</ele>
        <time>2013-08-10T10:00:42.398Z</time>
      </trkpt>
      <trkpt lat="45.0009" lon="5.57704">
        <ele>2242.1</ele>
        <time>2013-08-10T10:00:43.576Z</time>
      </trkpt>
      <trkpt lat="45.00092" lon="5.577">
        <ele>2242.9</ele>
        <time>2013-08-10T10:00:53.396Z</time>
      </trkpt>
      <trkpt lat="45.00092" lon="5.577">
        <ele>2242.8</ele>
        <time>2013-08-10T10:00:54.394Z</time>
      </trkpt>
      <trkpt lat="45.00094" lon="5.57701">
        <ele>2239</ele>
        <time>2013-08-10T10:01:20.473Z</time>
      </trkpt>
      <trkpt lat="45.00094" lon="5.57702">
        <ele>2245.7</ele>
        <time>2013-08-10T10:01:22.104Z</time>
      </trkpt>
      <trkpt lat="45.00088" lon="5.57695">
        <ele>2242.7</ele>
        <time>2013-08-10T10:01:27.877Z</time>
      </trkpt>
      <trkpt lat="45.00089" lon="5.57696">
        <ele>2242.6</ele>
        <time>2013-08-10T10:01:28.875Z</time>
      </trkpt>
      <trkpt lat="45.00092" lon="5.57697">
        <ele>2242.4</ele>
        <time>2013-08-10T10:01:29.594Z</time>
      </trkpt>
      <trkpt lat="45.00101" lon="5.57698">
        <ele>2242.1</ele>
        <time>2013-08-10T10:01:56.567Z</time>
      </trkpt>
      <trkpt lat="45.00098" lon="5.57699">
        <ele>2242.4</ele>
        <time>2013-08-10T10:01:57.394Z</time>
      </trkpt>
      <trkpt lat="45.00092" lon="5.577">
        <ele>2242.5</ele>
        <time>2013-08-10T10:01:58.112Z</time>
      </trkpt>
      <trkpt lat="45.00093" lon="5.57698">
        <ele>2241.4</ele>
        <time>2013-08-10T10:02:26.925Z</time>
      </trkpt>
      <trkpt lat="45.00093" lon="5.57699">
        <ele>2241.7</ele>
        <time>2013-08-10T10:02:28.005Z</time>
      </trkpt>
      <trkpt lat="45.00093" lon="5.57698">
        <ele>2241.5</ele>
        <time>2013-08-10T10:02:30.927Z</time>
      </trkpt>
      <trkpt lat="45.00092" lon="5.57698">
        <ele>2241.8</ele>
        <time>2013-08-10T10:02:31.927Z</time>
      </trkpt>
      <trkpt lat="45.00091" lon="5.57699">
        <ele>2241.6</ele>
        <time>2013-08-10T10:02:34.606Z</time>
      </trkpt>
      <trkpt lat="45.00092" lon="5.57699">
        <ele>2241.7</ele>
        <time>2013-08-10T10:02:35.393Z</time>
      </trkpt>
      <trkpt lat="45.00092" lon="5.57699">
        <ele>2241</ele>
        <time>2013-08-10T10:02:36.396Z</time>
      </trkpt>
      <trkpt lat="45.00093" lon="5.57698">
        <ele>2240.6</ele>
        <time>2013-08-10T10:02:37.525Z</time>
      </trkpt>
      <trkpt lat="45.00095" lon="5.57697">
        <ele>2235.8</ele>
        <time>2013-08-10T10:02:51.469Z</time>
      </trkpt>
      <trkpt lat="45.00095" lon="5.57696">
        <ele>2234.6</ele>
        <time>2013-08-10T10:02:52.116Z</time>
      </trkpt>
      <trkpt lat="45.00089" lon="5.577">
        <ele>2261</ele>
        <time>2013-08-10T10:04:25.412Z</time>
      </trkpt>
      <trkpt lat="45.00089" lon="5.57706">
        <ele>2256.3</ele>
        <time>2013-08-10T10:04:26.414Z</time>
      </trkpt>
      <trkpt lat="45.00092" lon="5.577">
        <ele>2250.9</ele>
        <time>2013-08-10T10:04:52.606Z</time>
      </trkpt>
      <trkpt lat="45.00089" lon="5.57693">
        <ele>2250.4</ele>
        <time>2013-08-10T10:04:54.516Z</time>
      </trkpt>
      <trkpt lat="45.00088" lon="5.57705">
        <ele>2250.5</ele>
        <time>2013-08-10T10:05:56.571Z</time>
      </trkpt>
      <trkpt lat="45.00082" lon="5.57711">
        <ele>2250.8</ele>
        <time>2013-08-10T10:05:57.396Z</time>
      </trkpt>
      <trkpt lat="45.00093" lon="5.57706">
        <ele>2250.3</ele>
        <time>2013-08-10T10:05:58.395Z</time>
      </trkpt>
      <trkpt lat="45.00092" lon="5.57702">
        <ele>2250</ele>
        <time>2013-08-10T10:05:59.113Z</time>
      </trkpt>
      <trkpt lat="45.00079" lon="5.57706">
        <ele>2249.9</ele>
        <time>2013-08-10T10:06:20.436Z</time>
      </trkpt>
      <trkpt lat="45.00091" lon="5.57704">
        <ele>2249.8</ele>
        <time>2013-08-10T10:06:21.393Z</time>
      </trkpt>
      <trkpt lat="45.0009" lon="5.577">
        <ele>2250</ele>
        <time>2013-08-10T10:06:26.926Z</time>
      </trkpt>
      <trkpt lat="45.00091" lon="5.577">
        <ele>2248.7</ele>
        <time>2013-08-10T10:06:28.394Z</time>
      </trkpt>
      <trkpt lat="45.00092" lon="5.577">
        <ele>2248.3</ele>
        <time>2013-08-10T10:06:30.487Z</time>
      </trkpt>
      <trkpt lat="45.00091" lon="5.57699">
        <ele>2238.3</ele>
        <time>2013-08-10T10:06:52.288Z</time>
      </trkpt>
      <trkpt lat="45.00091" lon="5.57699">
        <ele>2238.4</ele>
        <time>2013-08-10T10:06:52.911Z</time>
      </trkpt>
      <trkpt lat="45.00091" lon="5.57699">
        <ele>2240</ele>
        <time>2013-08-10T10:06:58.393Z</time>
      </trkpt>
      <trkpt lat="45.00091" lon="5.57698">
        <ele>2239.8</ele>
        <time>2013-08-10T10:06:59.522Z</time>
      </trkpt>
      <trkpt lat="45.0009" lon="5.57698">
        <ele>2239.5</ele>
        <time>2013-08-10T10:07:27.921Z</time>
      </trkpt>
      <trkpt lat="45.0009" lon="5.57698">
        <ele>2238.9</ele>
        <time>2013-08-10T10:07:28.947Z</time>
      </trkpt>
      <trkpt lat="45.0009" lon="5.57699">
        <ele>2239.9</ele>
        <time>2013-08-10T10:07:32.977Z</time>
      </trkpt>
      <trkpt lat="45.00091" lon="5.57698">
        <ele>2240</ele>
        <time>2013-08-10T10:07:33.964Z</time>
      </trkpt>
      <trkpt lat="45.00091" lon="5.57698">
        <ele>2240.1</ele>
        <time>2013-08-10T10:07:34.923Z</time>
      </trkpt>
      <trkpt lat="45.00091" lon="5.57699">
        <ele>2240.2</ele>
        <time>2013-08-10T10:07:35.919Z</time>
      </trkpt>
      <trkpt lat="45.00091" lon="5.57698">
        <ele>2240.5</ele>
        <time>2013-08-10T10:07:38.090Z</time>
      </trkpt>
      <trkpt lat="45.00091" lon="5.57698">
        <ele>2240.3</ele>
        <time>2013-08-10T10:07:38.974Z</time>
      </trkpt>
      <trkpt lat="45.00092" lon="5.577">
        <ele>2241.2</ele>
        <time>2013-08-10T10:07:47.395Z</time>
      </trkpt>
      <trkpt lat="45.00092" lon="5.577">
        <ele>2240.9</ele>
        <time>2013-08-10T10:07:48.407Z</time>
      </trkpt>
      <trkpt lat="45.00093" lon="5.577">
        <ele>2240.7</ele>
        <time>2013-08-10T10:07:50.511Z</time>
      </trkpt>
      <trkpt lat="45.00093" lon="5.577">
        <ele>2240.8</ele>
        <time>2013-08-10T10:07:51.396Z</time>
      </trkpt>
      <trkpt lat="45.00093" lon="5.57701">
        <ele>2241.1</ele>
        <time>2013-08-10T10:07:56.393Z</time>
      </trkpt>
      <trkpt lat="45.00093" lon="5.57702">
        <ele>2241</ele>
        <time>2013-08-10T10:07:57.394Z</time>
      </trkpt>
      <trkpt lat="45.00093" lon="5.57702">
        <ele>2240.8</ele>
        <time>2013-08-10T10:08:00.393Z</time>
      </trkpt>
      <trkpt lat="45.00093" lon="5.577">
        <ele>2240.9</ele>
        <time>2013-08-10T10:08:02.023Z</time>
      </trkpt>
      <trkpt lat="45.0009" lon="5.577">
        <ele>2240.9</ele>
        <time>2013-08-10T10:08:23.281Z</time>
      </trkpt>
      <trkpt lat="45.0009" lon="5.577">
        <ele>2240.9</ele>
        <time>2013-08-10T10:08:24.112Z</time>
      </trkpt>
      <trkpt lat="45.00094" lon="5.57697">
        <ele>2241.8</ele>
        <time>2013-08-10T10:08:24.679Z</time>
      </trkpt>
      <trkpt lat="45.00091" lon="5.577">
        <ele>2240.9</ele>
        <time>2013-08-10T10:08:57.651Z</time>
      </trkpt>
      <trkpt lat="45.00091" lon="5.57701">
        <ele>2241</ele>
        <time>2013-08-10T10:08:58.639Z</time>
      </trkpt>
      <trkpt lat="45.00091" lon="5.57701">
        <ele>2241.1</ele>
        <time>2013-08-10T10:09:00.721Z</time>
      </trkpt>
      <trkpt lat="45.00088" lon="5.57703">
        <ele>2242.2</ele>
        <time>2013-08-10T10:09:03.492Z</time>
      </trkpt>
      <trkpt lat="45.0009" lon="5.57701">
        <ele>2241.2</ele>
        <time>2013-08-10T10:09:03.537Z</time>
      </trkpt>
      <trkpt lat="45.00093" lon="5.57697">
        <ele>2240.6</ele>
        <time>2013-08-10T10:09:20.440Z</time>
      </trkpt>
      <trkpt lat="45.00092" lon="5.57696">
        <ele>2243.1</ele>
        <time>2013-08-10T10:09:21.365Z</time>
      </trkpt>
      <trkpt lat="45.00092" lon="5.57697">
        <ele>2240.4</ele>
        <time>2013-08-10T10:09:24.029Z</time>
      </trkpt>
      <trkpt lat="45.00092" lon="5.57697">
        <ele>2240.2</ele>
        <time>2013-08-10T10:09:24.507Z</time>
      </trkpt>
      <trkpt lat="45.00092" lon="5.57697">
        <ele>2240.2</ele>
        <time>2013-08-10T10:09:26.981Z</time>
      </trkpt>
      <trkpt lat="45.00092" lon="5.57697">
        <ele>2240.2</ele>
        <time>2013-08-10T10:09:27.981Z</time>
      </trkpt>
      <trkpt lat="45.00092" lon="5.57697">
        <ele>2240.3</ele>
        <time>2013-08-10T10:09:29.003Z</time>
      </trkpt>
      <trkpt lat="45.00092" lon="5.57697">
        <ele>2240.6</ele>
        <time>2013-08-10T10:09:29.507Z</time>
      </trkpt>
      <trkpt lat="45.00093" lon="5.57698">
        <ele>2241.1</ele>
        <time>2013-08-10T10:09:31.511Z</time>
      </trkpt>
      <trkpt lat="45.00093" lon="5.57698">
        <ele>2240.9</ele>
        <time>2013-08-10T10:09:32.394Z</time>
      </trkpt>
      <trkpt lat="45.00093" lon="5.57698">
        <ele>2241.3</ele>
        <time>2013-08-10T10:09:47.374Z</time>
      </trkpt>
      <trkpt lat="45.00092" lon="5.57699">
        <ele>2241.6</ele>
        <time>2013-08-10T10:09:48.373Z</time>
      </trkpt>
      <trkpt lat="45.00094" lon="5.57698">
        <ele>2239.3</ele>
        <time>2013-08-10T10:10:24.917Z</time>
      </trkpt>
      <trkpt lat="45.00094" lon="5.57699">
        <ele>2239.3</ele>
        <time>2013-08-10T10:10:26.082Z</time>
      </trkpt>
      <trkpt lat="45.00094" lon="5.57699">
        <ele>2239.3</ele>
        <time>2013-08-10T10:10:26.916Z</time>
      </trkpt>
      <trkpt lat="45.00094" lon="5.57699">
        <ele>2239.3</ele>
        <time>2013-08-10T10:10:27.733Z</time>
      </trkpt>
      <trkpt lat="45.00093" lon="5.577">
        <ele>2239.3</ele>
        <time>2013-08-10T10:10:29.506Z</time>
      </trkpt>
      <trkpt lat="45.00093" lon="5.577">
        <ele>2239.3</ele>
        <time>2013-08-10T10:10:30.395Z</time>
      </trkpt>
      <trkpt lat="45.00093" lon="5.577">
        <ele>2239.1</ele>
        <time>2013-08-10T10:10:32.505Z</time>
      </trkpt>
      <trkpt lat="45.0009" lon="5.577">
        <ele>2239.4</ele>
        <time>2013-08-10T10:10:33.504Z</time>
      </trkpt>
      <trkpt lat="45.00091" lon="5.577">
        <ele>2239.5</ele>
        <time>2013-08-10T10:11:25.816Z</time>
      </trkpt>
      <trkpt lat="45.00091" lon="5.577">
        <ele>2239.6</ele>
        <time>2013-08-10T10:11:27.528Z</time>
      </trkpt>
      <trkpt lat="45.00091" lon="5.577">
        <ele>2239.7</ele>
        <time>2013-08-10T10:11:30.393Z</time>
      </trkpt>
      <trkpt lat="45.00091" lon="5.57701">
        <ele>2239.9</ele>
        <time>2013-08-10T10:11:31.561Z</time>
      </trkpt>
      <trkpt lat="45.00091" lon="5.57701">
        <ele>2239.3</ele>
        <time>2013-08-10T10:11:33.576Z</time>
      </trkpt>
      <trkpt lat="45.0009" lon="5.577">
        <ele>2239.1</ele>
        <time>2013-08-10T10:11:34.394Z</time>
      </trkpt>
      <trkpt lat="45.00091" lon="5.577">
        <ele>2239.7</ele>
        <time>2013-08-10T10:11:35.076Z</time>
      </trkpt>
      <trkpt lat="45.00081" lon="5.57706">
        <ele>2259.2</ele>
        <time>2013-08-10T10:11:51.621Z</time>
      </trkpt>
      <trkpt lat="45.00088" lon="5.57703">
        <ele>2246.4</ele>
        <time>2013-08-10T10:11:52.896Z</time>
      </trkpt>
      <trkpt lat="45.0009" lon="5.57701">
        <ele>2240.1</ele>
        <time>2013-08-10T10:11:53.895Z</time>
      </trkpt>
      <trkpt lat="45.00091" lon="5.57701">
        <ele>2240.1</ele>
        <time>2013-08-10T10:11:56.893Z</time>
      </trkpt>
      <trkpt lat="45.0009" lon="5.57702">
        <ele>2240.2</ele>
        <time>2013-08-10T10:11:57.894Z</time>
      </trkpt>
      <trkpt lat="45.00091" lon="5.57701">
        <ele>2239.9</ele>
        <time>2013-08-10T10:12:31.500Z</time>
      </trkpt>
      <trkpt lat="45.00092" lon="5.57702">
        <ele>2240.3</ele>
        <time>2013-08-10T10:12:32.877Z</time>
      </trkpt>
      <trkpt lat="45.00092" lon="5.57701">
        <ele>2240.4</ele>
        <time>2013-08-10T10:12:33.565Z</time>
      </trkpt>
      <trkpt lat="45.00092" lon="5.57702">
        <ele>2250</ele>
        <time>2013-08-10T10:12:50.394Z</time>
      </trkpt>
      <trkpt lat="45.00093" lon="5.57699">
        <ele>2240.6</ele>
        <time>2013-08-10T10:12:51.393Z</time>
      </trkpt>
      <trkpt lat="45.00092" lon="5.577">
        <ele>2240.6</ele>
        <time>2013-08-10T10:12:57.007Z</time>
      </trkpt>
      <trkpt lat="45.00092" lon="5.577">
        <ele>2240.6</ele>
        <time>2013-08-10T10:12:57.918Z</time>
      </trkpt>
      <trkpt lat="45.00092" lon="5.57701">
        <ele>2240.3</ele>
        <time>2013-08-10T10:14:01.386Z</time>
      </trkpt>
      <trkpt lat="45.00091" lon="5.577">
        <ele>2240.3</ele>
        <time>2013-08-10T10:14:02.398Z</time>
      </trkpt>
      <trkpt lat="45.00091" lon="5.577">
        <ele>2240.3</ele>
        <time>2013-08-10T10:14:03.388Z</time>
      </trkpt>
      <trkpt lat="45.00091" lon="5.577">
        <ele>2240.1</ele>
        <time>2013-08-10T10:14:04.387Z</time>
      </trkpt>
      <trkpt lat="45.0009" lon="5.57701">
        <ele>2240.5</ele>
        <time>2013-08-10T10:14:12.532Z</time>
      </trkpt>
      <trkpt lat="45.0009" lon="5.57701">
        <ele>2240.4</ele>
        <time>2013-08-10T10:14:13.501Z</time>
      </trkpt>
      <trkpt lat="45.0009" lon="5.57702">
        <ele>2240.5</ele>
        <time>2013-08-10T10:14:14.549Z</time>
      </trkpt>
      <trkpt lat="45.0009" lon="5.57702">
        <ele>2240.5</ele>
        <time>2013-08-10T10:14:15.381Z</time>
      </trkpt>
      <trkpt lat="45.0009" lon="5.57701">
        <ele>2240.5</ele>
        <time>2013-08-10T10:15:47.515Z</time>
      </trkpt>
      <trkpt lat="45.00091" lon="5.57702">
        <ele>2240.9</ele>
        <time>2013-08-10T10:15:48.507Z</time>
      </trkpt>
      <trkpt lat="45.00091" lon="5.57702">
        <ele>2240.8</ele>
        <time>2013-08-10T10:15:49.586Z</time>
      </trkpt>
      <trkpt lat="45.00091" lon="5.57702">
        <ele>2240.8</ele>
        <time>2013-08-10T10:15:50.390Z</time>
      </trkpt>
      <trkpt lat="45.00091" lon="5.57702">
        <ele>2241</ele>
        <time>2013-08-10T10:16:10.389Z</time>
      </trkpt>
      <trkpt lat="45.00091" lon="5.57703">
        <ele>2240.9</ele>
        <time>2013-08-10T10:16:11.368Z</time>
      </trkpt>
      <trkpt lat="45.00091" lon="5.57703">
        <ele>2240.9</ele>
        <time>2013-08-10T10:16:12.386Z</time>
      </trkpt>
      <trkpt lat="45.00092" lon="5.57701">
        <ele>2240.7</ele>
        <time>2013-08-10T10:17:25.925Z</time>
      </trkpt>
      <trkpt lat="45.00092" lon="5.57701">
        <ele>2239.7</ele>
        <time>2013-08-10T10:17:26.921Z</time>
      </trkpt>
      <trkpt lat="45.00092" lon="5.57701">
        <ele>2240.3</ele>
        <time>2013-08-10T10:17:27.991Z</time>
      </trkpt>
      <trkpt lat="45.00091" lon="5.57701">
        <ele>2240.5</ele>
        <time>2013-08-10T10:17:56.434Z</time>
      </trkpt>
      <trkpt lat="45.00091" lon="5.57701">
        <ele>2240</ele>
        <time>2013-08-10T10:17:57.426Z</time>
      </trkpt>
      <trkpt lat="45.00098" lon="5.57693">
        <ele>2238.6</ele>
        <time>2013-08-10T10:18:14.579Z</time>
      </trkpt>
      <trkpt lat="45.00098" lon="5.57692">
        <ele>2238.9</ele>
        <time>2013-08-10T10:18:15.389Z</time>
      </trkpt>
      <trkpt lat="45.00105" lon="5.57686">
        <ele>2233.1</ele>
        <time>2013-08-10T10:18:26.375Z</time>
      </trkpt>
      <trkpt lat="45.00105" lon="5.57684">
        <ele>2231.8</ele>
        <time>2013-08-10T10:18:27.378Z</time>
      </trkpt>
      <trkpt lat="45.00108" lon="5.57672">
        <ele>2235.5</ele>
        <time>2013-08-10T10:18:40.517Z</time>
      </trkpt>
      <trkpt lat="45.00108" lon="5.57672">
        <ele>2236</ele>
        <time>2013-08-10T10:18:41.391Z</time>
      </trkpt>
      <trkpt lat="45.00115" lon="5.57664">
        <ele>2234.2</ele>
        <time>2013-08-10T10:18:56.387Z</time>
      </trkpt>
      <trkpt lat="45.00115" lon="5.57663">
        <ele>2234.2</ele>
        <time>2013-08-10T10:18:57.546Z</time>
      </trkpt>
      <trkpt lat="45.00124" lon="5.57662">
        <ele>2231.3</ele>
        <time>2013-08-10T10:19:08.388Z</time>
      </trkpt>
      <trkpt lat="45.00125" lon="5.57663">
        <ele>2230.8</ele>
        <time>2013-08-10T10:19:09.388Z</time>
      </trkpt>
      <trkpt lat="45.00128" lon="5.57668">
        <ele>2228.7</ele>
        <time>2013-08-10T10:19:18.404Z</time>
      </trkpt>
      <trkpt lat="45.00128" lon="5.57668">
        <ele>2228.4</ele>
        <time>2013-08-10T10:19:19.514Z</time>
      </trkpt>
      <trkpt lat="45.00128" lon="5.57668">
        <ele>2228.3</ele>
        <time>2013-08-10T10:19:20.553Z</time>
      </trkpt>
      <trkpt lat="45.00128" lon="5.57668">
        <ele>2228.6</ele>
        <time>2013-08-10T10:19:21.503Z</time>
      </trkpt>
      <trkpt lat="45.00136" lon="5.57669">
        <ele>2224.7</ele>
        <time>2013-08-10T10:19:33.399Z</time>
      </trkpt>
      <trkpt lat="45.00138" lon="5.5767">
        <ele>2223</ele>
        <time>2013-08-10T10:19:34.418Z</time>
      </trkpt>
      <trkpt lat="45.00146" lon="5.57674">
        <ele>2218.3</ele>
        <time>2013-08-10T10:19:43.408Z</time>
      </trkpt>
      <trkpt lat="45.00147" lon="5.57674">
        <ele>2218.4</ele>
        <time>2013-08-10T10:19:44.517Z</time>
      </trkpt>
      <trkpt lat="45.00155" lon="5.57679">
        <ele>2216.8</ele>
        <time>2013-08-10T10:19:59.521Z</time>
      </trkpt>
      <trkpt lat="45.00155" lon="5.5768">
        <ele>2216.8</ele>
        <time>2013-08-10T10:20:00.651Z</time>
      </trkpt>
      <trkpt lat="45.00163" lon="5.57686">
        <ele>2212</ele>
        <time>2013-08-10T10:20:10.592Z</time>
      </trkpt>
      <trkpt lat="45.00163" lon="5.57686">
        <ele>2212</ele>
        <time>2013-08-10T10:20:11.417Z</time>
      </trkpt>
      <trkpt lat="45.0017" lon="5.5769">
        <ele>2210</ele>
        <time>2013-08-10T10:20:22.503Z</time>
      </trkpt>
      <trkpt lat="45.0017" lon="5.5769">
        <ele>2210</ele>
        <time>2013-08-10T10:20:23.510Z</time>
      </trkpt>
      <trkpt lat="45.0017" lon="5.57691">
        <ele>2209.5</ele>
        <time>2013-08-10T10:20:25.391Z</time>
      </trkpt>
      <trkpt lat="45.00171" lon="5.57691">
        <ele>2209.3</ele>
        <time>2013-08-10T10:20:26.503Z</time>
      </trkpt>
      <trkpt lat="45.00179" lon="5.57694">
        <ele>2210.7</ele>
        <time>2013-08-10T10:20:38.391Z</time>
      </trkpt>
      <trkpt lat="45.00181" lon="5.57694">
        <ele>2211</ele>
        <time>2013-08-10T10:20:40.386Z</time>
      </trkpt>
      <trkpt lat="45.00182" lon="5.57702">
        <ele>2208.1</ele>
        <time>2013-08-10T10:20:53.390Z</time>
      </trkpt>
      <trkpt lat="45.00182" lon="5.57702">
        <ele>2208.2</ele>
        <time>2013-08-10T10:20:54.409Z</time>
      </trkpt>
      <trkpt lat="45.00182" lon="5.57702">
        <ele>2208.2</ele>
        <time>2013-08-10T10:20:55.374Z</time>
      </trkpt>
      <trkpt lat="45.00182" lon="5.57703">
        <ele>2208.2</ele>
        <time>2013-08-10T10:20:56.373Z</time>
      </trkpt>
      <trkpt lat="45.00182" lon="5.57703">
        <ele>2207.7</ele>
        <time>2013-08-10T10:20:57.396Z</time>
      </trkpt>
      <trkpt lat="45.00182" lon="5.57702">
        <ele>2208.4</ele>
        <time>2013-08-10T10:20:58.389Z</time>
      </trkpt>
      <trkpt lat="45.00182" lon="5.57703">
        <ele>2208.6</ele>
        <time>2013-08-10T10:20:59.390Z</time>
      </trkpt>
      <trkpt lat="45.00182" lon="5.57703">
        <ele>2208.7</ele>
        <time>2013-08-10T10:21:00.388Z</time>
      </trkpt>
      <trkpt lat="45.00187" lon="5.57714">
        <ele>2205.8</ele>
        <time>2013-08-10T10:21:13.504Z</time>
      </trkpt>
      <trkpt lat="45.00187" lon="5.57714">
        <ele>2205.7</ele>
        <time>2013-08-10T10:21:14.380Z</time>
      </trkpt>
      <trkpt lat="45.00187" lon="5.57714">
        <ele>2205.8</ele>
        <time>2013-08-10T10:21:15.385Z</time>
      </trkpt>
      <trkpt lat="45.00188" lon="5.57714">
        <ele>2206.7</ele>
        <time>2013-08-10T10:21:26.521Z</time>
      </trkpt>
      <trkpt lat="45.00188" lon="5.57713">
        <ele>2205.8</ele>
        <time>2013-08-10T10:21:27.568Z</time>
      </trkpt>
      <trkpt lat="45.00188" lon="5.57714">
        <ele>2206.7</ele>
        <time>2013-08-10T10:21:29.534Z</time>
      </trkpt>
      <trkpt lat="45.00188" lon="5.57714">
        <ele>2206.7</ele>
        <time>2013-08-10T10:21:29.927Z</time>
      </trkpt>
      <trkpt lat="45.00207" lon="5.57718">
        <ele>2206.6</ele>
        <time>2013-08-10T10:21:49.393Z</time>
      </trkpt>
      <trkpt lat="45.00201" lon="5.57717">
        <ele>2206</ele>
        <time>2013-08-10T10:21:50.908Z</time>
      </trkpt>
      <trkpt lat="45.00197" lon="5.57721">
        <ele>2205</ele>
        <time>2013-08-10T10:21:51.908Z</time>
      </trkpt>
      <trkpt lat="45.00203" lon="5.57729">
        <ele>2200.3</ele>
        <time>2013-08-10T10:22:02.503Z</time>
      </trkpt>
      <trkpt lat="45.00204" lon="5.5773">
        <ele>2200</ele>
        <time>2013-08-10T10:22:03.505Z</time>
      </trkpt>
      <trkpt lat="45.00211" lon="5.57736">
        <ele>2198.5</ele>
        <time>2013-08-10T10:22:10.462Z</time>
      </trkpt>
      <trkpt lat="45.00211" lon="5.57737">
        <ele>2199</ele>
        <time>2013-08-10T10:22:11.390Z</time>
      </trkpt>
      <trkpt lat="45.00218" lon="5.57743">
        <ele>2202.2</ele>
        <time>2013-08-10T10:22:18.504Z</time>
      </trkpt>
      <trkpt lat="45.00219" lon="5.57744">
        <ele>2201.9</ele>
        <time>2013-08-10T10:22:19.393Z</time>
      </trkpt>
      <trkpt lat="45.00226" lon="5.5775">
        <ele>2203.7</ele>
        <time>2013-08-10T10:22:26.519Z</time>
      </trkpt>
      <trkpt lat="45.00227" lon="5.57751">
        <ele>2204.1</ele>
        <time>2013-08-10T10:22:27.508Z</time>
      </trkpt>
      <trkpt lat="45.00235" lon="5.57757">
        <ele>2201.1</ele>
        <time>2013-08-10T10:22:35.389Z</time>
      </trkpt>
      <trkpt lat="45.00235" lon="5.57758">
        <ele>2201.9</ele>
        <time>2013-08-10T10:22:36.387Z</time>
      </trkpt>
      <trkpt lat="45.00242" lon="5.57764">
        <ele>2200.7</ele>
        <time>2013-08-10T10:22:43.388Z</time>
      </trkpt>
      <trkpt lat="45.00243" lon="5.57765">
        <ele>2200.4</ele>
        <time>2013-08-10T10:22:44.390Z</time>
      </trkpt>
      <trkpt lat="45.00251" lon="5.57766">
        <ele>2200.4</ele>
        <time>2013-08-10T10:22:50.389Z</time>
      </trkpt>
      <trkpt lat="45.00252" lon="5.57765">
        <ele>2199.5</ele>
        <time>2013-08-10T10:22:51.406Z</time>
      </trkpt>
      <trkpt lat="45.00261" lon="5.57765">
        <ele>2198.1</ele>
        <time>2013-08-10T10:23:00.513Z</time>
      </trkpt>
      <trkpt lat="45.00261" lon="5.57766">
        <ele>2198.2</ele>
        <time>2013-08-10T10:23:01.398Z</time>
      </trkpt>
      <trkpt lat="45.00268" lon="5.57759">
        <ele>2198.2</ele>
        <time>2013-08-10T10:23:22.407Z</time>
      </trkpt>
      <trkpt lat="45.00269" lon="5.57759">
        <ele>2198.5</ele>
        <time>2013-08-10T10:23:23.388Z</time>
      </trkpt>
      <trkpt lat="45.00271" lon="5.57757">
        <ele>2198.1</ele>
        <time>2013-08-10T10:23:29.387Z</time>
      </trkpt>
      <trkpt lat="45.00271" lon="5.57757">
        <ele>2198.5</ele>
        <time>2013-08-10T10:23:30.400Z</time>
      </trkpt>
      <trkpt lat="45.0027" lon="5.57757">
        <ele>2200.7</ele>
        <time>2013-08-10T10:23:43.517Z</time>
      </trkpt>
      <trkpt lat="45.0027" lon="5.57757">
        <ele>2200.5</ele>
        <time>2013-08-10T10:23:44.509Z</time>
      </trkpt>
      <trkpt lat="45.00278" lon="5.57756">
        <ele>2199</ele>
        <time>2013-08-10T10:23:51.371Z</time>
      </trkpt>
      <trkpt lat="45.00279" lon="5.57756">
        <ele>2199.4</ele>
        <time>2013-08-10T10:23:52.372Z</time>
      </trkpt>
      <trkpt lat="45.00283" lon="5.57758">
        <ele>2200.4</ele>
        <time>2013-08-10T10:23:58.389Z</time>
      </trkpt>
      <trkpt lat="45.00283" lon="5.57757">
        <ele>2200.6</ele>
        <time>2013-08-10T10:23:59.392Z</time>
      </trkpt>
      <trkpt lat="45.00282" lon="5.57756">
        <ele>2201.1</ele>
        <time>2013-08-10T10:24:05.376Z</time>
      </trkpt>
      <trkpt lat="45.00282" lon="5.57755">
        <ele>2200.5</ele>
        <time>2013-08-10T10:24:06.372Z</time>
      </trkpt>
      <trkpt lat="45.00286" lon="5.57745">
        <ele>2194.1</ele>
        <time>2013-08-10T10:24:20.501Z</time>
      </trkpt>
      <trkpt lat="45.00286" lon="5.57745">
        <ele>2194.1</ele>
        <time>2013-08-10T10:24:21.502Z</time>
      </trkpt>
      <trkpt lat="45.00286" lon="5.57745">
        <ele>2193.6</ele>
        <time>2013-08-10T10:24:25.392Z</time>
      </trkpt>
      <trkpt lat="45.00286" lon="5.57744">
        <ele>2192.3</ele>
        <time>2013-08-10T10:24:26.390Z</time>
      </trkpt>
      <trkpt lat="45.00285" lon="5.57732">
        <ele>2179.8</ele>
        <time>2013-08-10T10:24:38.388Z</time>
      </trkpt>
      <trkpt lat="45.00284" lon="5.5773">
        <ele>2178.8</ele>
        <time>2013-08-10T10:24:39.526Z</time>
      </trkpt>
      <trkpt lat="45.00286" lon="5.57719">
        <ele>2174.5</ele>
        <time>2013-08-10T10:24:48.390Z</time>
      </trkpt>
      <trkpt lat="45.00286" lon="5.57717">
        <ele>2174.3</ele>
        <time>2013-08-10T10:24:49.399Z</time>
      </trkpt>
      <trkpt lat="45.00288" lon="5.57706">
        <ele>2168.7</ele>
        <time>2013-08-10T10:24:59.503Z</time>
      </trkpt>
      <trkpt lat="45.00288" lon="5.57704">
        <ele>2169.8</ele>
        <time>2013-08-10T10:25:00.378Z</time>
      </trkpt>
      <trkpt lat="45.00292" lon="5.57693">
        <ele>2169.8</ele>
        <time>2013-08-10T10:25:08.388Z</time>
      </trkpt>
      <trkpt lat="45.00292" lon="5.57691">
        <ele>2168.2</ele>
        <time>2013-08-10T10:25:09.389Z</time>
      </trkpt>
      <trkpt lat="45.00292" lon="5.5768">
        <ele>2164.5</ele>
        <time>2013-08-10T10:25:15.393Z</time>
      </trkpt>
      <trkpt lat="45.00292" lon="5.57679">
        <ele>2164.5</ele>
        <time>2013-08-10T10:25:16.390Z</time>
      </trkpt>
      <trkpt lat="45.00299" lon="5.57672">
        <ele>2154.8</ele>
        <time>2013-08-10T10:25:28.389Z</time>
      </trkpt>
      <trkpt lat="45.003" lon="5.57672">
        <ele>2153.9</ele>
        <time>2013-08-10T10:25:29.391Z</time>
      </trkpt>
      <trkpt lat="45.00309" lon="5.5767">
        <ele>2148.9</ele>
        <time>2013-08-10T10:25:37.392Z</time>
      </trkpt>
      <trkpt lat="45.00309" lon="5.57672">
        <ele>2148.8</ele>
        <time>2013-08-10T10:25:38.505Z</time>
      </trkpt>
      <trkpt lat="45.00308" lon="5.57681">
        <ele>2147</ele>
        <time>2013-08-10T10:25:52.418Z</time>
      </trkpt>
      <trkpt lat="45.00308" lon="5.57681">
        <ele>2146.9</ele>
        <time>2013-08-10T10:25:53.403Z</time>
      </trkpt>
      <trkpt lat="45.00309" lon="5.57681">
        <ele>2147.9</ele>
        <time>2013-08-10T10:26:07.400Z</time>
      </trkpt>
      <trkpt lat="45.00309" lon="5.57681">
        <ele>2147.7</ele>
        <time>2013-08-10T10:26:08.377Z</time>
      </trkpt>
      <trkpt lat="45.0031" lon="5.57687">
        <ele>2147.3</ele>
        <time>2013-08-10T10:26:17.397Z</time>
      </trkpt>
      <trkpt lat="45.0031" lon="5.57687">
        <ele>2147.2</ele>
        <time>2013-08-10T10:26:18.407Z</time>
      </trkpt>
      <trkpt lat="45.00309" lon="5.57688">
        <ele>2147.2</ele>
        <time>2013-08-10T10:26:35.382Z</time>
      </trkpt>
      <trkpt lat="45.00309" lon="5.57688">
        <ele>2147.3</ele>
        <time>2013-08-10T10:26:36.390Z</time>
      </trkpt>
      <trkpt lat="45.00308" lon="5.57689">
        <ele>2146.5</ele>
        <time>2013-08-10T10:26:40.375Z</time>
      </trkpt>
      <trkpt lat="45.00308" lon="5.57689">
        <ele>2146.5</ele>
        <time>2013-08-10T10:26:41.374Z</time>
      </trkpt>
      <trkpt lat="45.00308" lon="5.5769">
        <ele>2146.2</ele>
        <time>2013-08-10T10:26:54.374Z</time>
      </trkpt>
      <trkpt lat="45.00308" lon="5.57691">
        <ele>2145.4</ele>
        <time>2013-08-10T10:26:55.412Z</time>
      </trkpt>
      <trkpt lat="45.00306" lon="5.57694">
        <ele>2143.5</ele>
        <time>2013-08-10T10:27:04.627Z</time>
      </trkpt>
      <trkpt lat="45.00306" lon="5.57695">
        <ele>2143.5</ele>
        <time>2013-08-10T10:27:05.563Z</time>
      </trkpt>
      <trkpt lat="45.00306" lon="5.57695">
        <ele>2143</ele>
        <time>2013-08-10T10:27:09.388Z</time>
      </trkpt>
      <trkpt lat="45.00305" lon="5.57695">
        <ele>2143.2</ele>
        <time>2013-08-10T10:27:10.381Z</time>
      </trkpt>
      <trkpt lat="45.00303" lon="5.57698">
        <ele>2142.7</ele>
        <time>2013-08-10T10:27:18.535Z</time>
      </trkpt>
      <trkpt lat="45.00303" lon="5.57698">
        <ele>2142.4</ele>
        <time>2013-08-10T10:27:19.538Z</time>
      </trkpt>
      <trkpt lat="45.00303" lon="5.57698">
        <ele>2142.6</ele>
        <time>2013-08-10T10:27:20.489Z</time>
      </trkpt>
      <trkpt lat="45.00303" lon="5.57698">
        <ele>2142.3</ele>
        <time>2013-08-10T10:27:21.513Z</time>
      </trkpt>
      <trkpt lat="45.00303" lon="5.57699">
        <ele>2141.3</ele>
        <time>2013-08-10T10:27:22.574Z</time>
      </trkpt>
      <trkpt lat="45.00303" lon="5.57699">
        <ele>2141.2</ele>
        <time>2013-08-10T10:27:23.472Z</time>
      </trkpt>
      <trkpt lat="45.00303" lon="5.57698">
        <ele>2141</ele>
        <time>2013-08-10T10:27:30.451Z</time>
      </trkpt>
      <trkpt lat="45.00303" lon="5.57699">
        <ele>2140.9</ele>
        <time>2013-08-10T10:27:31.374Z</time>
      </trkpt>
      <trkpt lat="45.00305" lon="5.57705">
        <ele>2138.4</ele>
        <time>2013-08-10T10:27:43.382Z</time>
      </trkpt>
      <trkpt lat="45.00305" lon="5.57705">
        <ele>2138.5</ele>
        <time>2013-08-10T10:27:44.394Z</time>
      </trkpt>
      <trkpt lat="45.00305" lon="5.57704">
        <ele>2138.7</ele>
        <time>2013-08-10T10:27:48.395Z</time>
      </trkpt>
      <trkpt lat="45.00306" lon="5.57704">
        <ele>2138.8</ele>
        <time>2013-08-10T10:27:49.387Z</time>
      </trkpt>
      <trkpt lat="45.00309" lon="5.57704">
        <ele>2138.7</ele>
        <time>2013-08-10T10:27:55.379Z</time>
      </trkpt>
      <trkpt lat="45.0031" lon="5.57704">
        <ele>2138.8</ele>
        <time>2013-08-10T10:27:56.431Z</time>
      </trkpt>
      <trkpt lat="45.0031" lon="5.57703">
        <ele>2138.9</ele>
        <time>2013-08-10T10:27:57.397Z</time>
      </trkpt>
      <trkpt lat="45.0031" lon="5.57703">
        <ele>2138.8</ele>
        <time>2013-08-10T10:27:58.403Z</time>
      </trkpt>
      <trkpt lat="45.00311" lon="5.57703">
        <ele>2138.9</ele>
        <time>2013-08-10T10:28:01.390Z</time>
      </trkpt>
      <trkpt lat="45.00311" lon="5.57703">
        <ele>2138.7</ele>
        <time>2013-08-10T10:28:02.377Z</time>
      </trkpt>
      <trkpt lat="45.0031" lon="5.57703">
        <ele>2138.8</ele>
        <time>2013-08-10T10:28:52.324Z</time>
      </trkpt>
      <trkpt lat="45.00311" lon="5.57702">
        <ele>2138.8</ele>
        <time>2013-08-10T10:28:53.321Z</time>
      </trkpt>
      <trkpt lat="45.00303" lon="5.57695">
        <ele>2129.2</ele>
        <time>2013-08-10T10:29:03.327Z</time>
      </trkpt>
      <trkpt lat="45.00301" lon="5.57695">
        <ele>2129.5</ele>
        <time>2013-08-10T10:29:04.299Z</time>
      </trkpt>
      <trkpt lat="45.00305" lon="5.57684">
        <ele>2122.2</ele>
        <time>2013-08-10T10:29:23.171Z</time>
      </trkpt>
      <trkpt lat="45.00305" lon="5.57684">
        <ele>2123.2</ele>
        <time>2013-08-10T10:29:24.568Z</time>
      </trkpt>
      <trkpt lat="45.00313" lon="5.57689">
        <ele>2120.5</ele>
        <time>2013-08-10T10:29:33.401Z</time>
      </trkpt>
      <trkpt lat="45.00314" lon="5.57689">
        <ele>2120.1</ele>
        <time>2013-08-10T10:29:34.415Z</time>
      </trkpt>
      <trkpt lat="45.00319" lon="5.57698">
        <ele>2115.8</ele>
        <time>2013-08-10T10:29:41.406Z</time>
      </trkpt>
      <trkpt lat="45.0032" lon="5.57699">
        <ele>2115.5</ele>
        <time>2013-08-10T10:29:42.408Z</time>
      </trkpt>
      <trkpt lat="45.00328" lon="5.57703">
        <ele>2113.5</ele>
        <time>2013-08-10T10:29:49.545Z</time>
      </trkpt>
      <trkpt lat="45.00329" lon="5.57704">
        <ele>2113.6</ele>
        <time>2013-08-10T10:29:52.505Z</time>
      </trkpt>
      <trkpt lat="45.00336" lon="5.57708">
        <ele>2110.7</ele>
        <time>2013-08-10T10:29:57.556Z</time>
      </trkpt>
      <trkpt lat="45.00338" lon="5.57709">
        <ele>2110.1</ele>
        <time>2013-08-10T10:29:58.493Z</time>
      </trkpt>
      <trkpt lat="45.00345" lon="5.57712">
        <ele>2107.3</ele>
        <time>2013-08-10T10:30:05.539Z</time>
      </trkpt>
      <trkpt lat="45.00347" lon="5.57712">
        <ele>2107.1</ele>
        <time>2013-08-10T10:30:06.604Z</time>
      </trkpt>
      <trkpt lat="45.00355" lon="5.57715">
        <ele>2108.4</ele>
        <time>2013-08-10T10:30:12.523Z</time>
      </trkpt>
      <trkpt lat="45.00357" lon="5.57715">
        <ele>2108.3</ele>
        <time>2013-08-10T10:30:13.471Z</time>
      </trkpt>
      <trkpt lat="45.00363" lon="5.57719">
        <ele>2109.4</ele>
        <time>2013-08-10T10:30:21.380Z</time>
      </trkpt>
      <trkpt lat="45.00363" lon="5.57718">
        <ele>2110.9</ele>
        <time>2013-08-10T10:30:22.535Z</time>
      </trkpt>
      <trkpt lat="45.00363" lon="5.57718">
        <ele>2110.9</ele>
        <time>2013-08-10T10:30:23.371Z</time>
      </trkpt>
      <trkpt lat="45.00371" lon="5.57724">
        <ele>2106</ele>
        <time>2013-08-10T10:30:37.392Z</time>
      </trkpt>
      <trkpt lat="45.00371" lon="5.57725">
        <ele>2106.5</ele>
        <time>2013-08-10T10:30:38.523Z</time>
      </trkpt>
      <trkpt lat="45.00374" lon="5.57724">
        <ele>2108.2</ele>
        <time>2013-08-10T10:30:45.456Z</time>
      </trkpt>
      <trkpt lat="45.00375" lon="5.57724">
        <ele>2107.7</ele>
        <time>2013-08-10T10:30:46.397Z</time>
      </trkpt>
      <trkpt lat="45.00374" lon="5.57725">
        <ele>2107.9</ele>
        <time>2013-08-10T10:30:47.568Z</time>
      </trkpt>
      <trkpt lat="45.00373" lon="5.57737">
        <ele>2109.2</ele>
        <time>2013-08-10T10:30:56.395Z</time>
      </trkpt>
      <trkpt lat="45.00373" lon="5.57738">
        <ele>2108.7</ele>
        <time>2013-08-10T10:30:57.321Z</time>
      </trkpt>
      <trkpt lat="45.00373" lon="5.57744">
        <ele>2105.6</ele>
        <time>2013-08-10T10:31:05.517Z</time>
      </trkpt>
      <trkpt lat="45.00373" lon="5.57744">
        <ele>2104.8</ele>
        <time>2013-08-10T10:31:06.388Z</time>
      </trkpt>
      <trkpt lat="45.00373" lon="5.57745">
        <ele>2105.1</ele>
        <time>2013-08-10T10:31:42.522Z</time>
      </trkpt>
      <trkpt lat="45.00373" lon="5.57745">
        <ele>2104.7</ele>
        <time>2013-08-10T10:31:43.517Z</time>
      </trkpt>
      <trkpt lat="45.00376" lon="5.57734">
        <ele>2107.6</ele>
        <time>2013-08-10T10:31:54.030Z</time>
      </trkpt>
      <trkpt lat="45.00376" lon="5.57733">
        <ele>2107.8</ele>
        <time>2013-08-10T10:31:54.924Z</time>
      </trkpt>
      <trkpt lat="45.00375" lon="5.5772">
        <ele>2107.6</ele>
        <time>2013-08-10T10:32:04.007Z</time>
      </trkpt>
      <trkpt lat="45.00376" lon="5.57719">
        <ele>2108.2</ele>
        <time>2013-08-10T10:32:04.838Z</time>
      </trkpt>
      <trkpt lat="45.00382" lon="5.57711">
        <ele>2109.5</ele>
        <time>2013-08-10T10:32:13.834Z</time>
      </trkpt>
      <trkpt lat="45.00382" lon="5.57711">
        <ele>2109.1</ele>
        <time>2013-08-10T10:32:14.508Z</time>
      </trkpt>
      <trkpt lat="45.00391" lon="5.57713">
        <ele>2104.9</ele>
        <time>2013-08-10T10:32:26.686Z</time>
      </trkpt>
      <trkpt lat="45.00391" lon="5.57714">
        <ele>2104.4</ele>
        <time>2013-08-10T10:32:27.256Z</time>
      </trkpt>
      <trkpt lat="45.00398" lon="5.5772">
        <ele>2103.1</ele>
        <time>2013-08-10T10:32:36.067Z</time>
      </trkpt>
      <trkpt lat="45.00399" lon="5.57721">
        <ele>2103.3</ele>
        <time>2013-08-10T10:32:37.067Z</time>
      </trkpt>
      <trkpt lat="45.00407" lon="5.57718">
        <ele>2099.1</ele>
        <time>2013-08-10T10:32:45.728Z</time>
      </trkpt>
      <trkpt lat="45.00408" lon="5.57717">
        <ele>2098.7</ele>
        <time>2013-08-10T10:32:46.523Z</time>
      </trkpt>
      <trkpt lat="45.00416" lon="5.57713">
        <ele>2096.6</ele>
        <time>2013-08-10T10:32:53.433Z</time>
      </trkpt>
      <trkpt lat="45.00417" lon="5.57712">
        <ele>2096</ele>
        <time>2013-08-10T10:32:54.440Z</time>
      </trkpt>
      <trkpt lat="45.00422" lon="5.57704">
        <ele>2096.5</ele>
        <time>2013-08-10T10:32:58.506Z</time>
      </trkpt>
      <trkpt lat="45.00423" lon="5.57702">
        <ele>2096.4</ele>
        <time>2013-08-10T10:32:59.375Z</time>
      </trkpt>
      <trkpt lat="45.0043" lon="5.57697">
        <ele>2092.5</ele>
        <time>2013-08-10T10:33:06.388Z</time>
      </trkpt>
      <trkpt lat="45.00431" lon="5.57696">
        <ele>2092.1</ele>
        <time>2013-08-10T10:33:07.406Z</time>
      </trkpt>
      <trkpt lat="45.0044" lon="5.57697">
        <ele>2089.5</ele>
        <time>2013-08-10T10:33:17.393Z</time>
      </trkpt>
      <trkpt lat="45.00441" lon="5.57697">
        <ele>2089.8</ele>
        <time>2013-08-10T10:33:18.513Z</time>
      </trkpt>
      <trkpt lat="45.00449" lon="5.57693">
        <ele>2088.7</ele>
        <time>2013-08-10T10:33:28.516Z</time>
      </trkpt>
      <trkpt lat="45.0045" lon="5.57693">
        <ele>2088.5</ele>
        <time>2013-08-10T10:33:29.511Z</time>
      </trkpt>
      <trkpt lat="45.00457" lon="5.5769">
        <ele>2087.1</ele>
        <time>2013-08-10T10:33:37.354Z</time>
      </trkpt>
      <trkpt lat="45.00457" lon="5.5769">
        <ele>2087.1</ele>
        <time>2013-08-10T10:33:38.323Z</time>
      </trkpt>
      <trkpt lat="45.00458" lon="5.5769">
        <ele>2087.6</ele>
        <time>2013-08-10T10:33:52.270Z</time>
      </trkpt>
      <trkpt lat="45.00458" lon="5.57691">
        <ele>2087.7</ele>
        <time>2013-08-10T10:33:53.089Z</time>
      </trkpt>
      <trkpt lat="45.00459" lon="5.57691">
        <ele>2087.8</ele>
        <time>2013-08-10T10:33:56.219Z</time>
      </trkpt>
      <trkpt lat="45.00459" lon="5.5769">
        <ele>2087.9</ele>
        <time>2013-08-10T10:33:57.199Z</time>
      </trkpt>
      <trkpt lat="45.00458" lon="5.57691">
        <ele>2087.5</ele>
        <time>2013-08-10T10:34:49.002Z</time>
      </trkpt>
      <trkpt lat="45.00458" lon="5.5769">
        <ele>2087.5</ele>
        <time>2013-08-10T10:34:49.998Z</time>
      </trkpt>
      <trkpt lat="45.00455" lon="5.57682">
        <ele>2088</ele>
        <time>2013-08-10T10:35:02.141Z</time>
      </trkpt>
      <trkpt lat="45.00455" lon="5.57682">
        <ele>2088</ele>
        <time>2013-08-10T10:35:03.085Z</time>
      </trkpt>
      <trkpt lat="45.00454" lon="5.57682">
        <ele>2087.9</ele>
        <time>2013-08-10T10:35:06.158Z</time>
      </trkpt>
      <trkpt lat="45.00454" lon="5.57682">
        <ele>2087.6</ele>
        <time>2013-08-10T10:35:07.234Z</time>
      </trkpt>
      <trkpt lat="45.00449" lon="5.57672">
        <ele>2087.7</ele>
        <time>2013-08-10T10:35:19.099Z</time>
      </trkpt>
      <trkpt lat="45.00449" lon="5.5767">
        <ele>2087.2</ele>
        <time>2013-08-10T10:35:20.151Z</time>
      </trkpt>
      <trkpt lat="45.00453" lon="5.5766">
        <ele>2086.4</ele>
        <time>2013-08-10T10:35:28.032Z</time>
      </trkpt>
      <trkpt lat="45.00453" lon="5.57658">
        <ele>2086.2</ele>
        <time>2013-08-10T10:35:29.328Z</time>
      </trkpt>
      <trkpt lat="45.0046" lon="5.57651">
        <ele>2086.1</ele>
        <time>2013-08-10T10:35:37.025Z</time>
      </trkpt>
      <trkpt lat="45.00462" lon="5.57649">
        <ele>2086.4</ele>
        <time>2013-08-10T10:35:38.145Z</time>
      </trkpt>
      <trkpt lat="45.00469" lon="5.57645">
        <ele>2087.4</ele>
        <time>2013-08-10T10:35:42.518Z</time>
      </trkpt>
      <trkpt lat="45.0047" lon="5.57644">
        <ele>2087.9</ele>
        <time>2013-08-10T10:35:43.507Z</time>
      </trkpt>
      <trkpt lat="45.00477" lon="5.57637">
        <ele>2087.6</ele>
        <time>2013-08-10T10:35:49.396Z</time>
      </trkpt>
      <trkpt lat="45.00478" lon="5.57635">
        <ele>2087.7</ele>
        <time>2013-08-10T10:35:50.395Z</time>
      </trkpt>
      <trkpt lat="45.0048" lon="5.57624">
        <ele>2087.4</ele>
        <time>2013-08-10T10:35:55.386Z</time>
      </trkpt>
      <trkpt lat="45.0048" lon="5.57622">
        <ele>2087.2</ele>
        <time>2013-08-10T10:35:56.391Z</time>
      </trkpt>
      <trkpt lat="45.00484" lon="5.57611">
        <ele>2083.3</ele>
        <time>2013-08-10T10:36:05.526Z</time>
      </trkpt>
      <trkpt lat="45.00484" lon="5.57609">
        <ele>2083.2</ele>
        <time>2013-08-10T10:36:06.393Z</time>
      </trkpt>
      <trkpt lat="45.00485" lon="5.57598">
        <ele>2090.8</ele>
        <time>2013-08-10T10:36:10.435Z</time>
      </trkpt>
      <trkpt lat="45.00484" lon="5.57595">
        <ele>2089.8</ele>
        <time>2013-08-10T10:36:11.385Z</time>
      </trkpt>
      <trkpt lat="45.0048" lon="5.57584">
        <ele>2089.7</ele>
        <time>2013-08-10T10:36:15.390Z</time>
      </trkpt>
      <trkpt lat="45.00479" lon="5.57581">
        <ele>2090</ele>
        <time>2013-08-10T10:36:16.388Z</time>
      </trkpt>
      <trkpt lat="45.00477" lon="5.57568">
        <ele>2089.7</ele>
        <time>2013-08-10T10:36:22.391Z</time>
      </trkpt>
      <trkpt lat="45.00477" lon="5.57567">
        <ele>2089.9</ele>
        <time>2013-08-10T10:36:23.385Z</time>
      </trkpt>
      <trkpt lat="45.00475" lon="5.57555">
        <ele>2085.8</ele>
        <time>2013-08-10T10:36:36.514Z</time>
      </trkpt>
      <trkpt lat="45.00475" lon="5.57553">
        <ele>2085.8</ele>
        <time>2013-08-10T10:36:37.403Z</time>
      </trkpt>
      <trkpt lat="45.0047" lon="5.57543">
        <ele>2088.2</ele>
        <time>2013-08-10T10:36:46.401Z</time>
      </trkpt>
      <trkpt lat="45.0047" lon="5.57542">
        <ele>2088.2</ele>
        <time>2013-08-10T10:36:47.507Z</time>
      </trkpt>
      <trkpt lat="45.0047" lon="5.57541">
        <ele>2087.9</ele>
        <time>2013-08-10T10:36:52.394Z</time>
      </trkpt>
      <trkpt lat="45.0047" lon="5.57541">
        <ele>2088</ele>
        <time>2013-08-10T10:36:53.525Z</time>
      </trkpt>
      <trkpt lat="45.0047" lon="5.57541">
        <ele>2088.4</ele>
        <time>2013-08-10T10:36:54.569Z</time>
      </trkpt>
      <trkpt lat="45.00471" lon="5.57542">
        <ele>2088.7</ele>
        <time>2013-08-10T10:36:56.515Z</time>
      </trkpt>
      <trkpt lat="45.00471" lon="5.57542">
        <ele>2088.8</ele>
        <time>2013-08-10T10:36:57.393Z</time>
      </trkpt>
      <trkpt lat="45.00471" lon="5.57541">
        <ele>2089</ele>
        <time>2013-08-10T10:36:58.390Z</time>
      </trkpt>
      <trkpt lat="45.00467" lon="5.57532">
        <ele>2085.8</ele>
        <time>2013-08-10T10:37:01.392Z</time>
      </trkpt>
      <trkpt lat="45.00466" lon="5.57529">
        <ele>2085.9</ele>
        <time>2013-08-10T10:37:02.388Z</time>
      </trkpt>
      <trkpt lat="45.00462" lon="5.57519">
        <ele>2087.1</ele>
        <time>2013-08-10T10:37:07.390Z</time>
      </trkpt>
      <trkpt lat="45.00461" lon="5.57517">
        <ele>2085.4</ele>
        <time>2013-08-10T10:37:08.521Z</time>
      </trkpt>
      <trkpt lat="45.0046" lon="5.57507">
        <ele>2084.8</ele>
        <time>2013-08-10T10:37:13.419Z</time>
      </trkpt>
      <trkpt lat="45.00461" lon="5.57504">
        <ele>2085.2</ele>
        <time>2013-08-10T10:37:14.433Z</time>
      </trkpt>
      <trkpt lat="45.00467" lon="5.57496">
        <ele>2084.3</ele>
        <time>2013-08-10T10:37:19.400Z</time>
      </trkpt>
      <trkpt lat="45.00468" lon="5.57494">
        <ele>2084.2</ele>
        <time>2013-08-10T10:37:20.396Z</time>
      </trkpt>
      <trkpt lat="45.00471" lon="5.57483">
        <ele>2084.8</ele>
        <time>2013-08-10T10:37:26.411Z</time>
      </trkpt>
      <trkpt lat="45.00472" lon="5.57481">
        <ele>2084.6</ele>
        <time>2013-08-10T10:37:27.499Z</time>
      </trkpt>
      <trkpt lat="45.00477" lon="5.57471">
        <ele>2081.2</ele>
        <time>2013-08-10T10:37:33.574Z</time>
      </trkpt>
      <trkpt lat="45.00478" lon="5.5747">
        <ele>2080.7</ele>
        <time>2013-08-10T10:37:34.402Z</time>
      </trkpt>
      <trkpt lat="45.00485" lon="5.57464">
        <ele>2081.5</ele>
        <time>2013-08-10T10:37:39.390Z</time>
      </trkpt>
      <trkpt lat="45.00486" lon="5.57463">
        <ele>2081.8</ele>
        <time>2013-08-10T10:37:40.564Z</time>
      </trkpt>
      <trkpt lat="45.00494" lon="5.57459">
        <ele>2081.3</ele>
        <time>2013-08-10T10:37:46.380Z</time>
      </trkpt>
      <trkpt lat="45.00495" lon="5.57458">
        <ele>2080.8</ele>
        <time>2013-08-10T10:37:47.378Z</time>
      </trkpt>
      <trkpt lat="45.00502" lon="5.57451">
        <ele>2078.7</ele>
        <time>2013-08-10T10:37:51.676Z</time>
      </trkpt>
      <trkpt lat="45.00504" lon="5.5745">
        <ele>2078.7</ele>
        <time>2013-08-10T10:37:52.396Z</time>
      </trkpt>
      <trkpt lat="45.00508" lon="5.57439">
        <ele>2075.5</ele>
        <time>2013-08-10T10:37:57.395Z</time>
      </trkpt>
      <trkpt lat="45.00509" lon="5.57437">
        <ele>2075.5</ele>
        <time>2013-08-10T10:37:58.394Z</time>
      </trkpt>
      <trkpt lat="45.00515" lon="5.57431">
        <ele>2074.2</ele>
        <time>2013-08-10T10:38:03.463Z</time>
      </trkpt>
      <trkpt lat="45.00517" lon="5.57431">
        <ele>2073.4</ele>
        <time>2013-08-10T10:38:04.464Z</time>
      </trkpt>
      <trkpt lat="45.00524" lon="5.57425">
        <ele>2073.5</ele>
        <time>2013-08-10T10:38:11.463Z</time>
      </trkpt>
      <trkpt lat="45.00526" lon="5.57424">
        <ele>2074.3</ele>
        <time>2013-08-10T10:38:12.466Z</time>
      </trkpt>
      <trkpt lat="45.00532" lon="5.57416">
        <ele>2073.5</ele>
        <time>2013-08-10T10:38:17.528Z</time>
      </trkpt>
      <trkpt lat="45.00533" lon="5.57414">
        <ele>2074.5</ele>
        <time>2013-08-10T10:38:18.390Z</time>
      </trkpt>
      <trkpt lat="45.00541" lon="5.57408">
        <ele>2072.8</ele>
        <time>2013-08-10T10:38:24.389Z</time>
      </trkpt>
      <trkpt lat="45.00542" lon="5.57407">
        <ele>2072.3</ele>
        <time>2013-08-10T10:38:25.387Z</time>
      </trkpt>
      <trkpt lat="45.00549" lon="5.574">
        <ele>2075.3</ele>
        <time>2013-08-10T10:38:30.387Z</time>
      </trkpt>
      <trkpt lat="45.00551" lon="5.57399">
        <ele>2075.7</ele>
        <time>2013-08-10T10:38:31.509Z</time>
      </trkpt>
      <trkpt lat="45.00559" lon="5.57393">
        <ele>2075.2</ele>
        <time>2013-08-10T10:38:38.391Z</time>
      </trkpt>
      <trkpt lat="45.00559" lon="5.57393">
        <ele>2074.2</ele>
        <time>2013-08-10T10:38:39.521Z</time>
      </trkpt>
      <trkpt lat="45.00566" lon="5.57385">
        <ele>2075.3</ele>
        <time>2013-08-10T10:38:45.390Z</time>
      </trkpt>
      <trkpt lat="45.00566" lon="5.57383">
        <ele>2075.3</ele>
        <time>2013-08-10T10:38:46.390Z</time>
      </trkpt>
      <trkpt lat="45.00571" lon="5.57374">
        <ele>2078.3</ele>
        <time>2013-08-10T10:38:51.390Z</time>
      </trkpt>
      <trkpt lat="45.00573" lon="5.57373">
        <ele>2078.5</ele>
        <time>2013-08-10T10:38:52.511Z</time>
      </trkpt>
      <trkpt lat="45.00579" lon="5.57366">
        <ele>2077</ele>
        <time>2013-08-10T10:38:56.431Z</time>
      </trkpt>
      <trkpt lat="45.0058" lon="5.57365">
        <ele>2076.1</ele>
        <time>2013-08-10T10:38:57.430Z</time>
      </trkpt>
      <trkpt lat="45.00586" lon="5.57355">
        <ele>2079.2</ele>
        <time>2013-08-10T10:39:04.390Z</time>
      </trkpt>
      <trkpt lat="45.00587" lon="5.57355">
        <ele>2078.7</ele>
        <time>2013-08-10T10:39:05.390Z</time>
      </trkpt>
      <trkpt lat="45.00596" lon="5.57354">
        <ele>2073.9</ele>
        <time>2013-08-10T10:39:11.390Z</time>
      </trkpt>
      <trkpt lat="45.00597" lon="5.57353">
        <ele>2073.3</ele>
        <time>2013-08-10T10:39:12.534Z</time>
      </trkpt>
      <trkpt lat="45.00604" lon="5.57347">
        <ele>2071.3</ele>
        <time>2013-08-10T10:39:17.401Z</time>
      </trkpt>
      <trkpt lat="45.00605" lon="5.57346">
        <ele>2069.8</ele>
        <time>2013-08-10T10:39:18.402Z</time>
      </trkpt>
      <trkpt lat="45.00612" lon="5.57344">
        <ele>2071.4</ele>
        <time>2013-08-10T10:39:23.386Z</time>
      </trkpt>
      <trkpt lat="45.00614" lon="5.57343">
        <ele>2072.8</ele>
        <time>2013-08-10T10:39:24.398Z</time>
      </trkpt>
      <trkpt lat="45.00622" lon="5.57341">
        <ele>2059.2</ele>
        <time>2013-08-10T10:39:34.523Z</time>
      </trkpt>
      <trkpt lat="45.00624" lon="5.5734">
        <ele>2058.8</ele>
        <time>2013-08-10T10:39:35.507Z</time>
      </trkpt>
      <trkpt lat="45.00632" lon="5.57336">
        <ele>2057.8</ele>
        <time>2013-08-10T10:39:40.635Z</time>
      </trkpt>
      <trkpt lat="45.00633" lon="5.57335">
        <ele>2058.7</ele>
        <time>2013-08-10T10:39:41.508Z</time>
      </trkpt>
      <trkpt lat="45.00641" lon="5.57329">
        <ele>2058.7</ele>
        <time>2013-08-10T10:39:46.388Z</time>
      </trkpt>
      <trkpt lat="45.00642" lon="5.57327">
        <ele>2056.5</ele>
        <time>2013-08-10T10:39:47.388Z</time>
      </trkpt>
      <trkpt lat="45.00648" lon="5.57319">
        <ele>2060.4</ele>
        <time>2013-08-10T10:39:52.565Z</time>
      </trkpt>
      <trkpt lat="45.00649" lon="5.57319">
        <ele>2060.5</ele>
        <time>2013-08-10T10:39:53.391Z</time>
      </trkpt>
      <trkpt lat="45.00656" lon="5.57315">
        <ele>2060.7</ele>
        <time>2013-08-10T10:39:59.520Z</time>
      </trkpt>
      <trkpt lat="45.00658" lon="5.57314">
        <ele>2060.9</ele>
        <time>2013-08-10T10:40:00.545Z</time>
      </trkpt>
      <trkpt lat="45.00665" lon="5.5731">
        <ele>2059.6</ele>
        <time>2013-08-10T10:40:04.390Z</time>
      </trkpt>
      <trkpt lat="45.00667" lon="5.57308">
        <ele>2059.5</ele>
        <time>2013-08-10T10:40:05.390Z</time>
      </trkpt>
      <trkpt lat="45.00674" lon="5.57305">
        <ele>2059.2</ele>
        <time>2013-08-10T10:40:09.395Z</time>
      </trkpt>
      <trkpt lat="45.00676" lon="5.57304">
        <ele>2059.9</ele>
        <time>2013-08-10T10:40:10.391Z</time>
      </trkpt>
      <trkpt lat="45.00684" lon="5.57302">
        <ele>2050.6</ele>
        <time>2013-08-10T10:40:15.509Z</time>
      </trkpt>
      <trkpt lat="45.00685" lon="5.57301">
        <ele>2050.7</ele>
        <time>2013-08-10T10:40:16.509Z</time>
      </trkpt>
      <trkpt lat="45.00692" lon="5.57293">
        <ele>2051.1</ele>
        <time>2013-08-10T10:40:21.507Z</time>
      </trkpt>
      <trkpt lat="45.00692" lon="5.57291">
        <ele>2047.6</ele>
        <time>2013-08-10T10:40:22.392Z</time>
      </trkpt>
      <trkpt lat="45.00699" lon="5.57286">
        <ele>2048.9</ele>
        <time>2013-08-10T10:40:31.389Z</time>
      </trkpt>
      <trkpt lat="45.007" lon="5.57285">
        <ele>2047.6</ele>
        <time>2013-08-10T10:40:32.508Z</time>
      </trkpt>
      <trkpt lat="45.00705" lon="5.57274">
        <ele>2043.7</ele>
        <time>2013-08-10T10:40:39.390Z</time>
      </trkpt>
      <trkpt lat="45.00705" lon="5.57273">
        <ele>2043.5</ele>
        <time>2013-08-10T10:40:40.398Z</time>
      </trkpt>
      <trkpt lat="45.00703" lon="5.57269">
        <ele>2045.5</ele>
        <time>2013-08-10T10:40:52.385Z</time>
      </trkpt>
      <trkpt lat="45.00703" lon="5.57269">
        <ele>2045.5</ele>
        <time>2013-08-10T10:40:53.386Z</time>
      </trkpt>
      <trkpt lat="45.00703" lon="5.57269">
        <ele>2045.4</ele>
        <time>2013-08-10T10:42:28.385Z</time>
      </trkpt>
      <trkpt lat="45.00703" lon="5.57269">
        <ele>2044.9</ele>
        <time>2013-08-10T10:42:29.520Z</time>
      </trkpt>
      <trkpt lat="45.00703" lon="5.57268">
        <ele>2044.4</ele>
        <time>2013-08-10T10:42:31.509Z</time>
      </trkpt>
      <trkpt lat="45.00703" lon="5.57268">
        <ele>2044.6</ele>
        <time>2013-08-10T10:42:32.395Z</time>
      </trkpt>
      <trkpt lat="45.00703" lon="5.57268">
        <ele>2044.9</ele>
        <time>2013-08-10T10:42:37.520Z</time>
      </trkpt>
      <trkpt lat="45.00702" lon="5.57266">
        <ele>2042.1</ele>
        <time>2013-08-10T10:42:38.397Z</time>
      </trkpt>
      <trkpt lat="45.007" lon="5.57258">
        <ele>2039.8</ele>
        <time>2013-08-10T10:42:41.391Z</time>
      </trkpt>
      <trkpt lat="45.00699" lon="5.57255">
        <ele>2040.3</ele>
        <time>2013-08-10T10:42:42.395Z</time>
      </trkpt>
      <trkpt lat="45.007" lon="5.57243">
        <ele>2037.5</ele>
        <time>2013-08-10T10:42:50.575Z</time>
      </trkpt>
      <trkpt lat="45.007" lon="5.57242">
        <ele>2042.3</ele>
        <time>2013-08-10T10:42:51.388Z</time>
      </trkpt>
      <trkpt lat="45.00694" lon="5.57233">
        <ele>2036.2</ele>
        <time>2013-08-10T10:43:04.506Z</time>
      </trkpt>
      <trkpt lat="45.00694" lon="5.57231">
        <ele>2035.8</ele>
        <time>2013-08-10T10:43:05.532Z</time>
      </trkpt>
      <trkpt lat="45.00695" lon="5.5722">
        <ele>2036</ele>
        <time>2013-08-10T10:43:12.390Z</time>
      </trkpt>
      <trkpt lat="45.00695" lon="5.57219">
        <ele>2036.7</ele>
        <time>2013-08-10T10:43:13.390Z</time>
      </trkpt>
      <trkpt lat="45.007" lon="5.5721">
        <ele>2035.7</ele>
        <time>2013-08-10T10:43:20.504Z</time>
      </trkpt>
      <trkpt lat="45.00702" lon="5.57209">
        <ele>2036.3</ele>
        <time>2013-08-10T10:43:21.390Z</time>
      </trkpt>
      <trkpt lat="45.00706" lon="5.57198">
        <ele>2038.2</ele>
        <time>2013-08-10T10:43:26.390Z</time>
      </trkpt>
      <trkpt lat="45.00706" lon="5.57196">
        <ele>2037.9</ele>
        <time>2013-08-10T10:43:27.401Z</time>
      </trkpt>
      <trkpt lat="45.00706" lon="5.57185">
        <ele>2039.4</ele>
        <time>2013-08-10T10:43:32.413Z</time>
      </trkpt>
      <trkpt lat="45.00706" lon="5.57182">
        <ele>2040.1</ele>
        <time>2013-08-10T10:43:33.401Z</time>
      </trkpt>
      <trkpt lat="45.00705" lon="5.5717">
        <ele>2040</ele>
        <time>2013-08-10T10:43:38.524Z</time>
      </trkpt>
      <trkpt lat="45.00705" lon="5.57168">
        <ele>2040.2</ele>
        <time>2013-08-10T10:43:39.513Z</time>
      </trkpt>
      <trkpt lat="45.00706" lon="5.57157">
        <ele>2041.8</ele>
        <time>2013-08-10T10:43:46.389Z</time>
      </trkpt>
      <trkpt lat="45.00706" lon="5.57155">
        <ele>2041.8</ele>
        <time>2013-08-10T10:43:47.391Z</time>
      </trkpt>
      <trkpt lat="45.00706" lon="5.57143">
        <ele>2043.2</ele>
        <time>2013-08-10T10:43:56.395Z</time>
      </trkpt>
      <trkpt lat="45.00706" lon="5.57141">
        <ele>2043.4</ele>
        <time>2013-08-10T10:43:57.522Z</time>
      </trkpt>
      <trkpt lat="45.00709" lon="5.57129">
        <ele>2044.1</ele>
        <time>2013-08-10T10:44:04.528Z</time>
      </trkpt>
      <trkpt lat="45.00709" lon="5.57128">
        <ele>2043.1</ele>
        <time>2013-08-10T10:44:05.509Z</time>
      </trkpt>
      <trkpt lat="45.00706" lon="5.57117">
        <ele>2041.2</ele>
        <time>2013-08-10T10:44:13.391Z</time>
      </trkpt>
      <trkpt lat="45.00706" lon="5.57115">
        <ele>2041.5</ele>
        <time>2013-08-10T10:44:14.389Z</time>
      </trkpt>
      <trkpt lat="45.00709" lon="5.57103">
        <ele>2045.2</ele>
        <time>2013-08-10T10:44:22.507Z</time>
      </trkpt>
      <trkpt lat="45.00709" lon="5.57102">
        <ele>2045.7</ele>
        <time>2013-08-10T10:44:23.389Z</time>
      </trkpt>
      <trkpt lat="45.00709" lon="5.57089">
        <ele>2047.4</ele>
        <time>2013-08-10T10:44:32.390Z</time>
      </trkpt>
      <trkpt lat="45.00709" lon="5.57087">
        <ele>2051.1</ele>
        <time>2013-08-10T10:44:33.389Z</time>
      </trkpt>
      <trkpt lat="45.00706" lon="5.57076">
        <ele>2052.6</ele>
        <time>2013-08-10T10:44:45.508Z</time>
      </trkpt>
      <trkpt lat="45.00705" lon="5.57076">
        <ele>2052.6</ele>
        <time>2013-08-10T10:44:46.586Z</time>
      </trkpt>
      <trkpt lat="45.00705" lon="5.57076">
        <ele>2052.4</ele>
        <time>2013-08-10T10:44:47.659Z</time>
      </trkpt>
      <trkpt lat="45.00705" lon="5.57076">
        <ele>2052.6</ele>
        <time>2013-08-10T10:44:48.391Z</time>
      </trkpt>
      <trkpt lat="45.00704" lon="5.57073">
        <ele>2050.8</ele>
        <time>2013-08-10T10:44:54.388Z</time>
      </trkpt>
      <trkpt lat="45.00704" lon="5.57073">
        <ele>2051.8</ele>
        <time>2013-08-10T10:44:55.386Z</time>
      </trkpt>
      <trkpt lat="45.00704" lon="5.57073">
        <ele>2050.7</ele>
        <time>2013-08-10T10:45:05.434Z</time>
      </trkpt>
      <trkpt lat="45.00705" lon="5.57072">
        <ele>2051</ele>
        <time>2013-08-10T10:45:06.392Z</time>
      </trkpt>
      <trkpt lat="45.00703" lon="5.57061">
        <ele>2052.1</ele>
        <time>2013-08-10T10:45:17.388Z</time>
      </trkpt>
      <trkpt lat="45.00702" lon="5.57059">
        <ele>2050.5</ele>
        <time>2013-08-10T10:45:18.395Z</time>
      </trkpt>
      <trkpt lat="45.00702" lon="5.57047">
        <ele>2047.7</ele>
        <time>2013-08-10T10:45:24.410Z</time>
      </trkpt>
      <trkpt lat="45.00702" lon="5.57046">
        <ele>2047.1</ele>
        <time>2013-08-10T10:45:25.341Z</time>
      </trkpt>
      <trkpt lat="45.00704" lon="5.57035">
        <ele>2042.4</ele>
        <time>2013-08-10T10:45:38.391Z</time>
      </trkpt>
      <trkpt lat="45.00704" lon="5.57034">
        <ele>2043.7</ele>
        <time>2013-08-10T10:45:39.523Z</time>
      </trkpt>
      <trkpt lat="45.00709" lon="5.57025">
        <ele>2044.3</ele>
        <time>2013-08-10T10:45:45.391Z</time>
      </trkpt>
      <trkpt lat="45.0071" lon="5.57023">
        <ele>2044.2</ele>
        <time>2013-08-10T10:45:46.391Z</time>
      </trkpt>
      <trkpt lat="45.00716" lon="5.57016">
        <ele>2048.5</ele>
        <time>2013-08-10T10:45:53.391Z</time>
      </trkpt>
      <trkpt lat="45.00718" lon="5.57015">
        <ele>2046.7</ele>
        <time>2013-08-10T10:45:54.523Z</time>
      </trkpt>
      <trkpt lat="45.00725" lon="5.57008">
        <ele>2043.1</ele>
        <time>2013-08-10T10:46:01.495Z</time>
      </trkpt>
      <trkpt lat="45.00725" lon="5.57007">
        <ele>2044.5</ele>
        <time>2013-08-10T10:46:02.495Z</time>
      </trkpt>
      <trkpt lat="45.00729" lon="5.56995">
        <ele>2048.3</ele>
        <time>2013-08-10T10:46:11.394Z</time>
      </trkpt>
      <trkpt lat="45.0073" lon="5.56994">
        <ele>2051.2</ele>
        <time>2013-08-10T10:46:12.399Z</time>
      </trkpt>
      <trkpt lat="45.00736" lon="5.56985">
        <ele>2051.6</ele>
        <time>2013-08-10T10:46:19.606Z</time>
      </trkpt>
      <trkpt lat="45.00736" lon="5.56985">
        <ele>2050.9</ele>
        <time>2013-08-10T10:46:20.449Z</time>
      </trkpt>
      <trkpt lat="45.00733" lon="5.56981">
        <ele>2051.9</ele>
        <time>2013-08-10T10:46:27.394Z</time>
      </trkpt>
      <trkpt lat="45.00733" lon="5.56981">
        <ele>2051.5</ele>
        <time>2013-08-10T10:46:28.394Z</time>
      </trkpt>
      <trkpt lat="45.00733" lon="5.5698">
        <ele>2050.7</ele>
        <time>2013-08-10T10:46:32.526Z</time>
      </trkpt>
      <trkpt lat="45.00733" lon="5.56979">
        <ele>2050.9</ele>
        <time>2013-08-10T10:46:33.509Z</time>
      </trkpt>
      <trkpt lat="45.00733" lon="5.56968">
        <ele>2043.9</ele>
        <time>2013-08-10T10:46:51.409Z</time>
      </trkpt>
      <trkpt lat="45.00734" lon="5.56966">
        <ele>2043.3</ele>
        <time>2013-08-10T10:46:52.598Z</time>
      </trkpt>
      <trkpt lat="45.00735" lon="5.56961">
        <ele>2041.4</ele>
        <time>2013-08-10T10:46:58.369Z</time>
      </trkpt>
      <trkpt lat="45.00735" lon="5.56961">
        <ele>2041.5</ele>
        <time>2013-08-10T10:46:59.379Z</time>
      </trkpt>
      <trkpt lat="45.00735" lon="5.5696">
        <ele>2042.1</ele>
        <time>2013-08-10T10:47:00.385Z</time>
      </trkpt>
      <trkpt lat="45.00737" lon="5.56948">
        <ele>2044.3</ele>
        <time>2013-08-10T10:47:10.515Z</time>
      </trkpt>
      <trkpt lat="45.00738" lon="5.56947">
        <ele>2046.2</ele>
        <time>2013-08-10T10:47:11.390Z</time>
      </trkpt>
      <trkpt lat="45.00738" lon="5.56936">
        <ele>2042.2</ele>
        <time>2013-08-10T10:47:23.384Z</time>
      </trkpt>
      <trkpt lat="45.00738" lon="5.56935">
        <ele>2041.6</ele>
        <time>2013-08-10T10:47:24.386Z</time>
      </trkpt>
      <trkpt lat="45.0074" lon="5.56924">
        <ele>2033.6</ele>
        <time>2013-08-10T10:47:37.422Z</time>
      </trkpt>
      <trkpt lat="45.00739" lon="5.56924">
        <ele>2033.6</ele>
        <time>2013-08-10T10:47:38.385Z</time>
      </trkpt>
      <trkpt lat="45.0074" lon="5.56922">
        <ele>2033.1</ele>
        <time>2013-08-10T10:47:48.382Z</time>
      </trkpt>
      <trkpt lat="45.0074" lon="5.56922">
        <ele>2031.3</ele>
        <time>2013-08-10T10:47:49.382Z</time>
      </trkpt>
      <trkpt lat="45.0074" lon="5.5691">
        <ele>2024.5</ele>
        <time>2013-08-10T10:48:04.388Z</time>
      </trkpt>
      <trkpt lat="45.0074" lon="5.56909">
        <ele>2023.4</ele>
        <time>2013-08-10T10:48:05.390Z</time>
      </trkpt>
      <trkpt lat="45.00743" lon="5.56898">
        <ele>2021.3</ele>
        <time>2013-08-10T10:48:19.533Z</time>
      </trkpt>
      <trkpt lat="45.00743" lon="5.56897">
        <ele>2022.1</ele>
        <time>2013-08-10T10:48:20.520Z</time>
      </trkpt>
      <trkpt lat="45.00747" lon="5.56886">
        <ele>2022.1</ele>
        <time>2013-08-10T10:48:32.415Z</time>
      </trkpt>
      <trkpt lat="45.00748" lon="5.56886">
        <ele>2022.7</ele>
        <time>2013-08-10T10:48:33.589Z</time>
      </trkpt>
      <trkpt lat="45.00749" lon="5.56875">
        <ele>2020.7</ele>
        <time>2013-08-10T10:48:44.399Z</time>
      </trkpt>
      <trkpt lat="45.00749" lon="5.56875">
        <ele>2020.8</ele>
        <time>2013-08-10T10:48:45.393Z</time>
      </trkpt>
      <trkpt lat="45.0075" lon="5.56874">
        <ele>2021.1</ele>
        <time>2013-08-10T10:48:46.391Z</time>
      </trkpt>
      <trkpt lat="45.00756" lon="5.56866">
        <ele>2021.6</ele>
        <time>2013-08-10T10:48:56.419Z</time>
      </trkpt>
      <trkpt lat="45.00756" lon="5.56865">
        <ele>2021.2</ele>
        <time>2013-08-10T10:48:56.441Z</time>
      </trkpt>
      <trkpt lat="45.00762" lon="5.56856">
        <ele>2023.1</ele>
        <time>2013-08-10T10:49:01.392Z</time>
      </trkpt>
      <trkpt lat="45.00763" lon="5.56855">
        <ele>2026.1</ele>
        <time>2013-08-10T10:49:02.390Z</time>
      </trkpt>
      <trkpt lat="45.00765" lon="5.56842">
        <ele>2026.3</ele>
        <time>2013-08-10T10:49:18.494Z</time>
      </trkpt>
      <trkpt lat="45.00766" lon="5.56841">
        <ele>2026.4</ele>
        <time>2013-08-10T10:49:19.391Z</time>
      </trkpt>
      <trkpt lat="45.00765" lon="5.56833">
        <ele>2029.8</ele>
        <time>2013-08-10T10:49:31.391Z</time>
      </trkpt>
      <trkpt lat="45.00766" lon="5.56832">
        <ele>2030.3</ele>
        <time>2013-08-10T10:49:32.703Z</time>
      </trkpt>
      <trkpt lat="45.00766" lon="5.56831">
        <ele>2030</ele>
        <time>2013-08-10T10:49:33.539Z</time>
      </trkpt>
      <trkpt lat="45.00772" lon="5.56821">
        <ele>2036.7</ele>
        <time>2013-08-10T10:49:44.396Z</time>
      </trkpt>
      <trkpt lat="45.00771" lon="5.5682">
        <ele>2036.6</ele>
        <time>2013-08-10T10:49:45.415Z</time>
      </trkpt>
      <trkpt lat="45.00769" lon="5.56809">
        <ele>2037.7</ele>
        <time>2013-08-10T10:49:59.424Z</time>
      </trkpt>
      <trkpt lat="45.00768" lon="5.56808">
        <ele>2038.4</ele>
        <time>2013-08-10T10:50:01.360Z</time>
      </trkpt>
      <trkpt lat="45.00767" lon="5.56795">
        <ele>2039.9</ele>
        <time>2013-08-10T10:50:10.423Z</time>
      </trkpt>
      <trkpt lat="45.00766" lon="5.56794">
        <ele>2039.9</ele>
        <time>2013-08-10T10:50:11.408Z</time>
      </trkpt>
      <trkpt lat="45.00772" lon="5.56785">
        <ele>2042.4</ele>
        <time>2013-08-10T10:50:19.385Z</time>
      </trkpt>
      <trkpt lat="45.00773" lon="5.56784">
        <ele>2042.7</ele>
        <time>2013-08-10T10:50:20.908Z</time>
      </trkpt>
      <trkpt lat="45.00771" lon="5.56784">
        <ele>2042.9</ele>
        <time>2013-08-10T10:50:24.408Z</time>
      </trkpt>
      <trkpt lat="45.00771" lon="5.56784">
        <ele>2043.7</ele>
        <time>2013-08-10T10:50:25.577Z</time>
      </trkpt>
      <trkpt lat="45.00771" lon="5.56784">
        <ele>2043.1</ele>
        <time>2013-08-10T10:50:26.383Z</time>
      </trkpt>
      <trkpt lat="45.00771" lon="5.56785">
        <ele>2043.2</ele>
        <time>2013-08-10T10:50:27.384Z</time>
      </trkpt>
      <trkpt lat="45.00772" lon="5.56785">
        <ele>2043.4</ele>
        <time>2013-08-10T10:50:28.433Z</time>
      </trkpt>
      <trkpt lat="45.00772" lon="5.56785">
        <ele>2043.5</ele>
        <time>2013-08-10T10:50:29.395Z</time>
      </trkpt>
      <trkpt lat="45.00772" lon="5.56784">
        <ele>2044.4</ele>
        <time>2013-08-10T10:50:30.394Z</time>
      </trkpt>
      <trkpt lat="45.0077" lon="5.56779">
        <ele>2046.6</ele>
        <time>2013-08-10T10:50:38.396Z</time>
      </trkpt>
      <trkpt lat="45.0077" lon="5.56779">
        <ele>2046.6</ele>
        <time>2013-08-10T10:50:39.396Z</time>
      </trkpt>
      <trkpt lat="45.00769" lon="5.56778">
        <ele>2045</ele>
        <time>2013-08-10T10:50:49.730Z</time>
      </trkpt>
      <trkpt lat="45.00769" lon="5.56778">
        <ele>2045.1</ele>
        <time>2013-08-10T10:50:50.426Z</time>
      </trkpt>
      <trkpt lat="45.00765" lon="5.56768">
        <ele>2051</ele>
        <time>2013-08-10T10:51:05.396Z</time>
      </trkpt>
      <trkpt lat="45.00764" lon="5.56767">
        <ele>2047.4</ele>
        <time>2013-08-10T10:51:06.398Z</time>
      </trkpt>
      <trkpt lat="45.00763" lon="5.56754">
        <ele>2044.2</ele>
        <time>2013-08-10T10:51:14.393Z</time>
      </trkpt>
      <trkpt lat="45.00764" lon="5.56753">
        <ele>2044.7</ele>
        <time>2013-08-10T10:51:15.522Z</time>
      </trkpt>
      <trkpt lat="45.00768" lon="5.56743">
        <ele>2050.4</ele>
        <time>2013-08-10T10:51:22.383Z</time>
      </trkpt>
      <trkpt lat="45.00768" lon="5.5674">
        <ele>2049.7</ele>
        <time>2013-08-10T10:51:23.379Z</time>
      </trkpt>
      <trkpt lat="45.00767" lon="5.56728">
        <ele>2051.2</ele>
        <time>2013-08-10T10:51:34.122Z</time>
      </trkpt>
      <trkpt lat="45.00767" lon="5.56727">
        <ele>2049.6</ele>
        <time>2013-08-10T10:51:34.848Z</time>
      </trkpt>
      <trkpt lat="45.00772" lon="5.56717">
        <ele>2043.9</ele>
        <time>2013-08-10T10:51:43.677Z</time>
      </trkpt>
      <trkpt lat="45.00772" lon="5.56717">
        <ele>2042.4</ele>
        <time>2013-08-10T10:51:44.681Z</time>
      </trkpt>
      <trkpt lat="45.00768" lon="5.56709">
        <ele>2046.3</ele>
        <time>2013-08-10T10:51:57.892Z</time>
      </trkpt>
      <trkpt lat="45.00768" lon="5.56709">
        <ele>2045.7</ele>
        <time>2013-08-10T10:51:58.896Z</time>
      </trkpt>
      <trkpt lat="45.00769" lon="5.5671">
        <ele>2045.4</ele>
        <time>2013-08-10T10:52:01.939Z</time>
      </trkpt>
      <trkpt lat="45.0077" lon="5.56709">
        <ele>2045.3</ele>
        <time>2013-08-10T10:52:02.933Z</time>
      </trkpt>
      <trkpt lat="45.00771" lon="5.56709">
        <ele>2045.2</ele>
        <time>2013-08-10T10:52:06.904Z</time>
      </trkpt>
      <trkpt lat="45.00771" lon="5.56709">
        <ele>2045.3</ele>
        <time>2013-08-10T10:52:07.897Z</time>
      </trkpt>
      <trkpt lat="45.0077" lon="5.56708">
        <ele>2045.6</ele>
        <time>2013-08-10T10:52:08.891Z</time>
      </trkpt>
      <trkpt lat="45.00764" lon="5.56699">
        <ele>2054.4</ele>
        <time>2013-08-10T10:52:22.426Z</time>
      </trkpt>
      <trkpt lat="45.00763" lon="5.56698">
        <ele>2054.2</ele>
        <time>2013-08-10T10:52:23.573Z</time>
      </trkpt>
      <trkpt lat="45.00757" lon="5.56689">
        <ele>2051.7</ele>
        <time>2013-08-10T10:52:35.392Z</time>
      </trkpt>
      <trkpt lat="45.00756" lon="5.56688">
        <ele>2051.4</ele>
        <time>2013-08-10T10:52:36.444Z</time>
      </trkpt>
      <trkpt lat="45.00753" lon="5.56678">
        <ele>2038</ele>
        <time>2013-08-10T10:52:54.504Z</time>
      </trkpt>
      <trkpt lat="45.00753" lon="5.56677">
        <ele>2037.9</ele>
        <time>2013-08-10T10:52:55.505Z</time>
      </trkpt>
      <trkpt lat="45.00753" lon="5.56677">
        <ele>2037.9</ele>
        <time>2013-08-10T10:52:56.395Z</time>
      </trkpt>
      <trkpt lat="45.00752" lon="5.56677">
        <ele>2037.8</ele>
        <time>2013-08-10T10:52:57.443Z</time>
      </trkpt>
      <trkpt lat="45.00749" lon="5.56675">
        <ele>2035.3</ele>
        <time>2013-08-10T10:53:05.392Z</time>
      </trkpt>
      <trkpt lat="45.00749" lon="5.56675">
        <ele>2035.3</ele>
        <time>2013-08-10T10:53:06.392Z</time>
      </trkpt>
      <trkpt lat="45.00749" lon="5.56675">
        <ele>2033.2</ele>
        <time>2013-08-10T10:53:21.260Z</time>
      </trkpt>
      <trkpt lat="45.00749" lon="5.56675">
        <ele>2032.5</ele>
        <time>2013-08-10T10:53:22.323Z</time>
      </trkpt>
      <trkpt lat="45.00751" lon="5.56663">
        <ele>2025.9</ele>
        <time>2013-08-10T10:53:33.409Z</time>
      </trkpt>
      <trkpt lat="45.00751" lon="5.56662">
        <ele>2026.7</ele>
        <time>2013-08-10T10:53:34.574Z</time>
      </trkpt>
      <trkpt lat="45.0075" lon="5.56649">
        <ele>2015.2</ele>
        <time>2013-08-10T10:53:48.535Z</time>
      </trkpt>
      <trkpt lat="45.00751" lon="5.56649">
        <ele>2014.6</ele>
        <time>2013-08-10T10:53:49.535Z</time>
      </trkpt>
      <trkpt lat="45.00756" lon="5.5664">
        <ele>2012.4</ele>
        <time>2013-08-10T10:54:03.124Z</time>
      </trkpt>
      <trkpt lat="45.00757" lon="5.56639">
        <ele>2011.4</ele>
        <time>2013-08-10T10:54:04.120Z</time>
      </trkpt>
      <trkpt lat="45.00763" lon="5.56631">
        <ele>2010.7</ele>
        <time>2013-08-10T10:54:15.158Z</time>
      </trkpt>
      <trkpt lat="45.00763" lon="5.56631">
        <ele>2010.5</ele>
        <time>2013-08-10T10:54:16.135Z</time>
      </trkpt>
      <trkpt lat="45.00763" lon="5.56631">
        <ele>2010.8</ele>
        <time>2013-08-10T10:54:17.171Z</time>
      </trkpt>
      <trkpt lat="45.00762" lon="5.56631">
        <ele>2010.7</ele>
        <time>2013-08-10T10:54:18.171Z</time>
      </trkpt>
      <trkpt lat="45.00762" lon="5.56631">
        <ele>2010.6</ele>
        <time>2013-08-10T10:54:20.105Z</time>
      </trkpt>
      <trkpt lat="45.00762" lon="5.56631">
        <ele>2010.1</ele>
        <time>2013-08-10T10:54:21.088Z</time>
      </trkpt>
      <trkpt lat="45.00763" lon="5.56631">
        <ele>2006.8</ele>
        <time>2013-08-10T10:54:24.090Z</time>
      </trkpt>
      <trkpt lat="45.00763" lon="5.5663">
        <ele>2007.6</ele>
        <time>2013-08-10T10:54:25.090Z</time>
      </trkpt>
      <trkpt lat="45.00762" lon="5.56626">
        <ele>2006.9</ele>
        <time>2013-08-10T10:54:31.138Z</time>
      </trkpt>
      <trkpt lat="45.00763" lon="5.56626">
        <ele>2007.5</ele>
        <time>2013-08-10T10:54:32.533Z</time>
      </trkpt>
      <trkpt lat="45.00763" lon="5.56626">
        <ele>2007.6</ele>
        <time>2013-08-10T10:54:35.656Z</time>
      </trkpt>
      <trkpt lat="45.00762" lon="5.56625">
        <ele>2007.9</ele>
        <time>2013-08-10T10:54:36.710Z</time>
      </trkpt>
      <trkpt lat="45.00762" lon="5.56624">
        <ele>2007.6</ele>
        <time>2013-08-10T10:54:39.642Z</time>
      </trkpt>
      <trkpt lat="45.00762" lon="5.56624">
        <ele>2007.4</ele>
        <time>2013-08-10T10:54:40.638Z</time>
      </trkpt>
      <trkpt lat="45.00761" lon="5.56624">
        <ele>2007.9</ele>
        <time>2013-08-10T10:54:44.630Z</time>
      </trkpt>
      <trkpt lat="45.00761" lon="5.56623">
        <ele>2008</ele>
        <time>2013-08-10T10:54:45.638Z</time>
      </trkpt>
      <trkpt lat="45.00761" lon="5.56623">
        <ele>2008</ele>
        <time>2013-08-10T10:54:46.659Z</time>
      </trkpt>
      <trkpt lat="45.00761" lon="5.56623">
        <ele>2007.9</ele>
        <time>2013-08-10T10:54:47.621Z</time>
      </trkpt>
      <trkpt lat="45.00761" lon="5.56623">
        <ele>2008</ele>
        <time>2013-08-10T10:54:49.537Z</time>
      </trkpt>
      <trkpt lat="45.00761" lon="5.56622">
        <ele>2007.8</ele>
        <time>2013-08-10T10:54:50.378Z</time>
      </trkpt>
      <trkpt lat="45.00761" lon="5.56622">
        <ele>2007.7</ele>
        <time>2013-08-10T10:54:51.402Z</time>
      </trkpt>
      <trkpt lat="45.00762" lon="5.56622">
        <ele>2007.7</ele>
        <time>2013-08-10T10:54:53.522Z</time>
      </trkpt>
      <trkpt lat="45.00762" lon="5.56622">
        <ele>2007.5</ele>
        <time>2013-08-10T10:54:54.045Z</time>
      </trkpt>
      <trkpt lat="45.00762" lon="5.56622">
        <ele>2007.4</ele>
        <time>2013-08-10T10:54:54.512Z</time>
      </trkpt>
      <trkpt lat="45.00762" lon="5.56622">
        <ele>2007.4</ele>
        <time>2013-08-10T10:54:55.401Z</time>
      </trkpt>
      <trkpt lat="45.00762" lon="5.56622">
        <ele>2007.4</ele>
        <time>2013-08-10T10:54:56.430Z</time>
      </trkpt>
      <trkpt lat="45.00762" lon="5.56622">
        <ele>2006.6</ele>
        <time>2013-08-10T10:55:00.395Z</time>
      </trkpt>
      <trkpt lat="45.00762" lon="5.56621">
        <ele>2006.2</ele>
        <time>2013-08-10T10:55:01.391Z</time>
      </trkpt>
      <trkpt lat="45.00755" lon="5.56613">
        <ele>2006.8</ele>
        <time>2013-08-10T10:55:22.577Z</time>
      </trkpt>
      <trkpt lat="45.00753" lon="5.56614">
        <ele>2003.6</ele>
        <time>2013-08-10T10:55:23.763Z</time>
      </trkpt>
      <trkpt lat="45.00744" lon="5.56615">
        <ele>2002.7</ele>
        <time>2013-08-10T10:55:34.109Z</time>
      </trkpt>
      <trkpt lat="45.00743" lon="5.56614">
        <ele>2003.1</ele>
        <time>2013-08-10T10:55:34.538Z</time>
      </trkpt>
      <trkpt lat="45.00746" lon="5.56605">
        <ele>2005.1</ele>
        <time>2013-08-10T10:55:44.616Z</time>
      </trkpt>
      <trkpt lat="45.00746" lon="5.56605">
        <ele>2004.9</ele>
        <time>2013-08-10T10:55:45.540Z</time>
      </trkpt>
      <trkpt lat="45.00746" lon="5.56605">
        <ele>2004.5</ele>
        <time>2013-08-10T10:55:46.488Z</time>
      </trkpt>
      <trkpt lat="45.00746" lon="5.56604">
        <ele>2004.4</ele>
        <time>2013-08-10T10:55:47.375Z</time>
      </trkpt>
      <trkpt lat="45.00746" lon="5.56603">
        <ele>2003.9</ele>
        <time>2013-08-10T10:55:49.526Z</time>
      </trkpt>
      <trkpt lat="45.00746" lon="5.56603">
        <ele>2004.1</ele>
        <time>2013-08-10T10:55:51.515Z</time>
      </trkpt>
      <trkpt lat="45.00747" lon="5.56603">
        <ele>2004</ele>
        <time>2013-08-10T10:55:51.554Z</time>
      </trkpt>
      <trkpt lat="45.00747" lon="5.5659">
        <ele>2005.2</ele>
        <time>2013-08-10T10:56:00.717Z</time>
      </trkpt>
      <trkpt lat="45.00746" lon="5.56589">
        <ele>2005.4</ele>
        <time>2013-08-10T10:56:01.487Z</time>
      </trkpt>
      <trkpt lat="45.00749" lon="5.56577">
        <ele>2007.2</ele>
        <time>2013-08-10T10:56:08.637Z</time>
      </trkpt>
      <trkpt lat="45.0075" lon="5.56575">
        <ele>2007.2</ele>
        <time>2013-08-10T10:56:09.638Z</time>
      </trkpt>
      <trkpt lat="45.00756" lon="5.56567">
        <ele>2005.6</ele>
        <time>2013-08-10T10:56:14.082Z</time>
      </trkpt>
      <trkpt lat="45.00757" lon="5.56566">
        <ele>2005.7</ele>
        <time>2013-08-10T10:56:15.083Z</time>
      </trkpt>
      <trkpt lat="45.00763" lon="5.56558">
        <ele>2005</ele>
        <time>2013-08-10T10:56:25.386Z</time>
      </trkpt>
      <trkpt lat="45.00763" lon="5.56557">
        <ele>2004.7</ele>
        <time>2013-08-10T10:56:26.389Z</time>
      </trkpt>
      <trkpt lat="45.00762" lon="5.56556">
        <ele>2005</ele>
        <time>2013-08-10T10:56:29.383Z</time>
      </trkpt>
      <trkpt lat="45.00762" lon="5.56556">
        <ele>2005</ele>
        <time>2013-08-10T10:56:30.381Z</time>
      </trkpt>
      <trkpt lat="45.00762" lon="5.56556">
        <ele>2005</ele>
        <time>2013-08-10T10:56:32.474Z</time>
      </trkpt>
      <trkpt lat="45.00762" lon="5.56556">
        <ele>2004.8</ele>
        <time>2013-08-10T10:56:33.389Z</time>
      </trkpt>
      <trkpt lat="45.00761" lon="5.56548">
        <ele>2000.9</ele>
        <time>2013-08-10T10:56:57.634Z</time>
      </trkpt>
      <trkpt lat="45.00761" lon="5.56548">
        <ele>2001</ele>
        <time>2013-08-10T10:56:58.645Z</time>
      </trkpt>
      <trkpt lat="45.0076" lon="5.56548">
        <ele>2003.1</ele>
        <time>2013-08-10T10:57:01.642Z</time>
      </trkpt>
      <trkpt lat="45.0076" lon="5.56547">
        <ele>2004</ele>
        <time>2013-08-10T10:57:02.357Z</time>
      </trkpt>
      <trkpt lat="45.00756" lon="5.56537">
        <ele>2005.9</ele>
        <time>2013-08-10T10:57:12.628Z</time>
      </trkpt>
      <trkpt lat="45.00755" lon="5.56537">
        <ele>2005.1</ele>
        <time>2013-08-10T10:57:13.636Z</time>
      </trkpt>
      <trkpt lat="45.00755" lon="5.56524">
        <ele>2004.9</ele>
        <time>2013-08-10T10:57:37.390Z</time>
      </trkpt>
      <trkpt lat="45.00756" lon="5.56524">
        <ele>2005.6</ele>
        <time>2013-08-10T10:57:38.388Z</time>
      </trkpt>
      <trkpt lat="45.00759" lon="5.56512">
        <ele>2008.2</ele>
        <time>2013-08-10T10:57:51.392Z</time>
      </trkpt>
      <trkpt lat="45.00758" lon="5.56511">
        <ele>2008.4</ele>
        <time>2013-08-10T10:57:52.385Z</time>
      </trkpt>
      <trkpt lat="45.00757" lon="5.56499">
        <ele>2012.1</ele>
        <time>2013-08-10T10:57:59.441Z</time>
      </trkpt>
      <trkpt lat="45.00755" lon="5.56497">
        <ele>2012.9</ele>
        <time>2013-08-10T10:58:00.394Z</time>
      </trkpt>
      <trkpt lat="45.0075" lon="5.56491">
        <ele>2016.6</ele>
        <time>2013-08-10T10:58:04.473Z</time>
      </trkpt>
      <trkpt lat="45.00748" lon="5.56489">
        <ele>2011.9</ele>
        <time>2013-08-10T10:58:06.519Z</time>
      </trkpt>
      <trkpt lat="45.00742" lon="5.5648">
        <ele>2018.3</ele>
        <time>2013-08-10T10:58:13.439Z</time>
      </trkpt>
      <trkpt lat="45.00741" lon="5.56479">
        <ele>2019.2</ele>
        <time>2013-08-10T10:58:14.392Z</time>
      </trkpt>
      <trkpt lat="45.00737" lon="5.56469">
        <ele>2014.7</ele>
        <time>2013-08-10T10:58:27.520Z</time>
      </trkpt>
      <trkpt lat="45.00736" lon="5.56468">
        <ele>2015.3</ele>
        <time>2013-08-10T10:58:28.016Z</time>
      </trkpt>
      <trkpt lat="45.00732" lon="5.56457">
        <ele>2018.7</ele>
        <time>2013-08-10T10:58:33.507Z</time>
      </trkpt>
      <trkpt lat="45.00731" lon="5.56456">
        <ele>2018.7</ele>
        <time>2013-08-10T10:58:34.549Z</time>
      </trkpt>
      <trkpt lat="45.00728" lon="5.56445">
        <ele>2011.2</ele>
        <time>2013-08-10T10:58:44.395Z</time>
      </trkpt>
      <trkpt lat="45.00728" lon="5.56444">
        <ele>2011.3</ele>
        <time>2013-08-10T10:58:46.491Z</time>
      </trkpt>
      <trkpt lat="45.00727" lon="5.56432">
        <ele>1991.4</ele>
        <time>2013-08-10T10:59:01.393Z</time>
      </trkpt>
      <trkpt lat="45.00727" lon="5.5643">
        <ele>1989.5</ele>
        <time>2013-08-10T10:59:02.393Z</time>
      </trkpt>
      <trkpt lat="45.00732" lon="5.56422">
        <ele>1984.3</ele>
        <time>2013-08-10T10:59:08.395Z</time>
      </trkpt>
      <trkpt lat="45.00733" lon="5.5642">
        <ele>1982.9</ele>
        <time>2013-08-10T10:59:09.545Z</time>
      </trkpt>
      <trkpt lat="45.00736" lon="5.56409">
        <ele>1979.1</ele>
        <time>2013-08-10T10:59:16.440Z</time>
      </trkpt>
      <trkpt lat="45.00736" lon="5.56407">
        <ele>1979.8</ele>
        <time>2013-08-10T10:59:16.453Z</time>
      </trkpt>
      <trkpt lat="45.00739" lon="5.56402">
        <ele>1982.8</ele>
        <time>2013-08-10T10:59:17.449Z</time>
      </trkpt>
      <trkpt lat="45.00743" lon="5.56397">
        <ele>1982.2</ele>
        <time>2013-08-10T10:59:18.514Z</time>
      </trkpt>
      <trkpt lat="45.00749" lon="5.56391">
        <ele>1984.4</ele>
        <time>2013-08-10T10:59:20.397Z</time>
      </trkpt>
      <trkpt lat="45.00752" lon="5.56388">
        <ele>1985.4</ele>
        <time>2013-08-10T10:59:21.521Z</time>
      </trkpt>
      <trkpt lat="45.00758" lon="5.56383">
        <ele>1985.2</ele>
        <time>2013-08-10T10:59:23.452Z</time>
      </trkpt>
      <trkpt lat="45.0076" lon="5.5638">
        <ele>1983.8</ele>
        <time>2013-08-10T10:59:24.396Z</time>
      </trkpt>
      <trkpt lat="45.00766" lon="5.56374">
        <ele>1985.1</ele>
        <time>2013-08-10T10:59:26.395Z</time>
      </trkpt>
      <trkpt lat="45.00769" lon="5.56371">
        <ele>1985.9</ele>
        <time>2013-08-10T10:59:27.397Z</time>
      </trkpt>
      <trkpt lat="45.00774" lon="5.56363">
        <ele>1986.2</ele>
        <time>2013-08-10T10:59:29.395Z</time>
      </trkpt>
      <trkpt lat="45.00776" lon="5.56359">
        <ele>1982.3</ele>
        <time>2013-08-10T10:59:30.395Z</time>
      </trkpt>
      <trkpt lat="45.00779" lon="5.5635">
        <ele>1982.1</ele>
        <time>2013-08-10T10:59:33.396Z</time>
      </trkpt>
      <trkpt lat="45.0078" lon="5.56347">
        <ele>1981.9</ele>
        <time>2013-08-10T10:59:34.393Z</time>
      </trkpt>
      <trkpt lat="45.00777" lon="5.56335">
        <ele>1979.7</ele>
        <time>2013-08-10T10:59:45.533Z</time>
      </trkpt>
      <trkpt lat="45.00776" lon="5.56334">
        <ele>1980.6</ele>
        <time>2013-08-10T10:59:46.412Z</time>
      </trkpt>
      <trkpt lat="45.00772" lon="5.56329">
        <ele>1981.8</ele>
        <time>2013-08-10T10:59:49.528Z</time>
      </trkpt>
      <trkpt lat="45.00769" lon="5.56325">
        <ele>1982.1</ele>
        <time>2013-08-10T10:59:51.515Z</time>
      </trkpt>
      <trkpt lat="45.00763" lon="5.56317">
        <ele>1982</ele>
        <time>2013-08-10T10:59:53.530Z</time>
      </trkpt>
      <trkpt lat="45.0076" lon="5.56313">
        <ele>1981.9</ele>
        <time>2013-08-10T10:59:54.263Z</time>
      </trkpt>
      <trkpt lat="45.00757" lon="5.56309">
        <ele>1981.1</ele>
        <time>2013-08-10T10:59:54.796Z</time>
      </trkpt>
      <trkpt lat="45.00754" lon="5.56303">
        <ele>1984.5</ele>
        <time>2013-08-10T10:59:55.856Z</time>
      </trkpt>
      <trkpt lat="45.00749" lon="5.56296">
        <ele>1984.7</ele>
        <time>2013-08-10T10:59:57.644Z</time>
      </trkpt>
      <trkpt lat="45.00748" lon="5.56293">
        <ele>1983.1</ele>
        <time>2013-08-10T10:59:58.643Z</time>
      </trkpt>
      <trkpt lat="45.00749" lon="5.56282">
        <ele>1982.2</ele>
        <time>2013-08-10T11:00:03.392Z</time>
      </trkpt>
      <trkpt lat="45.0075" lon="5.56279">
        <ele>1981.5</ele>
        <time>2013-08-10T11:00:04.393Z</time>
      </trkpt>
      <trkpt lat="45.00754" lon="5.5627">
        <ele>1983.4</ele>
        <time>2013-08-10T11:00:07.393Z</time>
      </trkpt>
      <trkpt lat="45.00755" lon="5.56266">
        <ele>1983.7</ele>
        <time>2013-08-10T11:00:08.401Z</time>
      </trkpt>
      <trkpt lat="45.0076" lon="5.56256">
        <ele>1979.4</ele>
        <time>2013-08-10T11:00:11.452Z</time>
      </trkpt>
      <trkpt lat="45.00761" lon="5.56252">
        <ele>1979.3</ele>
        <time>2013-08-10T11:00:12.484Z</time>
      </trkpt>
      <trkpt lat="45.00765" lon="5.56243">
        <ele>1979.8</ele>
        <time>2013-08-10T11:00:15.759Z</time>
      </trkpt>
      <trkpt lat="45.00768" lon="5.56241">
        <ele>1979.6</ele>
        <time>2013-08-10T11:00:16.584Z</time>
      </trkpt>
      <trkpt lat="45.00773" lon="5.56236">
        <ele>1979.7</ele>
        <time>2013-08-10T11:00:18.536Z</time>
      </trkpt>
      <trkpt lat="45.00776" lon="5.56232">
        <ele>1979.4</ele>
        <time>2013-08-10T11:00:20.537Z</time>
      </trkpt>
      <trkpt lat="45.0078" lon="5.56222">
        <ele>1981.1</ele>
        <time>2013-08-10T11:00:23.158Z</time>
      </trkpt>
      <trkpt lat="45.00781" lon="5.56219">
        <ele>1981.5</ele>
        <time>2013-08-10T11:00:23.680Z</time>
      </trkpt>
      <trkpt lat="45.00782" lon="5.56209">
        <ele>1976.3</ele>
        <time>2013-08-10T11:00:26.439Z</time>
      </trkpt>
      <trkpt lat="45.00781" lon="5.56205">
        <ele>1974.3</ele>
        <time>2013-08-10T11:00:27.392Z</time>
      </trkpt>
      <trkpt lat="45.00776" lon="5.56195">
        <ele>1970.1</ele>
        <time>2013-08-10T11:00:32.393Z</time>
      </trkpt>
      <trkpt lat="45.00776" lon="5.56193">
        <ele>1969.1</ele>
        <time>2013-08-10T11:00:33.413Z</time>
      </trkpt>
      <trkpt lat="45.00784" lon="5.56189">
        <ele>1967</ele>
        <time>2013-08-10T11:00:40.436Z</time>
      </trkpt>
      <trkpt lat="45.00785" lon="5.56189">
        <ele>1967.1</ele>
        <time>2013-08-10T11:00:41.391Z</time>
      </trkpt>
      <trkpt lat="45.00792" lon="5.56184">
        <ele>1964.3</ele>
        <time>2013-08-10T11:00:48.924Z</time>
      </trkpt>
      <trkpt lat="45.00793" lon="5.56183">
        <ele>1963.2</ele>
        <time>2013-08-10T11:00:50.057Z</time>
      </trkpt>
      <trkpt lat="45.00801" lon="5.56179">
        <ele>1964.2</ele>
        <time>2013-08-10T11:00:55.515Z</time>
      </trkpt>
      <trkpt lat="45.00803" lon="5.56179">
        <ele>1964.1</ele>
        <time>2013-08-10T11:00:56.283Z</time>
      </trkpt>
      <trkpt lat="45.00811" lon="5.56179">
        <ele>1962.8</ele>
        <time>2013-08-10T11:01:02.229Z</time>
      </trkpt>
      <trkpt lat="45.00812" lon="5.56179">
        <ele>1962.5</ele>
        <time>2013-08-10T11:01:03.231Z</time>
      </trkpt>
      <trkpt lat="45.00819" lon="5.56172">
        <ele>1955.4</ele>
        <time>2013-08-10T11:01:12.161Z</time>
      </trkpt>
      <trkpt lat="45.0082" lon="5.56171">
        <ele>1955</ele>
        <time>2013-08-10T11:01:13.158Z</time>
      </trkpt>
      <trkpt lat="45.00828" lon="5.56167">
        <ele>1953.1</ele>
        <time>2013-08-10T11:01:19.394Z</time>
      </trkpt>
      <trkpt lat="45.00829" lon="5.56166">
        <ele>1952.1</ele>
        <time>2013-08-10T11:01:20.417Z</time>
      </trkpt>
      <trkpt lat="45.00836" lon="5.56161">
        <ele>1947.5</ele>
        <time>2013-08-10T11:01:30.446Z</time>
      </trkpt>
      <trkpt lat="45.00837" lon="5.56161">
        <ele>1947.6</ele>
        <time>2013-08-10T11:01:31.412Z</time>
      </trkpt>
      <trkpt lat="45.00846" lon="5.56161">
        <ele>1943.2</ele>
        <time>2013-08-10T11:01:37.550Z</time>
      </trkpt>
      <trkpt lat="45.00847" lon="5.56161">
        <ele>1941.7</ele>
        <time>2013-08-10T11:01:38.630Z</time>
      </trkpt>
      <trkpt lat="45.00854" lon="5.56157">
        <ele>1937.5</ele>
        <time>2013-08-10T11:01:45.505Z</time>
      </trkpt>
      <trkpt lat="45.00855" lon="5.56156">
        <ele>1936.5</ele>
        <time>2013-08-10T11:01:46.506Z</time>
      </trkpt>
      <trkpt lat="45.00863" lon="5.56153">
        <ele>1931</ele>
        <time>2013-08-10T11:01:54.111Z</time>
      </trkpt>
      <trkpt lat="45.00865" lon="5.56152">
        <ele>1931.9</ele>
        <time>2013-08-10T11:01:55.119Z</time>
      </trkpt>
      <trkpt lat="45.00873" lon="5.56147">
        <ele>1932</ele>
        <time>2013-08-10T11:02:00.175Z</time>
      </trkpt>
      <trkpt lat="45.00874" lon="5.56145">
        <ele>1932.5</ele>
        <time>2013-08-10T11:02:01.106Z</time>
      </trkpt>
      <trkpt lat="45.00881" lon="5.56137">
        <ele>1933.6</ele>
        <time>2013-08-10T11:02:06.102Z</time>
      </trkpt>
      <trkpt lat="45.00882" lon="5.56136">
        <ele>1933.9</ele>
        <time>2013-08-10T11:02:06.577Z</time>
      </trkpt>
      <trkpt lat="45.00888" lon="5.56129">
        <ele>1933.1</ele>
        <time>2013-08-10T11:02:11.586Z</time>
      </trkpt>
      <trkpt lat="45.00889" lon="5.56128">
        <ele>1933.1</ele>
        <time>2013-08-10T11:02:12.517Z</time>
      </trkpt>
      <trkpt lat="45.00894" lon="5.56118">
        <ele>1932</ele>
        <time>2013-08-10T11:02:17.392Z</time>
      </trkpt>
      <trkpt lat="45.00895" lon="5.56116">
        <ele>1931.3</ele>
        <time>2013-08-10T11:02:18.392Z</time>
      </trkpt>
      <trkpt lat="45.00896" lon="5.56105">
        <ele>1929.7</ele>
        <time>2013-08-10T11:02:25.511Z</time>
      </trkpt>
      <trkpt lat="45.00897" lon="5.56104">
        <ele>1930</ele>
        <time>2013-08-10T11:02:26.516Z</time>
      </trkpt>
      <trkpt lat="45.00901" lon="5.56095">
        <ele>1929.9</ele>
        <time>2013-08-10T11:02:33.398Z</time>
      </trkpt>
      <trkpt lat="45.00902" lon="5.56093">
        <ele>1929.7</ele>
        <time>2013-08-10T11:02:34.393Z</time>
      </trkpt>
      <trkpt lat="45.00907" lon="5.56084">
        <ele>1930.1</ele>
        <time>2013-08-10T11:02:40.432Z</time>
      </trkpt>
      <trkpt lat="45.00908" lon="5.56082">
        <ele>1929.6</ele>
        <time>2013-08-10T11:02:41.438Z</time>
      </trkpt>
      <trkpt lat="45.00912" lon="5.56073">
        <ele>1930.8</ele>
        <time>2013-08-10T11:02:47.538Z</time>
      </trkpt>
      <trkpt lat="45.00913" lon="5.56071">
        <ele>1930.2</ele>
        <time>2013-08-10T11:02:48.371Z</time>
      </trkpt>
      <trkpt lat="45.00918" lon="5.56062">
        <ele>1929</ele>
        <time>2013-08-10T11:02:54.402Z</time>
      </trkpt>
      <trkpt lat="45.00919" lon="5.5606">
        <ele>1928.5</ele>
        <time>2013-08-10T11:02:54.935Z</time>
      </trkpt>
      <trkpt lat="45.00924" lon="5.5605">
        <ele>1927</ele>
        <time>2013-08-10T11:03:00.394Z</time>
      </trkpt>
      <trkpt lat="45.00925" lon="5.56049">
        <ele>1926.6</ele>
        <time>2013-08-10T11:03:01.398Z</time>
      </trkpt>
      <trkpt lat="45.00928" lon="5.56039">
        <ele>1924</ele>
        <time>2013-08-10T11:03:09.388Z</time>
      </trkpt>
      <trkpt lat="45.00929" lon="5.56037">
        <ele>1924.2</ele>
        <time>2013-08-10T11:03:10.387Z</time>
      </trkpt>
      <trkpt lat="45.00931" lon="5.56027">
        <ele>1922.8</ele>
        <time>2013-08-10T11:03:15.407Z</time>
      </trkpt>
      <trkpt lat="45.00931" lon="5.56024">
        <ele>1923.6</ele>
        <time>2013-08-10T11:03:17.500Z</time>
      </trkpt>
      <trkpt lat="45.00931" lon="5.56013">
        <ele>1923.5</ele>
        <time>2013-08-10T11:03:24.411Z</time>
      </trkpt>
      <trkpt lat="45.00931" lon="5.56011">
        <ele>1923.8</ele>
        <time>2013-08-10T11:03:25.216Z</time>
      </trkpt>
      <trkpt lat="45.00931" lon="5.56">
        <ele>1923.8</ele>
        <time>2013-08-10T11:03:31.518Z</time>
      </trkpt>
      <trkpt lat="45.00931" lon="5.55998">
        <ele>1923</ele>
        <time>2013-08-10T11:03:32.519Z</time>
      </trkpt>
      <trkpt lat="45.00932" lon="5.55986">
        <ele>1921.6</ele>
        <time>2013-08-10T11:03:39.405Z</time>
      </trkpt>
      <trkpt lat="45.00932" lon="5.55984">
        <ele>1921.4</ele>
        <time>2013-08-10T11:03:40.345Z</time>
      </trkpt>
      <trkpt lat="45.00932" lon="5.55973">
        <ele>1919.2</ele>
        <time>2013-08-10T11:03:47.532Z</time>
      </trkpt>
      <trkpt lat="45.00932" lon="5.55971">
        <ele>1916.5</ele>
        <time>2013-08-10T11:03:48.446Z</time>
      </trkpt>
      <trkpt lat="45.00931" lon="5.5596">
        <ele>1914.3</ele>
        <time>2013-08-10T11:03:53.403Z</time>
      </trkpt>
      <trkpt lat="45.00931" lon="5.55957">
        <ele>1916.5</ele>
        <time>2013-08-10T11:03:54.428Z</time>
      </trkpt>
      <trkpt lat="45.00933" lon="5.55946">
        <ele>1917.6</ele>
        <time>2013-08-10T11:03:59.495Z</time>
      </trkpt>
      <trkpt lat="45.00934" lon="5.55944">
        <ele>1917.5</ele>
        <time>2013-08-10T11:04:00.383Z</time>
      </trkpt>
      <trkpt lat="45.00937" lon="5.55933">
        <ele>1918.8</ele>
        <time>2013-08-10T11:04:04.363Z</time>
      </trkpt>
      <trkpt lat="45.00938" lon="5.55929">
        <ele>1919.1</ele>
        <time>2013-08-10T11:04:05.536Z</time>
      </trkpt>
      <trkpt lat="45.0094" lon="5.55918">
        <ele>1922.3</ele>
        <time>2013-08-10T11:04:09.801Z</time>
      </trkpt>
      <trkpt lat="45.00941" lon="5.55915">
        <ele>1922.8</ele>
        <time>2013-08-10T11:04:10.586Z</time>
      </trkpt>
      <trkpt lat="45.00943" lon="5.55906">
        <ele>1922.9</ele>
        <time>2013-08-10T11:04:13.454Z</time>
      </trkpt>
      <trkpt lat="45.00943" lon="5.55902">
        <ele>1923.5</ele>
        <time>2013-08-10T11:04:14.407Z</time>
      </trkpt>
      <trkpt lat="45.00944" lon="5.5589">
        <ele>1925</ele>
        <time>2013-08-10T11:04:18.328Z</time>
      </trkpt>
      <trkpt lat="45.00943" lon="5.55886">
        <ele>1923.7</ele>
        <time>2013-08-10T11:04:19.520Z</time>
      </trkpt>
      <trkpt lat="45.00945" lon="5.55875">
        <ele>1925.7</ele>
        <time>2013-08-10T11:04:24.942Z</time>
      </trkpt>
      <trkpt lat="45.00945" lon="5.55873">
        <ele>1925.9</ele>
        <time>2013-08-10T11:04:25.520Z</time>
      </trkpt>
      <trkpt lat="45.00949" lon="5.55862">
        <ele>1924.7</ele>
        <time>2013-08-10T11:04:31.568Z</time>
      </trkpt>
      <trkpt lat="45.00948" lon="5.5586">
        <ele>1923</ele>
        <time>2013-08-10T11:04:32.521Z</time>
      </trkpt>
      <trkpt lat="45.00949" lon="5.55848">
        <ele>1914.3</ele>
        <time>2013-08-10T11:04:45.520Z</time>
      </trkpt>
      <trkpt lat="45.00948" lon="5.55847">
        <ele>1912</ele>
        <time>2013-08-10T11:04:46.519Z</time>
      </trkpt>
      <trkpt lat="45.00939" lon="5.55843">
        <ele>1904.5</ele>
        <time>2013-08-10T11:04:48.656Z</time>
      </trkpt>
      <trkpt lat="45.00937" lon="5.55842">
        <ele>1902.9</ele>
        <time>2013-08-10T11:04:49.554Z</time>
      </trkpt>
      <trkpt lat="45.00937" lon="5.55829">
        <ele>1886</ele>
        <time>2013-08-10T11:05:02.374Z</time>
      </trkpt>
      <trkpt lat="45.00938" lon="5.55829">
        <ele>1885.9</ele>
        <time>2013-08-10T11:05:03.461Z</time>
      </trkpt>
      <trkpt lat="45.00942" lon="5.55819">
        <ele>1878.7</ele>
        <time>2013-08-10T11:05:11.519Z</time>
      </trkpt>
      <trkpt lat="45.00943" lon="5.55817">
        <ele>1879.1</ele>
        <time>2013-08-10T11:05:13.513Z</time>
      </trkpt>
      <trkpt lat="45.0095" lon="5.5581">
        <ele>1877.9</ele>
        <time>2013-08-10T11:05:18.330Z</time>
      </trkpt>
      <trkpt lat="45.00952" lon="5.55808">
        <ele>1878.9</ele>
        <time>2013-08-10T11:05:19.505Z</time>
      </trkpt>
      <trkpt lat="45.0096" lon="5.5581">
        <ele>1879.2</ele>
        <time>2013-08-10T11:05:27.518Z</time>
      </trkpt>
      <trkpt lat="45.00961" lon="5.5581">
        <ele>1879.1</ele>
        <time>2013-08-10T11:05:28.516Z</time>
      </trkpt>
      <trkpt lat="45.00966" lon="5.55799">
        <ele>1876</ele>
        <time>2013-08-10T11:05:37.471Z</time>
      </trkpt>
      <trkpt lat="45.00967" lon="5.55797">
        <ele>1876.2</ele>
        <time>2013-08-10T11:05:38.441Z</time>
      </trkpt>
      <trkpt lat="45.00973" lon="5.55789">
        <ele>1879.5</ele>
        <time>2013-08-10T11:05:42.568Z</time>
      </trkpt>
      <trkpt lat="45.00974" lon="5.55787">
        <ele>1872.5</ele>
        <time>2013-08-10T11:05:43.418Z</time>
      </trkpt>
      <trkpt lat="45.00972" lon="5.55776">
        <ele>1867.7</ele>
        <time>2013-08-10T11:05:49.483Z</time>
      </trkpt>
      <trkpt lat="45.00972" lon="5.55775">
        <ele>1867.9</ele>
        <time>2013-08-10T11:05:50.537Z</time>
      </trkpt>
      <trkpt lat="45.00979" lon="5.55769">
        <ele>1864</ele>
        <time>2013-08-10T11:05:57.347Z</time>
      </trkpt>
      <trkpt lat="45.00981" lon="5.55768">
        <ele>1865.1</ele>
        <time>2013-08-10T11:05:58.454Z</time>
      </trkpt>
      <trkpt lat="45.0099" lon="5.55765">
        <ele>1868.1</ele>
        <time>2013-08-10T11:06:01.389Z</time>
      </trkpt>
      <trkpt lat="45.00993" lon="5.55764">
        <ele>1869.8</ele>
        <time>2013-08-10T11:06:02.470Z</time>
      </trkpt>
      <trkpt lat="45.00998" lon="5.55762">
        <ele>1872.5</ele>
        <time>2013-08-10T11:06:04.341Z</time>
      </trkpt>
      <trkpt lat="45.01002" lon="5.55761">
        <ele>1874.7</ele>
        <time>2013-08-10T11:06:05.381Z</time>
      </trkpt>
      <trkpt lat="45.01006" lon="5.5576">
        <ele>1875.6</ele>
        <time>2013-08-10T11:06:06.391Z</time>
      </trkpt>
      <trkpt lat="45.01011" lon="5.55758">
        <ele>1878.2</ele>
        <time>2013-08-10T11:06:08.562Z</time>
      </trkpt>
      <trkpt lat="45.01018" lon="5.55754">
        <ele>1878.5</ele>
        <time>2013-08-10T11:06:11.016Z</time>
      </trkpt>
      <trkpt lat="45.01021" lon="5.55752">
        <ele>1878.5</ele>
        <time>2013-08-10T11:06:11.747Z</time>
      </trkpt>
      <trkpt lat="45.01019" lon="5.5574">
        <ele>1871.6</ele>
        <time>2013-08-10T11:06:18.306Z</time>
      </trkpt>
      <trkpt lat="45.01018" lon="5.55739">
        <ele>1870</ele>
        <time>2013-08-10T11:06:19.336Z</time>
      </trkpt>
      <trkpt lat="45.01027" lon="5.55739">
        <ele>1869.1</ele>
        <time>2013-08-10T11:06:27.519Z</time>
      </trkpt>
      <trkpt lat="45.01028" lon="5.55739">
        <ele>1869.2</ele>
        <time>2013-08-10T11:06:28.402Z</time>
      </trkpt>
      <trkpt lat="45.01035" lon="5.55732">
        <ele>1865.1</ele>
        <time>2013-08-10T11:06:36.586Z</time>
      </trkpt>
      <trkpt lat="45.01035" lon="5.55731">
        <ele>1864.1</ele>
        <time>2013-08-10T11:06:37.519Z</time>
      </trkpt>
      <trkpt lat="45.01034" lon="5.55719">
        <ele>1864.9</ele>
        <time>2013-08-10T11:06:45.389Z</time>
      </trkpt>
      <trkpt lat="45.01036" lon="5.55718">
        <ele>1865.2</ele>
        <time>2013-08-10T11:06:46.433Z</time>
      </trkpt>
      <trkpt lat="45.01043" lon="5.55717">
        <ele>1864.9</ele>
        <time>2013-08-10T11:06:49.441Z</time>
      </trkpt>
      <trkpt lat="45.01045" lon="5.55716">
        <ele>1866</ele>
        <time>2013-08-10T11:06:50.445Z</time>
      </trkpt>
      <trkpt lat="45.01051" lon="5.55711">
        <ele>1870</ele>
        <time>2013-08-10T11:06:54.571Z</time>
      </trkpt>
      <trkpt lat="45.01054" lon="5.55709">
        <ele>1870.6</ele>
        <time>2013-08-10T11:06:56.515Z</time>
      </trkpt>
      <trkpt lat="45.0106" lon="5.55701">
        <ele>1876.1</ele>
        <time>2013-08-10T11:07:00.294Z</time>
      </trkpt>
      <trkpt lat="45.01062" lon="5.55699">
        <ele>1877.3</ele>
        <time>2013-08-10T11:07:01.680Z</time>
      </trkpt>
      <trkpt lat="45.0107" lon="5.55693">
        <ele>1879.1</ele>
        <time>2013-08-10T11:07:05.510Z</time>
      </trkpt>
      <trkpt lat="45.0107" lon="5.55693">
        <ele>1880.4</ele>
        <time>2013-08-10T11:07:05.546Z</time>
      </trkpt>
      <trkpt lat="45.01078" lon="5.55687">
        <ele>1881.8</ele>
        <time>2013-08-10T11:07:10.520Z</time>
      </trkpt>
      <trkpt lat="45.01078" lon="5.55685">
        <ele>1880.1</ele>
        <time>2013-08-10T11:07:11.475Z</time>
      </trkpt>
      <trkpt lat="45.01082" lon="5.55676">
        <ele>1876</ele>
        <time>2013-08-10T11:07:17.399Z</time>
      </trkpt>
      <trkpt lat="45.01083" lon="5.55674">
        <ele>1875</ele>
        <time>2013-08-10T11:07:18.507Z</time>
      </trkpt>
      <trkpt lat="45.01088" lon="5.55665">
        <ele>1870.8</ele>
        <time>2013-08-10T11:07:33.578Z</time>
      </trkpt>
      <trkpt lat="45.01089" lon="5.55665">
        <ele>1870.8</ele>
        <time>2013-08-10T11:07:35.576Z</time>
      </trkpt>
      <trkpt lat="45.01089" lon="5.55665">
        <ele>1870.7</ele>
        <time>2013-08-10T11:07:35.971Z</time>
      </trkpt>
      <trkpt lat="45.01087" lon="5.55655">
        <ele>1863.4</ele>
        <time>2013-08-10T11:07:40.512Z</time>
      </trkpt>
      <trkpt lat="45.01086" lon="5.55652">
        <ele>1856.8</ele>
        <time>2013-08-10T11:07:41.578Z</time>
      </trkpt>
      <trkpt lat="45.01083" lon="5.55641">
        <ele>1856</ele>
        <time>2013-08-10T11:07:46.554Z</time>
      </trkpt>
      <trkpt lat="45.01083" lon="5.5564">
        <ele>1852.7</ele>
        <time>2013-08-10T11:07:47.345Z</time>
      </trkpt>
      <trkpt lat="45.01088" lon="5.5563">
        <ele>1851.5</ele>
        <time>2013-08-10T11:07:54.333Z</time>
      </trkpt>
      <trkpt lat="45.01089" lon="5.55629">
        <ele>1852.3</ele>
        <time>2013-08-10T11:07:55.350Z</time>
      </trkpt>
      <trkpt lat="45.01095" lon="5.55624">
        <ele>1855.1</ele>
        <time>2013-08-10T11:07:58.291Z</time>
      </trkpt>
      <trkpt lat="45.01097" lon="5.55622">
        <ele>1854.3</ele>
        <time>2013-08-10T11:07:59.292Z</time>
      </trkpt>
      <trkpt lat="45.01104" lon="5.55615">
        <ele>1853.6</ele>
        <time>2013-08-10T11:08:04.373Z</time>
      </trkpt>
      <trkpt lat="45.01106" lon="5.55613">
        <ele>1854.2</ele>
        <time>2013-08-10T11:08:04.978Z</time>
      </trkpt>
      <trkpt lat="45.01112" lon="5.5561">
        <ele>1853.4</ele>
        <time>2013-08-10T11:08:07.370Z</time>
      </trkpt>
      <trkpt lat="45.01115" lon="5.55608">
        <ele>1853.4</ele>
        <time>2013-08-10T11:08:09.529Z</time>
      </trkpt>
      <trkpt lat="45.01119" lon="5.55597">
        <ele>1852</ele>
        <time>2013-08-10T11:08:15.945Z</time>
      </trkpt>
      <trkpt lat="45.01119" lon="5.55596">
        <ele>1852.4</ele>
        <time>2013-08-10T11:08:16.841Z</time>
      </trkpt>
      <trkpt lat="45.01118" lon="5.5559">
        <ele>1851.9</ele>
        <time>2013-08-10T11:08:23.534Z</time>
      </trkpt>
      <trkpt lat="45.01118" lon="5.5559">
        <ele>1849.7</ele>
        <time>2013-08-10T11:08:25.583Z</time>
      </trkpt>
      <trkpt lat="45.01118" lon="5.55589">
        <ele>1849.6</ele>
        <time>2013-08-10T11:08:26.135Z</time>
      </trkpt>
      <trkpt lat="45.01118" lon="5.55587">
        <ele>1850.1</ele>
        <time>2013-08-10T11:08:29.519Z</time>
      </trkpt>
      <trkpt lat="45.01118" lon="5.55587">
        <ele>1849.7</ele>
        <time>2013-08-10T11:08:30.512Z</time>
      </trkpt>
      <trkpt lat="45.01117" lon="5.55586">
        <ele>1850.2</ele>
        <time>2013-08-10T11:08:34.560Z</time>
      </trkpt>
      <trkpt lat="45.01117" lon="5.55586">
        <ele>1850</ele>
        <time>2013-08-10T11:08:35.041Z</time>
      </trkpt>
      <trkpt lat="45.01117" lon="5.55586">
        <ele>1850.2</ele>
        <time>2013-08-10T11:08:35.601Z</time>
      </trkpt>
      <trkpt lat="45.01117" lon="5.55586">
        <ele>1850</ele>
        <time>2013-08-10T11:08:39.529Z</time>
      </trkpt>
      <trkpt lat="45.01118" lon="5.55585">
        <ele>1850.2</ele>
        <time>2013-08-10T11:08:40.016Z</time>
      </trkpt>
      <trkpt lat="45.01114" lon="5.55574">
        <ele>1852</ele>
        <time>2013-08-10T11:08:56.511Z</time>
      </trkpt>
      <trkpt lat="45.01114" lon="5.55574">
        <ele>1852.6</ele>
        <time>2013-08-10T11:08:57.372Z</time>
      </trkpt>
      <trkpt lat="45.01114" lon="5.55573">
        <ele>1853.7</ele>
        <time>2013-08-10T11:09:01.391Z</time>
      </trkpt>
      <trkpt lat="45.01114" lon="5.55573">
        <ele>1853.6</ele>
        <time>2013-08-10T11:09:02.632Z</time>
      </trkpt>
      <trkpt lat="45.01113" lon="5.5557">
        <ele>1855</ele>
        <time>2013-08-10T11:09:07.672Z</time>
      </trkpt>
      <trkpt lat="45.01113" lon="5.5557">
        <ele>1855.1</ele>
        <time>2013-08-10T11:09:08.608Z</time>
      </trkpt>
      <trkpt lat="45.01113" lon="5.5557">
        <ele>1855.3</ele>
        <time>2013-08-10T11:09:09.358Z</time>
      </trkpt>
      <trkpt lat="45.01113" lon="5.5557">
        <ele>1855.1</ele>
        <time>2013-08-10T11:09:10.367Z</time>
      </trkpt>
      <trkpt lat="45.01114" lon="5.5557">
        <ele>1856</ele>
        <time>2013-08-10T11:09:11.352Z</time>
      </trkpt>
      <trkpt lat="45.01114" lon="5.5557">
        <ele>1855.8</ele>
        <time>2013-08-10T11:09:12.692Z</time>
      </trkpt>
      <trkpt lat="45.01113" lon="5.55569">
        <ele>1853.9</ele>
        <time>2013-08-10T11:09:30.520Z</time>
      </trkpt>
      <trkpt lat="45.01113" lon="5.55569">
        <ele>1853.3</ele>
        <time>2013-08-10T11:09:31.521Z</time>
      </trkpt>
      <trkpt lat="45.01108" lon="5.55561">
        <ele>1840.6</ele>
        <time>2013-08-10T11:09:39.811Z</time>
      </trkpt>
      <trkpt lat="45.01106" lon="5.55559">
        <ele>1838.7</ele>
        <time>2013-08-10T11:09:40.520Z</time>
      </trkpt>
      <trkpt lat="45.01102" lon="5.55548">
        <ele>1829.3</ele>
        <time>2013-08-10T11:09:48.146Z</time>
      </trkpt>
      <trkpt lat="45.01101" lon="5.55547">
        <ele>1825.7</ele>
        <time>2013-08-10T11:09:49.131Z</time>
      </trkpt>
      <trkpt lat="45.01106" lon="5.55538">
        <ele>1814.4</ele>
        <time>2013-08-10T11:10:02.178Z</time>
      </trkpt>
      <trkpt lat="45.01107" lon="5.55537">
        <ele>1813.3</ele>
        <time>2013-08-10T11:10:03.012Z</time>
      </trkpt>
      <trkpt lat="45.01109" lon="5.55526">
        <ele>1806.2</ele>
        <time>2013-08-10T11:10:11.393Z</time>
      </trkpt>
      <trkpt lat="45.01108" lon="5.55524">
        <ele>1806.9</ele>
        <time>2013-08-10T11:10:12.395Z</time>
      </trkpt>
      <trkpt lat="45.01115" lon="5.55523">
        <ele>1811.4</ele>
        <time>2013-08-10T11:10:20.515Z</time>
      </trkpt>
      <trkpt lat="45.01115" lon="5.55523">
        <ele>1811.5</ele>
        <time>2013-08-10T11:10:21.512Z</time>
      </trkpt>
      <trkpt lat="45.01114" lon="5.55522">
        <ele>1810.6</ele>
        <time>2013-08-10T11:10:36.392Z</time>
      </trkpt>
      <trkpt lat="45.01115" lon="5.55522">
        <ele>1809.8</ele>
        <time>2013-08-10T11:10:37.396Z</time>
      </trkpt>
      <trkpt lat="45.01121" lon="5.55517">
        <ele>1816.7</ele>
        <time>2013-08-10T11:10:44.393Z</time>
      </trkpt>
      <trkpt lat="45.01123" lon="5.55516">
        <ele>1817.8</ele>
        <time>2013-08-10T11:10:45.391Z</time>
      </trkpt>
      <trkpt lat="45.01131" lon="5.55512">
        <ele>1819.9</ele>
        <time>2013-08-10T11:10:48.393Z</time>
      </trkpt>
      <trkpt lat="45.01133" lon="5.55511">
        <ele>1820.8</ele>
        <time>2013-08-10T11:10:49.454Z</time>
      </trkpt>
      <trkpt lat="45.0114" lon="5.55505">
        <ele>1826</ele>
        <time>2013-08-10T11:10:53.396Z</time>
      </trkpt>
      <trkpt lat="45.01142" lon="5.55503">
        <ele>1826.4</ele>
        <time>2013-08-10T11:10:55.495Z</time>
      </trkpt>
      <trkpt lat="45.0115" lon="5.55498">
        <ele>1826.1</ele>
        <time>2013-08-10T11:10:58.375Z</time>
      </trkpt>
      <trkpt lat="45.01152" lon="5.55495">
        <ele>1826</ele>
        <time>2013-08-10T11:10:59.374Z</time>
      </trkpt>
      <trkpt lat="45.01159" lon="5.5549">
        <ele>1825.5</ele>
        <time>2013-08-10T11:11:02.568Z</time>
      </trkpt>
      <trkpt lat="45.0116" lon="5.55489">
        <ele>1826.3</ele>
        <time>2013-08-10T11:11:03.398Z</time>
      </trkpt>
      <trkpt lat="45.01169" lon="5.55488">
        <ele>1824.8</ele>
        <time>2013-08-10T11:11:09.393Z</time>
      </trkpt>
      <trkpt lat="45.0117" lon="5.55488">
        <ele>1825.6</ele>
        <time>2013-08-10T11:11:10.393Z</time>
      </trkpt>
      <trkpt lat="45.01176" lon="5.55496">
        <ele>1821.6</ele>
        <time>2013-08-10T11:11:17.839Z</time>
      </trkpt>
      <trkpt lat="45.01176" lon="5.55498">
        <ele>1820.6</ele>
        <time>2013-08-10T11:11:18.829Z</time>
      </trkpt>
      <trkpt lat="45.01176" lon="5.55508">
        <ele>1817.4</ele>
        <time>2013-08-10T11:11:24.394Z</time>
      </trkpt>
      <trkpt lat="45.01176" lon="5.5551">
        <ele>1817.4</ele>
        <time>2013-08-10T11:11:25.527Z</time>
      </trkpt>
      <trkpt lat="45.01176" lon="5.55513">
        <ele>1816</ele>
        <time>2013-08-10T11:11:30.428Z</time>
      </trkpt>
      <trkpt lat="45.01176" lon="5.55513">
        <ele>1816</ele>
        <time>2013-08-10T11:11:31.440Z</time>
      </trkpt>
      <trkpt lat="45.01175" lon="5.55514">
        <ele>1815.8</ele>
        <time>2013-08-10T11:11:33.474Z</time>
      </trkpt>
      <trkpt lat="45.01175" lon="5.55514">
        <ele>1815.6</ele>
        <time>2013-08-10T11:11:34.606Z</time>
      </trkpt>
      <trkpt lat="45.01175" lon="5.55514">
        <ele>1815.6</ele>
        <time>2013-08-10T11:11:36.445Z</time>
      </trkpt>
      <trkpt lat="45.01175" lon="5.55515">
        <ele>1815.8</ele>
        <time>2013-08-10T11:11:37.906Z</time>
      </trkpt>
      <trkpt lat="45.01175" lon="5.55515">
        <ele>1815.8</ele>
        <time>2013-08-10T11:12:16.402Z</time>
      </trkpt>
      <trkpt lat="45.01175" lon="5.55516">
        <ele>1815.9</ele>
        <time>2013-08-10T11:12:17.402Z</time>
      </trkpt>
      <trkpt lat="45.01178" lon="5.55515">
        <ele>1815.2</ele>
        <time>2013-08-10T11:12:26.421Z</time>
      </trkpt>
      <trkpt lat="45.01178" lon="5.55515">
        <ele>1815.2</ele>
        <time>2013-08-10T11:12:27.440Z</time>
      </trkpt>
      <trkpt lat="45.01178" lon="5.55515">
        <ele>1815.2</ele>
        <time>2013-08-10T11:12:28.432Z</time>
      </trkpt>
      <trkpt lat="45.01179" lon="5.55516">
        <ele>1815.2</ele>
        <time>2013-08-10T11:12:29.389Z</time>
      </trkpt>
      <trkpt lat="45.01184" lon="5.55525">
        <ele>1814.7</ele>
        <time>2013-08-10T11:12:37.475Z</time>
      </trkpt>
      <trkpt lat="45.01185" lon="5.55526">
        <ele>1814.2</ele>
        <time>2013-08-10T11:12:38.486Z</time>
      </trkpt>
      <trkpt lat="45.01191" lon="5.55533">
        <ele>1811.4</ele>
        <time>2013-08-10T11:12:46.170Z</time>
      </trkpt>
      <trkpt lat="45.01192" lon="5.55534">
        <ele>1809.6</ele>
        <time>2013-08-10T11:12:46.780Z</time>
      </trkpt>
      <trkpt lat="45.01199" lon="5.55541">
        <ele>1808.5</ele>
        <time>2013-08-10T11:12:54.303Z</time>
      </trkpt>
      <trkpt lat="45.012" lon="5.55542">
        <ele>1808.3</ele>
        <time>2013-08-10T11:12:55.304Z</time>
      </trkpt>
      <trkpt lat="45.01208" lon="5.55544">
        <ele>1807.9</ele>
        <time>2013-08-10T11:13:00.372Z</time>
      </trkpt>
      <trkpt lat="45.0121" lon="5.55545">
        <ele>1807.5</ele>
        <time>2013-08-10T11:13:01.340Z</time>
      </trkpt>
      <trkpt lat="45.01218" lon="5.55548">
        <ele>1803</ele>
        <time>2013-08-10T11:13:08.658Z</time>
      </trkpt>
      <trkpt lat="45.0122" lon="5.55549">
        <ele>1803</ele>
        <time>2013-08-10T11:13:09.635Z</time>
      </trkpt>
      <trkpt lat="45.01227" lon="5.5555">
        <ele>1801.6</ele>
        <time>2013-08-10T11:13:15.302Z</time>
      </trkpt>
      <trkpt lat="45.01229" lon="5.55551">
        <ele>1801.2</ele>
        <time>2013-08-10T11:13:16.343Z</time>
      </trkpt>
      <trkpt lat="45.01236" lon="5.55555">
        <ele>1799.6</ele>
        <time>2013-08-10T11:13:21.313Z</time>
      </trkpt>
      <trkpt lat="45.01237" lon="5.55556">
        <ele>1799.4</ele>
        <time>2013-08-10T11:13:22.321Z</time>
      </trkpt>
      <trkpt lat="45.01245" lon="5.55557">
        <ele>1799.5</ele>
        <time>2013-08-10T11:13:28.521Z</time>
      </trkpt>
      <trkpt lat="45.01246" lon="5.55557">
        <ele>1799.6</ele>
        <time>2013-08-10T11:13:29.457Z</time>
      </trkpt>
      <trkpt lat="45.01254" lon="5.55562">
        <ele>1797</ele>
        <time>2013-08-10T11:13:36.511Z</time>
      </trkpt>
      <trkpt lat="45.01255" lon="5.55562">
        <ele>1794.2</ele>
        <time>2013-08-10T11:13:37.514Z</time>
      </trkpt>
      <trkpt lat="45.01263" lon="5.55565">
        <ele>1790.7</ele>
        <time>2013-08-10T11:13:46.387Z</time>
      </trkpt>
      <trkpt lat="45.01264" lon="5.55565">
        <ele>1790.6</ele>
        <time>2013-08-10T11:13:47.387Z</time>
      </trkpt>
      <trkpt lat="45.01272" lon="5.55572">
        <ele>1794.1</ele>
        <time>2013-08-10T11:13:58.252Z</time>
      </trkpt>
      <trkpt lat="45.01272" lon="5.55572">
        <ele>1793.1</ele>
        <time>2013-08-10T11:13:59.283Z</time>
      </trkpt>
      <trkpt lat="45.0128" lon="5.55575">
        <ele>1791.6</ele>
        <time>2013-08-10T11:14:08.561Z</time>
      </trkpt>
      <trkpt lat="45.01281" lon="5.55575">
        <ele>1793.3</ele>
        <time>2013-08-10T11:14:09.440Z</time>
      </trkpt>
      <trkpt lat="45.01288" lon="5.5558">
        <ele>1794.7</ele>
        <time>2013-08-10T11:14:15.436Z</time>
      </trkpt>
      <trkpt lat="45.0129" lon="5.55581">
        <ele>1794.6</ele>
        <time>2013-08-10T11:14:16.423Z</time>
      </trkpt>
      <trkpt lat="45.01297" lon="5.55588">
        <ele>1793.9</ele>
        <time>2013-08-10T11:14:21.382Z</time>
      </trkpt>
      <trkpt lat="45.01298" lon="5.55589">
        <ele>1793.8</ele>
        <time>2013-08-10T11:14:22.381Z</time>
      </trkpt>
      <trkpt lat="45.01306" lon="5.55595">
        <ele>1795.2</ele>
        <time>2013-08-10T11:14:28.745Z</time>
      </trkpt>
      <trkpt lat="45.01307" lon="5.55596">
        <ele>1795.3</ele>
        <time>2013-08-10T11:14:30.357Z</time>
      </trkpt>
      <trkpt lat="45.01314" lon="5.556">
        <ele>1796.5</ele>
        <time>2013-08-10T11:14:34.515Z</time>
      </trkpt>
      <trkpt lat="45.01316" lon="5.55602">
        <ele>1797.9</ele>
        <time>2013-08-10T11:14:35.393Z</time>
      </trkpt>
      <trkpt lat="45.01323" lon="5.55608">
        <ele>1798.5</ele>
        <time>2013-08-10T11:14:41.590Z</time>
      </trkpt>
      <trkpt lat="45.01324" lon="5.5561">
        <ele>1797.6</ele>
        <time>2013-08-10T11:14:42.580Z</time>
      </trkpt>
      <trkpt lat="45.01331" lon="5.55615">
        <ele>1800.6</ele>
        <time>2013-08-10T11:14:51.514Z</time>
      </trkpt>
      <trkpt lat="45.01333" lon="5.55616">
        <ele>1799.8</ele>
        <time>2013-08-10T11:14:53.561Z</time>
      </trkpt>
      <trkpt lat="45.01341" lon="5.5562">
        <ele>1802.1</ele>
        <time>2013-08-10T11:14:58.846Z</time>
      </trkpt>
      <trkpt lat="45.01343" lon="5.55621">
        <ele>1801.6</ele>
        <time>2013-08-10T11:14:59.795Z</time>
      </trkpt>
      <trkpt lat="45.01352" lon="5.55625">
        <ele>1800.5</ele>
        <time>2013-08-10T11:15:06.383Z</time>
      </trkpt>
      <trkpt lat="45.01353" lon="5.55626">
        <ele>1799.9</ele>
        <time>2013-08-10T11:15:07.384Z</time>
      </trkpt>
      <trkpt lat="45.01361" lon="5.55629">
        <ele>1801.3</ele>
        <time>2013-08-10T11:15:11.742Z</time>
      </trkpt>
      <trkpt lat="45.01363" lon="5.5563">
        <ele>1801.5</ele>
        <time>2013-08-10T11:15:13.512Z</time>
      </trkpt>
      <trkpt lat="45.01371" lon="5.55633">
        <ele>1804.2</ele>
        <time>2013-08-10T11:15:20.061Z</time>
      </trkpt>
      <trkpt lat="45.01372" lon="5.55634">
        <ele>1804.3</ele>
        <time>2013-08-10T11:15:21.113Z</time>
      </trkpt>
      <trkpt lat="45.0138" lon="5.55637">
        <ele>1805.6</ele>
        <time>2013-08-10T11:15:27.299Z</time>
      </trkpt>
      <trkpt lat="45.01382" lon="5.55637">
        <ele>1805.9</ele>
        <time>2013-08-10T11:15:28.301Z</time>
      </trkpt>
      <trkpt lat="45.0139" lon="5.55637">
        <ele>1804.9</ele>
        <time>2013-08-10T11:15:34.421Z</time>
      </trkpt>
      <trkpt lat="45.01391" lon="5.55638">
        <ele>1805.1</ele>
        <time>2013-08-10T11:15:35.428Z</time>
      </trkpt>
      <trkpt lat="45.01398" lon="5.55644">
        <ele>1804.7</ele>
        <time>2013-08-10T11:15:41.494Z</time>
      </trkpt>
      <trkpt lat="45.01399" lon="5.55645">
        <ele>1805.1</ele>
        <time>2013-08-10T11:15:41.533Z</time>
      </trkpt>
      <trkpt lat="45.014" lon="5.55647">
        <ele>1804.7</ele>
        <time>2013-08-10T11:15:45.494Z</time>
      </trkpt>
      <trkpt lat="45.014" lon="5.55647">
        <ele>1804.5</ele>
        <time>2013-08-10T11:15:46.647Z</time>
      </trkpt>
      <trkpt lat="45.014" lon="5.55648">
        <ele>1804.2</ele>
        <time>2013-08-10T11:15:56.256Z</time>
      </trkpt>
      <trkpt lat="45.01401" lon="5.55648">
        <ele>1804.5</ele>
        <time>2013-08-10T11:15:57.253Z</time>
      </trkpt>
      <trkpt lat="45.01408" lon="5.55652">
        <ele>1805.4</ele>
        <time>2013-08-10T11:16:02.513Z</time>
      </trkpt>
      <trkpt lat="45.01409" lon="5.55653">
        <ele>1805</ele>
        <time>2013-08-10T11:16:03.510Z</time>
      </trkpt>
      <trkpt lat="45.01417" lon="5.55656">
        <ele>1804.2</ele>
        <time>2013-08-10T11:16:08.216Z</time>
      </trkpt>
      <trkpt lat="45.01419" lon="5.55657">
        <ele>1805.8</ele>
        <time>2013-08-10T11:16:09.289Z</time>
      </trkpt>
      <trkpt lat="45.01427" lon="5.5566">
        <ele>1808.1</ele>
        <time>2013-08-10T11:16:13.726Z</time>
      </trkpt>
      <trkpt lat="45.01428" lon="5.55661">
        <ele>1808.6</ele>
        <time>2013-08-10T11:16:14.836Z</time>
      </trkpt>
      <trkpt lat="45.01437" lon="5.55664">
        <ele>1807.8</ele>
        <time>2013-08-10T11:16:22.564Z</time>
      </trkpt>
      <trkpt lat="45.01437" lon="5.55665">
        <ele>1806.4</ele>
        <time>2013-08-10T11:16:22.923Z</time>
      </trkpt>
      <trkpt lat="45.01445" lon="5.55667">
        <ele>1806.8</ele>
        <time>2013-08-10T11:16:28.769Z</time>
      </trkpt>
      <trkpt lat="45.01446" lon="5.55667">
        <ele>1807.2</ele>
        <time>2013-08-10T11:16:29.695Z</time>
      </trkpt>
      <trkpt lat="45.01455" lon="5.55669">
        <ele>1804.3</ele>
        <time>2013-08-10T11:16:37.253Z</time>
      </trkpt>
      <trkpt lat="45.01456" lon="5.55669">
        <ele>1804</ele>
        <time>2013-08-10T11:16:37.658Z</time>
      </trkpt>
      <trkpt lat="45.01465" lon="5.55671">
        <ele>1806.5</ele>
        <time>2013-08-10T11:16:42.694Z</time>
      </trkpt>
      <trkpt lat="45.01467" lon="5.55671">
        <ele>1806</ele>
        <time>2013-08-10T11:16:43.519Z</time>
      </trkpt>
      <trkpt lat="45.01475" lon="5.55672">
        <ele>1804.9</ele>
        <time>2013-08-10T11:16:51.091Z</time>
      </trkpt>
      <trkpt lat="45.01476" lon="5.55672">
        <ele>1805.1</ele>
        <time>2013-08-10T11:16:52.219Z</time>
      </trkpt>
      <trkpt lat="45.01485" lon="5.55671">
        <ele>1802.5</ele>
        <time>2013-08-10T11:16:59.091Z</time>
      </trkpt>
      <trkpt lat="45.01486" lon="5.55671">
        <ele>1802.6</ele>
        <time>2013-08-10T11:17:00.175Z</time>
      </trkpt>
      <trkpt lat="45.01493" lon="5.55667">
        <ele>1799.7</ele>
        <time>2013-08-10T11:17:05.511Z</time>
      </trkpt>
      <trkpt lat="45.01494" lon="5.55666">
        <ele>1798.3</ele>
        <time>2013-08-10T11:17:06.555Z</time>
      </trkpt>
      <trkpt lat="45.01502" lon="5.5566">
        <ele>1795.4</ele>
        <time>2013-08-10T11:17:14.885Z</time>
      </trkpt>
      <trkpt lat="45.01503" lon="5.5566">
        <ele>1795</ele>
        <time>2013-08-10T11:17:15.886Z</time>
      </trkpt>
      <trkpt lat="45.0151" lon="5.55653">
        <ele>1792.2</ele>
        <time>2013-08-10T11:17:24.060Z</time>
      </trkpt>
      <trkpt lat="45.01511" lon="5.55652">
        <ele>1793.4</ele>
        <time>2013-08-10T11:17:26.495Z</time>
      </trkpt>
      <trkpt lat="45.0152" lon="5.55648">
        <ele>1789.5</ele>
        <time>2013-08-10T11:17:32.622Z</time>
      </trkpt>
      <trkpt lat="45.0152" lon="5.55648">
        <ele>1791.1</ele>
        <time>2013-08-10T11:17:33.220Z</time>
      </trkpt>
      <trkpt lat="45.01527" lon="5.55644">
        <ele>1790.7</ele>
        <time>2013-08-10T11:17:37.575Z</time>
      </trkpt>
      <trkpt lat="45.0153" lon="5.55644">
        <ele>1790.3</ele>
        <time>2013-08-10T11:17:39.513Z</time>
      </trkpt>
      <trkpt lat="45.01537" lon="5.5564">
        <ele>1788.8</ele>
        <time>2013-08-10T11:17:46.217Z</time>
      </trkpt>
      <trkpt lat="45.01538" lon="5.55639">
        <ele>1788.3</ele>
        <time>2013-08-10T11:17:47.581Z</time>
      </trkpt>
      <trkpt lat="45.01543" lon="5.55629">
        <ele>1787.8</ele>
        <time>2013-08-10T11:17:55.419Z</time>
      </trkpt>
      <trkpt lat="45.01544" lon="5.55628">
        <ele>1786.7</ele>
        <time>2013-08-10T11:17:56.400Z</time>
      </trkpt>
      <trkpt lat="45.01551" lon="5.55624">
        <ele>1786.5</ele>
        <time>2013-08-10T11:18:02.422Z</time>
      </trkpt>
      <trkpt lat="45.01553" lon="5.55623">
        <ele>1785.6</ele>
        <time>2013-08-10T11:18:03.046Z</time>
      </trkpt>
      <trkpt lat="45.01561" lon="5.55619">
        <ele>1783</ele>
        <time>2013-08-10T11:18:08.965Z</time>
      </trkpt>
      <trkpt lat="45.01562" lon="5.55619">
        <ele>1782.9</ele>
        <time>2013-08-10T11:18:09.962Z</time>
      </trkpt>
      <trkpt lat="45.0157" lon="5.55613">
        <ele>1779.4</ele>
        <time>2013-08-10T11:18:15.526Z</time>
      </trkpt>
      <trkpt lat="45.01571" lon="5.55613">
        <ele>1778.8</ele>
        <time>2013-08-10T11:18:16.552Z</time>
      </trkpt>
      <trkpt lat="45.01579" lon="5.5561">
        <ele>1770.7</ele>
        <time>2013-08-10T11:18:26.395Z</time>
      </trkpt>
      <trkpt lat="45.0158" lon="5.55609">
        <ele>1770.6</ele>
        <time>2013-08-10T11:18:27.517Z</time>
      </trkpt>
      <trkpt lat="45.01584" lon="5.55601">
        <ele>1767.3</ele>
        <time>2013-08-10T11:18:31.529Z</time>
      </trkpt>
      <trkpt lat="45.01585" lon="5.55598">
        <ele>1766.6</ele>
        <time>2013-08-10T11:18:32.519Z</time>
      </trkpt>
      <trkpt lat="45.01592" lon="5.55593">
        <ele>1762</ele>
        <time>2013-08-10T11:18:40.389Z</time>
      </trkpt>
      <trkpt lat="45.01593" lon="5.55593">
        <ele>1762.4</ele>
        <time>2013-08-10T11:18:41.388Z</time>
      </trkpt>
      <trkpt lat="45.01599" lon="5.55585">
        <ele>1759</ele>
        <time>2013-08-10T11:18:47.514Z</time>
      </trkpt>
      <trkpt lat="45.016" lon="5.55584">
        <ele>1760.4</ele>
        <time>2013-08-10T11:18:48.590Z</time>
      </trkpt>
      <trkpt lat="45.01608" lon="5.5558">
        <ele>1764.1</ele>
        <time>2013-08-10T11:18:53.513Z</time>
      </trkpt>
      <trkpt lat="45.01609" lon="5.5558">
        <ele>1763.7</ele>
        <time>2013-08-10T11:18:54.511Z</time>
      </trkpt>
      <trkpt lat="45.01618" lon="5.55577">
        <ele>1763.6</ele>
        <time>2013-08-10T11:18:58.571Z</time>
      </trkpt>
      <trkpt lat="45.0162" lon="5.55575">
        <ele>1763</ele>
        <time>2013-08-10T11:18:59.514Z</time>
      </trkpt>
      <trkpt lat="45.01626" lon="5.55567">
        <ele>1761.9</ele>
        <time>2013-08-10T11:19:05.397Z</time>
      </trkpt>
      <trkpt lat="45.01627" lon="5.55565">
        <ele>1761.4</ele>
        <time>2013-08-10T11:19:06.399Z</time>
      </trkpt>
      <trkpt lat="45.01635" lon="5.5556">
        <ele>1760.4</ele>
        <time>2013-08-10T11:19:14.513Z</time>
      </trkpt>
      <trkpt lat="45.01636" lon="5.55559">
        <ele>1760.1</ele>
        <time>2013-08-10T11:19:15.333Z</time>
      </trkpt>
      <trkpt lat="45.01644" lon="5.55556">
        <ele>1759.6</ele>
        <time>2013-08-10T11:19:19.514Z</time>
      </trkpt>
      <trkpt lat="45.01646" lon="5.55555">
        <ele>1760.1</ele>
        <time>2013-08-10T11:19:20.546Z</time>
      </trkpt>
      <trkpt lat="45.01653" lon="5.55549">
        <ele>1761</ele>
        <time>2013-08-10T11:19:26.439Z</time>
      </trkpt>
      <trkpt lat="45.01654" lon="5.55549">
        <ele>1753.3</ele>
        <time>2013-08-10T11:19:27.552Z</time>
      </trkpt>
      <trkpt lat="45.01662" lon="5.55546">
        <ele>1749.6</ele>
        <time>2013-08-10T11:19:35.400Z</time>
      </trkpt>
      <trkpt lat="45.01663" lon="5.55543">
        <ele>1747.8</ele>
        <time>2013-08-10T11:19:36.606Z</time>
      </trkpt>
      <trkpt lat="45.01667" lon="5.55534">
        <ele>1750.9</ele>
        <time>2013-08-10T11:19:42.137Z</time>
      </trkpt>
      <trkpt lat="45.01668" lon="5.55532">
        <ele>1750.5</ele>
        <time>2013-08-10T11:19:43.435Z</time>
      </trkpt>
      <trkpt lat="45.01673" lon="5.55522">
        <ele>1749</ele>
        <time>2013-08-10T11:19:48.582Z</time>
      </trkpt>
      <trkpt lat="45.01674" lon="5.5552">
        <ele>1748.6</ele>
        <time>2013-08-10T11:19:49.515Z</time>
      </trkpt>
      <trkpt lat="45.01677" lon="5.5551">
        <ele>1747</ele>
        <time>2013-08-10T11:19:53.666Z</time>
      </trkpt>
      <trkpt lat="45.01678" lon="5.55508">
        <ele>1746.3</ele>
        <time>2013-08-10T11:19:54.582Z</time>
      </trkpt>
      <trkpt lat="45.01683" lon="5.55497">
        <ele>1743.5</ele>
        <time>2013-08-10T11:20:00.435Z</time>
      </trkpt>
      <trkpt lat="45.01684" lon="5.55496">
        <ele>1743.2</ele>
        <time>2013-08-10T11:20:01.441Z</time>
      </trkpt>
      <trkpt lat="45.01687" lon="5.55486">
        <ele>1747.1</ele>
        <time>2013-08-10T11:20:06.397Z</time>
      </trkpt>
      <trkpt lat="45.01688" lon="5.55484">
        <ele>1747.5</ele>
        <time>2013-08-10T11:20:07.383Z</time>
      </trkpt>
      <trkpt lat="45.01692" lon="5.55474">
        <ele>1750.4</ele>
        <time>2013-08-10T11:20:12.527Z</time>
      </trkpt>
      <trkpt lat="45.01693" lon="5.55472">
        <ele>1750.8</ele>
        <time>2013-08-10T11:20:14.584Z</time>
      </trkpt>
      <trkpt lat="45.01697" lon="5.55462">
        <ele>1750.8</ele>
        <time>2013-08-10T11:20:20.484Z</time>
      </trkpt>
      <trkpt lat="45.01698" lon="5.5546">
        <ele>1750.5</ele>
        <time>2013-08-10T11:20:21.407Z</time>
      </trkpt>
      <trkpt lat="45.01705" lon="5.55454">
        <ele>1748.1</ele>
        <time>2013-08-10T11:20:28.322Z</time>
      </trkpt>
      <trkpt lat="45.01706" lon="5.55453">
        <ele>1748.1</ele>
        <time>2013-08-10T11:20:29.321Z</time>
      </trkpt>
      <trkpt lat="45.01712" lon="5.55446">
        <ele>1753.1</ele>
        <time>2013-08-10T11:20:33.390Z</time>
      </trkpt>
      <trkpt lat="45.01714" lon="5.55443">
        <ele>1753.6</ele>
        <time>2013-08-10T11:20:34.381Z</time>
      </trkpt>
      <trkpt lat="45.01719" lon="5.55436">
        <ele>1754.3</ele>
        <time>2013-08-10T11:20:37.395Z</time>
      </trkpt>
      <trkpt lat="45.0172" lon="5.55434">
        <ele>1753.9</ele>
        <time>2013-08-10T11:20:38.519Z</time>
      </trkpt>
      <trkpt lat="45.01726" lon="5.55427">
        <ele>1753.5</ele>
        <time>2013-08-10T11:20:44.160Z</time>
      </trkpt>
      <trkpt lat="45.01727" lon="5.55426">
        <ele>1753.9</ele>
        <time>2013-08-10T11:20:44.892Z</time>
      </trkpt>
      <trkpt lat="45.01732" lon="5.55418">
        <ele>1749</ele>
        <time>2013-08-10T11:20:50.299Z</time>
      </trkpt>
      <trkpt lat="45.01734" lon="5.55417">
        <ele>1748.7</ele>
        <time>2013-08-10T11:20:51.355Z</time>
      </trkpt>
      <trkpt lat="45.01742" lon="5.55416">
        <ele>1746.5</ele>
        <time>2013-08-10T11:20:57.668Z</time>
      </trkpt>
      <trkpt lat="45.01744" lon="5.55416">
        <ele>1744.8</ele>
        <time>2013-08-10T11:20:58.664Z</time>
      </trkpt>
      <trkpt lat="45.01753" lon="5.55416">
        <ele>1744.1</ele>
        <time>2013-08-10T11:21:04.214Z</time>
      </trkpt>
      <trkpt lat="45.01755" lon="5.55416">
        <ele>1743.7</ele>
        <time>2013-08-10T11:21:05.348Z</time>
      </trkpt>
      <trkpt lat="45.01764" lon="5.55415">
        <ele>1742.9</ele>
        <time>2013-08-10T11:21:09.356Z</time>
      </trkpt>
      <trkpt lat="45.01765" lon="5.55415">
        <ele>1742</ele>
        <time>2013-08-10T11:21:10.225Z</time>
      </trkpt>
      <trkpt lat="45.01772" lon="5.55413">
        <ele>1739.7</ele>
        <time>2013-08-10T11:21:14.718Z</time>
      </trkpt>
      <trkpt lat="45.01774" lon="5.55413">
        <ele>1738.9</ele>
        <time>2013-08-10T11:21:16.526Z</time>
      </trkpt>
      <trkpt lat="45.01781" lon="5.55405">
        <ele>1738.6</ele>
        <time>2013-08-10T11:21:24.441Z</time>
      </trkpt>
      <trkpt lat="45.01782" lon="5.55404">
        <ele>1738.9</ele>
        <time>2013-08-10T11:21:25.609Z</time>
      </trkpt>
      <trkpt lat="45.01789" lon="5.55397">
        <ele>1738.1</ele>
        <time>2013-08-10T11:21:31.521Z</time>
      </trkpt>
      <trkpt lat="45.01791" lon="5.55396">
        <ele>1738.4</ele>
        <time>2013-08-10T11:21:32.331Z</time>
      </trkpt>
      <trkpt lat="45.01796" lon="5.55386">
        <ele>1737.3</ele>
        <time>2013-08-10T11:21:39.008Z</time>
      </trkpt>
      <trkpt lat="45.01797" lon="5.55383">
        <ele>1737.1</ele>
        <time>2013-08-10T11:21:39.732Z</time>
      </trkpt>
      <trkpt lat="45.01799" lon="5.55372">
        <ele>1736.2</ele>
        <time>2013-08-10T11:21:45.358Z</time>
      </trkpt>
      <trkpt lat="45.01799" lon="5.55371">
        <ele>1736.1</ele>
        <time>2013-08-10T11:21:45.406Z</time>
      </trkpt>
      <trkpt lat="45.01802" lon="5.5536">
        <ele>1734.5</ele>
        <time>2013-08-10T11:21:52.867Z</time>
      </trkpt>
      <trkpt lat="45.01802" lon="5.55358">
        <ele>1734.7</ele>
        <time>2013-08-10T11:21:54.521Z</time>
      </trkpt>
      <trkpt lat="45.01806" lon="5.55347">
        <ele>1734.4</ele>
        <time>2013-08-10T11:22:01.521Z</time>
      </trkpt>
      <trkpt lat="45.01807" lon="5.55346">
        <ele>1734.6</ele>
        <time>2013-08-10T11:22:02.346Z</time>
      </trkpt>
      <trkpt lat="45.01808" lon="5.55334">
        <ele>1736.3</ele>
        <time>2013-08-10T11:22:06.330Z</time>
      </trkpt>
      <trkpt lat="45.01809" lon="5.55332">
        <ele>1736.7</ele>
        <time>2013-08-10T11:22:07.467Z</time>
      </trkpt>
      <trkpt lat="45.01814" lon="5.55323">
        <ele>1735.4</ele>
        <time>2013-08-10T11:22:18.977Z</time>
      </trkpt>
      <trkpt lat="45.01815" lon="5.55322">
        <ele>1735.1</ele>
        <time>2013-08-10T11:22:19.991Z</time>
      </trkpt>
      <trkpt lat="45.01822" lon="5.55317">
        <ele>1734.1</ele>
        <time>2013-08-10T11:22:28.170Z</time>
      </trkpt>
      <trkpt lat="45.01823" lon="5.55316">
        <ele>1734.8</ele>
        <time>2013-08-10T11:22:28.718Z</time>
      </trkpt>
      <trkpt lat="45.01824" lon="5.55304">
        <ele>1735.6</ele>
        <time>2013-08-10T11:22:35.548Z</time>
      </trkpt>
      <trkpt lat="45.01825" lon="5.55303">
        <ele>1735.9</ele>
        <time>2013-08-10T11:22:36.369Z</time>
      </trkpt>
      <trkpt lat="45.01832" lon="5.55296">
        <ele>1735.5</ele>
        <time>2013-08-10T11:22:42.420Z</time>
      </trkpt>
      <trkpt lat="45.01833" lon="5.55294">
        <ele>1738</ele>
        <time>2013-08-10T11:22:43.399Z</time>
      </trkpt>
      <trkpt lat="45.01837" lon="5.55283">
        <ele>1742.4</ele>
        <time>2013-08-10T11:22:53.534Z</time>
      </trkpt>
      <trkpt lat="45.01838" lon="5.55282">
        <ele>1742.9</ele>
        <time>2013-08-10T11:22:54.586Z</time>
      </trkpt>
      <trkpt lat="45.01845" lon="5.55275">
        <ele>1742.2</ele>
        <time>2013-08-10T11:22:59.524Z</time>
      </trkpt>
      <trkpt lat="45.01846" lon="5.55273">
        <ele>1741.5</ele>
        <time>2013-08-10T11:23:00.442Z</time>
      </trkpt>
      <trkpt lat="45.01852" lon="5.55266">
        <ele>1742.3</ele>
        <time>2013-08-10T11:23:06.445Z</time>
      </trkpt>
      <trkpt lat="45.01853" lon="5.55264">
        <ele>1742.2</ele>
        <time>2013-08-10T11:23:07.461Z</time>
      </trkpt>
      <trkpt lat="45.01859" lon="5.55254">
        <ele>1743.7</ele>
        <time>2013-08-10T11:23:14.528Z</time>
      </trkpt>
      <trkpt lat="45.01861" lon="5.55253">
        <ele>1743.6</ele>
        <time>2013-08-10T11:23:15.542Z</time>
      </trkpt>
      <trkpt lat="45.01868" lon="5.55247">
        <ele>1739.8</ele>
        <time>2013-08-10T11:23:25.522Z</time>
      </trkpt>
      <trkpt lat="45.01869" lon="5.55245">
        <ele>1739.1</ele>
        <time>2013-08-10T11:23:26.340Z</time>
      </trkpt>
      <trkpt lat="45.01873" lon="5.55236">
        <ele>1735.5</ele>
        <time>2013-08-10T11:23:32.301Z</time>
      </trkpt>
      <trkpt lat="45.01874" lon="5.55234">
        <ele>1735.3</ele>
        <time>2013-08-10T11:23:33.534Z</time>
      </trkpt>
      <trkpt lat="45.01872" lon="5.55223">
        <ele>1732.5</ele>
        <time>2013-08-10T11:23:38.223Z</time>
      </trkpt>
      <trkpt lat="45.01872" lon="5.55221">
        <ele>1729.1</ele>
        <time>2013-08-10T11:23:39.100Z</time>
      </trkpt>
      <trkpt lat="45.0187" lon="5.5521">
        <ele>1724.9</ele>
        <time>2013-08-10T11:23:43.506Z</time>
      </trkpt>
      <trkpt lat="45.0187" lon="5.55208">
        <ele>1725.3</ele>
        <time>2013-08-10T11:23:44.414Z</time>
      </trkpt>
      <trkpt lat="45.01871" lon="5.55196">
        <ele>1714.8</ele>
        <time>2013-08-10T11:23:51.403Z</time>
      </trkpt>
      <trkpt lat="45.01871" lon="5.55195">
        <ele>1713.2</ele>
        <time>2013-08-10T11:23:52.498Z</time>
      </trkpt>
      <trkpt lat="45.0187" lon="5.55183">
        <ele>1704.3</ele>
        <time>2013-08-10T11:24:01.458Z</time>
      </trkpt>
      <trkpt lat="45.0187" lon="5.55182">
        <ele>1702</ele>
        <time>2013-08-10T11:24:02.423Z</time>
      </trkpt>
      <trkpt lat="45.0187" lon="5.5517">
        <ele>1691.9</ele>
        <time>2013-08-10T11:24:10.435Z</time>
      </trkpt>
      <trkpt lat="45.01869" lon="5.55168">
        <ele>1691.2</ele>
        <time>2013-08-10T11:24:11.435Z</time>
      </trkpt>
      <trkpt lat="45.01871" lon="5.55158">
        <ele>1694.2</ele>
        <time>2013-08-10T11:24:25.595Z</time>
      </trkpt>
      <trkpt lat="45.01871" lon="5.55156">
        <ele>1693.5</ele>
        <time>2013-08-10T11:24:26.537Z</time>
      </trkpt>
      <trkpt lat="45.01871" lon="5.55152">
        <ele>1694.2</ele>
        <time>2013-08-10T11:24:33.439Z</time>
      </trkpt>
      <trkpt lat="45.01871" lon="5.55152">
        <ele>1694</ele>
        <time>2013-08-10T11:24:34.388Z</time>
      </trkpt>
      <trkpt lat="45.01871" lon="5.55152">
        <ele>1693.3</ele>
        <time>2013-08-10T11:24:44.576Z</time>
      </trkpt>
      <trkpt lat="45.01872" lon="5.55153">
        <ele>1692</ele>
        <time>2013-08-10T11:24:45.535Z</time>
      </trkpt>
      <trkpt lat="45.0188" lon="5.55148">
        <ele>1689.3</ele>
        <time>2013-08-10T11:24:59.346Z</time>
      </trkpt>
      <trkpt lat="45.0188" lon="5.55148">
        <ele>1689</ele>
        <time>2013-08-10T11:25:00.558Z</time>
      </trkpt>
      <trkpt lat="45.0188" lon="5.55148">
        <ele>1688.7</ele>
        <time>2013-08-10T11:25:04.405Z</time>
      </trkpt>
      <trkpt lat="45.01879" lon="5.55148">
        <ele>1688.4</ele>
        <time>2013-08-10T11:25:05.475Z</time>
      </trkpt>
      <trkpt lat="45.01873" lon="5.55138">
        <ele>1675.1</ele>
        <time>2013-08-10T11:25:14.343Z</time>
      </trkpt>
      <trkpt lat="45.01873" lon="5.55136">
        <ele>1675.3</ele>
        <time>2013-08-10T11:25:15.452Z</time>
      </trkpt>
      <trkpt lat="45.0187" lon="5.55125">
        <ele>1665.3</ele>
        <time>2013-08-10T11:25:20.533Z</time>
      </trkpt>
      <trkpt lat="45.01869" lon="5.55124">
        <ele>1664.7</ele>
        <time>2013-08-10T11:25:22.522Z</time>
      </trkpt>
      <trkpt lat="45.01866" lon="5.55113">
        <ele>1658</ele>
        <time>2013-08-10T11:25:40.428Z</time>
      </trkpt>
      <trkpt lat="45.01866" lon="5.55111">
        <ele>1658.1</ele>
        <time>2013-08-10T11:25:41.368Z</time>
      </trkpt>
      <trkpt lat="45.01867" lon="5.551">
        <ele>1655.1</ele>
        <time>2013-08-10T11:25:52.536Z</time>
      </trkpt>
      <trkpt lat="45.01868" lon="5.55099">
        <ele>1655</ele>
        <time>2013-08-10T11:25:53.518Z</time>
      </trkpt>
      <trkpt lat="45.01867" lon="5.55087">
        <ele>1658</ele>
        <time>2013-08-10T11:26:05.396Z</time>
      </trkpt>
      <trkpt lat="45.01867" lon="5.55086">
        <ele>1659.5</ele>
        <time>2013-08-10T11:26:06.353Z</time>
      </trkpt>
      <trkpt lat="45.01872" lon="5.55076">
        <ele>1651.6</ele>
        <time>2013-08-10T11:26:13.575Z</time>
      </trkpt>
      <trkpt lat="45.01872" lon="5.55075">
        <ele>1651.7</ele>
        <time>2013-08-10T11:26:15.518Z</time>
      </trkpt>
      <trkpt lat="45.01874" lon="5.55073">
        <ele>1652.6</ele>
        <time>2013-08-10T11:26:21.401Z</time>
      </trkpt>
      <trkpt lat="45.01874" lon="5.55073">
        <ele>1653.6</ele>
        <time>2013-08-10T11:26:22.536Z</time>
      </trkpt>
      <trkpt lat="45.01874" lon="5.55073">
        <ele>1654.1</ele>
        <time>2013-08-10T11:26:25.517Z</time>
      </trkpt>
      <trkpt lat="45.01874" lon="5.55073">
        <ele>1653.8</ele>
        <time>2013-08-10T11:26:26.403Z</time>
      </trkpt>
      <trkpt lat="45.01881" lon="5.55065">
        <ele>1652.5</ele>
        <time>2013-08-10T11:26:34.458Z</time>
      </trkpt>
      <trkpt lat="45.01882" lon="5.55063">
        <ele>1652.7</ele>
        <time>2013-08-10T11:26:35.687Z</time>
      </trkpt>
      <trkpt lat="45.01889" lon="5.55056">
        <ele>1662.8</ele>
        <time>2013-08-10T11:26:44.698Z</time>
      </trkpt>
      <trkpt lat="45.01891" lon="5.55055">
        <ele>1663.8</ele>
        <time>2013-08-10T11:26:46.585Z</time>
      </trkpt>
      <trkpt lat="45.01898" lon="5.55051">
        <ele>1669.1</ele>
        <time>2013-08-10T11:26:50.578Z</time>
      </trkpt>
      <trkpt lat="45.019" lon="5.5505">
        <ele>1669</ele>
        <time>2013-08-10T11:26:51.521Z</time>
      </trkpt>
      <trkpt lat="45.01903" lon="5.55041">
        <ele>1666.1</ele>
        <time>2013-08-10T11:27:00.392Z</time>
      </trkpt>
      <trkpt lat="45.01903" lon="5.55041">
        <ele>1665.6</ele>
        <time>2013-08-10T11:27:01.332Z</time>
      </trkpt>
      <trkpt lat="45.01903" lon="5.55041">
        <ele>1665.9</ele>
        <time>2013-08-10T11:27:02.418Z</time>
      </trkpt>
      <trkpt lat="45.01903" lon="5.55041">
        <ele>1665.7</ele>
        <time>2013-08-10T11:27:03.351Z</time>
      </trkpt>
      <trkpt lat="45.01904" lon="5.5504">
        <ele>1665.3</ele>
        <time>2013-08-10T11:27:04.443Z</time>
      </trkpt>
      <trkpt lat="45.01904" lon="5.5504">
        <ele>1665.1</ele>
        <time>2013-08-10T11:27:07.754Z</time>
      </trkpt>
      <trkpt lat="45.01904" lon="5.5504">
        <ele>1665.2</ele>
        <time>2013-08-10T11:27:08.577Z</time>
      </trkpt>
      <trkpt lat="45.01905" lon="5.5504">
        <ele>1664.3</ele>
        <time>2013-08-10T11:27:09.638Z</time>
      </trkpt>
      <trkpt lat="45.01905" lon="5.5504">
        <ele>1663.9</ele>
        <time>2013-08-10T11:27:10.599Z</time>
      </trkpt>
      <trkpt lat="45.01905" lon="5.55039">
        <ele>1662.6</ele>
        <time>2013-08-10T11:27:14.460Z</time>
      </trkpt>
      <trkpt lat="45.01905" lon="5.55039">
        <ele>1662.2</ele>
        <time>2013-08-10T11:27:15.761Z</time>
      </trkpt>
      <trkpt lat="45.01907" lon="5.55035">
        <ele>1657.8</ele>
        <time>2013-08-10T11:27:22.601Z</time>
      </trkpt>
      <trkpt lat="45.01908" lon="5.55035">
        <ele>1657.7</ele>
        <time>2013-08-10T11:27:23.517Z</time>
      </trkpt>
      <trkpt lat="45.01908" lon="5.55035">
        <ele>1657.7</ele>
        <time>2013-08-10T11:27:25.495Z</time>
      </trkpt>
      <trkpt lat="45.01908" lon="5.55034">
        <ele>1657.8</ele>
        <time>2013-08-10T11:27:26.348Z</time>
      </trkpt>
      <trkpt lat="45.01915" lon="5.55027">
        <ele>1652.3</ele>
        <time>2013-08-10T11:27:42.326Z</time>
      </trkpt>
      <trkpt lat="45.01915" lon="5.55027">
        <ele>1652</ele>
        <time>2013-08-10T11:27:43.369Z</time>
      </trkpt>
      <trkpt lat="45.01916" lon="5.55027">
        <ele>1651.8</ele>
        <time>2013-08-10T11:28:14.626Z</time>
      </trkpt>
      <trkpt lat="45.01916" lon="5.55026">
        <ele>1651.5</ele>
        <time>2013-08-10T11:28:15.450Z</time>
      </trkpt>
      <trkpt lat="45.01923" lon="5.55024">
        <ele>1651.2</ele>
        <time>2013-08-10T11:28:28.395Z</time>
      </trkpt>
      <trkpt lat="45.01923" lon="5.55024">
        <ele>1651.3</ele>
        <time>2013-08-10T11:28:29.449Z</time>
      </trkpt>
      <trkpt lat="45.01924" lon="5.55023">
        <ele>1649.4</ele>
        <time>2013-08-10T11:28:55.431Z</time>
      </trkpt>
      <trkpt lat="45.01925" lon="5.55022">
        <ele>1647.1</ele>
        <time>2013-08-10T11:28:57.545Z</time>
      </trkpt>
      <trkpt lat="45.01926" lon="5.55011">
        <ele>1640.1</ele>
        <time>2013-08-10T11:29:11.396Z</time>
      </trkpt>
      <trkpt lat="45.01926" lon="5.55011">
        <ele>1639.9</ele>
        <time>2013-08-10T11:29:12.488Z</time>
      </trkpt>
      <trkpt lat="45.01927" lon="5.55011">
        <ele>1639.7</ele>
        <time>2013-08-10T11:29:21.448Z</time>
      </trkpt>
      <trkpt lat="45.01927" lon="5.5501">
        <ele>1638.2</ele>
        <time>2013-08-10T11:29:22.428Z</time>
      </trkpt>
      <trkpt lat="45.01934" lon="5.55001">
        <ele>1636.1</ele>
        <time>2013-08-10T11:29:27.398Z</time>
      </trkpt>
      <trkpt lat="45.01935" lon="5.55">
        <ele>1636.7</ele>
        <time>2013-08-10T11:29:28.446Z</time>
      </trkpt>
      <trkpt lat="45.01942" lon="5.54991">
        <ele>1637.8</ele>
        <time>2013-08-10T11:29:32.531Z</time>
      </trkpt>
      <trkpt lat="45.01942" lon="5.54991">
        <ele>1637.4</ele>
        <time>2013-08-10T11:29:33.520Z</time>
      </trkpt>
      <trkpt lat="45.01948" lon="5.54982">
        <ele>1639.5</ele>
        <time>2013-08-10T11:29:42.431Z</time>
      </trkpt>
      <trkpt lat="45.01948" lon="5.54981">
        <ele>1640.1</ele>
        <time>2013-08-10T11:29:43.407Z</time>
      </trkpt>
      <trkpt lat="45.01952" lon="5.5497">
        <ele>1638.6</ele>
        <time>2013-08-10T11:29:54.541Z</time>
      </trkpt>
      <trkpt lat="45.01952" lon="5.54969">
        <ele>1639.1</ele>
        <time>2013-08-10T11:29:55.523Z</time>
      </trkpt>
      <trkpt lat="45.01956" lon="5.5496">
        <ele>1636.5</ele>
        <time>2013-08-10T11:30:08.519Z</time>
      </trkpt>
      <trkpt lat="45.01957" lon="5.54958">
        <ele>1636.3</ele>
        <time>2013-08-10T11:30:09.594Z</time>
      </trkpt>
      <trkpt lat="45.0196" lon="5.54947">
        <ele>1636.3</ele>
        <time>2013-08-10T11:30:23.423Z</time>
      </trkpt>
      <trkpt lat="45.01961" lon="5.54946">
        <ele>1636.4</ele>
        <time>2013-08-10T11:30:24.390Z</time>
      </trkpt>
      <trkpt lat="45.01967" lon="5.54938">
        <ele>1630.8</ele>
        <time>2013-08-10T11:30:40.513Z</time>
      </trkpt>
      <trkpt lat="45.01967" lon="5.54937">
        <ele>1630.5</ele>
        <time>2013-08-10T11:30:41.307Z</time>
      </trkpt>
      <trkpt lat="45.01973" lon="5.54928">
        <ele>1632.7</ele>
        <time>2013-08-10T11:30:55.373Z</time>
      </trkpt>
      <trkpt lat="45.01973" lon="5.54928">
        <ele>1631.7</ele>
        <time>2013-08-10T11:30:56.416Z</time>
      </trkpt>
      <trkpt lat="45.01975" lon="5.54926">
        <ele>1631.3</ele>
        <time>2013-08-10T11:31:02.408Z</time>
      </trkpt>
      <trkpt lat="45.01975" lon="5.54926">
        <ele>1631.1</ele>
        <time>2013-08-10T11:31:04.433Z</time>
      </trkpt>
      <trkpt lat="45.01975" lon="5.54925">
        <ele>1631.2</ele>
        <time>2013-08-10T11:31:06.394Z</time>
      </trkpt>
      <trkpt lat="45.01976" lon="5.54925">
        <ele>1631.9</ele>
        <time>2013-08-10T11:31:06.778Z</time>
      </trkpt>
      <trkpt lat="45.01977" lon="5.54922">
        <ele>1631.3</ele>
        <time>2013-08-10T11:31:11.417Z</time>
      </trkpt>
      <trkpt lat="45.01977" lon="5.54923">
        <ele>1631.3</ele>
        <time>2013-08-10T11:31:12.380Z</time>
      </trkpt>
      <trkpt lat="45.01977" lon="5.54922">
        <ele>1631.3</ele>
        <time>2013-08-10T11:31:25.427Z</time>
      </trkpt>
      <trkpt lat="45.01978" lon="5.54921">
        <ele>1628.6</ele>
        <time>2013-08-10T11:31:26.362Z</time>
      </trkpt>
      <trkpt lat="45.01982" lon="5.54915">
        <ele>1625.6</ele>
        <time>2013-08-10T11:31:28.407Z</time>
      </trkpt>
      <trkpt lat="45.01985" lon="5.54912">
        <ele>1625.3</ele>
        <time>2013-08-10T11:31:29.568Z</time>
      </trkpt>
      <trkpt lat="45.01992" lon="5.54904">
        <ele>1624.3</ele>
        <time>2013-08-10T11:31:34.497Z</time>
      </trkpt>
      <trkpt lat="45.01992" lon="5.54903">
        <ele>1625</ele>
        <time>2013-08-10T11:31:35.434Z</time>
      </trkpt>
      <trkpt lat="45.01993" lon="5.54902">
        <ele>1624.5</ele>
        <time>2013-08-10T11:31:40.363Z</time>
      </trkpt>
      <trkpt lat="45.01993" lon="5.54902">
        <ele>1624.5</ele>
        <time>2013-08-10T11:31:42.511Z</time>
      </trkpt>
      <trkpt lat="45.01992" lon="5.54902">
        <ele>1624.5</ele>
        <time>2013-08-10T11:31:42.554Z</time>
      </trkpt>
      <trkpt lat="45.01993" lon="5.54902">
        <ele>1624.4</ele>
        <time>2013-08-10T11:31:43.456Z</time>
      </trkpt>
      <trkpt lat="45.02" lon="5.54897">
        <ele>1620.6</ele>
        <time>2013-08-10T11:31:47.005Z</time>
      </trkpt>
      <trkpt lat="45.02001" lon="5.54895">
        <ele>1620</ele>
        <time>2013-08-10T11:31:47.345Z</time>
      </trkpt>
      <trkpt lat="45.02006" lon="5.54886">
        <ele>1617.4</ele>
        <time>2013-08-10T11:31:59.426Z</time>
      </trkpt>
      <trkpt lat="45.02006" lon="5.54886">
        <ele>1617.4</ele>
        <time>2013-08-10T11:32:00.383Z</time>
      </trkpt>
      <trkpt lat="45.02006" lon="5.54886">
        <ele>1617.1</ele>
        <time>2013-08-10T11:32:15.406Z</time>
      </trkpt>
      <trkpt lat="45.02007" lon="5.54886">
        <ele>1615.3</ele>
        <time>2013-08-10T11:32:16.383Z</time>
      </trkpt>
      <trkpt lat="45.02014" lon="5.54886">
        <ele>1611.5</ele>
        <time>2013-08-10T11:32:19.362Z</time>
      </trkpt>
      <trkpt lat="45.02016" lon="5.54886">
        <ele>1611.5</ele>
        <time>2013-08-10T11:32:20.421Z</time>
      </trkpt>
      <trkpt lat="45.02025" lon="5.54885">
        <ele>1606.5</ele>
        <time>2013-08-10T11:32:24.465Z</time>
      </trkpt>
      <trkpt lat="45.02026" lon="5.54885">
        <ele>1606</ele>
        <time>2013-08-10T11:32:25.405Z</time>
      </trkpt>
      <trkpt lat="45.02029" lon="5.54882">
        <ele>1603.9</ele>
        <time>2013-08-10T11:32:35.576Z</time>
      </trkpt>
      <trkpt lat="45.02029" lon="5.54882">
        <ele>1603.9</ele>
        <time>2013-08-10T11:32:36.446Z</time>
      </trkpt>
      <trkpt lat="45.02028" lon="5.54882">
        <ele>1603.6</ele>
        <time>2013-08-10T11:32:46.543Z</time>
      </trkpt>
      <trkpt lat="45.02029" lon="5.54881">
        <ele>1601.7</ele>
        <time>2013-08-10T11:32:47.394Z</time>
      </trkpt>
      <trkpt lat="45.02035" lon="5.54876">
        <ele>1596.3</ele>
        <time>2013-08-10T11:32:50.521Z</time>
      </trkpt>
      <trkpt lat="45.02038" lon="5.54875">
        <ele>1593.8</ele>
        <time>2013-08-10T11:32:51.522Z</time>
      </trkpt>
      <trkpt lat="45.02046" lon="5.54874">
        <ele>1593</ele>
        <time>2013-08-10T11:32:54.534Z</time>
      </trkpt>
      <trkpt lat="45.02048" lon="5.54873">
        <ele>1592</ele>
        <time>2013-08-10T11:32:55.575Z</time>
      </trkpt>
      <trkpt lat="45.02056" lon="5.5487">
        <ele>1589.5</ele>
        <time>2013-08-10T11:33:00.340Z</time>
      </trkpt>
      <trkpt lat="45.02057" lon="5.54869">
        <ele>1589.7</ele>
        <time>2013-08-10T11:33:01.410Z</time>
      </trkpt>
      <trkpt lat="45.02063" lon="5.5486">
        <ele>1587.7</ele>
        <time>2013-08-10T11:33:06.381Z</time>
      </trkpt>
      <trkpt lat="45.02063" lon="5.54858">
        <ele>1587</ele>
        <time>2013-08-10T11:33:07.348Z</time>
      </trkpt>
      <trkpt lat="45.02062" lon="5.54845">
        <ele>1585.7</ele>
        <time>2013-08-10T11:33:14.529Z</time>
      </trkpt>
      <trkpt lat="45.02062" lon="5.54843">
        <ele>1585.6</ele>
        <time>2013-08-10T11:33:15.522Z</time>
      </trkpt>
      <trkpt lat="45.02063" lon="5.54832">
        <ele>1586</ele>
        <time>2013-08-10T11:33:21.426Z</time>
      </trkpt>
      <trkpt lat="45.02063" lon="5.5483">
        <ele>1585.3</ele>
        <time>2013-08-10T11:33:22.407Z</time>
      </trkpt>
      <trkpt lat="45.02068" lon="5.5482">
        <ele>1583.7</ele>
        <time>2013-08-10T11:33:34.521Z</time>
      </trkpt>
      <trkpt lat="45.02069" lon="5.54818">
        <ele>1584.3</ele>
        <time>2013-08-10T11:33:35.520Z</time>
      </trkpt>
      <trkpt lat="45.02067" lon="5.54808">
        <ele>1584.1</ele>
        <time>2013-08-10T11:33:47.441Z</time>
      </trkpt>
      <trkpt lat="45.02067" lon="5.54808">
        <ele>1584</ele>
        <time>2013-08-10T11:33:48.449Z</time>
      </trkpt>
      <trkpt lat="45.02068" lon="5.54809">
        <ele>1584.3</ele>
        <time>2013-08-10T11:33:52.384Z</time>
      </trkpt>
      <trkpt lat="45.02068" lon="5.54809">
        <ele>1580</ele>
        <time>2013-08-10T11:33:53.548Z</time>
      </trkpt>
      <trkpt lat="45.02077" lon="5.54808">
        <ele>1572.1</ele>
        <time>2013-08-10T11:34:14.386Z</time>
      </trkpt>
      <trkpt lat="45.02078" lon="5.54807">
        <ele>1572.2</ele>
        <time>2013-08-10T11:34:15.520Z</time>
      </trkpt>
      <trkpt lat="45.02085" lon="5.548">
        <ele>1569.6</ele>
        <time>2013-08-10T11:34:20.528Z</time>
      </trkpt>
      <trkpt lat="45.02086" lon="5.548">
        <ele>1568.9</ele>
        <time>2013-08-10T11:34:21.522Z</time>
      </trkpt>
      <trkpt lat="45.02094" lon="5.54795">
        <ele>1563.8</ele>
        <time>2013-08-10T11:34:34.368Z</time>
      </trkpt>
      <trkpt lat="45.02095" lon="5.54794">
        <ele>1563.9</ele>
        <time>2013-08-10T11:34:35.522Z</time>
      </trkpt>
      <trkpt lat="45.02102" lon="5.54788">
        <ele>1563.1</ele>
        <time>2013-08-10T11:34:39.440Z</time>
      </trkpt>
      <trkpt lat="45.02104" lon="5.54787">
        <ele>1563</ele>
        <time>2013-08-10T11:34:40.521Z</time>
      </trkpt>
      <trkpt lat="45.02108" lon="5.54776">
        <ele>1560.8</ele>
        <time>2013-08-10T11:34:49.416Z</time>
      </trkpt>
      <trkpt lat="45.02108" lon="5.54775">
        <ele>1561.4</ele>
        <time>2013-08-10T11:34:50.414Z</time>
      </trkpt>
      <trkpt lat="45.02115" lon="5.54768">
        <ele>1559.3</ele>
        <time>2013-08-10T11:34:58.535Z</time>
      </trkpt>
      <trkpt lat="45.02116" lon="5.54767">
        <ele>1560</ele>
        <time>2013-08-10T11:34:59.518Z</time>
      </trkpt>
      <trkpt lat="45.02122" lon="5.5476">
        <ele>1557.4</ele>
        <time>2013-08-10T11:35:09.456Z</time>
      </trkpt>
      <trkpt lat="45.02124" lon="5.54758">
        <ele>1556.9</ele>
        <time>2013-08-10T11:35:10.387Z</time>
      </trkpt>
      <trkpt lat="45.02131" lon="5.54751">
        <ele>1555.7</ele>
        <time>2013-08-10T11:35:18.540Z</time>
      </trkpt>
      <trkpt lat="45.0213" lon="5.54751">
        <ele>1555.7</ele>
        <time>2013-08-10T11:35:19.521Z</time>
      </trkpt>
      <trkpt lat="45.02129" lon="5.54752">
        <ele>1555.6</ele>
        <time>2013-08-10T11:35:21.537Z</time>
      </trkpt>
      <trkpt lat="45.02136" lon="5.54756">
        <ele>1552.7</ele>
        <time>2013-08-10T11:35:31.345Z</time>
      </trkpt>
      <trkpt lat="45.02138" lon="5.54756">
        <ele>1552.8</ele>
        <time>2013-08-10T11:35:32.393Z</time>
      </trkpt>
      <trkpt lat="45.02143" lon="5.54746">
        <ele>1553</ele>
        <time>2013-08-10T11:35:46.499Z</time>
      </trkpt>
      <trkpt lat="45.02144" lon="5.54745">
        <ele>1552.8</ele>
        <time>2013-08-10T11:35:46.558Z</time>
      </trkpt>
      <trkpt lat="45.02138" lon="5.54735">
        <ele>1552.2</ele>
        <time>2013-08-10T11:35:58.354Z</time>
      </trkpt>
      <trkpt lat="45.02137" lon="5.54734">
        <ele>1551.2</ele>
        <time>2013-08-10T11:35:59.373Z</time>
      </trkpt>
      <trkpt lat="45.02142" lon="5.54723">
        <ele>1547.4</ele>
        <time>2013-08-10T11:36:15.601Z</time>
      </trkpt>
      <trkpt lat="45.02142" lon="5.54724">
        <ele>1547.4</ele>
        <time>2013-08-10T11:36:16.527Z</time>
      </trkpt>
      <trkpt lat="45.02142" lon="5.54724">
        <ele>1546.6</ele>
        <time>2013-08-10T11:36:17.445Z</time>
      </trkpt>
      <trkpt lat="45.02149" lon="5.54721">
        <ele>1545.8</ele>
        <time>2013-08-10T11:36:21.373Z</time>
      </trkpt>
      <trkpt lat="45.02151" lon="5.5472">
        <ele>1545.3</ele>
        <time>2013-08-10T11:36:22.405Z</time>
      </trkpt>
      <trkpt lat="45.02159" lon="5.54725">
        <ele>1541</ele>
        <time>2013-08-10T11:36:35.521Z</time>
      </trkpt>
      <trkpt lat="45.02159" lon="5.54726">
        <ele>1541.4</ele>
        <time>2013-08-10T11:36:36.522Z</time>
      </trkpt>
      <trkpt lat="45.02153" lon="5.54725">
        <ele>1539.6</ele>
        <time>2013-08-10T11:36:53.386Z</time>
      </trkpt>
      <trkpt lat="45.02153" lon="5.54725">
        <ele>1539.6</ele>
        <time>2013-08-10T11:36:54.538Z</time>
      </trkpt>
      <trkpt lat="45.02153" lon="5.54724">
        <ele>1539.1</ele>
        <time>2013-08-10T11:37:23.343Z</time>
      </trkpt>
      <trkpt lat="45.02153" lon="5.54724">
        <ele>1537.5</ele>
        <time>2013-08-10T11:37:24.382Z</time>
      </trkpt>
      <trkpt lat="45.02147" lon="5.54715">
        <ele>1532.9</ele>
        <time>2013-08-10T11:37:30.382Z</time>
      </trkpt>
      <trkpt lat="45.02147" lon="5.54713">
        <ele>1532.5</ele>
        <time>2013-08-10T11:37:31.387Z</time>
      </trkpt>
      <trkpt lat="45.02147" lon="5.54702">
        <ele>1530.6</ele>
        <time>2013-08-10T11:37:35.368Z</time>
      </trkpt>
      <trkpt lat="45.02146" lon="5.54699">
        <ele>1531.5</ele>
        <time>2013-08-10T11:37:36.357Z</time>
      </trkpt>
      <trkpt lat="45.02147" lon="5.54687">
        <ele>1529.7</ele>
        <time>2013-08-10T11:37:42.357Z</time>
      </trkpt>
      <trkpt lat="45.02146" lon="5.54685">
        <ele>1529.7</ele>
        <time>2013-08-10T11:37:44.535Z</time>
      </trkpt>
      <trkpt lat="45.02141" lon="5.54675">
        <ele>1531.9</ele>
        <time>2013-08-10T11:37:54.503Z</time>
      </trkpt>
      <trkpt lat="45.02142" lon="5.54674">
        <ele>1532</ele>
        <time>2013-08-10T11:37:55.393Z</time>
      </trkpt>
      <trkpt lat="45.02145" lon="5.54671">
        <ele>1534.3</ele>
        <time>2013-08-10T11:38:05.561Z</time>
      </trkpt>
      <trkpt lat="45.02145" lon="5.54671">
        <ele>1534.3</ele>
        <time>2013-08-10T11:38:06.582Z</time>
      </trkpt>
      <trkpt lat="45.02144" lon="5.54669">
        <ele>1533.8</ele>
        <time>2013-08-10T11:38:42.405Z</time>
      </trkpt>
      <trkpt lat="45.02145" lon="5.54668">
        <ele>1534.3</ele>
        <time>2013-08-10T11:38:43.370Z</time>
      </trkpt>
      <trkpt lat="45.0215" lon="5.5466">
        <ele>1532.3</ele>
        <time>2013-08-10T11:38:46.396Z</time>
      </trkpt>
      <trkpt lat="45.02152" lon="5.54656">
        <ele>1533.1</ele>
        <time>2013-08-10T11:38:47.379Z</time>
      </trkpt>
      <trkpt lat="45.02156" lon="5.54646">
        <ele>1533.2</ele>
        <time>2013-08-10T11:38:49.390Z</time>
      </trkpt>
      <trkpt lat="45.02157" lon="5.54641">
        <ele>1533.3</ele>
        <time>2013-08-10T11:38:50.395Z</time>
      </trkpt>
      <trkpt lat="45.02162" lon="5.54636">
        <ele>1531.7</ele>
        <time>2013-08-10T11:39:04.450Z</time>
      </trkpt>
      <trkpt lat="45.02162" lon="5.54636">
        <ele>1531.6</ele>
        <time>2013-08-10T11:39:05.423Z</time>
      </trkpt>
      <trkpt lat="45.02162" lon="5.54635">
        <ele>1531.9</ele>
        <time>2013-08-10T11:39:24.363Z</time>
      </trkpt>
      <trkpt lat="45.02162" lon="5.54633">
        <ele>1530.6</ele>
        <time>2013-08-10T11:39:25.591Z</time>
      </trkpt>
      <trkpt lat="45.02167" lon="5.54623">
        <ele>1527.6</ele>
        <time>2013-08-10T11:39:28.403Z</time>
      </trkpt>
      <trkpt lat="45.02168" lon="5.54617">
        <ele>1525</ele>
        <time>2013-08-10T11:39:29.452Z</time>
      </trkpt>
      <trkpt lat="45.0217" lon="5.54611">
        <ele>1524.1</ele>
        <time>2013-08-10T11:39:30.432Z</time>
      </trkpt>
      <trkpt lat="45.02172" lon="5.54605">
        <ele>1522.8</ele>
        <time>2013-08-10T11:39:31.396Z</time>
      </trkpt>
      <trkpt lat="45.02175" lon="5.54593">
        <ele>1522.2</ele>
        <time>2013-08-10T11:39:33.387Z</time>
      </trkpt>
      <trkpt lat="45.02177" lon="5.54588">
        <ele>1519.1</ele>
        <time>2013-08-10T11:39:34.423Z</time>
      </trkpt>
      <trkpt lat="45.02176" lon="5.54578">
        <ele>1517.5</ele>
        <time>2013-08-10T11:39:37.421Z</time>
      </trkpt>
      <trkpt lat="45.02176" lon="5.54575">
        <ele>1516.9</ele>
        <time>2013-08-10T11:39:38.430Z</time>
      </trkpt>
      <trkpt lat="45.02172" lon="5.54565">
        <ele>1515.8</ele>
        <time>2013-08-10T11:39:50.381Z</time>
      </trkpt>
      <trkpt lat="45.02171" lon="5.54562">
        <ele>1514.3</ele>
        <time>2013-08-10T11:39:51.366Z</time>
      </trkpt>
      <trkpt lat="45.02172" lon="5.5455">
        <ele>1510.1</ele>
        <time>2013-08-10T11:39:59.529Z</time>
      </trkpt>
      <trkpt lat="45.02174" lon="5.54548">
        <ele>1510.6</ele>
        <time>2013-08-10T11:40:00.467Z</time>
      </trkpt>
      <trkpt lat="45.02175" lon="5.54537">
        <ele>1510.6</ele>
        <time>2013-08-10T11:40:05.519Z</time>
      </trkpt>
      <trkpt lat="45.02175" lon="5.54534">
        <ele>1510.4</ele>
        <time>2013-08-10T11:40:06.518Z</time>
      </trkpt>
      <trkpt lat="45.02172" lon="5.54523">
        <ele>1509.7</ele>
        <time>2013-08-10T11:40:13.385Z</time>
      </trkpt>
      <trkpt lat="45.02172" lon="5.54522">
        <ele>1509.5</ele>
        <time>2013-08-10T11:40:14.335Z</time>
      </trkpt>
      <trkpt lat="45.02164" lon="5.54515">
        <ele>1512.1</ele>
        <time>2013-08-10T11:40:22.524Z</time>
      </trkpt>
      <trkpt lat="45.02163" lon="5.54515">
        <ele>1512.6</ele>
        <time>2013-08-10T11:40:23.354Z</time>
      </trkpt>
      <trkpt lat="45.02155" lon="5.54512">
        <ele>1511.5</ele>
        <time>2013-08-10T11:40:30.367Z</time>
      </trkpt>
      <trkpt lat="45.02153" lon="5.54512">
        <ele>1511.5</ele>
        <time>2013-08-10T11:40:31.397Z</time>
      </trkpt>
      <trkpt lat="45.02146" lon="5.54507">
        <ele>1513.2</ele>
        <time>2013-08-10T11:40:41.529Z</time>
      </trkpt>
      <trkpt lat="45.02145" lon="5.54507">
        <ele>1512.8</ele>
        <time>2013-08-10T11:40:42.008Z</time>
      </trkpt>
      <trkpt lat="45.02137" lon="5.54503">
        <ele>1516.9</ele>
        <time>2013-08-10T11:40:48.375Z</time>
      </trkpt>
      <trkpt lat="45.02136" lon="5.54503">
        <ele>1517.4</ele>
        <time>2013-08-10T11:40:49.375Z</time>
      </trkpt>
      <trkpt lat="45.02128" lon="5.54498">
        <ele>1516.4</ele>
        <time>2013-08-10T11:40:58.446Z</time>
      </trkpt>
      <trkpt lat="45.02127" lon="5.54497">
        <ele>1516</ele>
        <time>2013-08-10T11:40:59.454Z</time>
      </trkpt>
      <trkpt lat="45.0212" lon="5.54491">
        <ele>1516</ele>
        <time>2013-08-10T11:41:07.520Z</time>
      </trkpt>
      <trkpt lat="45.02118" lon="5.5449">
        <ele>1516</ele>
        <time>2013-08-10T11:41:08.519Z</time>
      </trkpt>
      <trkpt lat="45.02111" lon="5.54487">
        <ele>1517.5</ele>
        <time>2013-08-10T11:41:13.526Z</time>
      </trkpt>
      <trkpt lat="45.02109" lon="5.54487">
        <ele>1517.4</ele>
        <time>2013-08-10T11:41:14.400Z</time>
      </trkpt>
      <trkpt lat="45.02102" lon="5.54482">
        <ele>1518.4</ele>
        <time>2013-08-10T11:41:22.404Z</time>
      </trkpt>
      <trkpt lat="45.02101" lon="5.54482">
        <ele>1517.7</ele>
        <time>2013-08-10T11:41:24.507Z</time>
      </trkpt>
      <trkpt lat="45.02092" lon="5.54479">
        <ele>1519.1</ele>
        <time>2013-08-10T11:41:30.337Z</time>
      </trkpt>
      <trkpt lat="45.02091" lon="5.54479">
        <ele>1519.2</ele>
        <time>2013-08-10T11:41:31.272Z</time>
      </trkpt>
      <trkpt lat="45.02083" lon="5.5448">
        <ele>1520.1</ele>
        <time>2013-08-10T11:41:38.522Z</time>
      </trkpt>
      <trkpt lat="45.02081" lon="5.5448">
        <ele>1520.7</ele>
        <time>2013-08-10T11:41:39.522Z</time>
      </trkpt>
      <trkpt lat="45.02073" lon="5.54481">
        <ele>1519.3</ele>
        <time>2013-08-10T11:41:47.381Z</time>
      </trkpt>
      <trkpt lat="45.02072" lon="5.54481">
        <ele>1519.2</ele>
        <time>2013-08-10T11:41:48.378Z</time>
      </trkpt>
      <trkpt lat="45.02064" lon="5.54485">
        <ele>1522.4</ele>
        <time>2013-08-10T11:41:56.407Z</time>
      </trkpt>
      <trkpt lat="45.02062" lon="5.54485">
        <ele>1522.6</ele>
        <time>2013-08-10T11:41:57.538Z</time>
      </trkpt>
      <trkpt lat="45.02053" lon="5.54483">
        <ele>1523.3</ele>
        <time>2013-08-10T11:42:05.363Z</time>
      </trkpt>
      <trkpt lat="45.02051" lon="5.54483">
        <ele>1523.3</ele>
        <time>2013-08-10T11:42:06.361Z</time>
      </trkpt>
      <trkpt lat="45.02045" lon="5.54483">
        <ele>1523.6</ele>
        <time>2013-08-10T11:42:09.358Z</time>
      </trkpt>
      <trkpt lat="45.02042" lon="5.54482">
        <ele>1522.6</ele>
        <time>2013-08-10T11:42:10.370Z</time>
      </trkpt>
      <trkpt lat="45.02034" lon="5.54477">
        <ele>1523.1</ele>
        <time>2013-08-10T11:42:14.523Z</time>
      </trkpt>
      <trkpt lat="45.02033" lon="5.54476">
        <ele>1523.1</ele>
        <time>2013-08-10T11:42:15.367Z</time>
      </trkpt>
      <trkpt lat="45.02027" lon="5.54468">
        <ele>1524.7</ele>
        <time>2013-08-10T11:42:22.529Z</time>
      </trkpt>
      <trkpt lat="45.02026" lon="5.54467">
        <ele>1524.5</ele>
        <time>2013-08-10T11:42:23.577Z</time>
      </trkpt>
      <trkpt lat="45.02022" lon="5.54458">
        <ele>1526</ele>
        <time>2013-08-10T11:42:31.404Z</time>
      </trkpt>
      <trkpt lat="45.02021" lon="5.54456">
        <ele>1525.2</ele>
        <time>2013-08-10T11:42:32.459Z</time>
      </trkpt>
      <trkpt lat="45.02023" lon="5.54444">
        <ele>1528.5</ele>
        <time>2013-08-10T11:42:39.518Z</time>
      </trkpt>
      <trkpt lat="45.02023" lon="5.54442">
        <ele>1528.8</ele>
        <time>2013-08-10T11:42:40.519Z</time>
      </trkpt>
      <trkpt lat="45.02024" lon="5.54429">
        <ele>1530.8</ele>
        <time>2013-08-10T11:42:46.386Z</time>
      </trkpt>
      <trkpt lat="45.02024" lon="5.54428">
        <ele>1530.6</ele>
        <time>2013-08-10T11:42:47.481Z</time>
      </trkpt>
      <trkpt lat="45.02019" lon="5.54419">
        <ele>1532.2</ele>
        <time>2013-08-10T11:42:54.341Z</time>
      </trkpt>
      <trkpt lat="45.02018" lon="5.54417">
        <ele>1532.3</ele>
        <time>2013-08-10T11:42:55.517Z</time>
      </trkpt>
      <trkpt lat="45.02012" lon="5.5441">
        <ele>1533.2</ele>
        <time>2013-08-10T11:43:01.340Z</time>
      </trkpt>
      <trkpt lat="45.02011" lon="5.54408">
        <ele>1533.1</ele>
        <time>2013-08-10T11:43:02.529Z</time>
      </trkpt>
      <trkpt lat="45.02005" lon="5.544">
        <ele>1532.7</ele>
        <time>2013-08-10T11:43:07.396Z</time>
      </trkpt>
      <trkpt lat="45.02004" lon="5.54399">
        <ele>1533.1</ele>
        <time>2013-08-10T11:43:08.344Z</time>
      </trkpt>
      <trkpt lat="45.01997" lon="5.54393">
        <ele>1534.3</ele>
        <time>2013-08-10T11:43:14.379Z</time>
      </trkpt>
      <trkpt lat="45.01995" lon="5.54392">
        <ele>1534.3</ele>
        <time>2013-08-10T11:43:15.510Z</time>
      </trkpt>
      <trkpt lat="45.01994" lon="5.54381">
        <ele>1532.2</ele>
        <time>2013-08-10T11:43:23.724Z</time>
      </trkpt>
      <trkpt lat="45.01993" lon="5.5438">
        <ele>1532.3</ele>
        <time>2013-08-10T11:43:24.722Z</time>
      </trkpt>
      <trkpt lat="45.0199" lon="5.54368">
        <ele>1534</ele>
        <time>2013-08-10T11:43:30.719Z</time>
      </trkpt>
      <trkpt lat="45.0199" lon="5.54366">
        <ele>1533.9</ele>
        <time>2013-08-10T11:43:31.689Z</time>
      </trkpt>
      <trkpt lat="45.01984" lon="5.54357">
        <ele>1534.9</ele>
        <time>2013-08-10T11:43:37.536Z</time>
      </trkpt>
      <trkpt lat="45.01983" lon="5.54356">
        <ele>1535</ele>
        <time>2013-08-10T11:43:38.578Z</time>
      </trkpt>
      <trkpt lat="45.01975" lon="5.54355">
        <ele>1535.5</ele>
        <time>2013-08-10T11:43:44.486Z</time>
      </trkpt>
      <trkpt lat="45.01974" lon="5.54354">
        <ele>1534.9</ele>
        <time>2013-08-10T11:43:45.480Z</time>
      </trkpt>
      <trkpt lat="45.01967" lon="5.5435">
        <ele>1536.1</ele>
        <time>2013-08-10T11:43:51.400Z</time>
      </trkpt>
      <trkpt lat="45.01966" lon="5.54348">
        <ele>1535.9</ele>
        <time>2013-08-10T11:43:52.601Z</time>
      </trkpt>
      <trkpt lat="45.01959" lon="5.5434">
        <ele>1536.5</ele>
        <time>2013-08-10T11:43:59.518Z</time>
      </trkpt>
      <trkpt lat="45.01958" lon="5.54338">
        <ele>1536.3</ele>
        <time>2013-08-10T11:44:00.363Z</time>
      </trkpt>
      <trkpt lat="45.01952" lon="5.54332">
        <ele>1537</ele>
        <time>2013-08-10T11:44:04.405Z</time>
      </trkpt>
      <trkpt lat="45.01951" lon="5.5433">
        <ele>1537.6</ele>
        <time>2013-08-10T11:44:05.359Z</time>
      </trkpt>
      <trkpt lat="45.01945" lon="5.54322">
        <ele>1537.8</ele>
        <time>2013-08-10T11:44:11.505Z</time>
      </trkpt>
      <trkpt lat="45.01945" lon="5.5432">
        <ele>1537.8</ele>
        <time>2013-08-10T11:44:12.351Z</time>
      </trkpt>
      <trkpt lat="45.0194" lon="5.5431">
        <ele>1537</ele>
        <time>2013-08-10T11:44:19.066Z</time>
      </trkpt>
      <trkpt lat="45.01939" lon="5.54309">
        <ele>1537.7</ele>
        <time>2013-08-10T11:44:19.911Z</time>
      </trkpt>
      <trkpt lat="45.01936" lon="5.54298">
        <ele>1536.8</ele>
        <time>2013-08-10T11:44:25.584Z</time>
      </trkpt>
      <trkpt lat="45.01936" lon="5.54296">
        <ele>1537</ele>
        <time>2013-08-10T11:44:26.630Z</time>
      </trkpt>
      <trkpt lat="45.01933" lon="5.54285">
        <ele>1538</ele>
        <time>2013-08-10T11:44:32.547Z</time>
      </trkpt>
      <trkpt lat="45.01932" lon="5.54283">
        <ele>1537.5</ele>
        <time>2013-08-10T11:44:33.513Z</time>
      </trkpt>
      <trkpt lat="45.01927" lon="5.54275">
        <ele>1533.5</ele>
        <time>2013-08-10T11:44:39.521Z</time>
      </trkpt>
      <trkpt lat="45.01926" lon="5.54274">
        <ele>1534</ele>
        <time>2013-08-10T11:44:40.438Z</time>
      </trkpt>
      <trkpt lat="45.01922" lon="5.54264">
        <ele>1533.5</ele>
        <time>2013-08-10T11:44:47.480Z</time>
      </trkpt>
      <trkpt lat="45.01921" lon="5.54262">
        <ele>1533.6</ele>
        <time>2013-08-10T11:44:48.497Z</time>
      </trkpt>
      <trkpt lat="45.01918" lon="5.54251">
        <ele>1533.3</ele>
        <time>2013-08-10T11:44:55.374Z</time>
      </trkpt>
      <trkpt lat="45.01916" lon="5.5425">
        <ele>1533.3</ele>
        <time>2013-08-10T11:44:56.366Z</time>
      </trkpt>
      <trkpt lat="45.0191" lon="5.54242">
        <ele>1535.5</ele>
        <time>2013-08-10T11:45:02.845Z</time>
      </trkpt>
      <trkpt lat="45.0191" lon="5.5424">
        <ele>1536.2</ele>
        <time>2013-08-10T11:45:03.801Z</time>
      </trkpt>
      <trkpt lat="45.01909" lon="5.54229">
        <ele>1538.9</ele>
        <time>2013-08-10T11:45:08.757Z</time>
      </trkpt>
      <trkpt lat="45.01908" lon="5.54227">
        <ele>1539.4</ele>
        <time>2013-08-10T11:45:09.756Z</time>
      </trkpt>
      <trkpt lat="45.01902" lon="5.54219">
        <ele>1541.7</ele>
        <time>2013-08-10T11:45:14.877Z</time>
      </trkpt>
      <trkpt lat="45.01901" lon="5.54217">
        <ele>1541.7</ele>
        <time>2013-08-10T11:45:15.808Z</time>
      </trkpt>
      <trkpt lat="45.01895" lon="5.54209">
        <ele>1544.4</ele>
        <time>2013-08-10T11:45:20.530Z</time>
      </trkpt>
      <trkpt lat="45.01893" lon="5.54207">
        <ele>1544.4</ele>
        <time>2013-08-10T11:45:22.360Z</time>
      </trkpt>
      <trkpt lat="45.01887" lon="5.542">
        <ele>1545.9</ele>
        <time>2013-08-10T11:45:26.413Z</time>
      </trkpt>
      <trkpt lat="45.01886" lon="5.54198">
        <ele>1546.1</ele>
        <time>2013-08-10T11:45:27.398Z</time>
      </trkpt>
      <trkpt lat="45.0189" lon="5.54193">
        <ele>1546.5</ele>
        <time>2013-08-10T11:45:36.520Z</time>
      </trkpt>
      <trkpt lat="45.0189" lon="5.54193">
        <ele>1546.3</ele>
        <time>2013-08-10T11:45:37.516Z</time>
      </trkpt>
      <trkpt lat="45.01891" lon="5.54191">
        <ele>1546.3</ele>
        <time>2013-08-10T11:45:52.392Z</time>
      </trkpt>
      <trkpt lat="45.0189" lon="5.5419">
        <ele>1546.1</ele>
        <time>2013-08-10T11:45:53.421Z</time>
      </trkpt>
      <trkpt lat="45.01895" lon="5.54179">
        <ele>1544.3</ele>
        <time>2013-08-10T11:46:01.360Z</time>
      </trkpt>
      <trkpt lat="45.01896" lon="5.54178">
        <ele>1543.9</ele>
        <time>2013-08-10T11:46:02.514Z</time>
      </trkpt>
      <trkpt lat="45.01897" lon="5.54173">
        <ele>1545.5</ele>
        <time>2013-08-10T11:46:12.449Z</time>
      </trkpt>
      <trkpt lat="45.01897" lon="5.54173">
        <ele>1545.5</ele>
        <time>2013-08-10T11:46:13.445Z</time>
      </trkpt>
      <trkpt lat="45.01897" lon="5.54173">
        <ele>1545.5</ele>
        <time>2013-08-10T11:46:14.475Z</time>
      </trkpt>
      <trkpt lat="45.01897" lon="5.54173">
        <ele>1544.8</ele>
        <time>2013-08-10T11:46:15.456Z</time>
      </trkpt>
      <trkpt lat="45.01903" lon="5.54163">
        <ele>1542.9</ele>
        <time>2013-08-10T11:46:20.523Z</time>
      </trkpt>
      <trkpt lat="45.01905" lon="5.5416">
        <ele>1543.1</ele>
        <time>2013-08-10T11:46:21.530Z</time>
      </trkpt>
      <trkpt lat="45.01909" lon="5.54155">
        <ele>1542.8</ele>
        <time>2013-08-10T11:46:23.436Z</time>
      </trkpt>
      <trkpt lat="45.01912" lon="5.54152">
        <ele>1542.7</ele>
        <time>2013-08-10T11:46:24.351Z</time>
      </trkpt>
      <trkpt lat="45.01917" lon="5.54146">
        <ele>1543.2</ele>
        <time>2013-08-10T11:46:26.384Z</time>
      </trkpt>
      <trkpt lat="45.01919" lon="5.54143">
        <ele>1542.7</ele>
        <time>2013-08-10T11:46:27.345Z</time>
      </trkpt>
      <trkpt lat="45.01926" lon="5.54136">
        <ele>1540.9</ele>
        <time>2013-08-10T11:46:31.347Z</time>
      </trkpt>
      <trkpt lat="45.01926" lon="5.54134">
        <ele>1540.8</ele>
        <time>2013-08-10T11:46:32.357Z</time>
      </trkpt>
      <trkpt lat="45.01928" lon="5.54122">
        <ele>1539.4</ele>
        <time>2013-08-10T11:46:42.376Z</time>
      </trkpt>
      <trkpt lat="45.01928" lon="5.54121">
        <ele>1539.3</ele>
        <time>2013-08-10T11:46:43.342Z</time>
      </trkpt>
      <trkpt lat="45.01926" lon="5.54109">
        <ele>1537.6</ele>
        <time>2013-08-10T11:46:51.379Z</time>
      </trkpt>
      <trkpt lat="45.01925" lon="5.54107">
        <ele>1537.6</ele>
        <time>2013-08-10T11:46:52.339Z</time>
      </trkpt>
      <trkpt lat="45.01927" lon="5.54095">
        <ele>1536.4</ele>
        <time>2013-08-10T11:46:59.448Z</time>
      </trkpt>
      <trkpt lat="45.01927" lon="5.54094">
        <ele>1536.3</ele>
        <time>2013-08-10T11:47:00.494Z</time>
      </trkpt>
      <trkpt lat="45.01931" lon="5.5409">
        <ele>1537.2</ele>
        <time>2013-08-10T11:47:11.375Z</time>
      </trkpt>
      <trkpt lat="45.01931" lon="5.5409">
        <ele>1537.2</ele>
        <time>2013-08-10T11:47:12.375Z</time>
      </trkpt>
      <trkpt lat="45.01932" lon="5.5409">
        <ele>1537.2</ele>
        <time>2013-08-10T11:47:17.358Z</time>
      </trkpt>
      <trkpt lat="45.01932" lon="5.5409">
        <ele>1536.7</ele>
        <time>2013-08-10T11:47:18.556Z</time>
      </trkpt>
      <trkpt lat="45.01939" lon="5.5409">
        <ele>1535.8</ele>
        <time>2013-08-10T11:47:22.530Z</time>
      </trkpt>
      <trkpt lat="45.01942" lon="5.5409">
        <ele>1535.7</ele>
        <time>2013-08-10T11:47:23.588Z</time>
      </trkpt>
      <trkpt lat="45.01948" lon="5.54089">
        <ele>1533.1</ele>
        <time>2013-08-10T11:47:26.357Z</time>
      </trkpt>
      <trkpt lat="45.01951" lon="5.54089">
        <ele>1533</ele>
        <time>2013-08-10T11:47:27.360Z</time>
      </trkpt>
      <trkpt lat="45.01959" lon="5.54091">
        <ele>1532.5</ele>
        <time>2013-08-10T11:47:31.365Z</time>
      </trkpt>
      <trkpt lat="45.01961" lon="5.54091">
        <ele>1533</ele>
        <time>2013-08-10T11:47:32.398Z</time>
      </trkpt>
      <trkpt lat="45.01968" lon="5.5409">
        <ele>1532.4</ele>
        <time>2013-08-10T11:47:36.359Z</time>
      </trkpt>
      <trkpt lat="45.0197" lon="5.5409">
        <ele>1532</ele>
        <time>2013-08-10T11:47:37.528Z</time>
      </trkpt>
      <trkpt lat="45.01977" lon="5.5409">
        <ele>1531.6</ele>
        <time>2013-08-10T11:47:42.361Z</time>
      </trkpt>
      <trkpt lat="45.01979" lon="5.5409">
        <ele>1531.4</ele>
        <time>2013-08-10T11:47:43.379Z</time>
      </trkpt>
      <trkpt lat="45.01986" lon="5.54094">
        <ele>1531.4</ele>
        <time>2013-08-10T11:47:48.521Z</time>
      </trkpt>
      <trkpt lat="45.01988" lon="5.54095">
        <ele>1530.3</ele>
        <time>2013-08-10T11:47:49.522Z</time>
      </trkpt>
      <trkpt lat="45.01994" lon="5.54098">
        <ele>1528.3</ele>
        <time>2013-08-10T11:47:54.414Z</time>
      </trkpt>
      <trkpt lat="45.01996" lon="5.54099">
        <ele>1528.9</ele>
        <time>2013-08-10T11:47:55.418Z</time>
      </trkpt>
      <trkpt lat="45.02005" lon="5.54099">
        <ele>1527.3</ele>
        <time>2013-08-10T11:48:01.426Z</time>
      </trkpt>
      <trkpt lat="45.02007" lon="5.54099">
        <ele>1527.4</ele>
        <time>2013-08-10T11:48:02.500Z</time>
      </trkpt>
      <trkpt lat="45.02015" lon="5.541">
        <ele>1526.5</ele>
        <time>2013-08-10T11:48:08.407Z</time>
      </trkpt>
      <trkpt lat="45.02017" lon="5.541">
        <ele>1526.4</ele>
        <time>2013-08-10T11:48:09.523Z</time>
      </trkpt>
      <trkpt lat="45.02025" lon="5.54102">
        <ele>1526.1</ele>
        <time>2013-08-10T11:48:14.358Z</time>
      </trkpt>
      <trkpt lat="45.02027" lon="5.54103">
        <ele>1526.7</ele>
        <time>2013-08-10T11:48:15.369Z</time>
      </trkpt>
      <trkpt lat="45.02036" lon="5.54103">
        <ele>1524</ele>
        <time>2013-08-10T11:48:29.520Z</time>
      </trkpt>
      <trkpt lat="45.02036" lon="5.54104">
        <ele>1524</ele>
        <time>2013-08-10T11:48:30.523Z</time>
      </trkpt>
      <trkpt lat="45.02042" lon="5.54113">
        <ele>1525</ele>
        <time>2013-08-10T11:48:46.217Z</time>
      </trkpt>
      <trkpt lat="45.02042" lon="5.54113">
        <ele>1524.9</ele>
        <time>2013-08-10T11:48:47.235Z</time>
      </trkpt>
      <trkpt lat="45.0205" lon="5.54107">
        <ele>1525</ele>
        <time>2013-08-10T11:48:53.515Z</time>
      </trkpt>
      <trkpt lat="45.02052" lon="5.54107">
        <ele>1525.1</ele>
        <time>2013-08-10T11:48:54.512Z</time>
      </trkpt>
      <trkpt lat="45.02059" lon="5.54108">
        <ele>1524.9</ele>
        <time>2013-08-10T11:48:58.298Z</time>
      </trkpt>
      <trkpt lat="45.02061" lon="5.54109">
        <ele>1524.8</ele>
        <time>2013-08-10T11:48:59.327Z</time>
      </trkpt>
      <trkpt lat="45.02069" lon="5.54111">
        <ele>1524.3</ele>
        <time>2013-08-10T11:49:04.282Z</time>
      </trkpt>
      <trkpt lat="45.02071" lon="5.54111">
        <ele>1524.4</ele>
        <time>2013-08-10T11:49:05.273Z</time>
      </trkpt>
      <trkpt lat="45.02078" lon="5.54112">
        <ele>1523.9</ele>
        <time>2013-08-10T11:49:08.795Z</time>
      </trkpt>
      <trkpt lat="45.02081" lon="5.54113">
        <ele>1523.6</ele>
        <time>2013-08-10T11:49:09.525Z</time>
      </trkpt>
      <trkpt lat="45.02088" lon="5.54115">
        <ele>1523.4</ele>
        <time>2013-08-10T11:49:12.590Z</time>
      </trkpt>
      <trkpt lat="45.0209" lon="5.54116">
        <ele>1523.4</ele>
        <time>2013-08-10T11:49:13.763Z</time>
      </trkpt>
      <trkpt lat="45.02098" lon="5.5412">
        <ele>1522.9</ele>
        <time>2013-08-10T11:49:16.642Z</time>
      </trkpt>
      <trkpt lat="45.02099" lon="5.54121">
        <ele>1522.8</ele>
        <time>2013-08-10T11:49:17.359Z</time>
      </trkpt>
      <trkpt lat="45.02107" lon="5.54127">
        <ele>1522</ele>
        <time>2013-08-10T11:49:24.429Z</time>
      </trkpt>
      <trkpt lat="45.02108" lon="5.54127">
        <ele>1522</ele>
        <time>2013-08-10T11:49:25.413Z</time>
      </trkpt>
      <trkpt lat="45.02115" lon="5.54133">
        <ele>1521.5</ele>
        <time>2013-08-10T11:49:37.450Z</time>
      </trkpt>
      <trkpt lat="45.02116" lon="5.54134">
        <ele>1521.2</ele>
        <time>2013-08-10T11:49:38.574Z</time>
      </trkpt>
      <trkpt lat="45.02124" lon="5.54139">
        <ele>1520.6</ele>
        <time>2013-08-10T11:49:45.389Z</time>
      </trkpt>
      <trkpt lat="45.02125" lon="5.5414">
        <ele>1520.6</ele>
        <time>2013-08-10T11:49:46.383Z</time>
      </trkpt>
      <trkpt lat="45.02133" lon="5.54143">
        <ele>1519.1</ele>
        <time>2013-08-10T11:49:51.442Z</time>
      </trkpt>
      <trkpt lat="45.02134" lon="5.54144">
        <ele>1519</ele>
        <time>2013-08-10T11:49:52.401Z</time>
      </trkpt>
      <trkpt lat="45.02142" lon="5.54143">
        <ele>1517.3</ele>
        <time>2013-08-10T11:49:59.361Z</time>
      </trkpt>
      <trkpt lat="45.02144" lon="5.54143">
        <ele>1517.1</ele>
        <time>2013-08-10T11:50:01.613Z</time>
      </trkpt>
      <trkpt lat="45.02152" lon="5.54143">
        <ele>1516.7</ele>
        <time>2013-08-10T11:50:06.518Z</time>
      </trkpt>
      <trkpt lat="45.02154" lon="5.54142">
        <ele>1516.6</ele>
        <time>2013-08-10T11:50:07.834Z</time>
      </trkpt>
      <trkpt lat="45.0216" lon="5.54134">
        <ele>1514.2</ele>
        <time>2013-08-10T11:50:11.393Z</time>
      </trkpt>
      <trkpt lat="45.0216" lon="5.54132">
        <ele>1513.5</ele>
        <time>2013-08-10T11:50:12.500Z</time>
      </trkpt>
      <trkpt lat="45.02165" lon="5.54121">
        <ele>1511.8</ele>
        <time>2013-08-10T11:50:19.459Z</time>
      </trkpt>
      <trkpt lat="45.02167" lon="5.54119">
        <ele>1510.8</ele>
        <time>2013-08-10T11:50:21.524Z</time>
      </trkpt>
      <trkpt lat="45.02175" lon="5.54114">
        <ele>1509.6</ele>
        <time>2013-08-10T11:50:27.324Z</time>
      </trkpt>
      <trkpt lat="45.02176" lon="5.54113">
        <ele>1508.9</ele>
        <time>2013-08-10T11:50:27.794Z</time>
      </trkpt>
      <trkpt lat="45.02181" lon="5.54105">
        <ele>1509</ele>
        <time>2013-08-10T11:50:42.467Z</time>
      </trkpt>
      <trkpt lat="45.02181" lon="5.54105">
        <ele>1509</ele>
        <time>2013-08-10T11:50:43.471Z</time>
      </trkpt>
      <trkpt lat="45.02181" lon="5.54104">
        <ele>1508.8</ele>
        <time>2013-08-10T11:50:52.469Z</time>
      </trkpt>
      <trkpt lat="45.02182" lon="5.54104">
        <ele>1509</ele>
        <time>2013-08-10T11:50:53.524Z</time>
      </trkpt>
      <trkpt lat="45.02188" lon="5.54096">
        <ele>1507.7</ele>
        <time>2013-08-10T11:50:57.377Z</time>
      </trkpt>
      <trkpt lat="45.02192" lon="5.54091">
        <ele>1506.4</ele>
        <time>2013-08-10T11:50:58.533Z</time>
      </trkpt>
      <trkpt lat="45.02195" lon="5.54086">
        <ele>1506.2</ele>
        <time>2013-08-10T11:50:59.625Z</time>
      </trkpt>
      <trkpt lat="45.02198" lon="5.54081">
        <ele>1506.6</ele>
        <time>2013-08-10T11:51:01.615Z</time>
      </trkpt>
      <trkpt lat="45.022" lon="5.54075">
        <ele>1505.8</ele>
        <time>2013-08-10T11:51:12.316Z</time>
      </trkpt>
      <trkpt lat="45.022" lon="5.54075">
        <ele>1505.8</ele>
        <time>2013-08-10T11:51:13.272Z</time>
      </trkpt>
      <trkpt lat="45.02201" lon="5.54075">
        <ele>1505.9</ele>
        <time>2013-08-10T11:51:14.100Z</time>
      </trkpt>
      <trkpt lat="45.02201" lon="5.54075">
        <ele>1506</ele>
        <time>2013-08-10T11:51:14.989Z</time>
      </trkpt>
      <trkpt lat="45.02206" lon="5.54069">
        <ele>1502</ele>
        <time>2013-08-10T11:51:17.895Z</time>
      </trkpt>
      <trkpt lat="45.02208" lon="5.54066">
        <ele>1502</ele>
        <time>2013-08-10T11:51:18.983Z</time>
      </trkpt>
      <trkpt lat="45.02213" lon="5.54058">
        <ele>1499.7</ele>
        <time>2013-08-10T11:51:20.944Z</time>
      </trkpt>
      <trkpt lat="45.02216" lon="5.54054">
        <ele>1500.3</ele>
        <time>2013-08-10T11:51:21.918Z</time>
      </trkpt>
      <trkpt lat="45.0222" lon="5.54044">
        <ele>1499.7</ele>
        <time>2013-08-10T11:51:25.522Z</time>
      </trkpt>
      <trkpt lat="45.0222" lon="5.54042">
        <ele>1498.3</ele>
        <time>2013-08-10T11:51:26.304Z</time>
      </trkpt>
      <trkpt lat="45.0222" lon="5.5403">
        <ele>1494.3</ele>
        <time>2013-08-10T11:51:29.633Z</time>
      </trkpt>
      <trkpt lat="45.02219" lon="5.54026">
        <ele>1494.2</ele>
        <time>2013-08-10T11:51:30.520Z</time>
      </trkpt>
      <trkpt lat="45.02218" lon="5.54017">
        <ele>1493.4</ele>
        <time>2013-08-10T11:51:46.471Z</time>
      </trkpt>
      <trkpt lat="45.02218" lon="5.54017">
        <ele>1493.4</ele>
        <time>2013-08-10T11:51:47.597Z</time>
      </trkpt>
      <trkpt lat="45.02218" lon="5.54016">
        <ele>1493.2</ele>
        <time>2013-08-10T11:51:59.398Z</time>
      </trkpt>
      <trkpt lat="45.02218" lon="5.54015">
        <ele>1492.7</ele>
        <time>2013-08-10T11:52:00.194Z</time>
      </trkpt>
      <trkpt lat="45.0222" lon="5.54004">
        <ele>1490.2</ele>
        <time>2013-08-10T11:52:03.362Z</time>
      </trkpt>
      <trkpt lat="45.02222" lon="5.53998">
        <ele>1490.5</ele>
        <time>2013-08-10T11:52:04.533Z</time>
      </trkpt>
      <trkpt lat="45.02226" lon="5.53988">
        <ele>1490.3</ele>
        <time>2013-08-10T11:52:06.540Z</time>
      </trkpt>
      <trkpt lat="45.02228" lon="5.53984">
        <ele>1489.9</ele>
        <time>2013-08-10T11:52:07.358Z</time>
      </trkpt>
      <trkpt lat="45.02232" lon="5.53975">
        <ele>1489.7</ele>
        <time>2013-08-10T11:52:09.449Z</time>
      </trkpt>
      <trkpt lat="45.02233" lon="5.53972">
        <ele>1489.2</ele>
        <time>2013-08-10T11:52:10.416Z</time>
      </trkpt>
      <trkpt lat="45.02238" lon="5.53964">
        <ele>1488.9</ele>
        <time>2013-08-10T11:52:13.431Z</time>
      </trkpt>
      <trkpt lat="45.0224" lon="5.53961">
        <ele>1488.1</ele>
        <time>2013-08-10T11:52:14.424Z</time>
      </trkpt>
      <trkpt lat="45.02245" lon="5.53951">
        <ele>1487.9</ele>
        <time>2013-08-10T11:52:18.518Z</time>
      </trkpt>
      <trkpt lat="45.02246" lon="5.53949">
        <ele>1487.9</ele>
        <time>2013-08-10T11:52:19.376Z</time>
      </trkpt>
      <trkpt lat="45.02246" lon="5.53937">
        <ele>1487.7</ele>
        <time>2013-08-10T11:52:30.352Z</time>
      </trkpt>
      <trkpt lat="45.02246" lon="5.53937">
        <ele>1487.9</ele>
        <time>2013-08-10T11:52:31.416Z</time>
      </trkpt>
      <trkpt lat="45.02246" lon="5.53936">
        <ele>1488</ele>
        <time>2013-08-10T11:52:33.527Z</time>
      </trkpt>
      <trkpt lat="45.02246" lon="5.53936">
        <ele>1488.1</ele>
        <time>2013-08-10T11:52:34.516Z</time>
      </trkpt>
      <trkpt lat="45.02246" lon="5.53935">
        <ele>1487.3</ele>
        <time>2013-08-10T11:52:38.525Z</time>
      </trkpt>
      <trkpt lat="45.02246" lon="5.53935">
        <ele>1487.3</ele>
        <time>2013-08-10T11:52:39.023Z</time>
      </trkpt>
      <trkpt lat="45.02247" lon="5.53935">
        <ele>1487.3</ele>
        <time>2013-08-10T11:52:39.849Z</time>
      </trkpt>
      <trkpt lat="45.02247" lon="5.53935">
        <ele>1487.4</ele>
        <time>2013-08-10T11:52:40.936Z</time>
      </trkpt>
      <trkpt lat="45.02247" lon="5.53935">
        <ele>1487.3</ele>
        <time>2013-08-10T11:52:41.921Z</time>
      </trkpt>
      <trkpt lat="45.02253" lon="5.53932">
        <ele>1488.5</ele>
        <time>2013-08-10T11:52:46.919Z</time>
      </trkpt>
      <trkpt lat="45.02256" lon="5.53932">
        <ele>1487.4</ele>
        <time>2013-08-10T11:52:47.902Z</time>
      </trkpt>
      <trkpt lat="45.02262" lon="5.53931">
        <ele>1486.8</ele>
        <time>2013-08-10T11:52:49.526Z</time>
      </trkpt>
      <trkpt lat="45.02265" lon="5.5393">
        <ele>1487.1</ele>
        <time>2013-08-10T11:52:50.399Z</time>
      </trkpt>
      <trkpt lat="45.02273" lon="5.5393">
        <ele>1487.7</ele>
        <time>2013-08-10T11:52:53.518Z</time>
      </trkpt>
      <trkpt lat="45.02275" lon="5.5393">
        <ele>1487.4</ele>
        <time>2013-08-10T11:52:54.518Z</time>
      </trkpt>
      <trkpt lat="45.02283" lon="5.53928">
        <ele>1487.9</ele>
        <time>2013-08-10T11:52:59.441Z</time>
      </trkpt>
      <trkpt lat="45.02284" lon="5.53928">
        <ele>1488.9</ele>
        <time>2013-08-10T11:53:00.465Z</time>
      </trkpt>
      <trkpt lat="45.02291" lon="5.53921">
        <ele>1487.6</ele>
        <time>2013-08-10T11:53:07.365Z</time>
      </trkpt>
      <trkpt lat="45.02292" lon="5.53919">
        <ele>1487.5</ele>
        <time>2013-08-10T11:53:09.504Z</time>
      </trkpt>
      <trkpt lat="45.02298" lon="5.53912">
        <ele>1488.2</ele>
        <time>2013-08-10T11:53:15.353Z</time>
      </trkpt>
      <trkpt lat="45.02299" lon="5.53911">
        <ele>1488.5</ele>
        <time>2013-08-10T11:53:16.527Z</time>
      </trkpt>
      <trkpt lat="45.02307" lon="5.53908">
        <ele>1485</ele>
        <time>2013-08-10T11:53:20.579Z</time>
      </trkpt>
      <trkpt lat="45.0231" lon="5.53907">
        <ele>1485.2</ele>
        <time>2013-08-10T11:53:21.617Z</time>
      </trkpt>
      <trkpt lat="45.02319" lon="5.53904">
        <ele>1483.5</ele>
        <time>2013-08-10T11:53:24.683Z</time>
      </trkpt>
      <trkpt lat="45.02321" lon="5.53903">
        <ele>1483</ele>
        <time>2013-08-10T11:53:25.572Z</time>
      </trkpt>
      <trkpt lat="45.02329" lon="5.53901">
        <ele>1483.3</ele>
        <time>2013-08-10T11:53:32.405Z</time>
      </trkpt>
      <trkpt lat="45.0233" lon="5.539">
        <ele>1483.2</ele>
        <time>2013-08-10T11:53:33.374Z</time>
      </trkpt>
      <trkpt lat="45.02333" lon="5.53889">
        <ele>1482.9</ele>
        <time>2013-08-10T11:53:39.316Z</time>
      </trkpt>
      <trkpt lat="45.02334" lon="5.53887">
        <ele>1483</ele>
        <time>2013-08-10T11:53:40.375Z</time>
      </trkpt>
      <trkpt lat="45.02342" lon="5.53881">
        <ele>1480.3</ele>
        <time>2013-08-10T11:53:46.407Z</time>
      </trkpt>
      <trkpt lat="45.02344" lon="5.5388">
        <ele>1480.3</ele>
        <time>2013-08-10T11:53:47.363Z</time>
      </trkpt>
      <trkpt lat="45.02351" lon="5.53874">
        <ele>1481.8</ele>
        <time>2013-08-10T11:53:55.331Z</time>
      </trkpt>
      <trkpt lat="45.02352" lon="5.53874">
        <ele>1481.6</ele>
        <time>2013-08-10T11:53:56.518Z</time>
      </trkpt>
      <trkpt lat="45.02359" lon="5.53867">
        <ele>1480</ele>
        <time>2013-08-10T11:54:07.396Z</time>
      </trkpt>
      <trkpt lat="45.0236" lon="5.53867">
        <ele>1479.2</ele>
        <time>2013-08-10T11:54:08.397Z</time>
      </trkpt>
      <trkpt lat="45.02368" lon="5.53861">
        <ele>1479.8</ele>
        <time>2013-08-10T11:54:16.519Z</time>
      </trkpt>
      <trkpt lat="45.02369" lon="5.5386">
        <ele>1479.1</ele>
        <time>2013-08-10T11:54:17.517Z</time>
      </trkpt>
      <trkpt lat="45.02377" lon="5.53856">
        <ele>1477</ele>
        <time>2013-08-10T11:54:22.520Z</time>
      </trkpt>
      <trkpt lat="45.02378" lon="5.53855">
        <ele>1476.8</ele>
        <time>2013-08-10T11:54:23.392Z</time>
      </trkpt>
      <trkpt lat="45.02386" lon="5.53852">
        <ele>1475.4</ele>
        <time>2013-08-10T11:54:31.497Z</time>
      </trkpt>
      <trkpt lat="45.02387" lon="5.53853">
        <ele>1475.9</ele>
        <time>2013-08-10T11:54:32.433Z</time>
      </trkpt>
      <trkpt lat="45.02396" lon="5.53853">
        <ele>1473.2</ele>
        <time>2013-08-10T11:54:44.946Z</time>
      </trkpt>
      <trkpt lat="45.02396" lon="5.53853">
        <ele>1473.1</ele>
        <time>2013-08-10T11:54:45.534Z</time>
      </trkpt>
      <trkpt lat="45.02397" lon="5.53852">
        <ele>1472.8</ele>
        <time>2013-08-10T11:54:48.498Z</time>
      </trkpt>
      <trkpt lat="45.02397" lon="5.53852">
        <ele>1472.8</ele>
        <time>2013-08-10T11:54:49.420Z</time>
      </trkpt>
      <trkpt lat="45.02397" lon="5.53852">
        <ele>1472.3</ele>
        <time>2013-08-10T11:55:16.385Z</time>
      </trkpt>
      <trkpt lat="45.02399" lon="5.53851">
        <ele>1471</ele>
        <time>2013-08-10T11:55:17.355Z</time>
      </trkpt>
      <trkpt lat="45.02406" lon="5.53849">
        <ele>1472.1</ele>
        <time>2013-08-10T11:55:20.385Z</time>
      </trkpt>
      <trkpt lat="45.02409" lon="5.53849">
        <ele>1472</ele>
        <time>2013-08-10T11:55:21.396Z</time>
      </trkpt>
      <trkpt lat="45.02417" lon="5.53847">
        <ele>1470.8</ele>
        <time>2013-08-10T11:55:24.318Z</time>
      </trkpt>
      <trkpt lat="45.0242" lon="5.53846">
        <ele>1471.4</ele>
        <time>2013-08-10T11:55:25.315Z</time>
      </trkpt>
      <trkpt lat="45.02427" lon="5.53844">
        <ele>1469.6</ele>
        <time>2013-08-10T11:55:30.367Z</time>
      </trkpt>
      <trkpt lat="45.02429" lon="5.53843">
        <ele>1469.7</ele>
        <time>2013-08-10T11:55:31.528Z</time>
      </trkpt>
      <trkpt lat="45.02437" lon="5.53844">
        <ele>1469.4</ele>
        <time>2013-08-10T11:55:37.411Z</time>
      </trkpt>
      <trkpt lat="45.02439" lon="5.53844">
        <ele>1469</ele>
        <time>2013-08-10T11:55:39.605Z</time>
      </trkpt>
      <trkpt lat="45.02447" lon="5.53842">
        <ele>1469.3</ele>
        <time>2013-08-10T11:55:46.154Z</time>
      </trkpt>
      <trkpt lat="45.02448" lon="5.53841">
        <ele>1469.7</ele>
        <time>2013-08-10T11:55:47.540Z</time>
      </trkpt>
      <trkpt lat="45.0245" lon="5.5384">
        <ele>1470.2</ele>
        <time>2013-08-10T11:55:52.518Z</time>
      </trkpt>
      <trkpt lat="45.0245" lon="5.5384">
        <ele>1470.3</ele>
        <time>2013-08-10T11:55:53.448Z</time>
      </trkpt>
      <trkpt lat="45.0245" lon="5.53839">
        <ele>1469.6</ele>
        <time>2013-08-10T11:56:08.382Z</time>
      </trkpt>
      <trkpt lat="45.0245" lon="5.53839">
        <ele>1469.6</ele>
        <time>2013-08-10T11:56:09.371Z</time>
      </trkpt>
      <trkpt lat="45.02457" lon="5.53835">
        <ele>1469.1</ele>
        <time>2013-08-10T11:56:12.547Z</time>
      </trkpt>
      <trkpt lat="45.02459" lon="5.53834">
        <ele>1469</ele>
        <time>2013-08-10T11:56:13.452Z</time>
      </trkpt>
      <trkpt lat="45.02466" lon="5.5383">
        <ele>1467.9</ele>
        <time>2013-08-10T11:56:16.521Z</time>
      </trkpt>
      <trkpt lat="45.02468" lon="5.53829">
        <ele>1466.9</ele>
        <time>2013-08-10T11:56:17.523Z</time>
      </trkpt>
      <trkpt lat="45.02475" lon="5.53824">
        <ele>1465.7</ele>
        <time>2013-08-10T11:56:21.466Z</time>
      </trkpt>
      <trkpt lat="45.02476" lon="5.53822">
        <ele>1465.6</ele>
        <time>2013-08-10T11:56:22.428Z</time>
      </trkpt>
      <trkpt lat="45.02481" lon="5.53814">
        <ele>1466.2</ele>
        <time>2013-08-10T11:56:28.390Z</time>
      </trkpt>
      <trkpt lat="45.02482" lon="5.53813">
        <ele>1466.1</ele>
        <time>2013-08-10T11:56:29.391Z</time>
      </trkpt>
      <trkpt lat="45.02488" lon="5.53805">
        <ele>1803.4</ele>
        <time>2013-08-10T11:56:35.467Z</time>
      </trkpt>
      <trkpt lat="45.0249" lon="5.53804">
        <ele>1803.2</ele>
        <time>2013-08-10T11:56:36.519Z</time>
      </trkpt>
      <trkpt lat="45.02497" lon="5.538">
        <ele>1802.1</ele>
        <time>2013-08-10T11:56:40.424Z</time>
      </trkpt>
      <trkpt lat="45.02499" lon="5.538">
        <ele>1801.7</ele>
        <time>2013-08-10T11:56:41.454Z</time>
      </trkpt>
      <trkpt lat="45.02506" lon="5.53798">
        <ele>1801.6</ele>
        <time>2013-08-10T11:56:44.365Z</time>
      </trkpt>
      <trkpt lat="45.02509" lon="5.53798">
        <ele>1800.8</ele>
        <time>2013-08-10T11:56:45.365Z</time>
      </trkpt>
      <trkpt lat="45.02512" lon="5.53798">
        <ele>1800.6</ele>
        <time>2013-08-10T11:56:46.346Z</time>
      </trkpt>
      <trkpt lat="45.02518" lon="5.53798">
        <ele>1800.1</ele>
        <time>2013-08-10T11:56:47.344Z</time>
      </trkpt>
      <trkpt lat="45.02524" lon="5.53799">
        <ele>1799.7</ele>
        <time>2013-08-10T11:56:48.337Z</time>
      </trkpt>
      <trkpt lat="45.0253" lon="5.53801">
        <ele>1799.4</ele>
        <time>2013-08-10T11:56:49.349Z</time>
      </trkpt>
      <trkpt lat="45.02535" lon="5.53802">
        <ele>1799</ele>
        <time>2013-08-10T11:56:50.346Z</time>
      </trkpt>
      <trkpt lat="45.0254" lon="5.53804">
        <ele>1798.7</ele>
        <time>2013-08-10T11:56:51.353Z</time>
      </trkpt>
      <trkpt lat="45.02544" lon="5.53806">
        <ele>1798.3</ele>
        <time>2013-08-10T11:56:52.350Z</time>
      </trkpt>
      <trkpt lat="45.02549" lon="5.53808">
        <ele>1797.8</ele>
        <time>2013-08-10T11:56:53.346Z</time>
      </trkpt>
      <trkpt lat="45.02553" lon="5.53811">
        <ele>1797.2</ele>
        <time>2013-08-10T11:56:54.469Z</time>
      </trkpt>
      <trkpt lat="45.02557" lon="5.53814">
        <ele>1796.8</ele>
        <time>2013-08-10T11:56:55.538Z</time>
      </trkpt>
      <trkpt lat="45.02561" lon="5.53818">
        <ele>1796.2</ele>
        <time>2013-08-10T11:56:56.550Z</time>
      </trkpt>
      <trkpt lat="45.02565" lon="5.53822">
        <ele>1795.7</ele>
        <time>2013-08-10T11:56:57.520Z</time>
      </trkpt>
      <trkpt lat="45.02569" lon="5.53827">
        <ele>1794.8</ele>
        <time>2013-08-10T11:56:58.360Z</time>
      </trkpt>
      <trkpt lat="45.02572" lon="5.53832">
        <ele>1794.1</ele>
        <time>2013-08-10T11:56:59.334Z</time>
      </trkpt>
      <trkpt lat="45.0258" lon="5.53843">
        <ele>1793.5</ele>
        <time>2013-08-10T11:57:00.584Z</time>
      </trkpt>
      <trkpt lat="45.02586" lon="5.53852">
        <ele>1792.9</ele>
        <time>2013-08-10T11:57:01.438Z</time>
      </trkpt>
      <trkpt lat="45.02592" lon="5.53861">
        <ele>1791.8</ele>
        <time>2013-08-10T11:57:02.442Z</time>
      </trkpt>
      <trkpt lat="45.02598" lon="5.53869">
        <ele>1790.6</ele>
        <time>2013-08-10T11:57:03.398Z</time>
      </trkpt>
      <trkpt lat="45.02603" lon="5.53877">
        <ele>1789.9</ele>
        <time>2013-08-10T11:57:04.353Z</time>
      </trkpt>
      <trkpt lat="45.02609" lon="5.53884">
        <ele>1788.7</ele>
        <time>2013-08-10T11:57:05.538Z</time>
      </trkpt>
      <trkpt lat="45.02613" lon="5.5389">
        <ele>1787</ele>
        <time>2013-08-10T11:57:06.380Z</time>
      </trkpt>
      <trkpt lat="45.02618" lon="5.53896">
        <ele>1785.8</ele>
        <time>2013-08-10T11:57:07.392Z</time>
      </trkpt>
      <trkpt lat="45.02623" lon="5.53902">
        <ele>1784.5</ele>
        <time>2013-08-10T11:57:08.474Z</time>
      </trkpt>
      <trkpt lat="45.02627" lon="5.53906">
        <ele>1783</ele>
        <time>2013-08-10T11:57:09.446Z</time>
      </trkpt>
      <trkpt lat="45.02631" lon="5.5391">
        <ele>1781.8</ele>
        <time>2013-08-10T11:57:10.417Z</time>
      </trkpt>
      <trkpt lat="45.02639" lon="5.53915">
        <ele>1778.7</ele>
        <time>2013-08-10T11:57:12.402Z</time>
      </trkpt>
      <trkpt lat="45.02642" lon="5.53916">
        <ele>1777.7</ele>
        <time>2013-08-10T11:57:13.358Z</time>
      </trkpt>
      <trkpt lat="45.0265" lon="5.53919">
        <ele>1767.3</ele>
        <time>2013-08-10T11:57:19.348Z</time>
      </trkpt>
      <trkpt lat="45.02651" lon="5.5392">
        <ele>1765.1</ele>
        <time>2013-08-10T11:57:20.533Z</time>
      </trkpt>
      <trkpt lat="45.02658" lon="5.53914">
        <ele>1747.9</ele>
        <time>2013-08-10T11:57:30.470Z</time>
      </trkpt>
      <trkpt lat="45.0266" lon="5.53911">
        <ele>1745.7</ele>
        <time>2013-08-10T11:57:31.433Z</time>
      </trkpt>
      <trkpt lat="45.02662" lon="5.53903">
        <ele>1741.6</ele>
        <time>2013-08-10T11:57:33.392Z</time>
      </trkpt>
      <trkpt lat="45.02663" lon="5.53899">
        <ele>1739.7</ele>
        <time>2013-08-10T11:57:34.483Z</time>
      </trkpt>
      <trkpt lat="45.02667" lon="5.53888">
        <ele>1734.9</ele>
        <time>2013-08-10T11:57:39.393Z</time>
      </trkpt>
      <trkpt lat="45.02668" lon="5.53887">
        <ele>1733.3</ele>
        <time>2013-08-10T11:57:40.591Z</time>
      </trkpt>
      <trkpt lat="45.02668" lon="5.53886">
        <ele>1729.5</ele>
        <time>2013-08-10T11:57:47.515Z</time>
      </trkpt>
      <trkpt lat="45.02668" lon="5.53886">
        <ele>1729.5</ele>
        <time>2013-08-10T11:57:48.649Z</time>
      </trkpt>
      <trkpt lat="45.02667" lon="5.53887">
        <ele>1729.1</ele>
        <time>2013-08-10T11:57:50.486Z</time>
      </trkpt>
      <trkpt lat="45.02667" lon="5.53887">
        <ele>1728.9</ele>
        <time>2013-08-10T11:57:51.332Z</time>
      </trkpt>
      <trkpt lat="45.02665" lon="5.53888">
        <ele>1728.6</ele>
        <time>2013-08-10T11:57:56.502Z</time>
      </trkpt>
      <trkpt lat="45.02665" lon="5.53888">
        <ele>1728.6</ele>
        <time>2013-08-10T11:57:57.473Z</time>
      </trkpt>
      <trkpt lat="45.02667" lon="5.53888">
        <ele>1726.7</ele>
        <time>2013-08-10T11:58:15.506Z</time>
      </trkpt>
      <trkpt lat="45.02668" lon="5.53889">
        <ele>1723.8</ele>
        <time>2013-08-10T11:58:16.469Z</time>
      </trkpt>
      <trkpt lat="45.02674" lon="5.53895">
        <ele>1715.9</ele>
        <time>2013-08-10T11:58:19.398Z</time>
      </trkpt>
      <trkpt lat="45.02676" lon="5.53897">
        <ele>1713.6</ele>
        <time>2013-08-10T11:58:20.403Z</time>
      </trkpt>
      <trkpt lat="45.02682" lon="5.53902">
        <ele>1708.6</ele>
        <time>2013-08-10T11:58:22.478Z</time>
      </trkpt>
      <trkpt lat="45.02685" lon="5.53905">
        <ele>1707</ele>
        <time>2013-08-10T11:58:23.655Z</time>
      </trkpt>
      <trkpt lat="45.02691" lon="5.53911">
        <ele>1697.6</ele>
        <time>2013-08-10T11:58:26.398Z</time>
      </trkpt>
      <trkpt lat="45.02693" lon="5.53912">
        <ele>1695.3</ele>
        <time>2013-08-10T11:58:27.550Z</time>
      </trkpt>
      <trkpt lat="45.027" lon="5.53918">
        <ele>1626.2</ele>
        <time>2013-08-10T11:58:52.032Z</time>
      </trkpt>
      <trkpt lat="45.02702" lon="5.53918">
        <ele>1622.5</ele>
        <time>2013-08-10T11:58:52.777Z</time>
      </trkpt>
      <trkpt lat="45.02709" lon="5.53914">
        <ele>1613.1</ele>
        <time>2013-08-10T11:58:55.742Z</time>
      </trkpt>
      <trkpt lat="45.02712" lon="5.53912">
        <ele>1609.9</ele>
        <time>2013-08-10T11:58:56.741Z</time>
      </trkpt>
      <trkpt lat="45.02718" lon="5.53906">
        <ele>1601.4</ele>
        <time>2013-08-10T11:58:59.646Z</time>
      </trkpt>
      <trkpt lat="45.02721" lon="5.53905">
        <ele>1598.5</ele>
        <time>2013-08-10T11:59:00.667Z</time>
      </trkpt>
      <trkpt lat="45.02727" lon="5.53899">
        <ele>1589.6</ele>
        <time>2013-08-10T11:59:03.572Z</time>
      </trkpt>
      <trkpt lat="45.02729" lon="5.53897">
        <ele>1586.5</ele>
        <time>2013-08-10T11:59:04.363Z</time>
      </trkpt>
      <trkpt lat="45.02734" lon="5.5389">
        <ele>1580.3</ele>
        <time>2013-08-10T11:59:06.371Z</time>
      </trkpt>
      <trkpt lat="45.02736" lon="5.53887">
        <ele>1576.6</ele>
        <time>2013-08-10T11:59:07.580Z</time>
      </trkpt>
      <trkpt lat="45.02744" lon="5.53882">
        <ele>1527</ele>
        <time>2013-08-10T11:59:23.534Z</time>
      </trkpt>
      <trkpt lat="45.02744" lon="5.53881">
        <ele>1524.7</ele>
        <time>2013-08-10T11:59:24.525Z</time>
      </trkpt>
      <trkpt lat="45.02744" lon="5.53876">
        <ele>1514.2</ele>
        <time>2013-08-10T11:59:28.484Z</time>
      </trkpt>
      <trkpt lat="45.02762" lon="5.53863">
        <ele>1815.8</ele>
        <time>2013-08-10T12:00:03.576Z</time>
      </trkpt>
      <trkpt lat="45.02771" lon="5.53866">
        <ele>1814.3</ele>
        <time>2013-08-10T12:00:19.524Z</time>
      </trkpt>
      <trkpt lat="45.02771" lon="5.53866">
        <ele>1814.3</ele>
        <time>2013-08-10T12:00:20.518Z</time>
      </trkpt>
      <trkpt lat="45.02779" lon="5.5387">
        <ele>1810.5</ele>
        <time>2013-08-10T12:00:47.572Z</time>
      </trkpt>
      <trkpt lat="45.02783" lon="5.53877">
        <ele>1806.2</ele>
        <time>2013-08-10T12:00:48.526Z</time>
      </trkpt>
      <trkpt lat="45.02788" lon="5.53884">
        <ele>1803.1</ele>
        <time>2013-08-10T12:00:49.586Z</time>
      </trkpt>
      <trkpt lat="45.02793" lon="5.5389">
        <ele>1800.6</ele>
        <time>2013-08-10T12:00:50.362Z</time>
      </trkpt>
      <trkpt lat="45.02802" lon="5.539">
        <ele>1798.2</ele>
        <time>2013-08-10T12:00:51.326Z</time>
      </trkpt>
      <trkpt lat="45.02813" lon="5.53912">
        <ele>1796.7</ele>
        <time>2013-08-10T12:00:52.538Z</time>
      </trkpt>
      <trkpt lat="45.02823" lon="5.53922">
        <ele>1795.3</ele>
        <time>2013-08-10T12:00:53.540Z</time>
      </trkpt>
      <trkpt lat="45.02833" lon="5.53932">
        <ele>1794.6</ele>
        <time>2013-08-10T12:00:54.554Z</time>
      </trkpt>
      <trkpt lat="45.02841" lon="5.53941">
        <ele>1793.8</ele>
        <time>2013-08-10T12:00:55.432Z</time>
      </trkpt>
      <trkpt lat="45.02851" lon="5.5395">
        <ele>1793.2</ele>
        <time>2013-08-10T12:00:56.502Z</time>
      </trkpt>
      <trkpt lat="45.02858" lon="5.53957">
        <ele>1792.3</ele>
        <time>2013-08-10T12:00:57.352Z</time>
      </trkpt>
      <trkpt lat="45.02865" lon="5.53965">
        <ele>1791</ele>
        <time>2013-08-10T12:00:58.323Z</time>
      </trkpt>
      <trkpt lat="45.02871" lon="5.53972">
        <ele>1792.1</ele>
        <time>2013-08-10T12:00:59.365Z</time>
      </trkpt>
      <trkpt lat="45.02876" lon="5.53979">
        <ele>1791.6</ele>
        <time>2013-08-10T12:01:00.379Z</time>
      </trkpt>
      <trkpt lat="45.0288" lon="5.53986">
        <ele>1789.9</ele>
        <time>2013-08-10T12:01:01.345Z</time>
      </trkpt>
      <trkpt lat="45.02883" lon="5.53993">
        <ele>1788.7</ele>
        <time>2013-08-10T12:01:02.398Z</time>
      </trkpt>
      <trkpt lat="45.02885" lon="5.53999">
        <ele>1788.1</ele>
        <time>2013-08-10T12:01:03.385Z</time>
      </trkpt>
      <trkpt lat="45.02887" lon="5.54004">
        <ele>1787.3</ele>
        <time>2013-08-10T12:01:04.356Z</time>
      </trkpt>
      <trkpt lat="45.0289" lon="5.54015">
        <ele>1785.5</ele>
        <time>2013-08-10T12:01:06.317Z</time>
      </trkpt>
      <trkpt lat="45.02891" lon="5.54022">
        <ele>1784.7</ele>
        <time>2013-08-10T12:01:07.529Z</time>
      </trkpt>
      <trkpt lat="45.02893" lon="5.54031">
        <ele>1782.2</ele>
        <time>2013-08-10T12:01:09.440Z</time>
      </trkpt>
      <trkpt lat="45.02894" lon="5.54035">
        <ele>1781.3</ele>
        <time>2013-08-10T12:01:10.368Z</time>
      </trkpt>
      <trkpt lat="45.02897" lon="5.54044">
        <ele>1780.5</ele>
        <time>2013-08-10T12:01:12.322Z</time>
      </trkpt>
      <trkpt lat="45.02897" lon="5.54048">
        <ele>1779.5</ele>
        <time>2013-08-10T12:01:13.436Z</time>
      </trkpt>
      <trkpt lat="45.02901" lon="5.54056">
        <ele>1775.5</ele>
        <time>2013-08-10T12:01:15.538Z</time>
      </trkpt>
      <trkpt lat="45.02902" lon="5.54059">
        <ele>1774.2</ele>
        <time>2013-08-10T12:01:16.383Z</time>
      </trkpt>
      <trkpt lat="45.02908" lon="5.54068">
        <ele>1769.7</ele>
        <time>2013-08-10T12:01:19.328Z</time>
      </trkpt>
      <trkpt lat="45.0291" lon="5.54071">
        <ele>1767.9</ele>
        <time>2013-08-10T12:01:20.385Z</time>
      </trkpt>
      <trkpt lat="45.02917" lon="5.54074">
        <ele>1762.1</ele>
        <time>2013-08-10T12:01:23.373Z</time>
      </trkpt>
      <trkpt lat="45.02919" lon="5.54074">
        <ele>1760.6</ele>
        <time>2013-08-10T12:01:24.336Z</time>
      </trkpt>
      <trkpt lat="45.02927" lon="5.54075">
        <ele>1753.1</ele>
        <time>2013-08-10T12:01:28.393Z</time>
      </trkpt>
      <trkpt lat="45.02928" lon="5.54074">
        <ele>1751.6</ele>
        <time>2013-08-10T12:01:29.527Z</time>
      </trkpt>
      <trkpt lat="45.02935" lon="5.54071">
        <ele>1728.3</ele>
        <time>2013-08-10T12:01:35.434Z</time>
      </trkpt>
      <trkpt lat="45.02937" lon="5.5407">
        <ele>1725.5</ele>
        <time>2013-08-10T12:01:37.527Z</time>
      </trkpt>
      <trkpt lat="45.02944" lon="5.54062">
        <ele>1709.6</ele>
        <time>2013-08-10T12:01:43.553Z</time>
      </trkpt>
      <trkpt lat="45.02945" lon="5.54061">
        <ele>1705.2</ele>
        <time>2013-08-10T12:01:44.346Z</time>
      </trkpt>
      <trkpt lat="45.02951" lon="5.54056">
        <ele>1690.4</ele>
        <time>2013-08-10T12:01:47.516Z</time>
      </trkpt>
      <trkpt lat="45.02955" lon="5.54053">
        <ele>1685.1</ele>
        <time>2013-08-10T12:01:49.529Z</time>
      </trkpt>
      <trkpt lat="45.02962" lon="5.54046">
        <ele>1669.9</ele>
        <time>2013-08-10T12:01:52.588Z</time>
      </trkpt>
      <trkpt lat="45.02965" lon="5.54044">
        <ele>1667.2</ele>
        <time>2013-08-10T12:01:53.569Z</time>
      </trkpt>
      <trkpt lat="45.0297" lon="5.54041">
        <ele>1661.5</ele>
        <time>2013-08-10T12:01:55.487Z</time>
      </trkpt>
      <trkpt lat="45.02975" lon="5.54037">
        <ele>1656.4</ele>
        <time>2013-08-10T12:01:57.544Z</time>
      </trkpt>
      <trkpt lat="45.0298" lon="5.54031">
        <ele>1646.7</ele>
        <time>2013-08-10T12:01:59.390Z</time>
      </trkpt>
      <trkpt lat="45.02983" lon="5.54029">
        <ele>1644.4</ele>
        <time>2013-08-10T12:02:00.464Z</time>
      </trkpt>
      <trkpt lat="45.02991" lon="5.54023">
        <ele>1635.5</ele>
        <time>2013-08-10T12:02:03.520Z</time>
      </trkpt>
      <trkpt lat="45.02993" lon="5.54021">
        <ele>1632.3</ele>
        <time>2013-08-10T12:02:04.352Z</time>
      </trkpt>
      <trkpt lat="45.03" lon="5.54017">
        <ele>1619.9</ele>
        <time>2013-08-10T12:02:08.535Z</time>
      </trkpt>
      <trkpt lat="45.03001" lon="5.54015">
        <ele>1613.8</ele>
        <time>2013-08-10T12:02:09.406Z</time>
      </trkpt>
      <trkpt lat="45.03004" lon="5.54007">
        <ele>1602.7</ele>
        <time>2013-08-10T12:02:12.314Z</time>
      </trkpt>
      <trkpt lat="45.03005" lon="5.54003">
        <ele>1598.6</ele>
        <time>2013-08-10T12:02:13.346Z</time>
      </trkpt>
      <trkpt lat="45.03004" lon="5.53992">
        <ele>1587.6</ele>
        <time>2013-08-10T12:02:16.408Z</time>
      </trkpt>
      <trkpt lat="45.03003" lon="5.53989">
        <ele>1584.6</ele>
        <time>2013-08-10T12:02:17.362Z</time>
      </trkpt>
      <trkpt lat="45.02997" lon="5.5398">
        <ele>1576</ele>
        <time>2013-08-10T12:02:20.465Z</time>
      </trkpt>
      <trkpt lat="45.02995" lon="5.53977">
        <ele>1574</ele>
        <time>2013-08-10T12:02:21.536Z</time>
      </trkpt>
      <trkpt lat="45.02991" lon="5.53969">
        <ele>1566.4</ele>
        <time>2013-08-10T12:02:24.363Z</time>
      </trkpt>
      <trkpt lat="45.02989" lon="5.53966">
        <ele>1562.9</ele>
        <time>2013-08-10T12:02:25.332Z</time>
      </trkpt>
      <trkpt lat="45.02989" lon="5.53955">
        <ele>1553.9</ele>
        <time>2013-08-10T12:02:29.372Z</time>
      </trkpt>
      <trkpt lat="45.02989" lon="5.53953">
        <ele>1551.8</ele>
        <time>2013-08-10T12:02:30.346Z</time>
      </trkpt>
      <trkpt lat="45.02995" lon="5.53945">
        <ele>1522.4</ele>
        <time>2013-08-10T12:02:44.385Z</time>
      </trkpt>
      <trkpt lat="45.02995" lon="5.53945">
        <ele>1516.8</ele>
        <time>2013-08-10T12:02:45.361Z</time>
      </trkpt>
      <trkpt lat="45.02996" lon="5.53946">
        <ele>1511.6</ele>
        <time>2013-08-10T12:02:47.521Z</time>
      </trkpt>
      <trkpt lat="45.02996" lon="5.53946">
        <ele>1510.6</ele>
        <time>2013-08-10T12:02:48.523Z</time>
      </trkpt>
      <trkpt lat="45.03001" lon="5.53937">
        <ele>1490.5</ele>
        <time>2013-08-10T12:03:01.537Z</time>
      </trkpt>
      <trkpt lat="45.03001" lon="5.53935">
        <ele>1490.1</ele>
        <time>2013-08-10T12:03:02.609Z</time>
      </trkpt>
      <trkpt lat="45.03004" lon="5.53924">
        <ele>1481.6</ele>
        <time>2013-08-10T12:03:13.423Z</time>
      </trkpt>
      <trkpt lat="45.03005" lon="5.53922">
        <ele>1479.9</ele>
        <time>2013-08-10T12:03:14.407Z</time>
      </trkpt>
      <trkpt lat="45.03007" lon="5.53911">
        <ele>1474</ele>
        <time>2013-08-10T12:03:20.384Z</time>
      </trkpt>
      <trkpt lat="45.03007" lon="5.53909">
        <ele>1472.5</ele>
        <time>2013-08-10T12:03:21.403Z</time>
      </trkpt>
      <trkpt lat="45.03013" lon="5.539">
        <ele>1815.3</ele>
        <time>2013-08-10T12:03:28.592Z</time>
      </trkpt>
      <trkpt lat="45.03014" lon="5.53899">
        <ele>1815.1</ele>
        <time>2013-08-10T12:03:29.522Z</time>
      </trkpt>
      <trkpt lat="45.03021" lon="5.53892">
        <ele>1813.4</ele>
        <time>2013-08-10T12:03:37.360Z</time>
      </trkpt>
      <trkpt lat="45.03022" lon="5.53891">
        <ele>1813</ele>
        <time>2013-08-10T12:03:38.338Z</time>
      </trkpt>
      <trkpt lat="45.03031" lon="5.53891">
        <ele>1811.2</ele>
        <time>2013-08-10T12:03:44.520Z</time>
      </trkpt>
      <trkpt lat="45.03032" lon="5.53892">
        <ele>1810.8</ele>
        <time>2013-08-10T12:03:45.384Z</time>
      </trkpt>
      <trkpt lat="45.03074" lon="5.53926">
        <ele>1805.5</ele>
        <time>2013-08-10T12:03:56.476Z</time>
      </trkpt>
      <trkpt lat="45.03079" lon="5.5393">
        <ele>1805.1</ele>
        <time>2013-08-10T12:03:57.431Z</time>
      </trkpt>
      <trkpt lat="45.03084" lon="5.53934">
        <ele>1804.6</ele>
        <time>2013-08-10T12:03:58.407Z</time>
      </trkpt>
      <trkpt lat="45.03088" lon="5.53938">
        <ele>1804.1</ele>
        <time>2013-08-10T12:03:59.398Z</time>
      </trkpt>
      <trkpt lat="45.03093" lon="5.53942">
        <ele>1803.6</ele>
        <time>2013-08-10T12:04:00.485Z</time>
      </trkpt>
      <trkpt lat="45.03097" lon="5.53947">
        <ele>1803.2</ele>
        <time>2013-08-10T12:04:01.474Z</time>
      </trkpt>
      <trkpt lat="45.03102" lon="5.53952">
        <ele>1802.4</ele>
        <time>2013-08-10T12:04:02.799Z</time>
      </trkpt>
      <trkpt lat="45.03108" lon="5.5396">
        <ele>1800.8</ele>
        <time>2013-08-10T12:04:04.536Z</time>
      </trkpt>
      <trkpt lat="45.03112" lon="5.53964">
        <ele>1799.9</ele>
        <time>2013-08-10T12:04:05.590Z</time>
      </trkpt>
      <trkpt lat="45.03118" lon="5.53972">
        <ele>1797.8</ele>
        <time>2013-08-10T12:04:07.478Z</time>
      </trkpt>
      <trkpt lat="45.03121" lon="5.53975">
        <ele>1796.9</ele>
        <time>2013-08-10T12:04:08.386Z</time>
      </trkpt>
      <trkpt lat="45.03127" lon="5.53981">
        <ele>1796.1</ele>
        <time>2013-08-10T12:04:10.705Z</time>
      </trkpt>
      <trkpt lat="45.03129" lon="5.53982">
        <ele>1795.6</ele>
        <time>2013-08-10T12:04:11.437Z</time>
      </trkpt>
      <trkpt lat="45.03137" lon="5.53983">
        <ele>1792</ele>
        <time>2013-08-10T12:04:14.404Z</time>
      </trkpt>
      <trkpt lat="45.0314" lon="5.53983">
        <ele>1790.9</ele>
        <time>2013-08-10T12:04:15.487Z</time>
      </trkpt>
      <trkpt lat="45.03147" lon="5.53976">
        <ele>1787.3</ele>
        <time>2013-08-10T12:04:18.403Z</time>
      </trkpt>
      <trkpt lat="45.03149" lon="5.53973">
        <ele>1786.1</ele>
        <time>2013-08-10T12:04:19.400Z</time>
      </trkpt>
      <trkpt lat="45.03152" lon="5.53967">
        <ele>1783.8</ele>
        <time>2013-08-10T12:04:21.437Z</time>
      </trkpt>
      <trkpt lat="45.03154" lon="5.53963">
        <ele>1782.2</ele>
        <time>2013-08-10T12:04:22.417Z</time>
      </trkpt>
      <trkpt lat="45.03158" lon="5.53955">
        <ele>1779.2</ele>
        <time>2013-08-10T12:04:24.590Z</time>
      </trkpt>
      <trkpt lat="45.0316" lon="5.53952">
        <ele>1777.2</ele>
        <time>2013-08-10T12:04:25.522Z</time>
      </trkpt>
      <trkpt lat="45.03166" lon="5.53943">
        <ele>1771.2</ele>
        <time>2013-08-10T12:04:28.407Z</time>
      </trkpt>
      <trkpt lat="45.03167" lon="5.53941">
        <ele>1769.6</ele>
        <time>2013-08-10T12:04:29.401Z</time>
      </trkpt>
      <trkpt lat="45.03165" lon="5.53929">
        <ele>1739.7</ele>
        <time>2013-08-10T12:04:43.477Z</time>
      </trkpt>
      <trkpt lat="45.03164" lon="5.53928">
        <ele>1736.1</ele>
        <time>2013-08-10T12:04:44.386Z</time>
      </trkpt>
      <trkpt lat="45.03166" lon="5.53918">
        <ele>1705.5</ele>
        <time>2013-08-10T12:04:56.547Z</time>
      </trkpt>
      <trkpt lat="45.03166" lon="5.53916">
        <ele>1703.3</ele>
        <time>2013-08-10T12:04:57.527Z</time>
      </trkpt>
      <trkpt lat="45.03162" lon="5.53905">
        <ele>1677.8</ele>
        <time>2013-08-10T12:05:05.367Z</time>
      </trkpt>
      <trkpt lat="45.03162" lon="5.53904">
        <ele>1674.7</ele>
        <time>2013-08-10T12:05:06.405Z</time>
      </trkpt>
      <trkpt lat="45.03156" lon="5.53895">
        <ele>1612.1</ele>
        <time>2013-08-10T12:05:24.399Z</time>
      </trkpt>
      <trkpt lat="45.03155" lon="5.53893">
        <ele>1609.6</ele>
        <time>2013-08-10T12:05:25.440Z</time>
      </trkpt>
      <trkpt lat="45.03151" lon="5.53882">
        <ele>1591.9</ele>
        <time>2013-08-10T12:05:31.390Z</time>
      </trkpt>
      <trkpt lat="45.03151" lon="5.5388">
        <ele>1589.4</ele>
        <time>2013-08-10T12:05:32.388Z</time>
      </trkpt>
      <trkpt lat="45.03151" lon="5.53869">
        <ele>1568.1</ele>
        <time>2013-08-10T12:05:39.394Z</time>
      </trkpt>
      <trkpt lat="45.03152" lon="5.53867">
        <ele>1565.1</ele>
        <time>2013-08-10T12:05:40.497Z</time>
      </trkpt>
      <trkpt lat="45.03156" lon="5.53856">
        <ele>1548.8</ele>
        <time>2013-08-10T12:05:45.392Z</time>
      </trkpt>
      <trkpt lat="45.03158" lon="5.53854">
        <ele>1545.9</ele>
        <time>2013-08-10T12:05:46.457Z</time>
      </trkpt>
      <trkpt lat="45.03162" lon="5.53843">
        <ele>1530.9</ele>
        <time>2013-08-10T12:05:50.428Z</time>
      </trkpt>
      <trkpt lat="45.03163" lon="5.5384">
        <ele>1527.9</ele>
        <time>2013-08-10T12:05:51.534Z</time>
      </trkpt>
      <trkpt lat="45.03166" lon="5.53832">
        <ele>1518.7</ele>
        <time>2013-08-10T12:05:54.390Z</time>
      </trkpt>
      <trkpt lat="45.03167" lon="5.53829">
        <ele>1513.4</ele>
        <time>2013-08-10T12:05:55.418Z</time>
      </trkpt>
      <trkpt lat="45.03172" lon="5.53819">
        <ele>1502.5</ele>
        <time>2013-08-10T12:05:58.585Z</time>
      </trkpt>
      <trkpt lat="45.03173" lon="5.53817">
        <ele>1500.6</ele>
        <time>2013-08-10T12:05:59.396Z</time>
      </trkpt>
      <trkpt lat="45.03177" lon="5.53809">
        <ele>1491.3</ele>
        <time>2013-08-10T12:06:02.431Z</time>
      </trkpt>
      <trkpt lat="45.03178" lon="5.53807">
        <ele>1485.7</ele>
        <time>2013-08-10T12:06:03.393Z</time>
      </trkpt>
      <trkpt lat="45.0318" lon="5.53795">
        <ele>1469.3</ele>
        <time>2013-08-10T12:06:08.444Z</time>
      </trkpt>
      <trkpt lat="45.03181" lon="5.53793">
        <ele>1464.6</ele>
        <time>2013-08-10T12:06:09.501Z</time>
      </trkpt>
      <trkpt lat="45.03183" lon="5.53784">
        <ele>1452.2</ele>
        <time>2013-08-10T12:06:13.520Z</time>
      </trkpt>
      <trkpt lat="45.03184" lon="5.5378">
        <ele>1449.6</ele>
        <time>2013-08-10T12:06:15.565Z</time>
      </trkpt>
      <trkpt lat="45.0319" lon="5.53772">
        <ele>1425.5</ele>
        <time>2013-08-10T12:06:22.370Z</time>
      </trkpt>
      <trkpt lat="45.03192" lon="5.53772">
        <ele>1423.7</ele>
        <time>2013-08-10T12:06:23.374Z</time>
      </trkpt>
      <trkpt lat="45.032" lon="5.53775">
        <ele>1407.5</ele>
        <time>2013-08-10T12:06:29.497Z</time>
      </trkpt>
      <trkpt lat="45.03201" lon="5.53776">
        <ele>1405.3</ele>
        <time>2013-08-10T12:06:30.402Z</time>
      </trkpt>
      <trkpt lat="45.03209" lon="5.5378">
        <ele>1406.3</ele>
        <time>2013-08-10T12:06:36.757Z</time>
      </trkpt>
      <trkpt lat="45.03211" lon="5.53782">
        <ele>1405.1</ele>
        <time>2013-08-10T12:06:37.709Z</time>
      </trkpt>
      <trkpt lat="45.03218" lon="5.53785">
        <ele>1401.1</ele>
        <time>2013-08-10T12:06:40.762Z</time>
      </trkpt>
      <trkpt lat="45.0322" lon="5.53786">
        <ele>1399.5</ele>
        <time>2013-08-10T12:06:42.978Z</time>
      </trkpt>
      <trkpt lat="45.03228" lon="5.53782">
        <ele>1393.1</ele>
        <time>2013-08-10T12:06:45.355Z</time>
      </trkpt>
      <trkpt lat="45.03231" lon="5.5378">
        <ele>1391.2</ele>
        <time>2013-08-10T12:06:46.332Z</time>
      </trkpt>
      <trkpt lat="45.03236" lon="5.5377">
        <ele>1380.1</ele>
        <time>2013-08-10T12:06:53.410Z</time>
      </trkpt>
      <trkpt lat="45.03236" lon="5.53769">
        <ele>1377.7</ele>
        <time>2013-08-10T12:06:54.354Z</time>
      </trkpt>
      <trkpt lat="45.03244" lon="5.53766">
        <ele>1363.4</ele>
        <time>2013-08-10T12:07:05.487Z</time>
      </trkpt>
      <trkpt lat="45.03245" lon="5.53765">
        <ele>1361.7</ele>
        <time>2013-08-10T12:07:06.483Z</time>
      </trkpt>
      <trkpt lat="45.03248" lon="5.53754">
        <ele>1354</ele>
        <time>2013-08-10T12:07:11.445Z</time>
      </trkpt>
      <trkpt lat="45.03248" lon="5.53752">
        <ele>1353</ele>
        <time>2013-08-10T12:07:12.393Z</time>
      </trkpt>
      <trkpt lat="45.03252" lon="5.53741">
        <ele>1343.1</ele>
        <time>2013-08-10T12:07:26.766Z</time>
      </trkpt>
      <trkpt lat="45.03252" lon="5.53742">
        <ele>1343.2</ele>
        <time>2013-08-10T12:07:26.975Z</time>
      </trkpt>
      <trkpt lat="45.03252" lon="5.53742">
        <ele>1342.6</ele>
        <time>2013-08-10T12:07:27.364Z</time>
      </trkpt>
      <trkpt lat="45.0326" lon="5.53736">
        <ele>1334.9</ele>
        <time>2013-08-10T12:07:36.331Z</time>
      </trkpt>
      <trkpt lat="45.03262" lon="5.53736">
        <ele>1332.2</ele>
        <time>2013-08-10T12:07:37.293Z</time>
      </trkpt>
      <trkpt lat="45.0327" lon="5.53738">
        <ele>1328.1</ele>
        <time>2013-08-10T12:07:39.563Z</time>
      </trkpt>
      <trkpt lat="45.03273" lon="5.53738">
        <ele>1326.6</ele>
        <time>2013-08-10T12:07:40.363Z</time>
      </trkpt>
      <trkpt lat="45.03282" lon="5.53741">
        <ele>1321.5</ele>
        <time>2013-08-10T12:07:45.353Z</time>
      </trkpt>
      <trkpt lat="45.03283" lon="5.53741">
        <ele>1320.4</ele>
        <time>2013-08-10T12:07:46.451Z</time>
      </trkpt>
      <trkpt lat="45.03281" lon="5.53742">
        <ele>1316.2</ele>
        <time>2013-08-10T12:08:04.521Z</time>
      </trkpt>
      <trkpt lat="45.03281" lon="5.53742">
        <ele>1316.2</ele>
        <time>2013-08-10T12:08:05.598Z</time>
      </trkpt>
      <trkpt lat="45.03281" lon="5.53742">
        <ele>1316</ele>
        <time>2013-08-10T12:08:23.752Z</time>
      </trkpt>
      <trkpt lat="45.03282" lon="5.53742">
        <ele>1315.1</ele>
        <time>2013-08-10T12:08:24.634Z</time>
      </trkpt>
      <trkpt lat="45.0329" lon="5.53739">
        <ele>1311.2</ele>
        <time>2013-08-10T12:08:31.794Z</time>
      </trkpt>
      <trkpt lat="45.03292" lon="5.53738">
        <ele>1310.4</ele>
        <time>2013-08-10T12:08:32.866Z</time>
      </trkpt>
      <trkpt lat="45.033" lon="5.53731">
        <ele>1308.6</ele>
        <time>2013-08-10T12:08:37.027Z</time>
      </trkpt>
      <trkpt lat="45.03301" lon="5.5373">
        <ele>1307.8</ele>
        <time>2013-08-10T12:08:37.882Z</time>
      </trkpt>
      <trkpt lat="45.03309" lon="5.53726">
        <ele>1305.8</ele>
        <time>2013-08-10T12:08:40.786Z</time>
      </trkpt>
      <trkpt lat="45.03311" lon="5.53725">
        <ele>1305.5</ele>
        <time>2013-08-10T12:08:41.526Z</time>
      </trkpt>
      <trkpt lat="45.03319" lon="5.53724">
        <ele>1302.7</ele>
        <time>2013-08-10T12:08:44.548Z</time>
      </trkpt>
      <trkpt lat="45.03321" lon="5.53724">
        <ele>1302.4</ele>
        <time>2013-08-10T12:08:45.522Z</time>
      </trkpt>
      <trkpt lat="45.03329" lon="5.53723">
        <ele>1301.7</ele>
        <time>2013-08-10T12:08:49.485Z</time>
      </trkpt>
      <trkpt lat="45.03331" lon="5.53723">
        <ele>1300.5</ele>
        <time>2013-08-10T12:08:50.435Z</time>
      </trkpt>
      <trkpt lat="45.03338" lon="5.53725">
        <ele>1292.4</ele>
        <time>2013-08-10T12:08:59.527Z</time>
      </trkpt>
      <trkpt lat="45.0334" lon="5.53725">
        <ele>1292.5</ele>
        <time>2013-08-10T12:09:00.641Z</time>
      </trkpt>
      <trkpt lat="45.03347" lon="5.53725">
        <ele>1291.6</ele>
        <time>2013-08-10T12:09:03.409Z</time>
      </trkpt>
      <trkpt lat="45.03349" lon="5.53724">
        <ele>1291.8</ele>
        <time>2013-08-10T12:09:05.506Z</time>
      </trkpt>
      <trkpt lat="45.03358" lon="5.53726">
        <ele>1288.8</ele>
        <time>2013-08-10T12:09:12.348Z</time>
      </trkpt>
      <trkpt lat="45.03359" lon="5.53726">
        <ele>1288.2</ele>
        <time>2013-08-10T12:09:13.387Z</time>
      </trkpt>
      <trkpt lat="45.03367" lon="5.53726">
        <ele>1286.8</ele>
        <time>2013-08-10T12:09:20.407Z</time>
      </trkpt>
      <trkpt lat="45.03369" lon="5.53726">
        <ele>1285.9</ele>
        <time>2013-08-10T12:09:21.582Z</time>
      </trkpt>
      <trkpt lat="45.03377" lon="5.53727">
        <ele>1284.9</ele>
        <time>2013-08-10T12:09:26.520Z</time>
      </trkpt>
      <trkpt lat="45.03379" lon="5.53728">
        <ele>1284.7</ele>
        <time>2013-08-10T12:09:27.429Z</time>
      </trkpt>
      <trkpt lat="45.03386" lon="5.53733">
        <ele>1285.3</ele>
        <time>2013-08-10T12:09:32.378Z</time>
      </trkpt>
      <trkpt lat="45.03387" lon="5.53733">
        <ele>1285.8</ele>
        <time>2013-08-10T12:09:33.423Z</time>
      </trkpt>
      <trkpt lat="45.03393" lon="5.53738">
        <ele>1284.8</ele>
        <time>2013-08-10T12:09:37.410Z</time>
      </trkpt>
      <trkpt lat="45.03395" lon="5.53739">
        <ele>1284.9</ele>
        <time>2013-08-10T12:09:38.380Z</time>
      </trkpt>
      <trkpt lat="45.03403" lon="5.53743">
        <ele>1282.1</ele>
        <time>2013-08-10T12:09:42.563Z</time>
      </trkpt>
      <trkpt lat="45.03404" lon="5.53744">
        <ele>1281.8</ele>
        <time>2013-08-10T12:09:43.403Z</time>
      </trkpt>
      <trkpt lat="45.03413" lon="5.53746">
        <ele>1277.2</ele>
        <time>2013-08-10T12:09:52.394Z</time>
      </trkpt>
      <trkpt lat="45.03414" lon="5.53746">
        <ele>1276.5</ele>
        <time>2013-08-10T12:09:53.440Z</time>
      </trkpt>
      <trkpt lat="45.03422" lon="5.53752">
        <ele>1275.2</ele>
        <time>2013-08-10T12:09:58.393Z</time>
      </trkpt>
      <trkpt lat="45.03423" lon="5.53753">
        <ele>1275.2</ele>
        <time>2013-08-10T12:09:59.388Z</time>
      </trkpt>
      <trkpt lat="45.0343" lon="5.53758">
        <ele>1271.7</ele>
        <time>2013-08-10T12:10:05.564Z</time>
      </trkpt>
      <trkpt lat="45.03433" lon="5.5376">
        <ele>1270.2</ele>
        <time>2013-08-10T12:10:06.598Z</time>
      </trkpt>
      <trkpt lat="45.0344" lon="5.53763">
        <ele>1268.4</ele>
        <time>2013-08-10T12:10:09.486Z</time>
      </trkpt>
      <trkpt lat="45.03442" lon="5.53763">
        <ele>1269.5</ele>
        <time>2013-08-10T12:10:10.363Z</time>
      </trkpt>
      <trkpt lat="45.0345" lon="5.53766">
        <ele>1268.8</ele>
        <time>2013-08-10T12:10:14.485Z</time>
      </trkpt>
      <trkpt lat="45.03452" lon="5.53767">
        <ele>1267.5</ele>
        <time>2013-08-10T12:10:15.466Z</time>
      </trkpt>
      <trkpt lat="45.03458" lon="5.53776">
        <ele>1263</ele>
        <time>2013-08-10T12:10:24.352Z</time>
      </trkpt>
      <trkpt lat="45.03459" lon="5.53778">
        <ele>1262.6</ele>
        <time>2013-08-10T12:10:25.598Z</time>
      </trkpt>
      <trkpt lat="45.03464" lon="5.53787">
        <ele>1259.8</ele>
        <time>2013-08-10T12:10:32.319Z</time>
      </trkpt>
      <trkpt lat="45.03464" lon="5.53789">
        <ele>1259.5</ele>
        <time>2013-08-10T12:10:33.379Z</time>
      </trkpt>
      <trkpt lat="45.0347" lon="5.53797">
        <ele>1259.3</ele>
        <time>2013-08-10T12:10:41.380Z</time>
      </trkpt>
      <trkpt lat="45.03471" lon="5.53798">
        <ele>1258.7</ele>
        <time>2013-08-10T12:10:42.508Z</time>
      </trkpt>
      <trkpt lat="45.03479" lon="5.53802">
        <ele>1257.2</ele>
        <time>2013-08-10T12:10:54.399Z</time>
      </trkpt>
      <trkpt lat="45.0348" lon="5.53802">
        <ele>1257.2</ele>
        <time>2013-08-10T12:10:55.534Z</time>
      </trkpt>
      <trkpt lat="45.03488" lon="5.53804">
        <ele>1256.9</ele>
        <time>2013-08-10T12:11:02.394Z</time>
      </trkpt>
      <trkpt lat="45.03489" lon="5.53804">
        <ele>1256.9</ele>
        <time>2013-08-10T12:11:03.363Z</time>
      </trkpt>
      <trkpt lat="45.03498" lon="5.53802">
        <ele>1256.9</ele>
        <time>2013-08-10T12:11:10.539Z</time>
      </trkpt>
      <trkpt lat="45.03499" lon="5.53802">
        <ele>1256.5</ele>
        <time>2013-08-10T12:11:11.521Z</time>
      </trkpt>
      <trkpt lat="45.03507" lon="5.53803">
        <ele>1256.6</ele>
        <time>2013-08-10T12:11:16.322Z</time>
      </trkpt>
      <trkpt lat="45.03509" lon="5.53803">
        <ele>1256.7</ele>
        <time>2013-08-10T12:11:17.406Z</time>
      </trkpt>
      <trkpt lat="45.03517" lon="5.53801">
        <ele>1254</ele>
        <time>2013-08-10T12:11:24.375Z</time>
      </trkpt>
      <trkpt lat="45.03519" lon="5.53801">
        <ele>1253.8</ele>
        <time>2013-08-10T12:11:26.500Z</time>
      </trkpt>
      <trkpt lat="45.03528" lon="5.53801">
        <ele>1252</ele>
        <time>2013-08-10T12:11:36.538Z</time>
      </trkpt>
      <trkpt lat="45.03529" lon="5.53801">
        <ele>1252.1</ele>
        <time>2013-08-10T12:11:37.519Z</time>
      </trkpt>
      <trkpt lat="45.03537" lon="5.53802">
        <ele>1251.3</ele>
        <time>2013-08-10T12:11:43.301Z</time>
      </trkpt>
      <trkpt lat="45.03538" lon="5.53802">
        <ele>1251.1</ele>
        <time>2013-08-10T12:11:44.466Z</time>
      </trkpt>
      <trkpt lat="45.03545" lon="5.53803">
        <ele>1247.6</ele>
        <time>2013-08-10T12:11:50.350Z</time>
      </trkpt>
      <trkpt lat="45.03547" lon="5.53803">
        <ele>1247.3</ele>
        <time>2013-08-10T12:11:51.534Z</time>
      </trkpt>
      <trkpt lat="45.03556" lon="5.53803">
        <ele>1245.7</ele>
        <time>2013-08-10T12:11:55.326Z</time>
      </trkpt>
      <trkpt lat="45.03558" lon="5.53803">
        <ele>1245.8</ele>
        <time>2013-08-10T12:11:56.533Z</time>
      </trkpt>
      <trkpt lat="45.03566" lon="5.53804">
        <ele>1242.6</ele>
        <time>2013-08-10T12:12:06.467Z</time>
      </trkpt>
      <trkpt lat="45.03567" lon="5.53805">
        <ele>1242.1</ele>
        <time>2013-08-10T12:12:07.416Z</time>
      </trkpt>
      <trkpt lat="45.03575" lon="5.53806">
        <ele>1238.1</ele>
        <time>2013-08-10T12:12:16.521Z</time>
      </trkpt>
      <trkpt lat="45.03576" lon="5.53806">
        <ele>1237.1</ele>
        <time>2013-08-10T12:12:17.522Z</time>
      </trkpt>
      <trkpt lat="45.03583" lon="5.53801">
        <ele>1234.4</ele>
        <time>2013-08-10T12:12:24.486Z</time>
      </trkpt>
      <trkpt lat="45.03584" lon="5.538">
        <ele>1234.6</ele>
        <time>2013-08-10T12:12:25.484Z</time>
      </trkpt>
      <trkpt lat="45.03588" lon="5.53789">
        <ele>1234</ele>
        <time>2013-08-10T12:12:33.497Z</time>
      </trkpt>
      <trkpt lat="45.03588" lon="5.53788">
        <ele>1233.2</ele>
        <time>2013-08-10T12:12:34.453Z</time>
      </trkpt>
      <trkpt lat="45.03582" lon="5.53779">
        <ele>1228.7</ele>
        <time>2013-08-10T12:12:40.535Z</time>
      </trkpt>
      <trkpt lat="45.0358" lon="5.53778">
        <ele>1228</ele>
        <time>2013-08-10T12:12:43.424Z</time>
      </trkpt>
      <trkpt lat="45.03577" lon="5.53767">
        <ele>1226.3</ele>
        <time>2013-08-10T12:12:49.498Z</time>
      </trkpt>
      <trkpt lat="45.03576" lon="5.53766">
        <ele>1226.2</ele>
        <time>2013-08-10T12:12:50.439Z</time>
      </trkpt>
      <trkpt lat="45.0357" lon="5.53759">
        <ele>1224.4</ele>
        <time>2013-08-10T12:12:56.443Z</time>
      </trkpt>
      <trkpt lat="45.03569" lon="5.53758">
        <ele>1224.4</ele>
        <time>2013-08-10T12:12:57.522Z</time>
      </trkpt>
      <trkpt lat="45.03561" lon="5.53753">
        <ele>1224.3</ele>
        <time>2013-08-10T12:13:02.550Z</time>
      </trkpt>
      <trkpt lat="45.0356" lon="5.53752">
        <ele>1224.6</ele>
        <time>2013-08-10T12:13:03.524Z</time>
      </trkpt>
      <trkpt lat="45.03551" lon="5.53751">
        <ele>1223</ele>
        <time>2013-08-10T12:13:10.371Z</time>
      </trkpt>
      <trkpt lat="45.0355" lon="5.5375">
        <ele>1222.2</ele>
        <time>2013-08-10T12:13:11.333Z</time>
      </trkpt>
      <trkpt lat="45.03548" lon="5.53739">
        <ele>1221.5</ele>
        <time>2013-08-10T12:13:18.521Z</time>
      </trkpt>
      <trkpt lat="45.03548" lon="5.53736">
        <ele>1221.4</ele>
        <time>2013-08-10T12:13:20.521Z</time>
      </trkpt>
      <trkpt lat="45.03551" lon="5.53727">
        <ele>1220</ele>
        <time>2013-08-10T12:13:26.457Z</time>
      </trkpt>
      <trkpt lat="45.03552" lon="5.53725">
        <ele>1220.2</ele>
        <time>2013-08-10T12:13:27.432Z</time>
      </trkpt>
      <trkpt lat="45.03553" lon="5.53712">
        <ele>1218.3</ele>
        <time>2013-08-10T12:13:34.442Z</time>
      </trkpt>
      <trkpt lat="45.03552" lon="5.53711">
        <ele>1217.9</ele>
        <time>2013-08-10T12:13:35.398Z</time>
      </trkpt>
      <trkpt lat="45.03549" lon="5.537">
        <ele>1217.9</ele>
        <time>2013-08-10T12:13:45.446Z</time>
      </trkpt>
      <trkpt lat="45.03549" lon="5.53699">
        <ele>1217.7</ele>
        <time>2013-08-10T12:13:46.485Z</time>
      </trkpt>
      <trkpt lat="45.03547" lon="5.53688">
        <ele>1216</ele>
        <time>2013-08-10T12:13:52.466Z</time>
      </trkpt>
      <trkpt lat="45.03547" lon="5.53686">
        <ele>1216</ele>
        <time>2013-08-10T12:13:53.474Z</time>
      </trkpt>
      <trkpt lat="45.03543" lon="5.53674">
        <ele>1215.5</ele>
        <time>2013-08-10T12:14:01.422Z</time>
      </trkpt>
      <trkpt lat="45.03543" lon="5.53674">
        <ele>1215.4</ele>
        <time>2013-08-10T12:14:02.377Z</time>
      </trkpt>
      <trkpt lat="45.03542" lon="5.53663">
        <ele>1213.9</ele>
        <time>2013-08-10T12:14:11.473Z</time>
      </trkpt>
      <trkpt lat="45.03541" lon="5.53661">
        <ele>1214</ele>
        <time>2013-08-10T12:14:12.499Z</time>
      </trkpt>
      <trkpt lat="45.03539" lon="5.5365">
        <ele>1213.6</ele>
        <time>2013-08-10T12:14:17.464Z</time>
      </trkpt>
      <trkpt lat="45.03538" lon="5.53648">
        <ele>1213.1</ele>
        <time>2013-08-10T12:14:18.497Z</time>
      </trkpt>
      <trkpt lat="45.03534" lon="5.53638">
        <ele>1212.5</ele>
        <time>2013-08-10T12:14:22.394Z</time>
      </trkpt>
      <trkpt lat="45.03534" lon="5.53636">
        <ele>1212.8</ele>
        <time>2013-08-10T12:14:23.438Z</time>
      </trkpt>
      <trkpt lat="45.03532" lon="5.53625">
        <ele>1212.4</ele>
        <time>2013-08-10T12:14:30.629Z</time>
      </trkpt>
      <trkpt lat="45.03532" lon="5.53624">
        <ele>1212.3</ele>
        <time>2013-08-10T12:14:31.559Z</time>
      </trkpt>
      <trkpt lat="45.0353" lon="5.53611">
        <ele>1211.9</ele>
        <time>2013-08-10T12:14:39.435Z</time>
      </trkpt>
      <trkpt lat="45.03529" lon="5.53609">
        <ele>1212.6</ele>
        <time>2013-08-10T12:14:40.485Z</time>
      </trkpt>
      <trkpt lat="45.03523" lon="5.53603">
        <ele>1213.1</ele>
        <time>2013-08-10T12:14:45.411Z</time>
      </trkpt>
      <trkpt lat="45.03522" lon="5.53601">
        <ele>1212.8</ele>
        <time>2013-08-10T12:14:46.466Z</time>
      </trkpt>
      <trkpt lat="45.03518" lon="5.53593">
        <ele>1211.6</ele>
        <time>2013-08-10T12:14:50.379Z</time>
      </trkpt>
      <trkpt lat="45.03517" lon="5.5359">
        <ele>1211.6</ele>
        <time>2013-08-10T12:14:51.489Z</time>
      </trkpt>
      <trkpt lat="45.03514" lon="5.53579">
        <ele>1209.4</ele>
        <time>2013-08-10T12:14:56.482Z</time>
      </trkpt>
      <trkpt lat="45.03514" lon="5.53577">
        <ele>1208.6</ele>
        <time>2013-08-10T12:14:57.337Z</time>
      </trkpt>
      <trkpt lat="45.03514" lon="5.53564">
        <ele>1206.6</ele>
        <time>2013-08-10T12:15:02.396Z</time>
      </trkpt>
      <trkpt lat="45.03514" lon="5.53561">
        <ele>1206.5</ele>
        <time>2013-08-10T12:15:03.453Z</time>
      </trkpt>
      <trkpt lat="45.03517" lon="5.53551">
        <ele>1202.8</ele>
        <time>2013-08-10T12:15:09.393Z</time>
      </trkpt>
      <trkpt lat="45.03517" lon="5.53549">
        <ele>1202.6</ele>
        <time>2013-08-10T12:15:10.490Z</time>
      </trkpt>
      <trkpt lat="45.0352" lon="5.53538">
        <ele>1198.4</ele>
        <time>2013-08-10T12:15:17.460Z</time>
      </trkpt>
      <trkpt lat="45.03521" lon="5.53536">
        <ele>1196.6</ele>
        <time>2013-08-10T12:15:19.547Z</time>
      </trkpt>
      <trkpt lat="45.03523" lon="5.53525">
        <ele>1193.6</ele>
        <time>2013-08-10T12:15:25.424Z</time>
      </trkpt>
      <trkpt lat="45.03524" lon="5.53523">
        <ele>1191.9</ele>
        <time>2013-08-10T12:15:26.569Z</time>
      </trkpt>
      <trkpt lat="45.03527" lon="5.53513">
        <ele>1190</ele>
        <time>2013-08-10T12:15:31.549Z</time>
      </trkpt>
      <trkpt lat="45.03528" lon="5.53511">
        <ele>1189.4</ele>
        <time>2013-08-10T12:15:33.524Z</time>
      </trkpt>
      <trkpt lat="45.03535" lon="5.53503">
        <ele>1183.8</ele>
        <time>2013-08-10T12:15:39.355Z</time>
      </trkpt>
      <trkpt lat="45.03535" lon="5.53502">
        <ele>1183.6</ele>
        <time>2013-08-10T12:15:40.337Z</time>
      </trkpt>
      <trkpt lat="45.03537" lon="5.5349">
        <ele>1182.1</ele>
        <time>2013-08-10T12:15:49.321Z</time>
      </trkpt>
      <trkpt lat="45.03537" lon="5.53488">
        <ele>1182.1</ele>
        <time>2013-08-10T12:15:50.428Z</time>
      </trkpt>
      <trkpt lat="45.03541" lon="5.53478">
        <ele>1179.2</ele>
        <time>2013-08-10T12:15:55.322Z</time>
      </trkpt>
      <trkpt lat="45.03542" lon="5.53477">
        <ele>1179.2</ele>
        <time>2013-08-10T12:15:56.352Z</time>
      </trkpt>
      <trkpt lat="45.0355" lon="5.53469">
        <ele>1176.2</ele>
        <time>2013-08-10T12:16:02.524Z</time>
      </trkpt>
      <trkpt lat="45.03551" lon="5.53468">
        <ele>1175.5</ele>
        <time>2013-08-10T12:16:03.580Z</time>
      </trkpt>
      <trkpt lat="45.03557" lon="5.53461">
        <ele>1174.7</ele>
        <time>2013-08-10T12:16:09.346Z</time>
      </trkpt>
      <trkpt lat="45.03559" lon="5.53459">
        <ele>1174.3</ele>
        <time>2013-08-10T12:16:10.452Z</time>
      </trkpt>
      <trkpt lat="45.03564" lon="5.53451">
        <ele>1173.6</ele>
        <time>2013-08-10T12:16:15.349Z</time>
      </trkpt>
      <trkpt lat="45.03565" lon="5.53449">
        <ele>1173.2</ele>
        <time>2013-08-10T12:16:16.383Z</time>
      </trkpt>
      <trkpt lat="45.03572" lon="5.53443">
        <ele>1170.7</ele>
        <time>2013-08-10T12:16:24.417Z</time>
      </trkpt>
      <trkpt lat="45.03573" lon="5.53443">
        <ele>1169.8</ele>
        <time>2013-08-10T12:16:25.408Z</time>
      </trkpt>
      <trkpt lat="45.0358" lon="5.53442">
        <ele>1169.1</ele>
        <time>2013-08-10T12:16:31.539Z</time>
      </trkpt>
      <trkpt lat="45.03582" lon="5.53441">
        <ele>1167.3</ele>
        <time>2013-08-10T12:16:32.524Z</time>
      </trkpt>
      <trkpt lat="45.0359" lon="5.53437">
        <ele>1166.4</ele>
        <time>2013-08-10T12:16:36.336Z</time>
      </trkpt>
      <trkpt lat="45.03592" lon="5.53435">
        <ele>1166.8</ele>
        <time>2013-08-10T12:16:37.401Z</time>
      </trkpt>
      <trkpt lat="45.03597" lon="5.53428">
        <ele>1165</ele>
        <time>2013-08-10T12:16:41.306Z</time>
      </trkpt>
      <trkpt lat="45.03597" lon="5.53424">
        <ele>1164.3</ele>
        <time>2013-08-10T12:16:42.294Z</time>
      </trkpt>
      <trkpt lat="45.03594" lon="5.53413">
        <ele>1164.4</ele>
        <time>2013-08-10T12:16:53.537Z</time>
      </trkpt>
      <trkpt lat="45.03594" lon="5.53412">
        <ele>1164.3</ele>
        <time>2013-08-10T12:16:54.519Z</time>
      </trkpt>
      <trkpt lat="45.03594" lon="5.534">
        <ele>1162</ele>
        <time>2013-08-10T12:17:02.301Z</time>
      </trkpt>
      <trkpt lat="45.03594" lon="5.53399">
        <ele>1162.2</ele>
        <time>2013-08-10T12:17:03.368Z</time>
      </trkpt>
      <trkpt lat="45.036" lon="5.53391">
        <ele>1154.3</ele>
        <time>2013-08-10T12:17:15.531Z</time>
      </trkpt>
      <trkpt lat="45.03602" lon="5.53391">
        <ele>1154.6</ele>
        <time>2013-08-10T12:17:16.342Z</time>
      </trkpt>
      <trkpt lat="45.03609" lon="5.5339">
        <ele>1154.3</ele>
        <time>2013-08-10T12:17:19.524Z</time>
      </trkpt>
      <trkpt lat="45.03611" lon="5.53389">
        <ele>1153.8</ele>
        <time>2013-08-10T12:17:20.526Z</time>
      </trkpt>
      <trkpt lat="45.03619" lon="5.53392">
        <ele>1150.8</ele>
        <time>2013-08-10T12:17:26.379Z</time>
      </trkpt>
      <trkpt lat="45.0362" lon="5.53393">
        <ele>1148.3</ele>
        <time>2013-08-10T12:17:27.472Z</time>
      </trkpt>
      <trkpt lat="45.03626" lon="5.53397">
        <ele>1140</ele>
        <time>2013-08-10T12:17:30.357Z</time>
      </trkpt>
      <trkpt lat="45.03629" lon="5.53399">
        <ele>1140.9</ele>
        <time>2013-08-10T12:17:31.583Z</time>
      </trkpt>
      <trkpt lat="45.03636" lon="5.53402">
        <ele>1136.5</ele>
        <time>2013-08-10T12:17:34.404Z</time>
      </trkpt>
      <trkpt lat="45.03638" lon="5.53404">
        <ele>1135.9</ele>
        <time>2013-08-10T12:17:35.353Z</time>
      </trkpt>
      <trkpt lat="45.03644" lon="5.5341">
        <ele>1136.5</ele>
        <time>2013-08-10T12:17:39.524Z</time>
      </trkpt>
      <trkpt lat="45.03645" lon="5.53412">
        <ele>1136.7</ele>
        <time>2013-08-10T12:17:40.522Z</time>
      </trkpt>
      <trkpt lat="45.03645" lon="5.53419">
        <ele>1134.7</ele>
        <time>2013-08-10T12:17:48.330Z</time>
      </trkpt>
      <trkpt lat="45.03645" lon="5.53419">
        <ele>1134.2</ele>
        <time>2013-08-10T12:17:49.364Z</time>
      </trkpt>
      <trkpt lat="45.03645" lon="5.53418">
        <ele>1133.8</ele>
        <time>2013-08-10T12:17:54.484Z</time>
      </trkpt>
      <trkpt lat="45.03645" lon="5.53418">
        <ele>1134.1</ele>
        <time>2013-08-10T12:17:55.427Z</time>
      </trkpt>
      <trkpt lat="45.03646" lon="5.53417">
        <ele>1134.1</ele>
        <time>2013-08-10T12:17:57.528Z</time>
      </trkpt>
      <trkpt lat="45.03646" lon="5.53417">
        <ele>1133.7</ele>
        <time>2013-08-10T12:17:58.399Z</time>
      </trkpt>
      <trkpt lat="45.03645" lon="5.53417">
        <ele>1134.3</ele>
        <time>2013-08-10T12:18:14.496Z</time>
      </trkpt>
      <trkpt lat="45.03645" lon="5.53417">
        <ele>1140.4</ele>
        <time>2013-08-10T12:18:15.441Z</time>
      </trkpt>
      <trkpt lat="45.03645" lon="5.53417">
        <ele>1143</ele>
        <time>2013-08-10T12:18:25.348Z</time>
      </trkpt>
      <trkpt lat="45.03645" lon="5.53417">
        <ele>1143.9</ele>
        <time>2013-08-10T12:18:27.091Z</time>
      </trkpt>
      <trkpt lat="45.03645" lon="5.53417">
        <ele>1143.8</ele>
        <time>2013-08-10T12:18:27.471Z</time>
      </trkpt>
      <trkpt lat="45.03644" lon="5.53417">
        <ele>1143.7</ele>
        <time>2013-08-10T12:18:28.417Z</time>
      </trkpt>
      <trkpt lat="45.03643" lon="5.5342">
        <ele>1145</ele>
        <time>2013-08-10T12:18:34.335Z</time>
      </trkpt>
      <trkpt lat="45.03643" lon="5.5342">
        <ele>1145.1</ele>
        <time>2013-08-10T12:18:35.488Z</time>
      </trkpt>
      <trkpt lat="45.03642" lon="5.5342">
        <ele>1145.3</ele>
        <time>2013-08-10T12:19:00.352Z</time>
      </trkpt>
    </trkseg>
  </trk>
</gpx>